<?xml version="1.0" encoding="UTF-8" standalone="no" ?>
<gpx xmlns="http://www.topografix.com/GPX/1/1" xmlns:xsi="http://www.w3.org/2001/XMLSchema-instance" xsi:schemaLocation="http://www.topografix.com/GPX/1/1 http://www.topografix.com/GPX/1/1/gpx.xsd" version="1.1" creator="VisuGPX - https://www.visugpx.com">
  <metadata>
    <name>Marche 10 Avril</name>
    <desc><![CDATA[Marche 10 Avril avec pique nique au Surchaud]]></desc>
  </metadata>
  <trk>
    <name><![CDATA[Boulevard François Blancho]]></name>
    <desc><![CDATA[]]></desc>
    <trkseg>
      <trkpt lat="47.21224" lon="-1.73565">
        <ele>48.3</ele>
        <time>2016-04-10T06:58:37.954Z</time>
      </trkpt>
      <trkpt lat="47.21224" lon="-1.73565">
        <ele>58.8</ele>
        <time>2016-04-10T06:58:54.228Z</time>
      </trkpt>
      <trkpt lat="47.21235" lon="-1.73575">
        <ele>54.4</ele>
        <time>2016-04-10T06:58:57.167Z</time>
      </trkpt>
      <trkpt lat="47.21226" lon="-1.73575">
        <ele>51</ele>
        <time>2016-04-10T06:59:29.878Z</time>
      </trkpt>
      <trkpt lat="47.21224" lon="-1.73577">
        <ele>51.1</ele>
        <time>2016-04-10T06:59:30.700Z</time>
      </trkpt>
      <trkpt lat="47.21217" lon="-1.73583">
        <ele>51.5</ele>
        <time>2016-04-10T06:59:34.633Z</time>
      </trkpt>
      <trkpt lat="47.21215" lon="-1.73584">
        <ele>51.6</ele>
        <time>2016-04-10T06:59:35.645Z</time>
      </trkpt>
      <trkpt lat="47.21208" lon="-1.73589">
        <ele>52.2</ele>
        <time>2016-04-10T06:59:39.942Z</time>
      </trkpt>
      <trkpt lat="47.21207" lon="-1.7359">
        <ele>52.3</ele>
        <time>2016-04-10T06:59:40.703Z</time>
      </trkpt>
      <trkpt lat="47.21198" lon="-1.73594">
        <ele>52.6</ele>
        <time>2016-04-10T06:59:45.675Z</time>
      </trkpt>
      <trkpt lat="47.21197" lon="-1.73595">
        <ele>52.7</ele>
        <time>2016-04-10T06:59:46.515Z</time>
      </trkpt>
      <trkpt lat="47.21189" lon="-1.73592">
        <ele>53</ele>
        <time>2016-04-10T06:59:51.588Z</time>
      </trkpt>
      <trkpt lat="47.21188" lon="-1.7359">
        <ele>53.1</ele>
        <time>2016-04-10T06:59:52.509Z</time>
      </trkpt>
      <trkpt lat="47.2118" lon="-1.73589">
        <ele>53.2</ele>
        <time>2016-04-10T06:59:57.568Z</time>
      </trkpt>
      <trkpt lat="47.21178" lon="-1.73591">
        <ele>53.2</ele>
        <time>2016-04-10T06:59:58.518Z</time>
      </trkpt>
      <trkpt lat="47.21171" lon="-1.73595">
        <ele>53.3</ele>
        <time>2016-04-10T07:00:02.593Z</time>
      </trkpt>
      <trkpt lat="47.2117" lon="-1.73596">
        <ele>53.4</ele>
        <time>2016-04-10T07:00:03.453Z</time>
      </trkpt>
      <trkpt lat="47.21162" lon="-1.736">
        <ele>53.7</ele>
        <time>2016-04-10T07:00:08.663Z</time>
      </trkpt>
      <trkpt lat="47.2116" lon="-1.73601">
        <ele>53.7</ele>
        <time>2016-04-10T07:00:09.490Z</time>
      </trkpt>
      <trkpt lat="47.21152" lon="-1.73605">
        <ele>53.8</ele>
        <time>2016-04-10T07:00:14.607Z</time>
      </trkpt>
      <trkpt lat="47.2115" lon="-1.73606">
        <ele>53.8</ele>
        <time>2016-04-10T07:00:15.501Z</time>
      </trkpt>
      <trkpt lat="47.21142" lon="-1.73608">
        <ele>53.9</ele>
        <time>2016-04-10T07:00:19.664Z</time>
      </trkpt>
      <trkpt lat="47.2114" lon="-1.73609">
        <ele>53.9</ele>
        <time>2016-04-10T07:00:20.522Z</time>
      </trkpt>
      <trkpt lat="47.21132" lon="-1.7361">
        <ele>54.2</ele>
        <time>2016-04-10T07:00:25.619Z</time>
      </trkpt>
      <trkpt lat="47.2113" lon="-1.73611">
        <ele>54.2</ele>
        <time>2016-04-10T07:00:26.463Z</time>
      </trkpt>
      <trkpt lat="47.21121" lon="-1.73615">
        <ele>54.5</ele>
        <time>2016-04-10T07:00:31.565Z</time>
      </trkpt>
      <trkpt lat="47.21119" lon="-1.73616">
        <ele>54.5</ele>
        <time>2016-04-10T07:00:32.503Z</time>
      </trkpt>
      <trkpt lat="47.21113" lon="-1.73624">
        <ele>54.7</ele>
        <time>2016-04-10T07:00:37.615Z</time>
      </trkpt>
      <trkpt lat="47.21112" lon="-1.73626">
        <ele>54.7</ele>
        <time>2016-04-10T07:00:38.536Z</time>
      </trkpt>
      <trkpt lat="47.21107" lon="-1.73637">
        <ele>55</ele>
        <time>2016-04-10T07:00:44.580Z</time>
      </trkpt>
      <trkpt lat="47.21106" lon="-1.7364">
        <ele>55.1</ele>
        <time>2016-04-10T07:00:45.523Z</time>
      </trkpt>
      <trkpt lat="47.21104" lon="-1.73651">
        <ele>55.1</ele>
        <time>2016-04-10T07:00:49.585Z</time>
      </trkpt>
      <trkpt lat="47.21104" lon="-1.73654">
        <ele>55.1</ele>
        <time>2016-04-10T07:00:50.495Z</time>
      </trkpt>
      <trkpt lat="47.21104" lon="-1.73667">
        <ele>55.1</ele>
        <time>2016-04-10T07:00:55.700Z</time>
      </trkpt>
      <trkpt lat="47.21105" lon="-1.73669">
        <ele>55</ele>
        <time>2016-04-10T07:00:56.466Z</time>
      </trkpt>
      <trkpt lat="47.21106" lon="-1.73679">
        <ele>55.1</ele>
        <time>2016-04-10T07:00:59.612Z</time>
      </trkpt>
      <trkpt lat="47.21106" lon="-1.73682">
        <ele>55.1</ele>
        <time>2016-04-10T07:01:00.778Z</time>
      </trkpt>
      <trkpt lat="47.21107" lon="-1.73695">
        <ele>55.2</ele>
        <time>2016-04-10T07:01:05.664Z</time>
      </trkpt>
      <trkpt lat="47.21107" lon="-1.73697">
        <ele>55.2</ele>
        <time>2016-04-10T07:01:06.553Z</time>
      </trkpt>
      <trkpt lat="47.21108" lon="-1.73708">
        <ele>55.3</ele>
        <time>2016-04-10T07:01:10.618Z</time>
      </trkpt>
      <trkpt lat="47.21109" lon="-1.73711">
        <ele>55.3</ele>
        <time>2016-04-10T07:01:11.501Z</time>
      </trkpt>
      <trkpt lat="47.2111" lon="-1.73722">
        <ele>55.3</ele>
        <time>2016-04-10T07:01:16.612Z</time>
      </trkpt>
      <trkpt lat="47.2111" lon="-1.73725">
        <ele>55.4</ele>
        <time>2016-04-10T07:01:17.497Z</time>
      </trkpt>
      <trkpt lat="47.21112" lon="-1.73737">
        <ele>55.4</ele>
        <time>2016-04-10T07:01:23.012Z</time>
      </trkpt>
      <trkpt lat="47.21112" lon="-1.7374">
        <ele>55.4</ele>
        <time>2016-04-10T07:01:23.459Z</time>
      </trkpt>
      <trkpt lat="47.21114" lon="-1.73751">
        <ele>55.5</ele>
        <time>2016-04-10T07:01:27.660Z</time>
      </trkpt>
      <trkpt lat="47.21114" lon="-1.73754">
        <ele>55.4</ele>
        <time>2016-04-10T07:01:28.525Z</time>
      </trkpt>
      <trkpt lat="47.21116" lon="-1.73765">
        <ele>55.3</ele>
        <time>2016-04-10T07:01:32.603Z</time>
      </trkpt>
      <trkpt lat="47.21116" lon="-1.73767">
        <ele>55.2</ele>
        <time>2016-04-10T07:01:33.572Z</time>
      </trkpt>
      <trkpt lat="47.21119" lon="-1.73778">
        <ele>55.1</ele>
        <time>2016-04-10T07:01:38.673Z</time>
      </trkpt>
      <trkpt lat="47.2112" lon="-1.7378">
        <ele>55</ele>
        <time>2016-04-10T07:01:39.501Z</time>
      </trkpt>
      <trkpt lat="47.21123" lon="-1.73792">
        <ele>55.1</ele>
        <time>2016-04-10T07:01:45.534Z</time>
      </trkpt>
      <trkpt lat="47.21124" lon="-1.73794">
        <ele>55.1</ele>
        <time>2016-04-10T07:01:46.542Z</time>
      </trkpt>
      <trkpt lat="47.21126" lon="-1.73805">
        <ele>55.1</ele>
        <time>2016-04-10T07:01:50.674Z</time>
      </trkpt>
      <trkpt lat="47.21126" lon="-1.73807">
        <ele>55.1</ele>
        <time>2016-04-10T07:01:51.503Z</time>
      </trkpt>
      <trkpt lat="47.21129" lon="-1.73819">
        <ele>55.2</ele>
        <time>2016-04-10T07:01:57.599Z</time>
      </trkpt>
      <trkpt lat="47.21129" lon="-1.73821">
        <ele>55.2</ele>
        <time>2016-04-10T07:01:58.528Z</time>
      </trkpt>
      <trkpt lat="47.21132" lon="-1.73831">
        <ele>55.5</ele>
        <time>2016-04-10T07:02:02.588Z</time>
      </trkpt>
      <trkpt lat="47.21133" lon="-1.73833">
        <ele>55.7</ele>
        <time>2016-04-10T07:02:03.502Z</time>
      </trkpt>
      <trkpt lat="47.21135" lon="-1.73846">
        <ele>56.5</ele>
        <time>2016-04-10T07:02:16.665Z</time>
      </trkpt>
      <trkpt lat="47.21135" lon="-1.73848">
        <ele>56.4</ele>
        <time>2016-04-10T07:02:17.512Z</time>
      </trkpt>
      <trkpt lat="47.21136" lon="-1.7386">
        <ele>56.4</ele>
        <time>2016-04-10T07:02:23.599Z</time>
      </trkpt>
      <trkpt lat="47.21137" lon="-1.73863">
        <ele>56.4</ele>
        <time>2016-04-10T07:02:24.454Z</time>
      </trkpt>
      <trkpt lat="47.21139" lon="-1.73876">
        <ele>56.2</ele>
        <time>2016-04-10T07:02:28.666Z</time>
      </trkpt>
      <trkpt lat="47.2114" lon="-1.73877">
        <ele>56.1</ele>
        <time>2016-04-10T07:02:29.506Z</time>
      </trkpt>
      <trkpt lat="47.21142" lon="-1.73888">
        <ele>56</ele>
        <time>2016-04-10T07:02:34.612Z</time>
      </trkpt>
      <trkpt lat="47.21143" lon="-1.7389">
        <ele>56</ele>
        <time>2016-04-10T07:02:35.489Z</time>
      </trkpt>
      <trkpt lat="47.21145" lon="-1.73901">
        <ele>56</ele>
        <time>2016-04-10T07:02:40.597Z</time>
      </trkpt>
      <trkpt lat="47.21146" lon="-1.73904">
        <ele>56</ele>
        <time>2016-04-10T07:02:41.591Z</time>
      </trkpt>
      <trkpt lat="47.21149" lon="-1.73915">
        <ele>55.9</ele>
        <time>2016-04-10T07:02:47.522Z</time>
      </trkpt>
      <trkpt lat="47.21149" lon="-1.73917">
        <ele>55.9</ele>
        <time>2016-04-10T07:02:48.512Z</time>
      </trkpt>
      <trkpt lat="47.21152" lon="-1.73929">
        <ele>55.8</ele>
        <time>2016-04-10T07:03:01.605Z</time>
      </trkpt>
      <trkpt lat="47.21153" lon="-1.7393">
        <ele>55.8</ele>
        <time>2016-04-10T07:03:02.508Z</time>
      </trkpt>
      <trkpt lat="47.21154" lon="-1.73941">
        <ele>56.9</ele>
        <time>2016-04-10T07:03:23.538Z</time>
      </trkpt>
      <trkpt lat="47.21154" lon="-1.73943">
        <ele>56.9</ele>
        <time>2016-04-10T07:03:24.511Z</time>
      </trkpt>
      <trkpt lat="47.21156" lon="-1.73954">
        <ele>56.8</ele>
        <time>2016-04-10T07:03:28.595Z</time>
      </trkpt>
      <trkpt lat="47.21156" lon="-1.73956">
        <ele>56.8</ele>
        <time>2016-04-10T07:03:29.605Z</time>
      </trkpt>
      <trkpt lat="47.21157" lon="-1.73966">
        <ele>56.7</ele>
        <time>2016-04-10T07:03:33.630Z</time>
      </trkpt>
      <trkpt lat="47.21158" lon="-1.73969">
        <ele>56.7</ele>
        <time>2016-04-10T07:03:34.501Z</time>
      </trkpt>
      <trkpt lat="47.2116" lon="-1.73982">
        <ele>56.6</ele>
        <time>2016-04-10T07:03:39.517Z</time>
      </trkpt>
      <trkpt lat="47.2116" lon="-1.73984">
        <ele>56.5</ele>
        <time>2016-04-10T07:03:40.501Z</time>
      </trkpt>
      <trkpt lat="47.21162" lon="-1.73996">
        <ele>56.4</ele>
        <time>2016-04-10T07:03:45.589Z</time>
      </trkpt>
      <trkpt lat="47.21163" lon="-1.73998">
        <ele>56.3</ele>
        <time>2016-04-10T07:03:46.501Z</time>
      </trkpt>
      <trkpt lat="47.21164" lon="-1.74008">
        <ele>56.3</ele>
        <time>2016-04-10T07:03:50.560Z</time>
      </trkpt>
      <trkpt lat="47.21164" lon="-1.74011">
        <ele>56.2</ele>
        <time>2016-04-10T07:03:51.498Z</time>
      </trkpt>
      <trkpt lat="47.21166" lon="-1.74024">
        <ele>55.9</ele>
        <time>2016-04-10T07:03:56.613Z</time>
      </trkpt>
      <trkpt lat="47.21166" lon="-1.74027">
        <ele>55.8</ele>
        <time>2016-04-10T07:03:57.497Z</time>
      </trkpt>
      <trkpt lat="47.21166" lon="-1.74039">
        <ele>55.4</ele>
        <time>2016-04-10T07:04:02.560Z</time>
      </trkpt>
      <trkpt lat="47.21166" lon="-1.74041">
        <ele>55.3</ele>
        <time>2016-04-10T07:04:03.526Z</time>
      </trkpt>
      <trkpt lat="47.21165" lon="-1.74052">
        <ele>54.9</ele>
        <time>2016-04-10T07:04:08.625Z</time>
      </trkpt>
      <trkpt lat="47.21165" lon="-1.74055">
        <ele>54.9</ele>
        <time>2016-04-10T07:04:09.506Z</time>
      </trkpt>
      <trkpt lat="47.21166" lon="-1.74066">
        <ele>54.5</ele>
        <time>2016-04-10T07:04:14.571Z</time>
      </trkpt>
      <trkpt lat="47.21166" lon="-1.74069">
        <ele>54.5</ele>
        <time>2016-04-10T07:04:15.517Z</time>
      </trkpt>
      <trkpt lat="47.21161" lon="-1.7408">
        <ele>54.4</ele>
        <time>2016-04-10T07:04:20.583Z</time>
      </trkpt>
      <trkpt lat="47.21159" lon="-1.74082">
        <ele>54.4</ele>
        <time>2016-04-10T07:04:21.524Z</time>
      </trkpt>
      <trkpt lat="47.21153" lon="-1.74088">
        <ele>54.3</ele>
        <time>2016-04-10T07:04:27.548Z</time>
      </trkpt>
      <trkpt lat="47.21152" lon="-1.7409">
        <ele>54.4</ele>
        <time>2016-04-10T07:04:28.514Z</time>
      </trkpt>
      <trkpt lat="47.21147" lon="-1.741">
        <ele>54.7</ele>
        <time>2016-04-10T07:04:33.585Z</time>
      </trkpt>
      <trkpt lat="47.21145" lon="-1.74102">
        <ele>54.8</ele>
        <time>2016-04-10T07:04:34.509Z</time>
      </trkpt>
      <trkpt lat="47.2114" lon="-1.7411">
        <ele>54.9</ele>
        <time>2016-04-10T07:04:38.918Z</time>
      </trkpt>
      <trkpt lat="47.21139" lon="-1.74112">
        <ele>55</ele>
        <time>2016-04-10T07:04:39.506Z</time>
      </trkpt>
      <trkpt lat="47.21134" lon="-1.7412">
        <ele>55.3</ele>
        <time>2016-04-10T07:04:47.668Z</time>
      </trkpt>
      <trkpt lat="47.21133" lon="-1.74122">
        <ele>55.3</ele>
        <time>2016-04-10T07:04:48.512Z</time>
      </trkpt>
      <trkpt lat="47.21126" lon="-1.7413">
        <ele>55.6</ele>
        <time>2016-04-10T07:04:56.604Z</time>
      </trkpt>
      <trkpt lat="47.21125" lon="-1.74132">
        <ele>55.7</ele>
        <time>2016-04-10T07:04:57.513Z</time>
      </trkpt>
      <trkpt lat="47.21119" lon="-1.74139">
        <ele>55.7</ele>
        <time>2016-04-10T07:05:03.570Z</time>
      </trkpt>
      <trkpt lat="47.21118" lon="-1.74141">
        <ele>55.6</ele>
        <time>2016-04-10T07:05:04.512Z</time>
      </trkpt>
      <trkpt lat="47.21112" lon="-1.7415">
        <ele>55.5</ele>
        <time>2016-04-10T07:05:10.535Z</time>
      </trkpt>
      <trkpt lat="47.21111" lon="-1.74151">
        <ele>55.4</ele>
        <time>2016-04-10T07:05:11.636Z</time>
      </trkpt>
      <trkpt lat="47.21104" lon="-1.74158">
        <ele>55.4</ele>
        <time>2016-04-10T07:05:18.615Z</time>
      </trkpt>
      <trkpt lat="47.21103" lon="-1.74159">
        <ele>55.4</ele>
        <time>2016-04-10T07:05:19.525Z</time>
      </trkpt>
      <trkpt lat="47.21096" lon="-1.74166">
        <ele>55.5</ele>
        <time>2016-04-10T07:05:26.604Z</time>
      </trkpt>
      <trkpt lat="47.21095" lon="-1.74167">
        <ele>55.6</ele>
        <time>2016-04-10T07:05:27.499Z</time>
      </trkpt>
      <trkpt lat="47.21089" lon="-1.74176">
        <ele>55.6</ele>
        <time>2016-04-10T07:05:33.740Z</time>
      </trkpt>
      <trkpt lat="47.21088" lon="-1.74178">
        <ele>55.6</ele>
        <time>2016-04-10T07:05:34.516Z</time>
      </trkpt>
      <trkpt lat="47.21083" lon="-1.74187">
        <ele>55.8</ele>
        <time>2016-04-10T07:05:41.619Z</time>
      </trkpt>
      <trkpt lat="47.21082" lon="-1.74188">
        <ele>55.8</ele>
        <time>2016-04-10T07:05:42.512Z</time>
      </trkpt>
      <trkpt lat="47.21076" lon="-1.74197">
        <ele>55.9</ele>
        <time>2016-04-10T07:05:48.604Z</time>
      </trkpt>
      <trkpt lat="47.21075" lon="-1.74198">
        <ele>55.9</ele>
        <time>2016-04-10T07:05:49.510Z</time>
      </trkpt>
      <trkpt lat="47.21069" lon="-1.74206">
        <ele>55.9</ele>
        <time>2016-04-10T07:05:55.068Z</time>
      </trkpt>
      <trkpt lat="47.21068" lon="-1.74208">
        <ele>55.9</ele>
        <time>2016-04-10T07:05:55.483Z</time>
      </trkpt>
      <trkpt lat="47.21063" lon="-1.74217">
        <ele>56</ele>
        <time>2016-04-10T07:06:01.584Z</time>
      </trkpt>
      <trkpt lat="47.21062" lon="-1.74219">
        <ele>56</ele>
        <time>2016-04-10T07:06:02.508Z</time>
      </trkpt>
      <trkpt lat="47.21058" lon="-1.74229">
        <ele>56.1</ele>
        <time>2016-04-10T07:06:08.625Z</time>
      </trkpt>
      <trkpt lat="47.21057" lon="-1.74231">
        <ele>56.1</ele>
        <time>2016-04-10T07:06:09.508Z</time>
      </trkpt>
      <trkpt lat="47.21052" lon="-1.74241">
        <ele>56.4</ele>
        <time>2016-04-10T07:06:15.627Z</time>
      </trkpt>
      <trkpt lat="47.21051" lon="-1.74242">
        <ele>56.4</ele>
        <time>2016-04-10T07:06:16.461Z</time>
      </trkpt>
      <trkpt lat="47.21046" lon="-1.74252">
        <ele>56.8</ele>
        <time>2016-04-10T07:06:22.586Z</time>
      </trkpt>
      <trkpt lat="47.21046" lon="-1.74254">
        <ele>56.8</ele>
        <time>2016-04-10T07:06:23.511Z</time>
      </trkpt>
      <trkpt lat="47.21041" lon="-1.74264">
        <ele>56.9</ele>
        <time>2016-04-10T07:06:29.617Z</time>
      </trkpt>
      <trkpt lat="47.2104" lon="-1.74266">
        <ele>56.8</ele>
        <time>2016-04-10T07:06:30.513Z</time>
      </trkpt>
      <trkpt lat="47.21036" lon="-1.74276">
        <ele>56.7</ele>
        <time>2016-04-10T07:06:36.648Z</time>
      </trkpt>
      <trkpt lat="47.21035" lon="-1.74278">
        <ele>56.7</ele>
        <time>2016-04-10T07:06:37.515Z</time>
      </trkpt>
      <trkpt lat="47.21031" lon="-1.74289">
        <ele>56.9</ele>
        <time>2016-04-10T07:06:44.532Z</time>
      </trkpt>
      <trkpt lat="47.2103" lon="-1.74291">
        <ele>57</ele>
        <time>2016-04-10T07:06:45.516Z</time>
      </trkpt>
      <trkpt lat="47.21026" lon="-1.743">
        <ele>57.4</ele>
        <time>2016-04-10T07:06:51.651Z</time>
      </trkpt>
      <trkpt lat="47.21025" lon="-1.74302">
        <ele>57.5</ele>
        <time>2016-04-10T07:06:52.460Z</time>
      </trkpt>
      <trkpt lat="47.21021" lon="-1.74312">
        <ele>57.5</ele>
        <time>2016-04-10T07:06:58.670Z</time>
      </trkpt>
      <trkpt lat="47.2102" lon="-1.74313">
        <ele>57.5</ele>
        <time>2016-04-10T07:06:59.548Z</time>
      </trkpt>
      <trkpt lat="47.21013" lon="-1.74321">
        <ele>57.4</ele>
        <time>2016-04-10T07:07:06.535Z</time>
      </trkpt>
      <trkpt lat="47.21013" lon="-1.74322">
        <ele>57.4</ele>
        <time>2016-04-10T07:07:07.556Z</time>
      </trkpt>
      <trkpt lat="47.21009" lon="-1.74332">
        <ele>57.6</ele>
        <time>2016-04-10T07:07:13.601Z</time>
      </trkpt>
      <trkpt lat="47.21009" lon="-1.74334">
        <ele>57.7</ele>
        <time>2016-04-10T07:07:14.469Z</time>
      </trkpt>
      <trkpt lat="47.21005" lon="-1.74345">
        <ele>58.4</ele>
        <time>2016-04-10T07:07:21.560Z</time>
      </trkpt>
      <trkpt lat="47.21004" lon="-1.74346">
        <ele>58.4</ele>
        <time>2016-04-10T07:07:22.475Z</time>
      </trkpt>
      <trkpt lat="47.21001" lon="-1.74356">
        <ele>58.7</ele>
        <time>2016-04-10T07:07:28.600Z</time>
      </trkpt>
      <trkpt lat="47.21" lon="-1.74359">
        <ele>58.8</ele>
        <time>2016-04-10T07:07:29.476Z</time>
      </trkpt>
      <trkpt lat="47.20997" lon="-1.74371">
        <ele>58.8</ele>
        <time>2016-04-10T07:07:36.563Z</time>
      </trkpt>
      <trkpt lat="47.20997" lon="-1.74373">
        <ele>58.8</ele>
        <time>2016-04-10T07:07:37.485Z</time>
      </trkpt>
      <trkpt lat="47.20996" lon="-1.74384">
        <ele>58.5</ele>
        <time>2016-04-10T07:07:44.579Z</time>
      </trkpt>
      <trkpt lat="47.20995" lon="-1.74387">
        <ele>58.5</ele>
        <time>2016-04-10T07:07:45.488Z</time>
      </trkpt>
      <trkpt lat="47.20996" lon="-1.74398">
        <ele>58.6</ele>
        <time>2016-04-10T07:07:51.579Z</time>
      </trkpt>
      <trkpt lat="47.20996" lon="-1.744">
        <ele>58.6</ele>
        <time>2016-04-10T07:07:52.479Z</time>
      </trkpt>
      <trkpt lat="47.20996" lon="-1.74412">
        <ele>58.8</ele>
        <time>2016-04-10T07:07:57.544Z</time>
      </trkpt>
      <trkpt lat="47.20996" lon="-1.74414">
        <ele>58.8</ele>
        <time>2016-04-10T07:07:58.486Z</time>
      </trkpt>
      <trkpt lat="47.20995" lon="-1.74427">
        <ele>58.7</ele>
        <time>2016-04-10T07:08:05.579Z</time>
      </trkpt>
      <trkpt lat="47.20995" lon="-1.74429">
        <ele>58.7</ele>
        <time>2016-04-10T07:08:06.525Z</time>
      </trkpt>
      <trkpt lat="47.20994" lon="-1.74441">
        <ele>58.9</ele>
        <time>2016-04-10T07:08:13.779Z</time>
      </trkpt>
      <trkpt lat="47.20994" lon="-1.74443">
        <ele>59</ele>
        <time>2016-04-10T07:08:14.598Z</time>
      </trkpt>
      <trkpt lat="47.20994" lon="-1.74456">
        <ele>59</ele>
        <time>2016-04-10T07:08:21.628Z</time>
      </trkpt>
      <trkpt lat="47.20993" lon="-1.74457">
        <ele>59</ele>
        <time>2016-04-10T07:08:22.478Z</time>
      </trkpt>
      <trkpt lat="47.20991" lon="-1.74469">
        <ele>59</ele>
        <time>2016-04-10T07:08:31.571Z</time>
      </trkpt>
      <trkpt lat="47.20991" lon="-1.74471">
        <ele>59</ele>
        <time>2016-04-10T07:08:32.485Z</time>
      </trkpt>
      <trkpt lat="47.2099" lon="-1.74483">
        <ele>58.5</ele>
        <time>2016-04-10T07:08:40.556Z</time>
      </trkpt>
      <trkpt lat="47.2099" lon="-1.74486">
        <ele>58.4</ele>
        <time>2016-04-10T07:08:41.477Z</time>
      </trkpt>
      <trkpt lat="47.2099" lon="-1.74499">
        <ele>58</ele>
        <time>2016-04-10T07:08:46.648Z</time>
      </trkpt>
      <trkpt lat="47.2099" lon="-1.745">
        <ele>58</ele>
        <time>2016-04-10T07:08:47.476Z</time>
      </trkpt>
      <trkpt lat="47.20989" lon="-1.74512">
        <ele>57.8</ele>
        <time>2016-04-10T07:08:52.537Z</time>
      </trkpt>
      <trkpt lat="47.20989" lon="-1.74514">
        <ele>57.9</ele>
        <time>2016-04-10T07:08:53.517Z</time>
      </trkpt>
      <trkpt lat="47.20987" lon="-1.74526">
        <ele>58.3</ele>
        <time>2016-04-10T07:08:59.548Z</time>
      </trkpt>
      <trkpt lat="47.20987" lon="-1.74527">
        <ele>58.4</ele>
        <time>2016-04-10T07:09:00.494Z</time>
      </trkpt>
      <trkpt lat="47.20984" lon="-1.74539">
        <ele>58.7</ele>
        <time>2016-04-10T07:09:07.542Z</time>
      </trkpt>
      <trkpt lat="47.20983" lon="-1.7454">
        <ele>58.8</ele>
        <time>2016-04-10T07:09:08.492Z</time>
      </trkpt>
      <trkpt lat="47.2098" lon="-1.74551">
        <ele>59</ele>
        <time>2016-04-10T07:09:15.663Z</time>
      </trkpt>
      <trkpt lat="47.2098" lon="-1.74553">
        <ele>59.1</ele>
        <time>2016-04-10T07:09:16.482Z</time>
      </trkpt>
      <trkpt lat="47.20978" lon="-1.74565">
        <ele>59.2</ele>
        <time>2016-04-10T07:09:22.545Z</time>
      </trkpt>
      <trkpt lat="47.20978" lon="-1.74568">
        <ele>59.2</ele>
        <time>2016-04-10T07:09:23.485Z</time>
      </trkpt>
      <trkpt lat="47.20978" lon="-1.74581">
        <ele>59</ele>
        <time>2016-04-10T07:09:29.538Z</time>
      </trkpt>
      <trkpt lat="47.20978" lon="-1.74583">
        <ele>58.9</ele>
        <time>2016-04-10T07:09:30.478Z</time>
      </trkpt>
      <trkpt lat="47.20977" lon="-1.74594">
        <ele>58.5</ele>
        <time>2016-04-10T07:09:35.509Z</time>
      </trkpt>
      <trkpt lat="47.20977" lon="-1.74597">
        <ele>58.5</ele>
        <time>2016-04-10T07:09:36.491Z</time>
      </trkpt>
      <trkpt lat="47.20975" lon="-1.74608">
        <ele>58.2</ele>
        <time>2016-04-10T07:09:42.557Z</time>
      </trkpt>
      <trkpt lat="47.20974" lon="-1.7461">
        <ele>58.1</ele>
        <time>2016-04-10T07:09:43.482Z</time>
      </trkpt>
      <trkpt lat="47.20973" lon="-1.74621">
        <ele>58</ele>
        <time>2016-04-10T07:09:51.575Z</time>
      </trkpt>
      <trkpt lat="47.20973" lon="-1.74624">
        <ele>58</ele>
        <time>2016-04-10T07:09:52.488Z</time>
      </trkpt>
      <trkpt lat="47.20972" lon="-1.74636">
        <ele>58.2</ele>
        <time>2016-04-10T07:09:59.607Z</time>
      </trkpt>
      <trkpt lat="47.20972" lon="-1.74639">
        <ele>58.3</ele>
        <time>2016-04-10T07:10:00.600Z</time>
      </trkpt>
      <trkpt lat="47.2097" lon="-1.7465">
        <ele>58.5</ele>
        <time>2016-04-10T07:10:06.586Z</time>
      </trkpt>
      <trkpt lat="47.2097" lon="-1.74653">
        <ele>58.5</ele>
        <time>2016-04-10T07:10:07.490Z</time>
      </trkpt>
      <trkpt lat="47.20969" lon="-1.74666">
        <ele>58.8</ele>
        <time>2016-04-10T07:10:14.025Z</time>
      </trkpt>
      <trkpt lat="47.20969" lon="-1.74667">
        <ele>58.9</ele>
        <time>2016-04-10T07:10:14.471Z</time>
      </trkpt>
      <trkpt lat="47.20967" lon="-1.74679">
        <ele>59.1</ele>
        <time>2016-04-10T07:10:21.609Z</time>
      </trkpt>
      <trkpt lat="47.20967" lon="-1.74681">
        <ele>59.1</ele>
        <time>2016-04-10T07:10:22.482Z</time>
      </trkpt>
      <trkpt lat="47.20966" lon="-1.74692">
        <ele>58.7</ele>
        <time>2016-04-10T07:10:30.576Z</time>
      </trkpt>
      <trkpt lat="47.20966" lon="-1.74694">
        <ele>58.6</ele>
        <time>2016-04-10T07:10:31.475Z</time>
      </trkpt>
      <trkpt lat="47.20964" lon="-1.74706">
        <ele>58.2</ele>
        <time>2016-04-10T07:10:37.561Z</time>
      </trkpt>
      <trkpt lat="47.20964" lon="-1.74708">
        <ele>58.1</ele>
        <time>2016-04-10T07:10:38.528Z</time>
      </trkpt>
      <trkpt lat="47.20963" lon="-1.7472">
        <ele>57.5</ele>
        <time>2016-04-10T07:10:45.788Z</time>
      </trkpt>
      <trkpt lat="47.20962" lon="-1.74722">
        <ele>57.5</ele>
        <time>2016-04-10T07:10:46.484Z</time>
      </trkpt>
      <trkpt lat="47.20961" lon="-1.74734">
        <ele>57.1</ele>
        <time>2016-04-10T07:10:53.497Z</time>
      </trkpt>
      <trkpt lat="47.20961" lon="-1.74736">
        <ele>57</ele>
        <time>2016-04-10T07:10:54.503Z</time>
      </trkpt>
      <trkpt lat="47.20961" lon="-1.74749">
        <ele>56.5</ele>
        <time>2016-04-10T07:11:01.478Z</time>
      </trkpt>
      <trkpt lat="47.20961" lon="-1.74751">
        <ele>56.4</ele>
        <time>2016-04-10T07:11:02.489Z</time>
      </trkpt>
      <trkpt lat="47.20961" lon="-1.74763">
        <ele>56.2</ele>
        <time>2016-04-10T07:11:08.585Z</time>
      </trkpt>
      <trkpt lat="47.2096" lon="-1.74765">
        <ele>56.3</ele>
        <time>2016-04-10T07:11:09.489Z</time>
      </trkpt>
      <trkpt lat="47.20959" lon="-1.74778">
        <ele>56.8</ele>
        <time>2016-04-10T07:11:17.506Z</time>
      </trkpt>
      <trkpt lat="47.20959" lon="-1.7478">
        <ele>56.9</ele>
        <time>2016-04-10T07:11:18.481Z</time>
      </trkpt>
      <trkpt lat="47.20957" lon="-1.74792">
        <ele>56.8</ele>
        <time>2016-04-10T07:11:26.529Z</time>
      </trkpt>
      <trkpt lat="47.20957" lon="-1.74794">
        <ele>56.7</ele>
        <time>2016-04-10T07:11:27.473Z</time>
      </trkpt>
      <trkpt lat="47.20956" lon="-1.74806">
        <ele>56.4</ele>
        <time>2016-04-10T07:11:34.558Z</time>
      </trkpt>
      <trkpt lat="47.20956" lon="-1.74808">
        <ele>56.4</ele>
        <time>2016-04-10T07:11:35.940Z</time>
      </trkpt>
      <trkpt lat="47.20954" lon="-1.74821">
        <ele>56.3</ele>
        <time>2016-04-10T07:11:41.559Z</time>
      </trkpt>
      <trkpt lat="47.20954" lon="-1.74823">
        <ele>56.3</ele>
        <time>2016-04-10T07:11:42.488Z</time>
      </trkpt>
      <trkpt lat="47.20951" lon="-1.74834">
        <ele>56.3</ele>
        <time>2016-04-10T07:11:49.586Z</time>
      </trkpt>
      <trkpt lat="47.20951" lon="-1.74837">
        <ele>56.3</ele>
        <time>2016-04-10T07:11:50.540Z</time>
      </trkpt>
      <trkpt lat="47.20949" lon="-1.7485">
        <ele>57</ele>
        <time>2016-04-10T07:11:57.751Z</time>
      </trkpt>
      <trkpt lat="47.20949" lon="-1.74851">
        <ele>57.1</ele>
        <time>2016-04-10T07:11:58.479Z</time>
      </trkpt>
      <trkpt lat="47.20945" lon="-1.74862">
        <ele>57.8</ele>
        <time>2016-04-10T07:12:05.555Z</time>
      </trkpt>
      <trkpt lat="47.20944" lon="-1.74863">
        <ele>57.9</ele>
        <time>2016-04-10T07:12:06.508Z</time>
      </trkpt>
      <trkpt lat="47.20939" lon="-1.74872">
        <ele>58.5</ele>
        <time>2016-04-10T07:12:13.679Z</time>
      </trkpt>
      <trkpt lat="47.20938" lon="-1.74873">
        <ele>58.5</ele>
        <time>2016-04-10T07:12:14.487Z</time>
      </trkpt>
      <trkpt lat="47.20931" lon="-1.74879">
        <ele>59</ele>
        <time>2016-04-10T07:12:21.621Z</time>
      </trkpt>
      <trkpt lat="47.2093" lon="-1.7488">
        <ele>59.1</ele>
        <time>2016-04-10T07:12:22.626Z</time>
      </trkpt>
      <trkpt lat="47.20923" lon="-1.74885">
        <ele>59.5</ele>
        <time>2016-04-10T07:12:30.584Z</time>
      </trkpt>
      <trkpt lat="47.20921" lon="-1.74886">
        <ele>59.6</ele>
        <time>2016-04-10T07:12:31.915Z</time>
      </trkpt>
      <trkpt lat="47.20913" lon="-1.74889">
        <ele>59.6</ele>
        <time>2016-04-10T07:12:37.641Z</time>
      </trkpt>
      <trkpt lat="47.20912" lon="-1.7489">
        <ele>59.6</ele>
        <time>2016-04-10T07:12:38.485Z</time>
      </trkpt>
      <trkpt lat="47.20904" lon="-1.74892">
        <ele>59.5</ele>
        <time>2016-04-10T07:12:44.565Z</time>
      </trkpt>
      <trkpt lat="47.20903" lon="-1.74892">
        <ele>59.4</ele>
        <time>2016-04-10T07:12:45.483Z</time>
      </trkpt>
      <trkpt lat="47.20896" lon="-1.74895">
        <ele>59.5</ele>
        <time>2016-04-10T07:12:54.594Z</time>
      </trkpt>
      <trkpt lat="47.20895" lon="-1.74896">
        <ele>59.5</ele>
        <time>2016-04-10T07:12:55.476Z</time>
      </trkpt>
      <trkpt lat="47.20887" lon="-1.74902">
        <ele>59.7</ele>
        <time>2016-04-10T07:13:03.546Z</time>
      </trkpt>
      <trkpt lat="47.20885" lon="-1.74902">
        <ele>59.8</ele>
        <time>2016-04-10T07:13:04.528Z</time>
      </trkpt>
      <trkpt lat="47.20878" lon="-1.74906">
        <ele>60.2</ele>
        <time>2016-04-10T07:13:10.549Z</time>
      </trkpt>
      <trkpt lat="47.20876" lon="-1.74906">
        <ele>60.2</ele>
        <time>2016-04-10T07:13:11.498Z</time>
      </trkpt>
      <trkpt lat="47.20868" lon="-1.74909">
        <ele>59.9</ele>
        <time>2016-04-10T07:13:18.560Z</time>
      </trkpt>
      <trkpt lat="47.20866" lon="-1.74909">
        <ele>59.8</ele>
        <time>2016-04-10T07:13:19.512Z</time>
      </trkpt>
      <trkpt lat="47.20858" lon="-1.74912">
        <ele>59.1</ele>
        <time>2016-04-10T07:13:25.562Z</time>
      </trkpt>
      <trkpt lat="47.20857" lon="-1.74913">
        <ele>59.1</ele>
        <time>2016-04-10T07:13:26.505Z</time>
      </trkpt>
      <trkpt lat="47.20848" lon="-1.74915">
        <ele>59</ele>
        <time>2016-04-10T07:13:35.544Z</time>
      </trkpt>
      <trkpt lat="47.20848" lon="-1.74915">
        <ele>59.1</ele>
        <time>2016-04-10T07:13:36.514Z</time>
      </trkpt>
      <trkpt lat="47.20839" lon="-1.74918">
        <ele>59.3</ele>
        <time>2016-04-10T07:13:42.655Z</time>
      </trkpt>
      <trkpt lat="47.20838" lon="-1.74918">
        <ele>59.4</ele>
        <time>2016-04-10T07:13:43.508Z</time>
      </trkpt>
      <trkpt lat="47.2083" lon="-1.7492">
        <ele>59.7</ele>
        <time>2016-04-10T07:13:49.637Z</time>
      </trkpt>
      <trkpt lat="47.20828" lon="-1.74921">
        <ele>59.6</ele>
        <time>2016-04-10T07:13:50.571Z</time>
      </trkpt>
      <trkpt lat="47.20821" lon="-1.74924">
        <ele>59.7</ele>
        <time>2016-04-10T07:13:55.585Z</time>
      </trkpt>
      <trkpt lat="47.2082" lon="-1.74924">
        <ele>59.8</ele>
        <time>2016-04-10T07:13:56.514Z</time>
      </trkpt>
      <trkpt lat="47.20811" lon="-1.74927">
        <ele>59.9</ele>
        <time>2016-04-10T07:14:03.843Z</time>
      </trkpt>
      <trkpt lat="47.20809" lon="-1.74928">
        <ele>59.9</ele>
        <time>2016-04-10T07:14:04.509Z</time>
      </trkpt>
      <trkpt lat="47.20801" lon="-1.74931">
        <ele>59.7</ele>
        <time>2016-04-10T07:14:10.526Z</time>
      </trkpt>
      <trkpt lat="47.20799" lon="-1.74931">
        <ele>59.7</ele>
        <time>2016-04-10T07:14:11.508Z</time>
      </trkpt>
      <trkpt lat="47.2079" lon="-1.74934">
        <ele>59.6</ele>
        <time>2016-04-10T07:14:18.604Z</time>
      </trkpt>
      <trkpt lat="47.20789" lon="-1.74935">
        <ele>59.7</ele>
        <time>2016-04-10T07:14:19.471Z</time>
      </trkpt>
      <trkpt lat="47.20781" lon="-1.74938">
        <ele>59.7</ele>
        <time>2016-04-10T07:14:25.529Z</time>
      </trkpt>
      <trkpt lat="47.2078" lon="-1.74938">
        <ele>59.7</ele>
        <time>2016-04-10T07:14:26.748Z</time>
      </trkpt>
      <trkpt lat="47.20773" lon="-1.74941">
        <ele>59.3</ele>
        <time>2016-04-10T07:14:32.675Z</time>
      </trkpt>
      <trkpt lat="47.20771" lon="-1.74941">
        <ele>59.3</ele>
        <time>2016-04-10T07:14:33.508Z</time>
      </trkpt>
      <trkpt lat="47.20764" lon="-1.74945">
        <ele>59</ele>
        <time>2016-04-10T07:14:39.655Z</time>
      </trkpt>
      <trkpt lat="47.20762" lon="-1.74946">
        <ele>59</ele>
        <time>2016-04-10T07:14:40.516Z</time>
      </trkpt>
      <trkpt lat="47.20754" lon="-1.7495">
        <ele>59.1</ele>
        <time>2016-04-10T07:14:45.500Z</time>
      </trkpt>
      <trkpt lat="47.20753" lon="-1.74951">
        <ele>59.2</ele>
        <time>2016-04-10T07:14:46.505Z</time>
      </trkpt>
      <trkpt lat="47.20745" lon="-1.74954">
        <ele>59.4</ele>
        <time>2016-04-10T07:14:51.626Z</time>
      </trkpt>
      <trkpt lat="47.20744" lon="-1.74955">
        <ele>59.4</ele>
        <time>2016-04-10T07:14:52.514Z</time>
      </trkpt>
      <trkpt lat="47.20735" lon="-1.74958">
        <ele>59.9</ele>
        <time>2016-04-10T07:14:58.705Z</time>
      </trkpt>
      <trkpt lat="47.20734" lon="-1.74958">
        <ele>60</ele>
        <time>2016-04-10T07:14:59.514Z</time>
      </trkpt>
      <trkpt lat="47.20725" lon="-1.7496">
        <ele>59.8</ele>
        <time>2016-04-10T07:15:05.631Z</time>
      </trkpt>
      <trkpt lat="47.20724" lon="-1.7496">
        <ele>59.8</ele>
        <time>2016-04-10T07:15:06.521Z</time>
      </trkpt>
      <trkpt lat="47.20717" lon="-1.74962">
        <ele>59.8</ele>
        <time>2016-04-10T07:15:11.612Z</time>
      </trkpt>
      <trkpt lat="47.20715" lon="-1.74963">
        <ele>59.8</ele>
        <time>2016-04-10T07:15:12.520Z</time>
      </trkpt>
      <trkpt lat="47.20707" lon="-1.74966">
        <ele>59.8</ele>
        <time>2016-04-10T07:15:18.502Z</time>
      </trkpt>
      <trkpt lat="47.20706" lon="-1.74967">
        <ele>59.8</ele>
        <time>2016-04-10T07:15:19.507Z</time>
      </trkpt>
      <trkpt lat="47.20698" lon="-1.74971">
        <ele>59.7</ele>
        <time>2016-04-10T07:15:24.575Z</time>
      </trkpt>
      <trkpt lat="47.20697" lon="-1.74972">
        <ele>59.6</ele>
        <time>2016-04-10T07:15:25.524Z</time>
      </trkpt>
      <trkpt lat="47.2069" lon="-1.74978">
        <ele>59.4</ele>
        <time>2016-04-10T07:15:30.606Z</time>
      </trkpt>
      <trkpt lat="47.20689" lon="-1.74979">
        <ele>59.4</ele>
        <time>2016-04-10T07:15:31.516Z</time>
      </trkpt>
      <trkpt lat="47.20682" lon="-1.74985">
        <ele>59</ele>
        <time>2016-04-10T07:15:37.801Z</time>
      </trkpt>
      <trkpt lat="47.2068" lon="-1.74986">
        <ele>59</ele>
        <time>2016-04-10T07:15:38.513Z</time>
      </trkpt>
      <trkpt lat="47.20674" lon="-1.74994">
        <ele>58.8</ele>
        <time>2016-04-10T07:15:44.599Z</time>
      </trkpt>
      <trkpt lat="47.20673" lon="-1.74996">
        <ele>58.7</ele>
        <time>2016-04-10T07:15:45.538Z</time>
      </trkpt>
      <trkpt lat="47.20667" lon="-1.75005">
        <ele>58.3</ele>
        <time>2016-04-10T07:15:52.614Z</time>
      </trkpt>
      <trkpt lat="47.20666" lon="-1.75006">
        <ele>58.2</ele>
        <time>2016-04-10T07:15:53.507Z</time>
      </trkpt>
      <trkpt lat="47.20662" lon="-1.75017">
        <ele>58.2</ele>
        <time>2016-04-10T07:15:59.576Z</time>
      </trkpt>
      <trkpt lat="47.20661" lon="-1.7502">
        <ele>58.1</ele>
        <time>2016-04-10T07:16:00.486Z</time>
      </trkpt>
      <trkpt lat="47.20657" lon="-1.7503">
        <ele>58.1</ele>
        <time>2016-04-10T07:16:07.606Z</time>
      </trkpt>
      <trkpt lat="47.20656" lon="-1.75031">
        <ele>58.1</ele>
        <time>2016-04-10T07:16:08.479Z</time>
      </trkpt>
      <trkpt lat="47.20649" lon="-1.75035">
        <ele>57.9</ele>
        <time>2016-04-10T07:16:14.511Z</time>
      </trkpt>
      <trkpt lat="47.20647" lon="-1.75036">
        <ele>58</ele>
        <time>2016-04-10T07:16:15.515Z</time>
      </trkpt>
      <trkpt lat="47.20642" lon="-1.75046">
        <ele>57.9</ele>
        <time>2016-04-10T07:16:20.585Z</time>
      </trkpt>
      <trkpt lat="47.20641" lon="-1.75047">
        <ele>57.9</ele>
        <time>2016-04-10T07:16:21.507Z</time>
      </trkpt>
      <trkpt lat="47.20637" lon="-1.75056">
        <ele>57.7</ele>
        <time>2016-04-10T07:16:27.623Z</time>
      </trkpt>
      <trkpt lat="47.20636" lon="-1.75058">
        <ele>57.7</ele>
        <time>2016-04-10T07:16:28.510Z</time>
      </trkpt>
      <trkpt lat="47.20633" lon="-1.75069">
        <ele>57.7</ele>
        <time>2016-04-10T07:16:35.595Z</time>
      </trkpt>
      <trkpt lat="47.20633" lon="-1.75071">
        <ele>57.7</ele>
        <time>2016-04-10T07:16:36.512Z</time>
      </trkpt>
      <trkpt lat="47.20629" lon="-1.75082">
        <ele>57.6</ele>
        <time>2016-04-10T07:16:43.522Z</time>
      </trkpt>
      <trkpt lat="47.20629" lon="-1.75084">
        <ele>57.6</ele>
        <time>2016-04-10T07:16:44.508Z</time>
      </trkpt>
      <trkpt lat="47.20625" lon="-1.75096">
        <ele>57.7</ele>
        <time>2016-04-10T07:16:49.715Z</time>
      </trkpt>
      <trkpt lat="47.20624" lon="-1.75099">
        <ele>57.9</ele>
        <time>2016-04-10T07:16:50.516Z</time>
      </trkpt>
      <trkpt lat="47.2062" lon="-1.75109">
        <ele>58.8</ele>
        <time>2016-04-10T07:16:57.557Z</time>
      </trkpt>
      <trkpt lat="47.20619" lon="-1.75111">
        <ele>58.9</ele>
        <time>2016-04-10T07:16:58.512Z</time>
      </trkpt>
      <trkpt lat="47.20615" lon="-1.75121">
        <ele>59.3</ele>
        <time>2016-04-10T07:17:05.602Z</time>
      </trkpt>
      <trkpt lat="47.20614" lon="-1.75123">
        <ele>59.2</ele>
        <time>2016-04-10T07:17:06.546Z</time>
      </trkpt>
      <trkpt lat="47.20609" lon="-1.75133">
        <ele>58.6</ele>
        <time>2016-04-10T07:17:13.950Z</time>
      </trkpt>
      <trkpt lat="47.20609" lon="-1.75134">
        <ele>58.5</ele>
        <time>2016-04-10T07:17:14.515Z</time>
      </trkpt>
      <trkpt lat="47.20604" lon="-1.75145">
        <ele>57.2</ele>
        <time>2016-04-10T07:17:25.585Z</time>
      </trkpt>
      <trkpt lat="47.20604" lon="-1.75145">
        <ele>57.1</ele>
        <time>2016-04-10T07:17:26.511Z</time>
      </trkpt>
      <trkpt lat="47.20596" lon="-1.75152">
        <ele>56</ele>
        <time>2016-04-10T07:17:36.728Z</time>
      </trkpt>
      <trkpt lat="47.20596" lon="-1.75153">
        <ele>55.9</ele>
        <time>2016-04-10T07:17:37.516Z</time>
      </trkpt>
      <trkpt lat="47.20593" lon="-1.75165">
        <ele>56</ele>
        <time>2016-04-10T07:18:12.559Z</time>
      </trkpt>
      <trkpt lat="47.20593" lon="-1.75166">
        <ele>56</ele>
        <time>2016-04-10T07:18:13.537Z</time>
      </trkpt>
      <trkpt lat="47.20585" lon="-1.75173">
        <ele>54.8</ele>
        <time>2016-04-10T07:22:11.908Z</time>
      </trkpt>
      <trkpt lat="47.20585" lon="-1.75173">
        <ele>54.7</ele>
        <time>2016-04-10T07:22:12.468Z</time>
      </trkpt>
      <trkpt lat="47.20578" lon="-1.7518">
        <ele>53.8</ele>
        <time>2016-04-10T07:24:32.601Z</time>
      </trkpt>
      <trkpt lat="47.20577" lon="-1.7518">
        <ele>53.8</ele>
        <time>2016-04-10T07:24:33.601Z</time>
      </trkpt>
      <trkpt lat="47.20572" lon="-1.75191">
        <ele>53.8</ele>
        <time>2016-04-10T07:24:40.642Z</time>
      </trkpt>
      <trkpt lat="47.20572" lon="-1.75193">
        <ele>53.8</ele>
        <time>2016-04-10T07:24:41.531Z</time>
      </trkpt>
      <trkpt lat="47.20571" lon="-1.75206">
        <ele>53.7</ele>
        <time>2016-04-10T07:24:48.665Z</time>
      </trkpt>
      <trkpt lat="47.2057" lon="-1.75208">
        <ele>53.7</ele>
        <time>2016-04-10T07:24:49.565Z</time>
      </trkpt>
      <trkpt lat="47.20566" lon="-1.7522">
        <ele>53.8</ele>
        <time>2016-04-10T07:24:57.867Z</time>
      </trkpt>
      <trkpt lat="47.20566" lon="-1.75221">
        <ele>53.8</ele>
        <time>2016-04-10T07:24:58.521Z</time>
      </trkpt>
      <trkpt lat="47.20564" lon="-1.75234">
        <ele>53.8</ele>
        <time>2016-04-10T07:25:07.593Z</time>
      </trkpt>
      <trkpt lat="47.20564" lon="-1.75236">
        <ele>53.7</ele>
        <time>2016-04-10T07:25:08.579Z</time>
      </trkpt>
      <trkpt lat="47.20561" lon="-1.75245">
        <ele>54.5</ele>
        <time>2016-04-10T07:26:01.641Z</time>
      </trkpt>
      <trkpt lat="47.20559" lon="-1.75248">
        <ele>54.3</ele>
        <time>2016-04-10T07:26:02.488Z</time>
      </trkpt>
      <trkpt lat="47.20552" lon="-1.75242">
        <ele>51.9</ele>
        <time>2016-04-10T07:27:40.671Z</time>
      </trkpt>
      <trkpt lat="47.20552" lon="-1.75268">
        <ele>51.9</ele>
        <time>2016-04-10T07:28:49.704Z</time>
      </trkpt>
      <trkpt lat="47.20553" lon="-1.75263">
        <ele>51.9</ele>
        <time>2016-04-10T07:29:02.609Z</time>
      </trkpt>
      <trkpt lat="47.20549" lon="-1.75325">
        <ele>58.9</ele>
        <time>2016-04-10T07:30:51.571Z</time>
      </trkpt>
      <trkpt lat="47.20546" lon="-1.75335">
        <ele>59.1</ele>
        <time>2016-04-10T07:30:54.569Z</time>
      </trkpt>
      <trkpt lat="47.20546" lon="-1.75337">
        <ele>59.1</ele>
        <time>2016-04-10T07:30:55.634Z</time>
      </trkpt>
      <trkpt lat="47.20544" lon="-1.75339">
        <ele>59.1</ele>
        <time>2016-04-10T07:30:57.641Z</time>
      </trkpt>
      <trkpt lat="47.20424" lon="-1.75523">
        <ele>46.2</ele>
        <time>2016-04-10T07:31:45.547Z</time>
      </trkpt>
      <trkpt lat="47.20418" lon="-1.75529">
        <ele>47.3</ele>
        <time>2016-04-10T07:31:49.636Z</time>
      </trkpt>
      <trkpt lat="47.20416" lon="-1.75531">
        <ele>47.6</ele>
        <time>2016-04-10T07:31:50.515Z</time>
      </trkpt>
      <trkpt lat="47.2041" lon="-1.75536">
        <ele>48.3</ele>
        <time>2016-04-10T07:31:52.881Z</time>
      </trkpt>
      <trkpt lat="47.20407" lon="-1.75538">
        <ele>48.6</ele>
        <time>2016-04-10T07:31:53.469Z</time>
      </trkpt>
      <trkpt lat="47.204" lon="-1.75542">
        <ele>49.4</ele>
        <time>2016-04-10T07:31:56.654Z</time>
      </trkpt>
      <trkpt lat="47.20397" lon="-1.75543">
        <ele>49.6</ele>
        <time>2016-04-10T07:31:57.502Z</time>
      </trkpt>
      <trkpt lat="47.2039" lon="-1.75545">
        <ele>50.1</ele>
        <time>2016-04-10T07:32:00.531Z</time>
      </trkpt>
      <trkpt lat="47.20388" lon="-1.75545">
        <ele>50.3</ele>
        <time>2016-04-10T07:32:01.461Z</time>
      </trkpt>
      <trkpt lat="47.20379" lon="-1.75547">
        <ele>50.4</ele>
        <time>2016-04-10T07:32:06.600Z</time>
      </trkpt>
      <trkpt lat="47.20377" lon="-1.75548">
        <ele>50.4</ele>
        <time>2016-04-10T07:32:07.449Z</time>
      </trkpt>
      <trkpt lat="47.20369" lon="-1.75553">
        <ele>50</ele>
        <time>2016-04-10T07:32:12.612Z</time>
      </trkpt>
      <trkpt lat="47.20367" lon="-1.75554">
        <ele>49.9</ele>
        <time>2016-04-10T07:32:13.463Z</time>
      </trkpt>
      <trkpt lat="47.20359" lon="-1.75554">
        <ele>49.6</ele>
        <time>2016-04-10T07:32:18.745Z</time>
      </trkpt>
      <trkpt lat="47.20358" lon="-1.75554">
        <ele>49.5</ele>
        <time>2016-04-10T07:32:19.508Z</time>
      </trkpt>
      <trkpt lat="47.2035" lon="-1.75553">
        <ele>49.2</ele>
        <time>2016-04-10T07:32:30.709Z</time>
      </trkpt>
      <trkpt lat="47.20349" lon="-1.75553">
        <ele>49.3</ele>
        <time>2016-04-10T07:32:31.820Z</time>
      </trkpt>
      <trkpt lat="47.2034" lon="-1.7555">
        <ele>50.1</ele>
        <time>2016-04-10T07:32:37.637Z</time>
      </trkpt>
      <trkpt lat="47.20339" lon="-1.75549">
        <ele>50.2</ele>
        <time>2016-04-10T07:32:38.483Z</time>
      </trkpt>
      <trkpt lat="47.20336" lon="-1.75537">
        <ele>50.7</ele>
        <time>2016-04-10T07:33:17.678Z</time>
      </trkpt>
      <trkpt lat="47.20335" lon="-1.75537">
        <ele>50.7</ele>
        <time>2016-04-10T07:33:18.572Z</time>
      </trkpt>
      <trkpt lat="47.20328" lon="-1.75529">
        <ele>51</ele>
        <time>2016-04-10T07:33:26.652Z</time>
      </trkpt>
      <trkpt lat="47.20327" lon="-1.75528">
        <ele>51</ele>
        <time>2016-04-10T07:33:27.531Z</time>
      </trkpt>
      <trkpt lat="47.20319" lon="-1.75523">
        <ele>51.7</ele>
        <time>2016-04-10T07:33:35.644Z</time>
      </trkpt>
      <trkpt lat="47.20318" lon="-1.75523">
        <ele>51.8</ele>
        <time>2016-04-10T07:33:36.493Z</time>
      </trkpt>
      <trkpt lat="47.20311" lon="-1.7553">
        <ele>52.8</ele>
        <time>2016-04-10T07:33:49.546Z</time>
      </trkpt>
      <trkpt lat="47.20311" lon="-1.75533">
        <ele>52.9</ele>
        <time>2016-04-10T07:33:50.532Z</time>
      </trkpt>
      <trkpt lat="47.20313" lon="-1.75544">
        <ele>53.5</ele>
        <time>2016-04-10T07:33:57.587Z</time>
      </trkpt>
      <trkpt lat="47.20313" lon="-1.75546">
        <ele>53.6</ele>
        <time>2016-04-10T07:33:58.527Z</time>
      </trkpt>
      <trkpt lat="47.20315" lon="-1.75558">
        <ele>53.9</ele>
        <time>2016-04-10T07:34:05.554Z</time>
      </trkpt>
      <trkpt lat="47.20315" lon="-1.75561">
        <ele>54</ele>
        <time>2016-04-10T07:34:06.490Z</time>
      </trkpt>
      <trkpt lat="47.20317" lon="-1.75573">
        <ele>54.7</ele>
        <time>2016-04-10T07:34:14.688Z</time>
      </trkpt>
      <trkpt lat="47.20318" lon="-1.75574">
        <ele>54.8</ele>
        <time>2016-04-10T07:34:15.545Z</time>
      </trkpt>
      <trkpt lat="47.20321" lon="-1.75586">
        <ele>55.5</ele>
        <time>2016-04-10T07:34:26.526Z</time>
      </trkpt>
      <trkpt lat="47.20321" lon="-1.75587">
        <ele>55.5</ele>
        <time>2016-04-10T07:34:27.537Z</time>
      </trkpt>
      <trkpt lat="47.20325" lon="-1.75599">
        <ele>55.8</ele>
        <time>2016-04-10T07:34:34.653Z</time>
      </trkpt>
      <trkpt lat="47.20325" lon="-1.756">
        <ele>55.8</ele>
        <time>2016-04-10T07:34:35.763Z</time>
      </trkpt>
      <trkpt lat="47.20329" lon="-1.75611">
        <ele>56.3</ele>
        <time>2016-04-10T07:34:42.662Z</time>
      </trkpt>
      <trkpt lat="47.2033" lon="-1.75614">
        <ele>56.4</ele>
        <time>2016-04-10T07:34:43.487Z</time>
      </trkpt>
      <trkpt lat="47.20333" lon="-1.75624">
        <ele>57</ele>
        <time>2016-04-10T07:34:49.546Z</time>
      </trkpt>
      <trkpt lat="47.20333" lon="-1.75626">
        <ele>57.1</ele>
        <time>2016-04-10T07:34:50.541Z</time>
      </trkpt>
      <trkpt lat="47.20336" lon="-1.75638">
        <ele>57.6</ele>
        <time>2016-04-10T07:34:55.516Z</time>
      </trkpt>
      <trkpt lat="47.20336" lon="-1.7564">
        <ele>57.7</ele>
        <time>2016-04-10T07:34:56.531Z</time>
      </trkpt>
      <trkpt lat="47.2034" lon="-1.75651">
        <ele>58.5</ele>
        <time>2016-04-10T07:35:01.642Z</time>
      </trkpt>
      <trkpt lat="47.2034" lon="-1.75653">
        <ele>58.7</ele>
        <time>2016-04-10T07:35:02.715Z</time>
      </trkpt>
      <trkpt lat="47.20343" lon="-1.75664">
        <ele>59.3</ele>
        <time>2016-04-10T07:35:10.563Z</time>
      </trkpt>
      <trkpt lat="47.20343" lon="-1.75666">
        <ele>59.3</ele>
        <time>2016-04-10T07:35:11.541Z</time>
      </trkpt>
      <trkpt lat="47.20345" lon="-1.75677">
        <ele>59.1</ele>
        <time>2016-04-10T07:35:17.607Z</time>
      </trkpt>
      <trkpt lat="47.20346" lon="-1.75679">
        <ele>59</ele>
        <time>2016-04-10T07:35:18.547Z</time>
      </trkpt>
      <trkpt lat="47.20348" lon="-1.75691">
        <ele>58.7</ele>
        <time>2016-04-10T07:35:24.613Z</time>
      </trkpt>
      <trkpt lat="47.20348" lon="-1.75693">
        <ele>58.7</ele>
        <time>2016-04-10T07:35:25.543Z</time>
      </trkpt>
      <trkpt lat="47.2035" lon="-1.75705">
        <ele>58.6</ele>
        <time>2016-04-10T07:35:31.587Z</time>
      </trkpt>
      <trkpt lat="47.2035" lon="-1.75707">
        <ele>58.5</ele>
        <time>2016-04-10T07:35:32.531Z</time>
      </trkpt>
      <trkpt lat="47.20351" lon="-1.75718">
        <ele>58.3</ele>
        <time>2016-04-10T07:35:37.576Z</time>
      </trkpt>
      <trkpt lat="47.20352" lon="-1.7572">
        <ele>58.3</ele>
        <time>2016-04-10T07:35:38.528Z</time>
      </trkpt>
      <trkpt lat="47.20353" lon="-1.75732">
        <ele>58</ele>
        <time>2016-04-10T07:35:46.108Z</time>
      </trkpt>
      <trkpt lat="47.20354" lon="-1.75734">
        <ele>58</ele>
        <time>2016-04-10T07:35:46.513Z</time>
      </trkpt>
      <trkpt lat="47.20356" lon="-1.75746">
        <ele>58</ele>
        <time>2016-04-10T07:35:52.713Z</time>
      </trkpt>
      <trkpt lat="47.20356" lon="-1.75748">
        <ele>58</ele>
        <time>2016-04-10T07:35:53.529Z</time>
      </trkpt>
      <trkpt lat="47.2036" lon="-1.7576">
        <ele>58</ele>
        <time>2016-04-10T07:36:02.728Z</time>
      </trkpt>
      <trkpt lat="47.2036" lon="-1.75761">
        <ele>58.1</ele>
        <time>2016-04-10T07:36:03.539Z</time>
      </trkpt>
      <trkpt lat="47.20362" lon="-1.75773">
        <ele>58.3</ele>
        <time>2016-04-10T07:36:08.582Z</time>
      </trkpt>
      <trkpt lat="47.20362" lon="-1.75775">
        <ele>58.3</ele>
        <time>2016-04-10T07:36:09.526Z</time>
      </trkpt>
      <trkpt lat="47.20364" lon="-1.75786">
        <ele>58.3</ele>
        <time>2016-04-10T07:36:15.605Z</time>
      </trkpt>
      <trkpt lat="47.20364" lon="-1.75788">
        <ele>58.3</ele>
        <time>2016-04-10T07:36:16.540Z</time>
      </trkpt>
      <trkpt lat="47.20367" lon="-1.75798">
        <ele>58.2</ele>
        <time>2016-04-10T07:36:22.108Z</time>
      </trkpt>
      <trkpt lat="47.20368" lon="-1.758">
        <ele>58.2</ele>
        <time>2016-04-10T07:36:22.480Z</time>
      </trkpt>
      <trkpt lat="47.20371" lon="-1.75812">
        <ele>58.2</ele>
        <time>2016-04-10T07:36:29.651Z</time>
      </trkpt>
      <trkpt lat="47.20371" lon="-1.75815">
        <ele>58.1</ele>
        <time>2016-04-10T07:36:30.533Z</time>
      </trkpt>
      <trkpt lat="47.20373" lon="-1.75825">
        <ele>58</ele>
        <time>2016-04-10T07:36:36.833Z</time>
      </trkpt>
      <trkpt lat="47.20374" lon="-1.75828">
        <ele>58</ele>
        <time>2016-04-10T07:36:37.517Z</time>
      </trkpt>
      <trkpt lat="47.20377" lon="-1.7584">
        <ele>57.9</ele>
        <time>2016-04-10T07:36:44.623Z</time>
      </trkpt>
      <trkpt lat="47.20378" lon="-1.75841">
        <ele>57.9</ele>
        <time>2016-04-10T07:36:45.544Z</time>
      </trkpt>
      <trkpt lat="47.20382" lon="-1.75851">
        <ele>57.9</ele>
        <time>2016-04-10T07:36:50.640Z</time>
      </trkpt>
      <trkpt lat="47.20383" lon="-1.75853">
        <ele>57.9</ele>
        <time>2016-04-10T07:36:51.542Z</time>
      </trkpt>
      <trkpt lat="47.20387" lon="-1.75864">
        <ele>58</ele>
        <time>2016-04-10T07:36:58.697Z</time>
      </trkpt>
      <trkpt lat="47.20387" lon="-1.75866">
        <ele>58</ele>
        <time>2016-04-10T07:36:59.549Z</time>
      </trkpt>
      <trkpt lat="47.20388" lon="-1.75878">
        <ele>57.7</ele>
        <time>2016-04-10T07:37:05.601Z</time>
      </trkpt>
      <trkpt lat="47.20388" lon="-1.7588">
        <ele>57.7</ele>
        <time>2016-04-10T07:37:06.562Z</time>
      </trkpt>
      <trkpt lat="47.20388" lon="-1.75892">
        <ele>57.3</ele>
        <time>2016-04-10T07:37:14.650Z</time>
      </trkpt>
      <trkpt lat="47.20388" lon="-1.75894">
        <ele>57.3</ele>
        <time>2016-04-10T07:37:15.548Z</time>
      </trkpt>
      <trkpt lat="47.20389" lon="-1.75906">
        <ele>57.1</ele>
        <time>2016-04-10T07:37:21.904Z</time>
      </trkpt>
      <trkpt lat="47.20389" lon="-1.75908">
        <ele>57.1</ele>
        <time>2016-04-10T07:37:22.485Z</time>
      </trkpt>
      <trkpt lat="47.20391" lon="-1.7592">
        <ele>57</ele>
        <time>2016-04-10T07:37:28.849Z</time>
      </trkpt>
      <trkpt lat="47.20391" lon="-1.75922">
        <ele>57</ele>
        <time>2016-04-10T07:37:29.487Z</time>
      </trkpt>
      <trkpt lat="47.20393" lon="-1.75934">
        <ele>57</ele>
        <time>2016-04-10T07:37:35.641Z</time>
      </trkpt>
      <trkpt lat="47.20393" lon="-1.75935">
        <ele>57</ele>
        <time>2016-04-10T07:37:36.538Z</time>
      </trkpt>
      <trkpt lat="47.20394" lon="-1.75947">
        <ele>56.7</ele>
        <time>2016-04-10T07:37:43.607Z</time>
      </trkpt>
      <trkpt lat="47.20395" lon="-1.75949">
        <ele>56.7</ele>
        <time>2016-04-10T07:37:44.496Z</time>
      </trkpt>
      <trkpt lat="47.20397" lon="-1.75961">
        <ele>56.7</ele>
        <time>2016-04-10T07:37:49.719Z</time>
      </trkpt>
      <trkpt lat="47.20397" lon="-1.75963">
        <ele>56.7</ele>
        <time>2016-04-10T07:37:50.540Z</time>
      </trkpt>
      <trkpt lat="47.20399" lon="-1.75975">
        <ele>56.9</ele>
        <time>2016-04-10T07:37:56.538Z</time>
      </trkpt>
      <trkpt lat="47.204" lon="-1.75977">
        <ele>56.8</ele>
        <time>2016-04-10T07:37:57.542Z</time>
      </trkpt>
      <trkpt lat="47.20401" lon="-1.75988">
        <ele>57</ele>
        <time>2016-04-10T07:38:03.600Z</time>
      </trkpt>
      <trkpt lat="47.20401" lon="-1.7599">
        <ele>57.2</ele>
        <time>2016-04-10T07:38:04.537Z</time>
      </trkpt>
      <trkpt lat="47.20401" lon="-1.76003">
        <ele>58.3</ele>
        <time>2016-04-10T07:38:12.640Z</time>
      </trkpt>
      <trkpt lat="47.20401" lon="-1.76004">
        <ele>58.3</ele>
        <time>2016-04-10T07:38:13.536Z</time>
      </trkpt>
      <trkpt lat="47.20401" lon="-1.76017">
        <ele>58.4</ele>
        <time>2016-04-10T07:38:20.596Z</time>
      </trkpt>
      <trkpt lat="47.20401" lon="-1.76019">
        <ele>58.4</ele>
        <time>2016-04-10T07:38:21.536Z</time>
      </trkpt>
      <trkpt lat="47.20404" lon="-1.7603">
        <ele>58.5</ele>
        <time>2016-04-10T07:38:27.622Z</time>
      </trkpt>
      <trkpt lat="47.20404" lon="-1.76033">
        <ele>58.5</ele>
        <time>2016-04-10T07:38:28.528Z</time>
      </trkpt>
      <trkpt lat="47.20405" lon="-1.76045">
        <ele>58.6</ele>
        <time>2016-04-10T07:38:34.600Z</time>
      </trkpt>
      <trkpt lat="47.20406" lon="-1.76046">
        <ele>58.6</ele>
        <time>2016-04-10T07:38:35.556Z</time>
      </trkpt>
      <trkpt lat="47.20408" lon="-1.76058">
        <ele>59</ele>
        <time>2016-04-10T07:38:41.666Z</time>
      </trkpt>
      <trkpt lat="47.20409" lon="-1.7606">
        <ele>59</ele>
        <time>2016-04-10T07:38:42.522Z</time>
      </trkpt>
      <trkpt lat="47.20411" lon="-1.76072">
        <ele>59.5</ele>
        <time>2016-04-10T07:38:48.710Z</time>
      </trkpt>
      <trkpt lat="47.20411" lon="-1.76074">
        <ele>59.5</ele>
        <time>2016-04-10T07:38:49.541Z</time>
      </trkpt>
      <trkpt lat="47.20412" lon="-1.76087">
        <ele>59.9</ele>
        <time>2016-04-10T07:38:55.586Z</time>
      </trkpt>
      <trkpt lat="47.20413" lon="-1.76089">
        <ele>60</ele>
        <time>2016-04-10T07:38:56.532Z</time>
      </trkpt>
      <trkpt lat="47.20413" lon="-1.761">
        <ele>60.6</ele>
        <time>2016-04-10T07:39:04.624Z</time>
      </trkpt>
      <trkpt lat="47.20413" lon="-1.76102">
        <ele>60.6</ele>
        <time>2016-04-10T07:39:05.575Z</time>
      </trkpt>
      <trkpt lat="47.20413" lon="-1.76114">
        <ele>61.2</ele>
        <time>2016-04-10T07:39:11.629Z</time>
      </trkpt>
      <trkpt lat="47.20413" lon="-1.76116">
        <ele>61.3</ele>
        <time>2016-04-10T07:39:12.544Z</time>
      </trkpt>
      <trkpt lat="47.20414" lon="-1.76127">
        <ele>61.8</ele>
        <time>2016-04-10T07:39:18.539Z</time>
      </trkpt>
      <trkpt lat="47.20414" lon="-1.76129">
        <ele>61.9</ele>
        <time>2016-04-10T07:39:19.566Z</time>
      </trkpt>
      <trkpt lat="47.20414" lon="-1.76142">
        <ele>62.4</ele>
        <time>2016-04-10T07:39:27.673Z</time>
      </trkpt>
      <trkpt lat="47.20414" lon="-1.76145">
        <ele>62.4</ele>
        <time>2016-04-10T07:39:28.540Z</time>
      </trkpt>
      <trkpt lat="47.20416" lon="-1.76157">
        <ele>62.7</ele>
        <time>2016-04-10T07:39:34.610Z</time>
      </trkpt>
      <trkpt lat="47.20416" lon="-1.76159">
        <ele>62.7</ele>
        <time>2016-04-10T07:39:35.571Z</time>
      </trkpt>
      <trkpt lat="47.20417" lon="-1.76171">
        <ele>62.8</ele>
        <time>2016-04-10T07:39:41.611Z</time>
      </trkpt>
      <trkpt lat="47.20417" lon="-1.76173">
        <ele>62.8</ele>
        <time>2016-04-10T07:39:42.494Z</time>
      </trkpt>
      <trkpt lat="47.20419" lon="-1.76186">
        <ele>62.8</ele>
        <time>2016-04-10T07:39:48.612Z</time>
      </trkpt>
      <trkpt lat="47.20419" lon="-1.76188">
        <ele>62.7</ele>
        <time>2016-04-10T07:39:49.605Z</time>
      </trkpt>
      <trkpt lat="47.20421" lon="-1.76199">
        <ele>62.9</ele>
        <time>2016-04-10T07:39:56.621Z</time>
      </trkpt>
      <trkpt lat="47.20422" lon="-1.76201">
        <ele>62.9</ele>
        <time>2016-04-10T07:39:57.512Z</time>
      </trkpt>
      <trkpt lat="47.20424" lon="-1.76213">
        <ele>63</ele>
        <time>2016-04-10T07:40:03.640Z</time>
      </trkpt>
      <trkpt lat="47.20424" lon="-1.76215">
        <ele>63</ele>
        <time>2016-04-10T07:40:04.564Z</time>
      </trkpt>
      <trkpt lat="47.20427" lon="-1.76228">
        <ele>63.1</ele>
        <time>2016-04-10T07:40:11.704Z</time>
      </trkpt>
      <trkpt lat="47.20428" lon="-1.7623">
        <ele>63.1</ele>
        <time>2016-04-10T07:40:12.490Z</time>
      </trkpt>
      <trkpt lat="47.20431" lon="-1.76242">
        <ele>63.3</ele>
        <time>2016-04-10T07:40:20.570Z</time>
      </trkpt>
      <trkpt lat="47.20431" lon="-1.76244">
        <ele>63.3</ele>
        <time>2016-04-10T07:40:21.548Z</time>
      </trkpt>
      <trkpt lat="47.20434" lon="-1.76256">
        <ele>63.4</ele>
        <time>2016-04-10T07:40:28.642Z</time>
      </trkpt>
      <trkpt lat="47.20434" lon="-1.76258">
        <ele>63.4</ele>
        <time>2016-04-10T07:40:29.544Z</time>
      </trkpt>
      <trkpt lat="47.20437" lon="-1.76269">
        <ele>63.4</ele>
        <time>2016-04-10T07:40:35.666Z</time>
      </trkpt>
      <trkpt lat="47.20437" lon="-1.76272">
        <ele>63.4</ele>
        <time>2016-04-10T07:40:36.534Z</time>
      </trkpt>
      <trkpt lat="47.20439" lon="-1.76284">
        <ele>62.7</ele>
        <time>2016-04-10T07:40:41.686Z</time>
      </trkpt>
      <trkpt lat="47.20439" lon="-1.76286">
        <ele>62.5</ele>
        <time>2016-04-10T07:40:42.582Z</time>
      </trkpt>
      <trkpt lat="47.20441" lon="-1.76297">
        <ele>61.8</ele>
        <time>2016-04-10T07:40:47.667Z</time>
      </trkpt>
      <trkpt lat="47.20441" lon="-1.76299">
        <ele>61.7</ele>
        <time>2016-04-10T07:40:48.572Z</time>
      </trkpt>
      <trkpt lat="47.20443" lon="-1.76312">
        <ele>62</ele>
        <time>2016-04-10T07:40:55.696Z</time>
      </trkpt>
      <trkpt lat="47.20444" lon="-1.76314">
        <ele>62.1</ele>
        <time>2016-04-10T07:40:56.531Z</time>
      </trkpt>
      <trkpt lat="47.20445" lon="-1.76327">
        <ele>62.5</ele>
        <time>2016-04-10T07:41:02.563Z</time>
      </trkpt>
      <trkpt lat="47.20445" lon="-1.76329">
        <ele>62.5</ele>
        <time>2016-04-10T07:41:03.619Z</time>
      </trkpt>
      <trkpt lat="47.20447" lon="-1.76341">
        <ele>62.8</ele>
        <time>2016-04-10T07:41:09.631Z</time>
      </trkpt>
      <trkpt lat="47.20447" lon="-1.76343">
        <ele>62.9</ele>
        <time>2016-04-10T07:41:10.517Z</time>
      </trkpt>
      <trkpt lat="47.20448" lon="-1.76354">
        <ele>63.1</ele>
        <time>2016-04-10T07:41:16.585Z</time>
      </trkpt>
      <trkpt lat="47.20448" lon="-1.76356">
        <ele>63.2</ele>
        <time>2016-04-10T07:41:17.547Z</time>
      </trkpt>
      <trkpt lat="47.2045" lon="-1.76368">
        <ele>63.4</ele>
        <time>2016-04-10T07:41:22.533Z</time>
      </trkpt>
      <trkpt lat="47.20451" lon="-1.76371">
        <ele>63.4</ele>
        <time>2016-04-10T07:41:23.547Z</time>
      </trkpt>
      <trkpt lat="47.20452" lon="-1.76383">
        <ele>63.4</ele>
        <time>2016-04-10T07:41:28.580Z</time>
      </trkpt>
      <trkpt lat="47.20453" lon="-1.76385">
        <ele>63.4</ele>
        <time>2016-04-10T07:41:29.493Z</time>
      </trkpt>
      <trkpt lat="47.20455" lon="-1.76397">
        <ele>63.3</ele>
        <time>2016-04-10T07:41:34.503Z</time>
      </trkpt>
      <trkpt lat="47.20455" lon="-1.76399">
        <ele>63.3</ele>
        <time>2016-04-10T07:41:35.550Z</time>
      </trkpt>
      <trkpt lat="47.20458" lon="-1.7641">
        <ele>63.6</ele>
        <time>2016-04-10T07:41:41.702Z</time>
      </trkpt>
      <trkpt lat="47.20458" lon="-1.76412">
        <ele>63.7</ele>
        <time>2016-04-10T07:41:42.536Z</time>
      </trkpt>
      <trkpt lat="47.20459" lon="-1.76424">
        <ele>64.2</ele>
        <time>2016-04-10T07:41:48.626Z</time>
      </trkpt>
      <trkpt lat="47.2046" lon="-1.76426">
        <ele>64.3</ele>
        <time>2016-04-10T07:41:49.543Z</time>
      </trkpt>
      <trkpt lat="47.20461" lon="-1.76438">
        <ele>64.3</ele>
        <time>2016-04-10T07:41:56.601Z</time>
      </trkpt>
      <trkpt lat="47.20461" lon="-1.76441">
        <ele>64.3</ele>
        <time>2016-04-10T07:41:57.546Z</time>
      </trkpt>
      <trkpt lat="47.20463" lon="-1.76452">
        <ele>63.9</ele>
        <time>2016-04-10T07:42:03.622Z</time>
      </trkpt>
      <trkpt lat="47.20463" lon="-1.76455">
        <ele>63.8</ele>
        <time>2016-04-10T07:42:04.536Z</time>
      </trkpt>
      <trkpt lat="47.20464" lon="-1.76467">
        <ele>63.7</ele>
        <time>2016-04-10T07:42:10.572Z</time>
      </trkpt>
      <trkpt lat="47.20464" lon="-1.76469">
        <ele>63.7</ele>
        <time>2016-04-10T07:42:11.529Z</time>
      </trkpt>
      <trkpt lat="47.20466" lon="-1.76479">
        <ele>63.9</ele>
        <time>2016-04-10T07:42:16.807Z</time>
      </trkpt>
      <trkpt lat="47.20466" lon="-1.76483">
        <ele>63.9</ele>
        <time>2016-04-10T07:42:17.548Z</time>
      </trkpt>
      <trkpt lat="47.20467" lon="-1.76495">
        <ele>63.7</ele>
        <time>2016-04-10T07:42:24.581Z</time>
      </trkpt>
      <trkpt lat="47.20467" lon="-1.76497">
        <ele>63.6</ele>
        <time>2016-04-10T07:42:25.566Z</time>
      </trkpt>
      <trkpt lat="47.20466" lon="-1.76509">
        <ele>62.7</ele>
        <time>2016-04-10T07:42:31.643Z</time>
      </trkpt>
      <trkpt lat="47.20466" lon="-1.76511">
        <ele>62.6</ele>
        <time>2016-04-10T07:42:32.556Z</time>
      </trkpt>
      <trkpt lat="47.20466" lon="-1.76523">
        <ele>61.7</ele>
        <time>2016-04-10T07:42:37.618Z</time>
      </trkpt>
      <trkpt lat="47.20466" lon="-1.76526">
        <ele>61.5</ele>
        <time>2016-04-10T07:42:38.505Z</time>
      </trkpt>
      <trkpt lat="47.20467" lon="-1.76538">
        <ele>60.6</ele>
        <time>2016-04-10T07:42:44.551Z</time>
      </trkpt>
      <trkpt lat="47.20467" lon="-1.76539">
        <ele>60.5</ele>
        <time>2016-04-10T07:42:45.561Z</time>
      </trkpt>
      <trkpt lat="47.2047" lon="-1.76549">
        <ele>60.1</ele>
        <time>2016-04-10T07:42:51.558Z</time>
      </trkpt>
      <trkpt lat="47.2047" lon="-1.76551">
        <ele>60.1</ele>
        <time>2016-04-10T07:42:52.542Z</time>
      </trkpt>
      <trkpt lat="47.20474" lon="-1.76561">
        <ele>60</ele>
        <time>2016-04-10T07:42:57.638Z</time>
      </trkpt>
      <trkpt lat="47.20474" lon="-1.76563">
        <ele>59.9</ele>
        <time>2016-04-10T07:42:58.497Z</time>
      </trkpt>
      <trkpt lat="47.20477" lon="-1.76575">
        <ele>59.7</ele>
        <time>2016-04-10T07:43:05.679Z</time>
      </trkpt>
      <trkpt lat="47.20477" lon="-1.76578">
        <ele>59.7</ele>
        <time>2016-04-10T07:43:06.532Z</time>
      </trkpt>
      <trkpt lat="47.2048" lon="-1.7659">
        <ele>59.5</ele>
        <time>2016-04-10T07:43:12.599Z</time>
      </trkpt>
      <trkpt lat="47.2048" lon="-1.76592">
        <ele>59.4</ele>
        <time>2016-04-10T07:43:13.550Z</time>
      </trkpt>
      <trkpt lat="47.20482" lon="-1.76604">
        <ele>59.1</ele>
        <time>2016-04-10T07:43:20.696Z</time>
      </trkpt>
      <trkpt lat="47.20483" lon="-1.76606">
        <ele>59.1</ele>
        <time>2016-04-10T07:43:21.520Z</time>
      </trkpt>
      <trkpt lat="47.20486" lon="-1.76618">
        <ele>58.8</ele>
        <time>2016-04-10T07:43:27.589Z</time>
      </trkpt>
      <trkpt lat="47.20486" lon="-1.7662">
        <ele>58.7</ele>
        <time>2016-04-10T07:43:28.539Z</time>
      </trkpt>
      <trkpt lat="47.20488" lon="-1.7663">
        <ele>58.7</ele>
        <time>2016-04-10T07:43:32.633Z</time>
      </trkpt>
      <trkpt lat="47.20489" lon="-1.76633">
        <ele>58.8</ele>
        <time>2016-04-10T07:43:33.539Z</time>
      </trkpt>
      <trkpt lat="47.20491" lon="-1.76644">
        <ele>58.8</ele>
        <time>2016-04-10T07:43:40.644Z</time>
      </trkpt>
      <trkpt lat="47.20491" lon="-1.76646">
        <ele>58.9</ele>
        <time>2016-04-10T07:43:41.536Z</time>
      </trkpt>
      <trkpt lat="47.20493" lon="-1.76659">
        <ele>58.8</ele>
        <time>2016-04-10T07:43:47.671Z</time>
      </trkpt>
      <trkpt lat="47.20494" lon="-1.76661">
        <ele>58.8</ele>
        <time>2016-04-10T07:43:48.540Z</time>
      </trkpt>
      <trkpt lat="47.20498" lon="-1.76672">
        <ele>59</ele>
        <time>2016-04-10T07:43:55.663Z</time>
      </trkpt>
      <trkpt lat="47.20499" lon="-1.76674">
        <ele>59</ele>
        <time>2016-04-10T07:43:56.551Z</time>
      </trkpt>
      <trkpt lat="47.20502" lon="-1.76685">
        <ele>59.2</ele>
        <time>2016-04-10T07:44:02.550Z</time>
      </trkpt>
      <trkpt lat="47.20502" lon="-1.76688">
        <ele>59.2</ele>
        <time>2016-04-10T07:44:03.549Z</time>
      </trkpt>
      <trkpt lat="47.20503" lon="-1.76699">
        <ele>59.2</ele>
        <time>2016-04-10T07:44:10.634Z</time>
      </trkpt>
      <trkpt lat="47.20503" lon="-1.76701">
        <ele>59.2</ele>
        <time>2016-04-10T07:44:11.540Z</time>
      </trkpt>
      <trkpt lat="47.20502" lon="-1.76713">
        <ele>59.8</ele>
        <time>2016-04-10T07:44:18.664Z</time>
      </trkpt>
      <trkpt lat="47.20502" lon="-1.76715">
        <ele>60</ele>
        <time>2016-04-10T07:44:19.547Z</time>
      </trkpt>
      <trkpt lat="47.20503" lon="-1.76728">
        <ele>60.8</ele>
        <time>2016-04-10T07:44:25.659Z</time>
      </trkpt>
      <trkpt lat="47.20503" lon="-1.7673">
        <ele>60.9</ele>
        <time>2016-04-10T07:44:26.594Z</time>
      </trkpt>
      <trkpt lat="47.20505" lon="-1.76742">
        <ele>61.7</ele>
        <time>2016-04-10T07:44:34.613Z</time>
      </trkpt>
      <trkpt lat="47.20506" lon="-1.76744">
        <ele>61.8</ele>
        <time>2016-04-10T07:44:35.531Z</time>
      </trkpt>
      <trkpt lat="47.20507" lon="-1.76756">
        <ele>62.1</ele>
        <time>2016-04-10T07:44:41.542Z</time>
      </trkpt>
      <trkpt lat="47.20507" lon="-1.76758">
        <ele>62.1</ele>
        <time>2016-04-10T07:44:42.530Z</time>
      </trkpt>
      <trkpt lat="47.20509" lon="-1.7677">
        <ele>62.1</ele>
        <time>2016-04-10T07:44:48.648Z</time>
      </trkpt>
      <trkpt lat="47.2051" lon="-1.76772">
        <ele>62</ele>
        <time>2016-04-10T07:44:49.538Z</time>
      </trkpt>
      <trkpt lat="47.20514" lon="-1.76783">
        <ele>61.5</ele>
        <time>2016-04-10T07:44:56.567Z</time>
      </trkpt>
      <trkpt lat="47.20515" lon="-1.76784">
        <ele>61.4</ele>
        <time>2016-04-10T07:44:57.555Z</time>
      </trkpt>
      <trkpt lat="47.20518" lon="-1.76796">
        <ele>61</ele>
        <time>2016-04-10T07:45:04.538Z</time>
      </trkpt>
      <trkpt lat="47.20518" lon="-1.76798">
        <ele>61</ele>
        <time>2016-04-10T07:45:05.547Z</time>
      </trkpt>
      <trkpt lat="47.20518" lon="-1.7681">
        <ele>60.8</ele>
        <time>2016-04-10T07:45:10.663Z</time>
      </trkpt>
      <trkpt lat="47.20518" lon="-1.76813">
        <ele>60.7</ele>
        <time>2016-04-10T07:45:11.551Z</time>
      </trkpt>
      <trkpt lat="47.2052" lon="-1.76825">
        <ele>60.6</ele>
        <time>2016-04-10T07:45:18.773Z</time>
      </trkpt>
      <trkpt lat="47.20521" lon="-1.76827">
        <ele>60.7</ele>
        <time>2016-04-10T07:45:19.543Z</time>
      </trkpt>
      <trkpt lat="47.20523" lon="-1.76837">
        <ele>60.8</ele>
        <time>2016-04-10T07:45:25.582Z</time>
      </trkpt>
      <trkpt lat="47.20523" lon="-1.7684">
        <ele>60.9</ele>
        <time>2016-04-10T07:45:26.535Z</time>
      </trkpt>
      <trkpt lat="47.20527" lon="-1.7685">
        <ele>61.3</ele>
        <time>2016-04-10T07:45:32.732Z</time>
      </trkpt>
      <trkpt lat="47.20528" lon="-1.76852">
        <ele>61.4</ele>
        <time>2016-04-10T07:45:33.494Z</time>
      </trkpt>
      <trkpt lat="47.20531" lon="-1.76863">
        <ele>61.9</ele>
        <time>2016-04-10T07:45:40.961Z</time>
      </trkpt>
      <trkpt lat="47.20532" lon="-1.76865">
        <ele>62</ele>
        <time>2016-04-10T07:45:41.539Z</time>
      </trkpt>
      <trkpt lat="47.20535" lon="-1.76877">
        <ele>62.1</ele>
        <time>2016-04-10T07:45:47.645Z</time>
      </trkpt>
      <trkpt lat="47.20535" lon="-1.7688">
        <ele>62.1</ele>
        <time>2016-04-10T07:45:48.540Z</time>
      </trkpt>
      <trkpt lat="47.20539" lon="-1.76891">
        <ele>62.5</ele>
        <time>2016-04-10T07:45:53.555Z</time>
      </trkpt>
      <trkpt lat="47.20539" lon="-1.76892">
        <ele>62.6</ele>
        <time>2016-04-10T07:45:54.579Z</time>
      </trkpt>
      <trkpt lat="47.20542" lon="-1.76902">
        <ele>63</ele>
        <time>2016-04-10T07:45:59.515Z</time>
      </trkpt>
      <trkpt lat="47.20543" lon="-1.76904">
        <ele>63.1</ele>
        <time>2016-04-10T07:46:00.523Z</time>
      </trkpt>
      <trkpt lat="47.20546" lon="-1.76916">
        <ele>63.7</ele>
        <time>2016-04-10T07:46:07.616Z</time>
      </trkpt>
      <trkpt lat="47.20547" lon="-1.76917">
        <ele>63.8</ele>
        <time>2016-04-10T07:46:08.532Z</time>
      </trkpt>
      <trkpt lat="47.20548" lon="-1.7693">
        <ele>64</ele>
        <time>2016-04-10T07:46:14.649Z</time>
      </trkpt>
      <trkpt lat="47.20549" lon="-1.76932">
        <ele>64</ele>
        <time>2016-04-10T07:46:15.564Z</time>
      </trkpt>
      <trkpt lat="47.20549" lon="-1.76944">
        <ele>64.4</ele>
        <time>2016-04-10T07:46:21.594Z</time>
      </trkpt>
      <trkpt lat="47.20549" lon="-1.76946">
        <ele>64.4</ele>
        <time>2016-04-10T07:46:22.512Z</time>
      </trkpt>
      <trkpt lat="47.20548" lon="-1.76958">
        <ele>64.8</ele>
        <time>2016-04-10T07:46:29.582Z</time>
      </trkpt>
      <trkpt lat="47.20548" lon="-1.76961">
        <ele>64.8</ele>
        <time>2016-04-10T07:46:30.534Z</time>
      </trkpt>
      <trkpt lat="47.20548" lon="-1.76974">
        <ele>64.5</ele>
        <time>2016-04-10T07:46:37.691Z</time>
      </trkpt>
      <trkpt lat="47.20548" lon="-1.76975">
        <ele>64.4</ele>
        <time>2016-04-10T07:46:38.483Z</time>
      </trkpt>
      <trkpt lat="47.20547" lon="-1.76988">
        <ele>64.2</ele>
        <time>2016-04-10T07:46:45.720Z</time>
      </trkpt>
      <trkpt lat="47.20547" lon="-1.7699">
        <ele>64.1</ele>
        <time>2016-04-10T07:46:46.536Z</time>
      </trkpt>
      <trkpt lat="47.20549" lon="-1.77">
        <ele>64</ele>
        <time>2016-04-10T07:46:52.601Z</time>
      </trkpt>
      <trkpt lat="47.20549" lon="-1.77003">
        <ele>64</ele>
        <time>2016-04-10T07:46:53.540Z</time>
      </trkpt>
      <trkpt lat="47.2055" lon="-1.77015">
        <ele>63.9</ele>
        <time>2016-04-10T07:46:58.523Z</time>
      </trkpt>
      <trkpt lat="47.20551" lon="-1.77017">
        <ele>63.8</ele>
        <time>2016-04-10T07:46:59.529Z</time>
      </trkpt>
      <trkpt lat="47.2055" lon="-1.77029">
        <ele>63.4</ele>
        <time>2016-04-10T07:47:05.612Z</time>
      </trkpt>
      <trkpt lat="47.2055" lon="-1.77031">
        <ele>63.4</ele>
        <time>2016-04-10T07:47:06.546Z</time>
      </trkpt>
      <trkpt lat="47.20552" lon="-1.77043">
        <ele>63.4</ele>
        <time>2016-04-10T07:47:13.572Z</time>
      </trkpt>
      <trkpt lat="47.20552" lon="-1.77046">
        <ele>63.5</ele>
        <time>2016-04-10T07:47:14.490Z</time>
      </trkpt>
      <trkpt lat="47.20554" lon="-1.77058">
        <ele>63.6</ele>
        <time>2016-04-10T07:47:21.602Z</time>
      </trkpt>
      <trkpt lat="47.20554" lon="-1.7706">
        <ele>63.7</ele>
        <time>2016-04-10T07:47:22.518Z</time>
      </trkpt>
      <trkpt lat="47.20556" lon="-1.77072">
        <ele>64.1</ele>
        <time>2016-04-10T07:47:28.641Z</time>
      </trkpt>
      <trkpt lat="47.20556" lon="-1.77075">
        <ele>64.1</ele>
        <time>2016-04-10T07:47:29.518Z</time>
      </trkpt>
      <trkpt lat="47.20558" lon="-1.77087">
        <ele>64.5</ele>
        <time>2016-04-10T07:47:35.642Z</time>
      </trkpt>
      <trkpt lat="47.20558" lon="-1.77089">
        <ele>64.5</ele>
        <time>2016-04-10T07:47:36.542Z</time>
      </trkpt>
      <trkpt lat="47.20559" lon="-1.771">
        <ele>64.7</ele>
        <time>2016-04-10T07:47:42.644Z</time>
      </trkpt>
      <trkpt lat="47.20559" lon="-1.77102">
        <ele>64.8</ele>
        <time>2016-04-10T07:47:43.543Z</time>
      </trkpt>
      <trkpt lat="47.20562" lon="-1.77113">
        <ele>65.2</ele>
        <time>2016-04-10T07:47:49.624Z</time>
      </trkpt>
      <trkpt lat="47.20562" lon="-1.77115">
        <ele>65.3</ele>
        <time>2016-04-10T07:47:50.507Z</time>
      </trkpt>
      <trkpt lat="47.20564" lon="-1.77127">
        <ele>65.6</ele>
        <time>2016-04-10T07:47:56.573Z</time>
      </trkpt>
      <trkpt lat="47.20564" lon="-1.77129">
        <ele>65.7</ele>
        <time>2016-04-10T07:47:57.546Z</time>
      </trkpt>
      <trkpt lat="47.20565" lon="-1.77139">
        <ele>66.2</ele>
        <time>2016-04-10T07:48:02.554Z</time>
      </trkpt>
      <trkpt lat="47.20566" lon="-1.77142">
        <ele>66.3</ele>
        <time>2016-04-10T07:48:03.525Z</time>
      </trkpt>
      <trkpt lat="47.20568" lon="-1.77154">
        <ele>67.1</ele>
        <time>2016-04-10T07:48:08.659Z</time>
      </trkpt>
      <trkpt lat="47.20568" lon="-1.77156">
        <ele>67.3</ele>
        <time>2016-04-10T07:48:09.535Z</time>
      </trkpt>
      <trkpt lat="47.2057" lon="-1.77166">
        <ele>68.1</ele>
        <time>2016-04-10T07:48:15.577Z</time>
      </trkpt>
      <trkpt lat="47.2057" lon="-1.77169">
        <ele>68.2</ele>
        <time>2016-04-10T07:48:16.497Z</time>
      </trkpt>
      <trkpt lat="47.20571" lon="-1.77182">
        <ele>68.8</ele>
        <time>2016-04-10T07:48:21.664Z</time>
      </trkpt>
      <trkpt lat="47.20572" lon="-1.77184">
        <ele>68.9</ele>
        <time>2016-04-10T07:48:22.529Z</time>
      </trkpt>
      <trkpt lat="47.20574" lon="-1.77194">
        <ele>69.3</ele>
        <time>2016-04-10T07:48:27.617Z</time>
      </trkpt>
      <trkpt lat="47.20574" lon="-1.77197">
        <ele>69.4</ele>
        <time>2016-04-10T07:48:28.541Z</time>
      </trkpt>
      <trkpt lat="47.20573" lon="-1.77207">
        <ele>69.8</ele>
        <time>2016-04-10T07:48:33.573Z</time>
      </trkpt>
      <trkpt lat="47.20573" lon="-1.7721">
        <ele>69.9</ele>
        <time>2016-04-10T07:48:34.511Z</time>
      </trkpt>
      <trkpt lat="47.20572" lon="-1.77222">
        <ele>70</ele>
        <time>2016-04-10T07:48:39.553Z</time>
      </trkpt>
      <trkpt lat="47.20572" lon="-1.77225">
        <ele>70</ele>
        <time>2016-04-10T07:48:40.514Z</time>
      </trkpt>
      <trkpt lat="47.20572" lon="-1.77236">
        <ele>69.9</ele>
        <time>2016-04-10T07:48:44.614Z</time>
      </trkpt>
      <trkpt lat="47.20573" lon="-1.77238">
        <ele>69.8</ele>
        <time>2016-04-10T07:48:45.597Z</time>
      </trkpt>
      <trkpt lat="47.20573" lon="-1.7725">
        <ele>69.3</ele>
        <time>2016-04-10T07:48:50.588Z</time>
      </trkpt>
      <trkpt lat="47.20573" lon="-1.77252">
        <ele>69.2</ele>
        <time>2016-04-10T07:48:51.502Z</time>
      </trkpt>
      <trkpt lat="47.20573" lon="-1.77264">
        <ele>68.6</ele>
        <time>2016-04-10T07:48:57.817Z</time>
      </trkpt>
      <trkpt lat="47.20574" lon="-1.77266">
        <ele>68.5</ele>
        <time>2016-04-10T07:48:58.535Z</time>
      </trkpt>
      <trkpt lat="47.20574" lon="-1.77279">
        <ele>68</ele>
        <time>2016-04-10T07:49:06.575Z</time>
      </trkpt>
      <trkpt lat="47.20574" lon="-1.77281">
        <ele>67.9</ele>
        <time>2016-04-10T07:49:07.492Z</time>
      </trkpt>
      <trkpt lat="47.20572" lon="-1.77294">
        <ele>67.5</ele>
        <time>2016-04-10T07:49:13.542Z</time>
      </trkpt>
      <trkpt lat="47.20572" lon="-1.77296">
        <ele>67.4</ele>
        <time>2016-04-10T07:49:14.619Z</time>
      </trkpt>
      <trkpt lat="47.20571" lon="-1.77308">
        <ele>67.1</ele>
        <time>2016-04-10T07:49:20.611Z</time>
      </trkpt>
      <trkpt lat="47.20571" lon="-1.77309">
        <ele>67</ele>
        <time>2016-04-10T07:49:21.516Z</time>
      </trkpt>
      <trkpt lat="47.20571" lon="-1.77321">
        <ele>67</ele>
        <time>2016-04-10T07:49:27.662Z</time>
      </trkpt>
      <trkpt lat="47.20572" lon="-1.77323">
        <ele>67</ele>
        <time>2016-04-10T07:49:28.498Z</time>
      </trkpt>
      <trkpt lat="47.20573" lon="-1.77334">
        <ele>66.8</ele>
        <time>2016-04-10T07:49:33.591Z</time>
      </trkpt>
      <trkpt lat="47.20573" lon="-1.77336">
        <ele>66.8</ele>
        <time>2016-04-10T07:49:34.518Z</time>
      </trkpt>
      <trkpt lat="47.20575" lon="-1.77349">
        <ele>66.7</ele>
        <time>2016-04-10T07:49:41.584Z</time>
      </trkpt>
      <trkpt lat="47.20575" lon="-1.77351">
        <ele>66.7</ele>
        <time>2016-04-10T07:49:42.520Z</time>
      </trkpt>
      <trkpt lat="47.20577" lon="-1.77363">
        <ele>66.6</ele>
        <time>2016-04-10T07:49:48.624Z</time>
      </trkpt>
      <trkpt lat="47.20577" lon="-1.77365">
        <ele>66.6</ele>
        <time>2016-04-10T07:49:49.518Z</time>
      </trkpt>
      <trkpt lat="47.20579" lon="-1.77376">
        <ele>66.3</ele>
        <time>2016-04-10T07:49:55.545Z</time>
      </trkpt>
      <trkpt lat="47.20579" lon="-1.77378">
        <ele>66.3</ele>
        <time>2016-04-10T07:49:56.561Z</time>
      </trkpt>
      <trkpt lat="47.20581" lon="-1.7739">
        <ele>65.8</ele>
        <time>2016-04-10T07:50:02.574Z</time>
      </trkpt>
      <trkpt lat="47.20581" lon="-1.77391">
        <ele>65.6</ele>
        <time>2016-04-10T07:50:03.628Z</time>
      </trkpt>
      <trkpt lat="47.20584" lon="-1.77402">
        <ele>65</ele>
        <time>2016-04-10T07:50:09.662Z</time>
      </trkpt>
      <trkpt lat="47.20584" lon="-1.77404">
        <ele>64.9</ele>
        <time>2016-04-10T07:50:10.521Z</time>
      </trkpt>
      <trkpt lat="47.20585" lon="-1.77417">
        <ele>64.5</ele>
        <time>2016-04-10T07:50:15.670Z</time>
      </trkpt>
      <trkpt lat="47.20586" lon="-1.7742">
        <ele>64.5</ele>
        <time>2016-04-10T07:50:16.526Z</time>
      </trkpt>
      <trkpt lat="47.20586" lon="-1.77431">
        <ele>64.4</ele>
        <time>2016-04-10T07:50:23.579Z</time>
      </trkpt>
      <trkpt lat="47.20586" lon="-1.77433">
        <ele>64.4</ele>
        <time>2016-04-10T07:50:24.530Z</time>
      </trkpt>
      <trkpt lat="47.20587" lon="-1.77444">
        <ele>64.3</ele>
        <time>2016-04-10T07:50:30.574Z</time>
      </trkpt>
      <trkpt lat="47.20588" lon="-1.77446">
        <ele>64.3</ele>
        <time>2016-04-10T07:50:31.528Z</time>
      </trkpt>
      <trkpt lat="47.20592" lon="-1.77458">
        <ele>64.4</ele>
        <time>2016-04-10T07:50:38.580Z</time>
      </trkpt>
      <trkpt lat="47.20592" lon="-1.7746">
        <ele>64.4</ele>
        <time>2016-04-10T07:50:39.513Z</time>
      </trkpt>
      <trkpt lat="47.20597" lon="-1.77471">
        <ele>64.2</ele>
        <time>2016-04-10T07:50:45.567Z</time>
      </trkpt>
      <trkpt lat="47.20597" lon="-1.77473">
        <ele>64.2</ele>
        <time>2016-04-10T07:50:46.610Z</time>
      </trkpt>
      <trkpt lat="47.206" lon="-1.77483">
        <ele>64.1</ele>
        <time>2016-04-10T07:50:51.664Z</time>
      </trkpt>
      <trkpt lat="47.20601" lon="-1.77485">
        <ele>64.1</ele>
        <time>2016-04-10T07:50:52.509Z</time>
      </trkpt>
      <trkpt lat="47.20604" lon="-1.77497">
        <ele>63.9</ele>
        <time>2016-04-10T07:50:59.947Z</time>
      </trkpt>
      <trkpt lat="47.20604" lon="-1.77499">
        <ele>63.8</ele>
        <time>2016-04-10T07:51:00.685Z</time>
      </trkpt>
      <trkpt lat="47.20606" lon="-1.77511">
        <ele>63.3</ele>
        <time>2016-04-10T07:51:06.618Z</time>
      </trkpt>
      <trkpt lat="47.20607" lon="-1.77514">
        <ele>63.2</ele>
        <time>2016-04-10T07:51:07.596Z</time>
      </trkpt>
      <trkpt lat="47.20608" lon="-1.77526">
        <ele>63</ele>
        <time>2016-04-10T07:51:13.597Z</time>
      </trkpt>
      <trkpt lat="47.20608" lon="-1.77528">
        <ele>63</ele>
        <time>2016-04-10T07:51:14.520Z</time>
      </trkpt>
      <trkpt lat="47.20609" lon="-1.77541">
        <ele>63.1</ele>
        <time>2016-04-10T07:51:20.653Z</time>
      </trkpt>
      <trkpt lat="47.20609" lon="-1.77542">
        <ele>63.1</ele>
        <time>2016-04-10T07:51:21.523Z</time>
      </trkpt>
      <trkpt lat="47.20611" lon="-1.77555">
        <ele>63.1</ele>
        <time>2016-04-10T07:51:28.669Z</time>
      </trkpt>
      <trkpt lat="47.20611" lon="-1.77557">
        <ele>63.1</ele>
        <time>2016-04-10T07:51:29.535Z</time>
      </trkpt>
      <trkpt lat="47.2061" lon="-1.77569">
        <ele>63.2</ele>
        <time>2016-04-10T07:51:35.595Z</time>
      </trkpt>
      <trkpt lat="47.2061" lon="-1.77571">
        <ele>63.2</ele>
        <time>2016-04-10T07:51:36.535Z</time>
      </trkpt>
      <trkpt lat="47.2061" lon="-1.77583">
        <ele>62.8</ele>
        <time>2016-04-10T07:51:41.681Z</time>
      </trkpt>
      <trkpt lat="47.2061" lon="-1.77585">
        <ele>62.6</ele>
        <time>2016-04-10T07:51:42.500Z</time>
      </trkpt>
      <trkpt lat="47.20611" lon="-1.77598">
        <ele>62.3</ele>
        <time>2016-04-10T07:51:48.576Z</time>
      </trkpt>
      <trkpt lat="47.20611" lon="-1.776">
        <ele>62.2</ele>
        <time>2016-04-10T07:51:49.529Z</time>
      </trkpt>
      <trkpt lat="47.20611" lon="-1.77612">
        <ele>62.2</ele>
        <time>2016-04-10T07:51:55.653Z</time>
      </trkpt>
      <trkpt lat="47.20611" lon="-1.77614">
        <ele>62.2</ele>
        <time>2016-04-10T07:51:56.502Z</time>
      </trkpt>
      <trkpt lat="47.20611" lon="-1.77627">
        <ele>62.4</ele>
        <time>2016-04-10T07:52:03.589Z</time>
      </trkpt>
      <trkpt lat="47.20611" lon="-1.77628">
        <ele>62.4</ele>
        <time>2016-04-10T07:52:04.525Z</time>
      </trkpt>
      <trkpt lat="47.2061" lon="-1.7764">
        <ele>62.8</ele>
        <time>2016-04-10T07:52:10.781Z</time>
      </trkpt>
      <trkpt lat="47.20609" lon="-1.77642">
        <ele>62.9</ele>
        <time>2016-04-10T07:52:11.544Z</time>
      </trkpt>
      <trkpt lat="47.20607" lon="-1.77653">
        <ele>63</ele>
        <time>2016-04-10T07:52:17.605Z</time>
      </trkpt>
      <trkpt lat="47.20607" lon="-1.77655">
        <ele>63.1</ele>
        <time>2016-04-10T07:52:18.557Z</time>
      </trkpt>
      <trkpt lat="47.20604" lon="-1.77667">
        <ele>63.3</ele>
        <time>2016-04-10T07:52:24.602Z</time>
      </trkpt>
      <trkpt lat="47.20604" lon="-1.77669">
        <ele>63.3</ele>
        <time>2016-04-10T07:52:25.543Z</time>
      </trkpt>
      <trkpt lat="47.20601" lon="-1.77681">
        <ele>63.6</ele>
        <time>2016-04-10T07:52:31.540Z</time>
      </trkpt>
      <trkpt lat="47.20601" lon="-1.77683">
        <ele>63.6</ele>
        <time>2016-04-10T07:52:32.541Z</time>
      </trkpt>
      <trkpt lat="47.20598" lon="-1.77694">
        <ele>63.9</ele>
        <time>2016-04-10T07:52:39.616Z</time>
      </trkpt>
      <trkpt lat="47.20597" lon="-1.77696">
        <ele>64</ele>
        <time>2016-04-10T07:52:40.544Z</time>
      </trkpt>
      <trkpt lat="47.20597" lon="-1.77707">
        <ele>64.5</ele>
        <time>2016-04-10T07:52:46.877Z</time>
      </trkpt>
      <trkpt lat="47.20597" lon="-1.77709">
        <ele>64.6</ele>
        <time>2016-04-10T07:52:47.740Z</time>
      </trkpt>
      <trkpt lat="47.20598" lon="-1.77721">
        <ele>64.8</ele>
        <time>2016-04-10T07:52:53.597Z</time>
      </trkpt>
      <trkpt lat="47.20598" lon="-1.77723">
        <ele>64.8</ele>
        <time>2016-04-10T07:52:54.529Z</time>
      </trkpt>
      <trkpt lat="47.20598" lon="-1.77736">
        <ele>64.5</ele>
        <time>2016-04-10T07:53:00.660Z</time>
      </trkpt>
      <trkpt lat="47.20599" lon="-1.77737">
        <ele>64.5</ele>
        <time>2016-04-10T07:53:01.489Z</time>
      </trkpt>
      <trkpt lat="47.206" lon="-1.7775">
        <ele>64.5</ele>
        <time>2016-04-10T07:53:06.608Z</time>
      </trkpt>
      <trkpt lat="47.206" lon="-1.77752">
        <ele>64.4</ele>
        <time>2016-04-10T07:53:07.504Z</time>
      </trkpt>
      <trkpt lat="47.206" lon="-1.77763">
        <ele>64.4</ele>
        <time>2016-04-10T07:53:14.597Z</time>
      </trkpt>
      <trkpt lat="47.20599" lon="-1.77765">
        <ele>64.4</ele>
        <time>2016-04-10T07:53:15.545Z</time>
      </trkpt>
      <trkpt lat="47.20599" lon="-1.77777">
        <ele>64.4</ele>
        <time>2016-04-10T07:53:22.805Z</time>
      </trkpt>
      <trkpt lat="47.20599" lon="-1.77779">
        <ele>64.4</ele>
        <time>2016-04-10T07:53:23.502Z</time>
      </trkpt>
      <trkpt lat="47.20598" lon="-1.77791">
        <ele>64.2</ele>
        <time>2016-04-10T07:53:30.547Z</time>
      </trkpt>
      <trkpt lat="47.20598" lon="-1.77793">
        <ele>64.2</ele>
        <time>2016-04-10T07:53:31.531Z</time>
      </trkpt>
      <trkpt lat="47.20597" lon="-1.77806">
        <ele>64.1</ele>
        <time>2016-04-10T07:53:37.652Z</time>
      </trkpt>
      <trkpt lat="47.20597" lon="-1.77808">
        <ele>64</ele>
        <time>2016-04-10T07:53:38.672Z</time>
      </trkpt>
      <trkpt lat="47.20596" lon="-1.77819">
        <ele>63.8</ele>
        <time>2016-04-10T07:53:43.895Z</time>
      </trkpt>
      <trkpt lat="47.20596" lon="-1.77821">
        <ele>63.7</ele>
        <time>2016-04-10T07:53:44.569Z</time>
      </trkpt>
      <trkpt lat="47.20593" lon="-1.77833">
        <ele>63.4</ele>
        <time>2016-04-10T07:53:50.576Z</time>
      </trkpt>
      <trkpt lat="47.20593" lon="-1.77835">
        <ele>63.3</ele>
        <time>2016-04-10T07:53:51.543Z</time>
      </trkpt>
      <trkpt lat="47.20592" lon="-1.77847">
        <ele>62.9</ele>
        <time>2016-04-10T07:53:57.615Z</time>
      </trkpt>
      <trkpt lat="47.20591" lon="-1.77849">
        <ele>62.8</ele>
        <time>2016-04-10T07:53:58.521Z</time>
      </trkpt>
      <trkpt lat="47.20591" lon="-1.77861">
        <ele>62.1</ele>
        <time>2016-04-10T07:54:04.612Z</time>
      </trkpt>
      <trkpt lat="47.2059" lon="-1.77863">
        <ele>62</ele>
        <time>2016-04-10T07:54:05.517Z</time>
      </trkpt>
      <trkpt lat="47.20589" lon="-1.77875">
        <ele>61.4</ele>
        <time>2016-04-10T07:54:10.698Z</time>
      </trkpt>
      <trkpt lat="47.20588" lon="-1.77878">
        <ele>61.4</ele>
        <time>2016-04-10T07:54:11.499Z</time>
      </trkpt>
      <trkpt lat="47.20586" lon="-1.77891">
        <ele>60.9</ele>
        <time>2016-04-10T07:54:18.646Z</time>
      </trkpt>
      <trkpt lat="47.20586" lon="-1.77893">
        <ele>60.8</ele>
        <time>2016-04-10T07:54:19.546Z</time>
      </trkpt>
      <trkpt lat="47.20584" lon="-1.77904">
        <ele>60.5</ele>
        <time>2016-04-10T07:54:25.545Z</time>
      </trkpt>
      <trkpt lat="47.20584" lon="-1.77907">
        <ele>60.4</ele>
        <time>2016-04-10T07:54:26.539Z</time>
      </trkpt>
      <trkpt lat="47.20584" lon="-1.7792">
        <ele>60.4</ele>
        <time>2016-04-10T07:54:32.707Z</time>
      </trkpt>
      <trkpt lat="47.20584" lon="-1.77921">
        <ele>60.5</ele>
        <time>2016-04-10T07:54:33.539Z</time>
      </trkpt>
      <trkpt lat="47.20583" lon="-1.77934">
        <ele>60.7</ele>
        <time>2016-04-10T07:54:40.658Z</time>
      </trkpt>
      <trkpt lat="47.20583" lon="-1.77935">
        <ele>60.8</ele>
        <time>2016-04-10T07:54:41.501Z</time>
      </trkpt>
      <trkpt lat="47.20582" lon="-1.77948">
        <ele>61.1</ele>
        <time>2016-04-10T07:54:47.990Z</time>
      </trkpt>
      <trkpt lat="47.20583" lon="-1.77949">
        <ele>61.1</ele>
        <time>2016-04-10T07:54:48.551Z</time>
      </trkpt>
      <trkpt lat="47.20584" lon="-1.77962">
        <ele>61.1</ele>
        <time>2016-04-10T07:54:54.640Z</time>
      </trkpt>
      <trkpt lat="47.20584" lon="-1.77964">
        <ele>61</ele>
        <time>2016-04-10T07:54:55.560Z</time>
      </trkpt>
      <trkpt lat="47.20584" lon="-1.77977">
        <ele>60.4</ele>
        <time>2016-04-10T07:55:01.621Z</time>
      </trkpt>
      <trkpt lat="47.20584" lon="-1.77979">
        <ele>60.3</ele>
        <time>2016-04-10T07:55:02.532Z</time>
      </trkpt>
      <trkpt lat="47.20584" lon="-1.7799">
        <ele>59.5</ele>
        <time>2016-04-10T07:55:08.609Z</time>
      </trkpt>
      <trkpt lat="47.20584" lon="-1.77992">
        <ele>59.3</ele>
        <time>2016-04-10T07:55:09.544Z</time>
      </trkpt>
      <trkpt lat="47.20584" lon="-1.78004">
        <ele>58.4</ele>
        <time>2016-04-10T07:55:15.986Z</time>
      </trkpt>
      <trkpt lat="47.20584" lon="-1.78007">
        <ele>58.3</ele>
        <time>2016-04-10T07:55:16.546Z</time>
      </trkpt>
      <trkpt lat="47.20585" lon="-1.78019">
        <ele>57.7</ele>
        <time>2016-04-10T07:55:22.596Z</time>
      </trkpt>
      <trkpt lat="47.20585" lon="-1.78021">
        <ele>57.6</ele>
        <time>2016-04-10T07:55:23.555Z</time>
      </trkpt>
      <trkpt lat="47.20586" lon="-1.78032">
        <ele>57</ele>
        <time>2016-04-10T07:55:29.655Z</time>
      </trkpt>
      <trkpt lat="47.20586" lon="-1.78034">
        <ele>56.8</ele>
        <time>2016-04-10T07:55:30.578Z</time>
      </trkpt>
      <trkpt lat="47.20587" lon="-1.78046">
        <ele>55.9</ele>
        <time>2016-04-10T07:55:36.589Z</time>
      </trkpt>
      <trkpt lat="47.20587" lon="-1.78048">
        <ele>55.7</ele>
        <time>2016-04-10T07:55:37.554Z</time>
      </trkpt>
      <trkpt lat="47.2059" lon="-1.78058">
        <ele>55</ele>
        <time>2016-04-10T07:55:42.593Z</time>
      </trkpt>
      <trkpt lat="47.2059" lon="-1.78061">
        <ele>54.9</ele>
        <time>2016-04-10T07:55:43.567Z</time>
      </trkpt>
      <trkpt lat="47.20591" lon="-1.78072">
        <ele>54.6</ele>
        <time>2016-04-10T07:55:48.679Z</time>
      </trkpt>
      <trkpt lat="47.20591" lon="-1.78074">
        <ele>54.6</ele>
        <time>2016-04-10T07:55:49.531Z</time>
      </trkpt>
      <trkpt lat="47.20592" lon="-1.78087">
        <ele>54.5</ele>
        <time>2016-04-10T07:55:55.531Z</time>
      </trkpt>
      <trkpt lat="47.20592" lon="-1.78089">
        <ele>54.4</ele>
        <time>2016-04-10T07:55:56.541Z</time>
      </trkpt>
      <trkpt lat="47.20592" lon="-1.78101">
        <ele>54.4</ele>
        <time>2016-04-10T07:56:02.650Z</time>
      </trkpt>
      <trkpt lat="47.20592" lon="-1.78104">
        <ele>54.5</ele>
        <time>2016-04-10T07:56:03.620Z</time>
      </trkpt>
      <trkpt lat="47.20593" lon="-1.78115">
        <ele>54.9</ele>
        <time>2016-04-10T07:56:09.581Z</time>
      </trkpt>
      <trkpt lat="47.20592" lon="-1.78117">
        <ele>55</ele>
        <time>2016-04-10T07:56:10.507Z</time>
      </trkpt>
      <trkpt lat="47.20592" lon="-1.78126">
        <ele>55.5</ele>
        <time>2016-04-10T07:56:16.453Z</time>
      </trkpt>
      <trkpt lat="47.20593" lon="-1.78132">
        <ele>55.6</ele>
        <time>2016-04-10T07:56:18.409Z</time>
      </trkpt>
      <trkpt lat="47.20594" lon="-1.78143">
        <ele>55.8</ele>
        <time>2016-04-10T07:56:24.434Z</time>
      </trkpt>
      <trkpt lat="47.20594" lon="-1.78145">
        <ele>55.8</ele>
        <time>2016-04-10T07:56:24.839Z</time>
      </trkpt>
      <trkpt lat="47.20596" lon="-1.78156">
        <ele>55.1</ele>
        <time>2016-04-10T07:56:32.958Z</time>
      </trkpt>
      <trkpt lat="47.20596" lon="-1.78158">
        <ele>55</ele>
        <time>2016-04-10T07:56:33.864Z</time>
      </trkpt>
      <trkpt lat="47.20597" lon="-1.78171">
        <ele>54</ele>
        <time>2016-04-10T07:56:40.306Z</time>
      </trkpt>
      <trkpt lat="47.20597" lon="-1.78173">
        <ele>53.9</ele>
        <time>2016-04-10T07:56:40.800Z</time>
      </trkpt>
      <trkpt lat="47.20599" lon="-1.78184">
        <ele>54</ele>
        <time>2016-04-10T07:56:45.879Z</time>
      </trkpt>
      <trkpt lat="47.20599" lon="-1.78186">
        <ele>54</ele>
        <time>2016-04-10T07:56:47.077Z</time>
      </trkpt>
      <trkpt lat="47.20601" lon="-1.78197">
        <ele>54.2</ele>
        <time>2016-04-10T07:56:53.158Z</time>
      </trkpt>
      <trkpt lat="47.20602" lon="-1.782">
        <ele>54.3</ele>
        <time>2016-04-10T07:56:55.402Z</time>
      </trkpt>
      <trkpt lat="47.20604" lon="-1.78211">
        <ele>54.3</ele>
        <time>2016-04-10T07:57:00.157Z</time>
      </trkpt>
      <trkpt lat="47.20604" lon="-1.78214">
        <ele>54.3</ele>
        <time>2016-04-10T07:57:00.997Z</time>
      </trkpt>
      <trkpt lat="47.20606" lon="-1.78227">
        <ele>54.2</ele>
        <time>2016-04-10T07:57:07.025Z</time>
      </trkpt>
      <trkpt lat="47.20606" lon="-1.78229">
        <ele>54.3</ele>
        <time>2016-04-10T07:57:07.995Z</time>
      </trkpt>
      <trkpt lat="47.20609" lon="-1.78241">
        <ele>55.3</ele>
        <time>2016-04-10T07:57:14.910Z</time>
      </trkpt>
      <trkpt lat="47.20609" lon="-1.78243">
        <ele>55.4</ele>
        <time>2016-04-10T07:57:15.837Z</time>
      </trkpt>
      <trkpt lat="47.2061" lon="-1.78254">
        <ele>56.1</ele>
        <time>2016-04-10T07:57:21.899Z</time>
      </trkpt>
      <trkpt lat="47.2061" lon="-1.78256">
        <ele>56.3</ele>
        <time>2016-04-10T07:57:22.858Z</time>
      </trkpt>
      <trkpt lat="47.20611" lon="-1.78267">
        <ele>56.8</ele>
        <time>2016-04-10T07:57:27.852Z</time>
      </trkpt>
      <trkpt lat="47.20611" lon="-1.78269">
        <ele>56.9</ele>
        <time>2016-04-10T07:57:28.895Z</time>
      </trkpt>
      <trkpt lat="47.20613" lon="-1.78282">
        <ele>57.5</ele>
        <time>2016-04-10T07:57:37.054Z</time>
      </trkpt>
      <trkpt lat="47.20613" lon="-1.78284">
        <ele>57.6</ele>
        <time>2016-04-10T07:57:37.157Z</time>
      </trkpt>
      <trkpt lat="47.20615" lon="-1.78297">
        <ele>58</ele>
        <time>2016-04-10T07:57:44.873Z</time>
      </trkpt>
      <trkpt lat="47.20615" lon="-1.78299">
        <ele>58</ele>
        <time>2016-04-10T07:57:45.837Z</time>
      </trkpt>
      <trkpt lat="47.20616" lon="-1.7831">
        <ele>58.3</ele>
        <time>2016-04-10T07:57:50.884Z</time>
      </trkpt>
      <trkpt lat="47.20616" lon="-1.78312">
        <ele>58.4</ele>
        <time>2016-04-10T07:57:51.977Z</time>
      </trkpt>
      <trkpt lat="47.20618" lon="-1.78325">
        <ele>58.7</ele>
        <time>2016-04-10T07:57:58.200Z</time>
      </trkpt>
      <trkpt lat="47.20618" lon="-1.78326">
        <ele>58.7</ele>
        <time>2016-04-10T07:57:58.866Z</time>
      </trkpt>
      <trkpt lat="47.20619" lon="-1.78339">
        <ele>59</ele>
        <time>2016-04-10T07:58:03.898Z</time>
      </trkpt>
      <trkpt lat="47.20619" lon="-1.78341">
        <ele>59.1</ele>
        <time>2016-04-10T07:58:04.874Z</time>
      </trkpt>
      <trkpt lat="47.20621" lon="-1.78353">
        <ele>59.8</ele>
        <time>2016-04-10T07:58:12.931Z</time>
      </trkpt>
      <trkpt lat="47.20621" lon="-1.78355">
        <ele>59.9</ele>
        <time>2016-04-10T07:58:13.887Z</time>
      </trkpt>
      <trkpt lat="47.20622" lon="-1.78366">
        <ele>60.4</ele>
        <time>2016-04-10T07:58:18.940Z</time>
      </trkpt>
      <trkpt lat="47.20623" lon="-1.78368">
        <ele>60.4</ele>
        <time>2016-04-10T07:58:19.847Z</time>
      </trkpt>
      <trkpt lat="47.20624" lon="-1.78381">
        <ele>60.7</ele>
        <time>2016-04-10T07:58:26.989Z</time>
      </trkpt>
      <trkpt lat="47.20624" lon="-1.78382">
        <ele>60.7</ele>
        <time>2016-04-10T07:58:27.849Z</time>
      </trkpt>
      <trkpt lat="47.20624" lon="-1.78394">
        <ele>60.7</ele>
        <time>2016-04-10T07:58:33.991Z</time>
      </trkpt>
      <trkpt lat="47.20624" lon="-1.78397">
        <ele>60.7</ele>
        <time>2016-04-10T07:58:34.841Z</time>
      </trkpt>
      <trkpt lat="47.20624" lon="-1.7841">
        <ele>60.7</ele>
        <time>2016-04-10T07:58:41.874Z</time>
      </trkpt>
      <trkpt lat="47.20624" lon="-1.78411">
        <ele>60.6</ele>
        <time>2016-04-10T07:58:42.797Z</time>
      </trkpt>
      <trkpt lat="47.20626" lon="-1.78422">
        <ele>60.5</ele>
        <time>2016-04-10T07:58:54.853Z</time>
      </trkpt>
      <trkpt lat="47.20626" lon="-1.78424">
        <ele>60.5</ele>
        <time>2016-04-10T07:58:55.832Z</time>
      </trkpt>
      <trkpt lat="47.20627" lon="-1.78437">
        <ele>60.8</ele>
        <time>2016-04-10T07:59:02.887Z</time>
      </trkpt>
      <trkpt lat="47.20627" lon="-1.78438">
        <ele>60.7</ele>
        <time>2016-04-10T07:59:04.033Z</time>
      </trkpt>
      <trkpt lat="47.20628" lon="-1.78451">
        <ele>60.6</ele>
        <time>2016-04-10T07:59:09.987Z</time>
      </trkpt>
      <trkpt lat="47.20628" lon="-1.78453">
        <ele>60.6</ele>
        <time>2016-04-10T07:59:10.892Z</time>
      </trkpt>
      <trkpt lat="47.20627" lon="-1.78466">
        <ele>60.2</ele>
        <time>2016-04-10T07:59:18.933Z</time>
      </trkpt>
      <trkpt lat="47.20626" lon="-1.78467">
        <ele>60</ele>
        <time>2016-04-10T07:59:19.847Z</time>
      </trkpt>
      <trkpt lat="47.20625" lon="-1.78478">
        <ele>58.8</ele>
        <time>2016-04-10T07:59:26.985Z</time>
      </trkpt>
      <trkpt lat="47.20625" lon="-1.7848">
        <ele>58.8</ele>
        <time>2016-04-10T07:59:28.084Z</time>
      </trkpt>
      <trkpt lat="47.20623" lon="-1.78493">
        <ele>59.6</ele>
        <time>2016-04-10T07:59:35.897Z</time>
      </trkpt>
      <trkpt lat="47.20623" lon="-1.78495">
        <ele>59.7</ele>
        <time>2016-04-10T07:59:36.883Z</time>
      </trkpt>
      <trkpt lat="47.20623" lon="-1.78508">
        <ele>60.9</ele>
        <time>2016-04-10T07:59:44.910Z</time>
      </trkpt>
      <trkpt lat="47.20623" lon="-1.7851">
        <ele>61</ele>
        <time>2016-04-10T07:59:45.863Z</time>
      </trkpt>
      <trkpt lat="47.20623" lon="-1.78522">
        <ele>61</ele>
        <time>2016-04-10T07:59:58.933Z</time>
      </trkpt>
      <trkpt lat="47.20623" lon="-1.78523">
        <ele>61</ele>
        <time>2016-04-10T07:59:59.812Z</time>
      </trkpt>
      <trkpt lat="47.20623" lon="-1.78536">
        <ele>60</ele>
        <time>2016-04-10T08:00:49.357Z</time>
      </trkpt>
      <trkpt lat="47.20624" lon="-1.78537">
        <ele>59.8</ele>
        <time>2016-04-10T08:00:49.877Z</time>
      </trkpt>
      <trkpt lat="47.20628" lon="-1.78547">
        <ele>59.1</ele>
        <time>2016-04-10T08:01:01.963Z</time>
      </trkpt>
      <trkpt lat="47.20629" lon="-1.78548">
        <ele>59</ele>
        <time>2016-04-10T08:01:02.859Z</time>
      </trkpt>
      <trkpt lat="47.20638" lon="-1.78547">
        <ele>58.2</ele>
        <time>2016-04-10T08:01:42.872Z</time>
      </trkpt>
      <trkpt lat="47.20638" lon="-1.78546">
        <ele>58</ele>
        <time>2016-04-10T08:01:43.884Z</time>
      </trkpt>
      <trkpt lat="47.20646" lon="-1.7854">
        <ele>54.1</ele>
        <time>2016-04-10T08:03:00.818Z</time>
      </trkpt>
      <trkpt lat="47.20646" lon="-1.78539">
        <ele>54</ele>
        <time>2016-04-10T08:03:01.833Z</time>
      </trkpt>
      <trkpt lat="47.20654" lon="-1.78544">
        <ele>52.6</ele>
        <time>2016-04-10T08:05:01.170Z</time>
      </trkpt>
      <trkpt lat="47.20655" lon="-1.78543">
        <ele>52.6</ele>
        <time>2016-04-10T08:05:01.981Z</time>
      </trkpt>
      <trkpt lat="47.20663" lon="-1.78546">
        <ele>52.8</ele>
        <time>2016-04-10T08:05:08.865Z</time>
      </trkpt>
      <trkpt lat="47.20664" lon="-1.78547">
        <ele>52.7</ele>
        <time>2016-04-10T08:05:09.836Z</time>
      </trkpt>
      <trkpt lat="47.20672" lon="-1.78549">
        <ele>52.7</ele>
        <time>2016-04-10T08:05:19.860Z</time>
      </trkpt>
      <trkpt lat="47.20674" lon="-1.78549">
        <ele>52.6</ele>
        <time>2016-04-10T08:05:20.819Z</time>
      </trkpt>
      <trkpt lat="47.20681" lon="-1.78542">
        <ele>51.6</ele>
        <time>2016-04-10T08:05:27.819Z</time>
      </trkpt>
      <trkpt lat="47.20682" lon="-1.78541">
        <ele>51.6</ele>
        <time>2016-04-10T08:05:28.815Z</time>
      </trkpt>
      <trkpt lat="47.2069" lon="-1.78534">
        <ele>51.6</ele>
        <time>2016-04-10T08:05:37.027Z</time>
      </trkpt>
      <trkpt lat="47.20691" lon="-1.78533">
        <ele>51.7</ele>
        <time>2016-04-10T08:05:37.337Z</time>
      </trkpt>
      <trkpt lat="47.20696" lon="-1.78526">
        <ele>51.9</ele>
        <time>2016-04-10T08:05:42.978Z</time>
      </trkpt>
      <trkpt lat="47.20697" lon="-1.78524">
        <ele>52</ele>
        <time>2016-04-10T08:05:43.869Z</time>
      </trkpt>
      <trkpt lat="47.20705" lon="-1.78518">
        <ele>52.8</ele>
        <time>2016-04-10T08:05:49.938Z</time>
      </trkpt>
      <trkpt lat="47.20707" lon="-1.78517">
        <ele>53</ele>
        <time>2016-04-10T08:05:50.851Z</time>
      </trkpt>
      <trkpt lat="47.20714" lon="-1.78512">
        <ele>53.5</ele>
        <time>2016-04-10T08:05:54.969Z</time>
      </trkpt>
      <trkpt lat="47.20716" lon="-1.7851">
        <ele>53.7</ele>
        <time>2016-04-10T08:05:55.857Z</time>
      </trkpt>
      <trkpt lat="47.20724" lon="-1.78504">
        <ele>54.9</ele>
        <time>2016-04-10T08:06:04.837Z</time>
      </trkpt>
      <trkpt lat="47.20725" lon="-1.78504">
        <ele>55</ele>
        <time>2016-04-10T08:06:05.841Z</time>
      </trkpt>
      <trkpt lat="47.20732" lon="-1.785">
        <ele>55.1</ele>
        <time>2016-04-10T08:06:10.912Z</time>
      </trkpt>
      <trkpt lat="47.20734" lon="-1.78498">
        <ele>55.1</ele>
        <time>2016-04-10T08:06:11.809Z</time>
      </trkpt>
      <trkpt lat="47.20742" lon="-1.78493">
        <ele>55.2</ele>
        <time>2016-04-10T08:06:18.921Z</time>
      </trkpt>
      <trkpt lat="47.20743" lon="-1.78492">
        <ele>55.2</ele>
        <time>2016-04-10T08:06:19.860Z</time>
      </trkpt>
      <trkpt lat="47.2075" lon="-1.78486">
        <ele>55.4</ele>
        <time>2016-04-10T08:06:27.903Z</time>
      </trkpt>
      <trkpt lat="47.20751" lon="-1.78486">
        <ele>55.4</ele>
        <time>2016-04-10T08:06:28.805Z</time>
      </trkpt>
      <trkpt lat="47.20759" lon="-1.78481">
        <ele>55.7</ele>
        <time>2016-04-10T08:06:35.122Z</time>
      </trkpt>
      <trkpt lat="47.2076" lon="-1.7848">
        <ele>55.8</ele>
        <time>2016-04-10T08:06:35.867Z</time>
      </trkpt>
      <trkpt lat="47.20765" lon="-1.7847">
        <ele>56.3</ele>
        <time>2016-04-10T08:06:43.997Z</time>
      </trkpt>
      <trkpt lat="47.20765" lon="-1.78469">
        <ele>56.4</ele>
        <time>2016-04-10T08:06:44.864Z</time>
      </trkpt>
      <trkpt lat="47.20768" lon="-1.78459">
        <ele>56.7</ele>
        <time>2016-04-10T08:06:49.967Z</time>
      </trkpt>
      <trkpt lat="47.20769" lon="-1.78456">
        <ele>56.7</ele>
        <time>2016-04-10T08:06:50.846Z</time>
      </trkpt>
      <trkpt lat="47.20771" lon="-1.78443">
        <ele>57</ele>
        <time>2016-04-10T08:06:59.177Z</time>
      </trkpt>
      <trkpt lat="47.20772" lon="-1.78441">
        <ele>57</ele>
        <time>2016-04-10T08:06:59.850Z</time>
      </trkpt>
      <trkpt lat="47.20775" lon="-1.78429">
        <ele>57</ele>
        <time>2016-04-10T08:07:04.892Z</time>
      </trkpt>
      <trkpt lat="47.20776" lon="-1.78428">
        <ele>57</ele>
        <time>2016-04-10T08:07:05.832Z</time>
      </trkpt>
      <trkpt lat="47.20779" lon="-1.78416">
        <ele>57</ele>
        <time>2016-04-10T08:07:12.870Z</time>
      </trkpt>
      <trkpt lat="47.20779" lon="-1.78414">
        <ele>57</ele>
        <time>2016-04-10T08:07:13.849Z</time>
      </trkpt>
      <trkpt lat="47.20781" lon="-1.78402">
        <ele>56.8</ele>
        <time>2016-04-10T08:07:19.934Z</time>
      </trkpt>
      <trkpt lat="47.20781" lon="-1.78401">
        <ele>56.7</ele>
        <time>2016-04-10T08:07:21.207Z</time>
      </trkpt>
      <trkpt lat="47.20785" lon="-1.7839">
        <ele>57</ele>
        <time>2016-04-10T08:07:27.898Z</time>
      </trkpt>
      <trkpt lat="47.20785" lon="-1.78389">
        <ele>57</ele>
        <time>2016-04-10T08:07:28.883Z</time>
      </trkpt>
      <trkpt lat="47.20788" lon="-1.78377">
        <ele>56.8</ele>
        <time>2016-04-10T08:07:33.932Z</time>
      </trkpt>
      <trkpt lat="47.20789" lon="-1.78375">
        <ele>56.7</ele>
        <time>2016-04-10T08:07:34.845Z</time>
      </trkpt>
      <trkpt lat="47.20788" lon="-1.78362">
        <ele>57.1</ele>
        <time>2016-04-10T08:07:52.898Z</time>
      </trkpt>
      <trkpt lat="47.20788" lon="-1.78361">
        <ele>57.1</ele>
        <time>2016-04-10T08:07:53.845Z</time>
      </trkpt>
      <trkpt lat="47.20782" lon="-1.78369">
        <ele>57.9</ele>
        <time>2016-04-10T08:08:31.011Z</time>
      </trkpt>
      <trkpt lat="47.20782" lon="-1.78373">
        <ele>57.9</ele>
        <time>2016-04-10T08:08:31.884Z</time>
      </trkpt>
      <trkpt lat="47.20781" lon="-1.78385">
        <ele>58</ele>
        <time>2016-04-10T08:08:39.927Z</time>
      </trkpt>
      <trkpt lat="47.20781" lon="-1.78388">
        <ele>58.1</ele>
        <time>2016-04-10T08:08:40.867Z</time>
      </trkpt>
      <trkpt lat="47.20779" lon="-1.78399">
        <ele>57.8</ele>
        <time>2016-04-10T08:08:49.980Z</time>
      </trkpt>
      <trkpt lat="47.20779" lon="-1.78401">
        <ele>57.6</ele>
        <time>2016-04-10T08:08:50.858Z</time>
      </trkpt>
      <trkpt lat="47.20778" lon="-1.78414">
        <ele>57.2</ele>
        <time>2016-04-10T08:08:57.917Z</time>
      </trkpt>
      <trkpt lat="47.20778" lon="-1.78416">
        <ele>57.2</ele>
        <time>2016-04-10T08:08:58.807Z</time>
      </trkpt>
      <trkpt lat="47.20778" lon="-1.78428">
        <ele>56.9</ele>
        <time>2016-04-10T08:09:05.941Z</time>
      </trkpt>
      <trkpt lat="47.20777" lon="-1.78429">
        <ele>56.8</ele>
        <time>2016-04-10T08:09:06.861Z</time>
      </trkpt>
      <trkpt lat="47.20775" lon="-1.78442">
        <ele>56.3</ele>
        <time>2016-04-10T08:09:13.956Z</time>
      </trkpt>
      <trkpt lat="47.20774" lon="-1.78443">
        <ele>56.2</ele>
        <time>2016-04-10T08:09:14.811Z</time>
      </trkpt>
      <trkpt lat="47.20772" lon="-1.78454">
        <ele>56</ele>
        <time>2016-04-10T08:09:20.238Z</time>
      </trkpt>
      <trkpt lat="47.20772" lon="-1.78457">
        <ele>55.9</ele>
        <time>2016-04-10T08:09:21.008Z</time>
      </trkpt>
      <trkpt lat="47.2077" lon="-1.78468">
        <ele>55.8</ele>
        <time>2016-04-10T08:09:27.892Z</time>
      </trkpt>
      <trkpt lat="47.2077" lon="-1.7847">
        <ele>55.8</ele>
        <time>2016-04-10T08:09:28.814Z</time>
      </trkpt>
      <trkpt lat="47.20764" lon="-1.78479">
        <ele>56</ele>
        <time>2016-04-10T08:09:35.938Z</time>
      </trkpt>
      <trkpt lat="47.20764" lon="-1.7848">
        <ele>56</ele>
        <time>2016-04-10T08:09:36.862Z</time>
      </trkpt>
      <trkpt lat="47.20756" lon="-1.78486">
        <ele>56.7</ele>
        <time>2016-04-10T08:09:44.871Z</time>
      </trkpt>
      <trkpt lat="47.20755" lon="-1.78487">
        <ele>56.8</ele>
        <time>2016-04-10T08:09:46.168Z</time>
      </trkpt>
      <trkpt lat="47.20748" lon="-1.78493">
        <ele>57.1</ele>
        <time>2016-04-10T08:09:51.925Z</time>
      </trkpt>
      <trkpt lat="47.20747" lon="-1.78494">
        <ele>57.2</ele>
        <time>2016-04-10T08:09:52.859Z</time>
      </trkpt>
      <trkpt lat="47.20739" lon="-1.78499">
        <ele>57</ele>
        <time>2016-04-10T08:09:59.841Z</time>
      </trkpt>
      <trkpt lat="47.20738" lon="-1.785">
        <ele>56.9</ele>
        <time>2016-04-10T08:10:00.815Z</time>
      </trkpt>
      <trkpt lat="47.20731" lon="-1.78508">
        <ele>56.8</ele>
        <time>2016-04-10T08:10:07.882Z</time>
      </trkpt>
      <trkpt lat="47.2073" lon="-1.78509">
        <ele>56.8</ele>
        <time>2016-04-10T08:10:08.856Z</time>
      </trkpt>
      <trkpt lat="47.20722" lon="-1.78514">
        <ele>57</ele>
        <time>2016-04-10T08:10:14.956Z</time>
      </trkpt>
      <trkpt lat="47.20721" lon="-1.78515">
        <ele>57.1</ele>
        <time>2016-04-10T08:10:15.869Z</time>
      </trkpt>
      <trkpt lat="47.20713" lon="-1.7852">
        <ele>57.4</ele>
        <time>2016-04-10T08:10:22.880Z</time>
      </trkpt>
      <trkpt lat="47.20712" lon="-1.78521">
        <ele>57.4</ele>
        <time>2016-04-10T08:10:23.816Z</time>
      </trkpt>
      <trkpt lat="47.20705" lon="-1.78528">
        <ele>57.4</ele>
        <time>2016-04-10T08:10:30.984Z</time>
      </trkpt>
      <trkpt lat="47.20704" lon="-1.78529">
        <ele>57.4</ele>
        <time>2016-04-10T08:10:31.863Z</time>
      </trkpt>
      <trkpt lat="47.20696" lon="-1.78536">
        <ele>58</ele>
        <time>2016-04-10T08:10:39.882Z</time>
      </trkpt>
      <trkpt lat="47.20695" lon="-1.78537">
        <ele>58.1</ele>
        <time>2016-04-10T08:10:40.854Z</time>
      </trkpt>
      <trkpt lat="47.20688" lon="-1.78544">
        <ele>58.6</ele>
        <time>2016-04-10T08:10:47.876Z</time>
      </trkpt>
      <trkpt lat="47.20688" lon="-1.78544">
        <ele>58.7</ele>
        <time>2016-04-10T08:10:48.844Z</time>
      </trkpt>
      <trkpt lat="47.20681" lon="-1.78552">
        <ele>58.8</ele>
        <time>2016-04-10T08:10:57.940Z</time>
      </trkpt>
      <trkpt lat="47.2068" lon="-1.78553">
        <ele>58.8</ele>
        <time>2016-04-10T08:10:58.866Z</time>
      </trkpt>
      <trkpt lat="47.20686" lon="-1.78563">
        <ele>58.4</ele>
        <time>2016-04-10T08:11:38.863Z</time>
      </trkpt>
      <trkpt lat="47.20686" lon="-1.78563">
        <ele>58.4</ele>
        <time>2016-04-10T08:11:39.825Z</time>
      </trkpt>
      <trkpt lat="47.20687" lon="-1.78575">
        <ele>60</ele>
        <time>2016-04-10T08:12:10.889Z</time>
      </trkpt>
      <trkpt lat="47.20687" lon="-1.78577">
        <ele>60.1</ele>
        <time>2016-04-10T08:12:11.859Z</time>
      </trkpt>
      <trkpt lat="47.20686" lon="-1.78588">
        <ele>60.5</ele>
        <time>2016-04-10T08:12:17.202Z</time>
      </trkpt>
      <trkpt lat="47.20685" lon="-1.7859">
        <ele>60.5</ele>
        <time>2016-04-10T08:12:17.858Z</time>
      </trkpt>
      <trkpt lat="47.20684" lon="-1.78601">
        <ele>60.4</ele>
        <time>2016-04-10T08:12:21.926Z</time>
      </trkpt>
      <trkpt lat="47.20684" lon="-1.78603">
        <ele>60.3</ele>
        <time>2016-04-10T08:12:22.881Z</time>
      </trkpt>
      <trkpt lat="47.20681" lon="-1.78615">
        <ele>60.1</ele>
        <time>2016-04-10T08:12:27.959Z</time>
      </trkpt>
      <trkpt lat="47.20681" lon="-1.78617">
        <ele>60.1</ele>
        <time>2016-04-10T08:12:28.855Z</time>
      </trkpt>
      <trkpt lat="47.20679" lon="-1.7863">
        <ele>60.5</ele>
        <time>2016-04-10T08:12:33.935Z</time>
      </trkpt>
      <trkpt lat="47.20678" lon="-1.78632">
        <ele>60.6</ele>
        <time>2016-04-10T08:12:34.855Z</time>
      </trkpt>
      <trkpt lat="47.20675" lon="-1.78641">
        <ele>60.8</ele>
        <time>2016-04-10T08:12:38.886Z</time>
      </trkpt>
      <trkpt lat="47.20674" lon="-1.78643">
        <ele>60.8</ele>
        <time>2016-04-10T08:12:39.868Z</time>
      </trkpt>
      <trkpt lat="47.20666" lon="-1.78648">
        <ele>60.2</ele>
        <time>2016-04-10T08:12:44.958Z</time>
      </trkpt>
      <trkpt lat="47.20665" lon="-1.78648">
        <ele>60</ele>
        <time>2016-04-10T08:12:45.987Z</time>
      </trkpt>
      <trkpt lat="47.20656" lon="-1.78644">
        <ele>58.1</ele>
        <time>2016-04-10T08:12:55.879Z</time>
      </trkpt>
      <trkpt lat="47.20656" lon="-1.78644">
        <ele>58</ele>
        <time>2016-04-10T08:12:56.819Z</time>
      </trkpt>
      <trkpt lat="47.2065" lon="-1.78654">
        <ele>56.7</ele>
        <time>2016-04-10T08:13:04.939Z</time>
      </trkpt>
      <trkpt lat="47.2065" lon="-1.78655">
        <ele>56.5</ele>
        <time>2016-04-10T08:13:05.836Z</time>
      </trkpt>
      <trkpt lat="47.20645" lon="-1.78666">
        <ele>55.7</ele>
        <time>2016-04-10T08:13:12.921Z</time>
      </trkpt>
      <trkpt lat="47.20644" lon="-1.78668">
        <ele>55.6</ele>
        <time>2016-04-10T08:13:13.858Z</time>
      </trkpt>
      <trkpt lat="47.20641" lon="-1.78678">
        <ele>55.1</ele>
        <time>2016-04-10T08:13:19.923Z</time>
      </trkpt>
      <trkpt lat="47.2064" lon="-1.78679">
        <ele>55</ele>
        <time>2016-04-10T08:13:20.838Z</time>
      </trkpt>
      <trkpt lat="47.20636" lon="-1.78689">
        <ele>54.3</ele>
        <time>2016-04-10T08:13:25.947Z</time>
      </trkpt>
      <trkpt lat="47.20636" lon="-1.78692">
        <ele>54.1</ele>
        <time>2016-04-10T08:13:26.836Z</time>
      </trkpt>
      <trkpt lat="47.20633" lon="-1.78702">
        <ele>53.8</ele>
        <time>2016-04-10T08:13:32.233Z</time>
      </trkpt>
      <trkpt lat="47.20633" lon="-1.78704">
        <ele>53.8</ele>
        <time>2016-04-10T08:13:32.814Z</time>
      </trkpt>
      <trkpt lat="47.20631" lon="-1.78715">
        <ele>53.6</ele>
        <time>2016-04-10T08:13:37.921Z</time>
      </trkpt>
      <trkpt lat="47.2063" lon="-1.78718">
        <ele>53.6</ele>
        <time>2016-04-10T08:13:38.817Z</time>
      </trkpt>
      <trkpt lat="47.20627" lon="-1.78729">
        <ele>53.8</ele>
        <time>2016-04-10T08:13:43.913Z</time>
      </trkpt>
      <trkpt lat="47.20627" lon="-1.78731">
        <ele>53.8</ele>
        <time>2016-04-10T08:13:44.862Z</time>
      </trkpt>
      <trkpt lat="47.20625" lon="-1.78742">
        <ele>53.8</ele>
        <time>2016-04-10T08:13:50.967Z</time>
      </trkpt>
      <trkpt lat="47.20625" lon="-1.78744">
        <ele>53.8</ele>
        <time>2016-04-10T08:13:51.857Z</time>
      </trkpt>
      <trkpt lat="47.20623" lon="-1.78757">
        <ele>54</ele>
        <time>2016-04-10T08:13:58.957Z</time>
      </trkpt>
      <trkpt lat="47.20622" lon="-1.78759">
        <ele>54</ele>
        <time>2016-04-10T08:13:59.816Z</time>
      </trkpt>
      <trkpt lat="47.2062" lon="-1.78769">
        <ele>54.4</ele>
        <time>2016-04-10T08:14:05.870Z</time>
      </trkpt>
      <trkpt lat="47.20619" lon="-1.78771">
        <ele>54.4</ele>
        <time>2016-04-10T08:14:06.842Z</time>
      </trkpt>
      <trkpt lat="47.20618" lon="-1.78784">
        <ele>55</ele>
        <time>2016-04-10T08:14:12.856Z</time>
      </trkpt>
      <trkpt lat="47.20618" lon="-1.78785">
        <ele>55</ele>
        <time>2016-04-10T08:14:13.854Z</time>
      </trkpt>
      <trkpt lat="47.20615" lon="-1.78797">
        <ele>55.2</ele>
        <time>2016-04-10T08:14:19.938Z</time>
      </trkpt>
      <trkpt lat="47.20615" lon="-1.78799">
        <ele>55.2</ele>
        <time>2016-04-10T08:14:20.853Z</time>
      </trkpt>
      <trkpt lat="47.2061" lon="-1.78811">
        <ele>55</ele>
        <time>2016-04-10T08:14:26.937Z</time>
      </trkpt>
      <trkpt lat="47.2061" lon="-1.78812">
        <ele>54.9</ele>
        <time>2016-04-10T08:14:28.053Z</time>
      </trkpt>
      <trkpt lat="47.20607" lon="-1.78824">
        <ele>54.8</ele>
        <time>2016-04-10T08:14:35.260Z</time>
      </trkpt>
      <trkpt lat="47.20607" lon="-1.78826">
        <ele>54.7</ele>
        <time>2016-04-10T08:14:35.825Z</time>
      </trkpt>
      <trkpt lat="47.20604" lon="-1.78838">
        <ele>54.7</ele>
        <time>2016-04-10T08:14:41.962Z</time>
      </trkpt>
      <trkpt lat="47.20604" lon="-1.7884">
        <ele>54.7</ele>
        <time>2016-04-10T08:14:42.822Z</time>
      </trkpt>
      <trkpt lat="47.206" lon="-1.78851">
        <ele>55</ele>
        <time>2016-04-10T08:14:49.951Z</time>
      </trkpt>
      <trkpt lat="47.20599" lon="-1.78853">
        <ele>55</ele>
        <time>2016-04-10T08:14:50.861Z</time>
      </trkpt>
      <trkpt lat="47.20596" lon="-1.78865">
        <ele>55</ele>
        <time>2016-04-10T08:14:56.922Z</time>
      </trkpt>
      <trkpt lat="47.20596" lon="-1.78866">
        <ele>55</ele>
        <time>2016-04-10T08:14:57.978Z</time>
      </trkpt>
      <trkpt lat="47.20594" lon="-1.78879">
        <ele>55</ele>
        <time>2016-04-10T08:15:03.949Z</time>
      </trkpt>
      <trkpt lat="47.20594" lon="-1.78881">
        <ele>55.1</ele>
        <time>2016-04-10T08:15:04.869Z</time>
      </trkpt>
      <trkpt lat="47.20592" lon="-1.78893">
        <ele>55.6</ele>
        <time>2016-04-10T08:15:10.887Z</time>
      </trkpt>
      <trkpt lat="47.20592" lon="-1.78895">
        <ele>55.7</ele>
        <time>2016-04-10T08:15:11.859Z</time>
      </trkpt>
      <trkpt lat="47.20591" lon="-1.78908">
        <ele>55.9</ele>
        <time>2016-04-10T08:15:17.964Z</time>
      </trkpt>
      <trkpt lat="47.20591" lon="-1.7891">
        <ele>55.9</ele>
        <time>2016-04-10T08:15:18.869Z</time>
      </trkpt>
      <trkpt lat="47.20592" lon="-1.78921">
        <ele>56.2</ele>
        <time>2016-04-10T08:15:25.959Z</time>
      </trkpt>
      <trkpt lat="47.20592" lon="-1.78923">
        <ele>56.3</ele>
        <time>2016-04-10T08:15:26.857Z</time>
      </trkpt>
      <trkpt lat="47.20595" lon="-1.78934">
        <ele>56.2</ele>
        <time>2016-04-10T08:15:32.276Z</time>
      </trkpt>
      <trkpt lat="47.20596" lon="-1.78937">
        <ele>56.2</ele>
        <time>2016-04-10T08:15:32.866Z</time>
      </trkpt>
      <trkpt lat="47.20598" lon="-1.78948">
        <ele>55.8</ele>
        <time>2016-04-10T08:15:40.842Z</time>
      </trkpt>
      <trkpt lat="47.20599" lon="-1.78949">
        <ele>55.7</ele>
        <time>2016-04-10T08:15:41.858Z</time>
      </trkpt>
      <trkpt lat="47.20603" lon="-1.7896">
        <ele>55.4</ele>
        <time>2016-04-10T08:15:47.976Z</time>
      </trkpt>
      <trkpt lat="47.20604" lon="-1.78961">
        <ele>55.4</ele>
        <time>2016-04-10T08:15:48.845Z</time>
      </trkpt>
      <trkpt lat="47.20606" lon="-1.78972">
        <ele>55.3</ele>
        <time>2016-04-10T08:15:54.910Z</time>
      </trkpt>
      <trkpt lat="47.20606" lon="-1.78975">
        <ele>55.3</ele>
        <time>2016-04-10T08:15:55.861Z</time>
      </trkpt>
      <trkpt lat="47.20607" lon="-1.78986">
        <ele>55.5</ele>
        <time>2016-04-10T08:16:00.888Z</time>
      </trkpt>
      <trkpt lat="47.20607" lon="-1.78989">
        <ele>55.6</ele>
        <time>2016-04-10T08:16:01.815Z</time>
      </trkpt>
      <trkpt lat="47.20609" lon="-1.79001">
        <ele>55.9</ele>
        <time>2016-04-10T08:16:08.035Z</time>
      </trkpt>
      <trkpt lat="47.20609" lon="-1.79003">
        <ele>56</ele>
        <time>2016-04-10T08:16:08.862Z</time>
      </trkpt>
      <trkpt lat="47.20612" lon="-1.79014">
        <ele>56.7</ele>
        <time>2016-04-10T08:16:14.987Z</time>
      </trkpt>
      <trkpt lat="47.20612" lon="-1.79016">
        <ele>56.8</ele>
        <time>2016-04-10T08:16:15.832Z</time>
      </trkpt>
      <trkpt lat="47.20614" lon="-1.79028">
        <ele>57.3</ele>
        <time>2016-04-10T08:16:21.339Z</time>
      </trkpt>
      <trkpt lat="47.20614" lon="-1.79031">
        <ele>57.4</ele>
        <time>2016-04-10T08:16:21.858Z</time>
      </trkpt>
      <trkpt lat="47.20614" lon="-1.79041">
        <ele>57.9</ele>
        <time>2016-04-10T08:16:25.896Z</time>
      </trkpt>
      <trkpt lat="47.20614" lon="-1.79044">
        <ele>58</ele>
        <time>2016-04-10T08:16:26.867Z</time>
      </trkpt>
      <trkpt lat="47.20615" lon="-1.79056">
        <ele>58.2</ele>
        <time>2016-04-10T08:16:31.975Z</time>
      </trkpt>
      <trkpt lat="47.20615" lon="-1.79057">
        <ele>58.2</ele>
        <time>2016-04-10T08:16:32.816Z</time>
      </trkpt>
      <trkpt lat="47.20616" lon="-1.79069">
        <ele>58.2</ele>
        <time>2016-04-10T08:16:39.920Z</time>
      </trkpt>
      <trkpt lat="47.20616" lon="-1.79071">
        <ele>58.1</ele>
        <time>2016-04-10T08:16:40.818Z</time>
      </trkpt>
      <trkpt lat="47.20618" lon="-1.79083">
        <ele>57.6</ele>
        <time>2016-04-10T08:16:46.932Z</time>
      </trkpt>
      <trkpt lat="47.20619" lon="-1.79086">
        <ele>57.5</ele>
        <time>2016-04-10T08:16:47.863Z</time>
      </trkpt>
      <trkpt lat="47.2062" lon="-1.79097">
        <ele>57.1</ele>
        <time>2016-04-10T08:16:53.011Z</time>
      </trkpt>
      <trkpt lat="47.2062" lon="-1.791">
        <ele>57.1</ele>
        <time>2016-04-10T08:16:53.866Z</time>
      </trkpt>
      <trkpt lat="47.2062" lon="-1.79111">
        <ele>56.7</ele>
        <time>2016-04-10T08:16:58.951Z</time>
      </trkpt>
      <trkpt lat="47.2062" lon="-1.79113">
        <ele>56.6</ele>
        <time>2016-04-10T08:16:59.830Z</time>
      </trkpt>
      <trkpt lat="47.2062" lon="-1.79124">
        <ele>56.4</ele>
        <time>2016-04-10T08:17:04.957Z</time>
      </trkpt>
      <trkpt lat="47.2062" lon="-1.79126">
        <ele>56.4</ele>
        <time>2016-04-10T08:17:05.863Z</time>
      </trkpt>
      <trkpt lat="47.20619" lon="-1.79139">
        <ele>56.2</ele>
        <time>2016-04-10T08:17:11.030Z</time>
      </trkpt>
      <trkpt lat="47.20619" lon="-1.79141">
        <ele>56.2</ele>
        <time>2016-04-10T08:17:11.850Z</time>
      </trkpt>
      <trkpt lat="47.20617" lon="-1.79151">
        <ele>56.2</ele>
        <time>2016-04-10T08:17:16.001Z</time>
      </trkpt>
      <trkpt lat="47.20617" lon="-1.79154">
        <ele>56.2</ele>
        <time>2016-04-10T08:17:16.796Z</time>
      </trkpt>
      <trkpt lat="47.20617" lon="-1.79165">
        <ele>56</ele>
        <time>2016-04-10T08:17:22.947Z</time>
      </trkpt>
      <trkpt lat="47.20616" lon="-1.79168">
        <ele>55.9</ele>
        <time>2016-04-10T08:17:23.852Z</time>
      </trkpt>
      <trkpt lat="47.20615" lon="-1.7918">
        <ele>55.5</ele>
        <time>2016-04-10T08:17:28.929Z</time>
      </trkpt>
      <trkpt lat="47.20615" lon="-1.79182">
        <ele>55.5</ele>
        <time>2016-04-10T08:17:29.837Z</time>
      </trkpt>
      <trkpt lat="47.20616" lon="-1.79193">
        <ele>55.2</ele>
        <time>2016-04-10T08:17:34.926Z</time>
      </trkpt>
      <trkpt lat="47.20616" lon="-1.79196">
        <ele>55.1</ele>
        <time>2016-04-10T08:17:35.876Z</time>
      </trkpt>
      <trkpt lat="47.20615" lon="-1.79208">
        <ele>54.6</ele>
        <time>2016-04-10T08:17:40.893Z</time>
      </trkpt>
      <trkpt lat="47.20615" lon="-1.7921">
        <ele>54.5</ele>
        <time>2016-04-10T08:17:41.871Z</time>
      </trkpt>
      <trkpt lat="47.20615" lon="-1.79222">
        <ele>54.3</ele>
        <time>2016-04-10T08:17:47.926Z</time>
      </trkpt>
      <trkpt lat="47.20614" lon="-1.79224">
        <ele>54.2</ele>
        <time>2016-04-10T08:17:48.897Z</time>
      </trkpt>
      <trkpt lat="47.20615" lon="-1.79237">
        <ele>54.1</ele>
        <time>2016-04-10T08:17:54.972Z</time>
      </trkpt>
      <trkpt lat="47.20615" lon="-1.79239">
        <ele>54.1</ele>
        <time>2016-04-10T08:17:55.899Z</time>
      </trkpt>
      <trkpt lat="47.20614" lon="-1.79251">
        <ele>54.5</ele>
        <time>2016-04-10T08:18:01.893Z</time>
      </trkpt>
      <trkpt lat="47.20613" lon="-1.79253">
        <ele>54.5</ele>
        <time>2016-04-10T08:18:02.855Z</time>
      </trkpt>
      <trkpt lat="47.20612" lon="-1.79264">
        <ele>54.6</ele>
        <time>2016-04-10T08:18:07.910Z</time>
      </trkpt>
      <trkpt lat="47.20612" lon="-1.79266">
        <ele>54.6</ele>
        <time>2016-04-10T08:18:08.862Z</time>
      </trkpt>
      <trkpt lat="47.20612" lon="-1.79278">
        <ele>54.7</ele>
        <time>2016-04-10T08:18:14.923Z</time>
      </trkpt>
      <trkpt lat="47.20612" lon="-1.7928">
        <ele>54.7</ele>
        <time>2016-04-10T08:18:15.878Z</time>
      </trkpt>
      <trkpt lat="47.20611" lon="-1.79292">
        <ele>54.8</ele>
        <time>2016-04-10T08:18:20.929Z</time>
      </trkpt>
      <trkpt lat="47.20611" lon="-1.79295">
        <ele>54.9</ele>
        <time>2016-04-10T08:18:21.901Z</time>
      </trkpt>
      <trkpt lat="47.20611" lon="-1.79307">
        <ele>54.7</ele>
        <time>2016-04-10T08:18:27.183Z</time>
      </trkpt>
      <trkpt lat="47.2061" lon="-1.79309">
        <ele>54.7</ele>
        <time>2016-04-10T08:18:27.832Z</time>
      </trkpt>
      <trkpt lat="47.20609" lon="-1.79321">
        <ele>54.8</ele>
        <time>2016-04-10T08:18:34.002Z</time>
      </trkpt>
      <trkpt lat="47.20609" lon="-1.79322">
        <ele>54.8</ele>
        <time>2016-04-10T08:18:34.844Z</time>
      </trkpt>
      <trkpt lat="47.20607" lon="-1.79332">
        <ele>54.9</ele>
        <time>2016-04-10T08:18:39.830Z</time>
      </trkpt>
      <trkpt lat="47.20606" lon="-1.79335">
        <ele>55</ele>
        <time>2016-04-10T08:18:40.816Z</time>
      </trkpt>
      <trkpt lat="47.20607" lon="-1.79347">
        <ele>55.4</ele>
        <time>2016-04-10T08:18:47.964Z</time>
      </trkpt>
      <trkpt lat="47.20607" lon="-1.7935">
        <ele>55.4</ele>
        <time>2016-04-10T08:18:48.873Z</time>
      </trkpt>
      <trkpt lat="47.20608" lon="-1.79363">
        <ele>55.3</ele>
        <time>2016-04-10T08:18:55.902Z</time>
      </trkpt>
      <trkpt lat="47.20608" lon="-1.79364">
        <ele>55.3</ele>
        <time>2016-04-10T08:18:56.877Z</time>
      </trkpt>
      <trkpt lat="47.20607" lon="-1.79376">
        <ele>54.8</ele>
        <time>2016-04-10T08:19:03.953Z</time>
      </trkpt>
      <trkpt lat="47.20607" lon="-1.79378">
        <ele>54.7</ele>
        <time>2016-04-10T08:19:04.842Z</time>
      </trkpt>
      <trkpt lat="47.20608" lon="-1.7939">
        <ele>54.7</ele>
        <time>2016-04-10T08:19:10.988Z</time>
      </trkpt>
      <trkpt lat="47.20607" lon="-1.79392">
        <ele>54.8</ele>
        <time>2016-04-10T08:19:11.825Z</time>
      </trkpt>
      <trkpt lat="47.20606" lon="-1.79403">
        <ele>55.3</ele>
        <time>2016-04-10T08:19:16.819Z</time>
      </trkpt>
      <trkpt lat="47.20606" lon="-1.79405">
        <ele>55.3</ele>
        <time>2016-04-10T08:19:17.863Z</time>
      </trkpt>
      <trkpt lat="47.20607" lon="-1.79418">
        <ele>55.2</ele>
        <time>2016-04-10T08:19:25.207Z</time>
      </trkpt>
      <trkpt lat="47.20606" lon="-1.7942">
        <ele>55.3</ele>
        <time>2016-04-10T08:19:25.873Z</time>
      </trkpt>
      <trkpt lat="47.20605" lon="-1.79432">
        <ele>55.6</ele>
        <time>2016-04-10T08:19:32.160Z</time>
      </trkpt>
      <trkpt lat="47.20606" lon="-1.79434">
        <ele>55.6</ele>
        <time>2016-04-10T08:19:32.858Z</time>
      </trkpt>
      <trkpt lat="47.20607" lon="-1.79447">
        <ele>56</ele>
        <time>2016-04-10T08:19:42.000Z</time>
      </trkpt>
      <trkpt lat="47.20607" lon="-1.79449">
        <ele>56</ele>
        <time>2016-04-10T08:19:42.908Z</time>
      </trkpt>
      <trkpt lat="47.20605" lon="-1.79461">
        <ele>55.7</ele>
        <time>2016-04-10T08:19:49.916Z</time>
      </trkpt>
      <trkpt lat="47.20605" lon="-1.79463">
        <ele>55.6</ele>
        <time>2016-04-10T08:19:50.834Z</time>
      </trkpt>
      <trkpt lat="47.20604" lon="-1.79475">
        <ele>55.2</ele>
        <time>2016-04-10T08:19:58.394Z</time>
      </trkpt>
      <trkpt lat="47.20603" lon="-1.79478">
        <ele>55.2</ele>
        <time>2016-04-10T08:19:58.815Z</time>
      </trkpt>
      <trkpt lat="47.20601" lon="-1.79489">
        <ele>55.2</ele>
        <time>2016-04-10T08:20:03.909Z</time>
      </trkpt>
      <trkpt lat="47.20601" lon="-1.79491">
        <ele>55.2</ele>
        <time>2016-04-10T08:20:04.863Z</time>
      </trkpt>
      <trkpt lat="47.206" lon="-1.79504">
        <ele>55.4</ele>
        <time>2016-04-10T08:20:12.334Z</time>
      </trkpt>
      <trkpt lat="47.206" lon="-1.79507">
        <ele>55.5</ele>
        <time>2016-04-10T08:20:12.810Z</time>
      </trkpt>
      <trkpt lat="47.20601" lon="-1.79518">
        <ele>56.1</ele>
        <time>2016-04-10T08:20:17.981Z</time>
      </trkpt>
      <trkpt lat="47.20601" lon="-1.79521">
        <ele>56.1</ele>
        <time>2016-04-10T08:20:18.835Z</time>
      </trkpt>
      <trkpt lat="47.20601" lon="-1.79532">
        <ele>56.1</ele>
        <time>2016-04-10T08:20:24.245Z</time>
      </trkpt>
      <trkpt lat="47.20601" lon="-1.79534">
        <ele>56.1</ele>
        <time>2016-04-10T08:20:24.833Z</time>
      </trkpt>
      <trkpt lat="47.206" lon="-1.79547">
        <ele>56</ele>
        <time>2016-04-10T08:20:30.959Z</time>
      </trkpt>
      <trkpt lat="47.206" lon="-1.79549">
        <ele>56</ele>
        <time>2016-04-10T08:20:31.867Z</time>
      </trkpt>
      <trkpt lat="47.20601" lon="-1.7956">
        <ele>55.8</ele>
        <time>2016-04-10T08:20:38.080Z</time>
      </trkpt>
      <trkpt lat="47.20601" lon="-1.79562">
        <ele>55.7</ele>
        <time>2016-04-10T08:20:38.818Z</time>
      </trkpt>
      <trkpt lat="47.20601" lon="-1.79574">
        <ele>55.3</ele>
        <time>2016-04-10T08:20:44.951Z</time>
      </trkpt>
      <trkpt lat="47.20601" lon="-1.79576">
        <ele>55.3</ele>
        <time>2016-04-10T08:20:45.827Z</time>
      </trkpt>
      <trkpt lat="47.20602" lon="-1.79588">
        <ele>55</ele>
        <time>2016-04-10T08:20:51.927Z</time>
      </trkpt>
      <trkpt lat="47.20602" lon="-1.7959">
        <ele>55</ele>
        <time>2016-04-10T08:20:52.857Z</time>
      </trkpt>
      <trkpt lat="47.20602" lon="-1.79602">
        <ele>54.9</ele>
        <time>2016-04-10T08:20:57.831Z</time>
      </trkpt>
      <trkpt lat="47.20602" lon="-1.79605">
        <ele>54.9</ele>
        <time>2016-04-10T08:20:58.844Z</time>
      </trkpt>
      <trkpt lat="47.20602" lon="-1.79616">
        <ele>55</ele>
        <time>2016-04-10T08:21:05.877Z</time>
      </trkpt>
      <trkpt lat="47.20602" lon="-1.79618">
        <ele>55</ele>
        <time>2016-04-10T08:21:06.856Z</time>
      </trkpt>
      <trkpt lat="47.20602" lon="-1.79631">
        <ele>55</ele>
        <time>2016-04-10T08:21:13.272Z</time>
      </trkpt>
      <trkpt lat="47.20602" lon="-1.79633">
        <ele>55</ele>
        <time>2016-04-10T08:21:13.854Z</time>
      </trkpt>
      <trkpt lat="47.20602" lon="-1.79645">
        <ele>55</ele>
        <time>2016-04-10T08:21:19.912Z</time>
      </trkpt>
      <trkpt lat="47.20602" lon="-1.79648">
        <ele>54.9</ele>
        <time>2016-04-10T08:21:20.882Z</time>
      </trkpt>
      <trkpt lat="47.20602" lon="-1.7966">
        <ele>54.6</ele>
        <time>2016-04-10T08:21:25.914Z</time>
      </trkpt>
      <trkpt lat="47.20602" lon="-1.79661">
        <ele>54.5</ele>
        <time>2016-04-10T08:21:26.854Z</time>
      </trkpt>
      <trkpt lat="47.20602" lon="-1.79674">
        <ele>53.9</ele>
        <time>2016-04-10T08:21:33.911Z</time>
      </trkpt>
      <trkpt lat="47.20602" lon="-1.79676">
        <ele>53.7</ele>
        <time>2016-04-10T08:21:34.844Z</time>
      </trkpt>
      <trkpt lat="47.20603" lon="-1.79689">
        <ele>53.1</ele>
        <time>2016-04-10T08:21:42.937Z</time>
      </trkpt>
      <trkpt lat="47.20603" lon="-1.79691">
        <ele>53.2</ele>
        <time>2016-04-10T08:21:43.853Z</time>
      </trkpt>
      <trkpt lat="47.20604" lon="-1.79703">
        <ele>53.1</ele>
        <time>2016-04-10T08:21:48.980Z</time>
      </trkpt>
      <trkpt lat="47.20604" lon="-1.79705">
        <ele>53</ele>
        <time>2016-04-10T08:21:49.856Z</time>
      </trkpt>
      <trkpt lat="47.20605" lon="-1.79716">
        <ele>53.1</ele>
        <time>2016-04-10T08:21:55.989Z</time>
      </trkpt>
      <trkpt lat="47.20605" lon="-1.79718">
        <ele>53.1</ele>
        <time>2016-04-10T08:21:56.949Z</time>
      </trkpt>
      <trkpt lat="47.20605" lon="-1.7973">
        <ele>53.4</ele>
        <time>2016-04-10T08:22:01.935Z</time>
      </trkpt>
      <trkpt lat="47.20605" lon="-1.79732">
        <ele>53.4</ele>
        <time>2016-04-10T08:22:02.855Z</time>
      </trkpt>
      <trkpt lat="47.20605" lon="-1.79743">
        <ele>53.3</ele>
        <time>2016-04-10T08:22:09.922Z</time>
      </trkpt>
      <trkpt lat="47.20605" lon="-1.79746">
        <ele>53.2</ele>
        <time>2016-04-10T08:22:10.851Z</time>
      </trkpt>
      <trkpt lat="47.20604" lon="-1.79759">
        <ele>53</ele>
        <time>2016-04-10T08:22:17.847Z</time>
      </trkpt>
      <trkpt lat="47.20605" lon="-1.79761">
        <ele>53</ele>
        <time>2016-04-10T08:22:18.907Z</time>
      </trkpt>
      <trkpt lat="47.20607" lon="-1.79772">
        <ele>53.2</ele>
        <time>2016-04-10T08:22:24.941Z</time>
      </trkpt>
      <trkpt lat="47.20608" lon="-1.79774">
        <ele>53.3</ele>
        <time>2016-04-10T08:22:25.855Z</time>
      </trkpt>
      <trkpt lat="47.2061" lon="-1.79786">
        <ele>53.5</ele>
        <time>2016-04-10T08:22:33.142Z</time>
      </trkpt>
      <trkpt lat="47.2061" lon="-1.79787">
        <ele>53.5</ele>
        <time>2016-04-10T08:22:33.864Z</time>
      </trkpt>
      <trkpt lat="47.2061" lon="-1.79799">
        <ele>53.5</ele>
        <time>2016-04-10T08:22:39.866Z</time>
      </trkpt>
      <trkpt lat="47.2061" lon="-1.79801">
        <ele>53.5</ele>
        <time>2016-04-10T08:22:40.860Z</time>
      </trkpt>
      <trkpt lat="47.20613" lon="-1.79812">
        <ele>53.5</ele>
        <time>2016-04-10T08:22:44.920Z</time>
      </trkpt>
      <trkpt lat="47.20613" lon="-1.79815">
        <ele>53.5</ele>
        <time>2016-04-10T08:22:45.822Z</time>
      </trkpt>
      <trkpt lat="47.20613" lon="-1.79827">
        <ele>53.7</ele>
        <time>2016-04-10T08:22:50.984Z</time>
      </trkpt>
      <trkpt lat="47.20613" lon="-1.7983">
        <ele>53.7</ele>
        <time>2016-04-10T08:22:51.859Z</time>
      </trkpt>
      <trkpt lat="47.20613" lon="-1.79841">
        <ele>53.8</ele>
        <time>2016-04-10T08:22:56.860Z</time>
      </trkpt>
      <trkpt lat="47.20613" lon="-1.79843">
        <ele>53.8</ele>
        <time>2016-04-10T08:22:58.024Z</time>
      </trkpt>
      <trkpt lat="47.20613" lon="-1.79856">
        <ele>54.1</ele>
        <time>2016-04-10T08:23:03.899Z</time>
      </trkpt>
      <trkpt lat="47.20613" lon="-1.79857">
        <ele>54.1</ele>
        <time>2016-04-10T08:23:04.863Z</time>
      </trkpt>
      <trkpt lat="47.20614" lon="-1.79868">
        <ele>54.3</ele>
        <time>2016-04-10T08:23:10.091Z</time>
      </trkpt>
      <trkpt lat="47.20614" lon="-1.79871">
        <ele>54.3</ele>
        <time>2016-04-10T08:23:10.860Z</time>
      </trkpt>
      <trkpt lat="47.20616" lon="-1.79883">
        <ele>54.5</ele>
        <time>2016-04-10T08:23:17.928Z</time>
      </trkpt>
      <trkpt lat="47.20616" lon="-1.79885">
        <ele>54.5</ele>
        <time>2016-04-10T08:23:18.805Z</time>
      </trkpt>
      <trkpt lat="47.20616" lon="-1.79897">
        <ele>54.9</ele>
        <time>2016-04-10T08:23:25.974Z</time>
      </trkpt>
      <trkpt lat="47.20616" lon="-1.799">
        <ele>55</ele>
        <time>2016-04-10T08:23:26.807Z</time>
      </trkpt>
      <trkpt lat="47.20616" lon="-1.79913">
        <ele>55</ele>
        <time>2016-04-10T08:23:33.859Z</time>
      </trkpt>
      <trkpt lat="47.20617" lon="-1.79914">
        <ele>54.9</ele>
        <time>2016-04-10T08:23:35.287Z</time>
      </trkpt>
      <trkpt lat="47.20616" lon="-1.79927">
        <ele>54.8</ele>
        <time>2016-04-10T08:23:41.920Z</time>
      </trkpt>
      <trkpt lat="47.20616" lon="-1.7993">
        <ele>54.8</ele>
        <time>2016-04-10T08:23:42.854Z</time>
      </trkpt>
      <trkpt lat="47.20615" lon="-1.79942">
        <ele>54.9</ele>
        <time>2016-04-10T08:23:48.911Z</time>
      </trkpt>
      <trkpt lat="47.20616" lon="-1.79944">
        <ele>54.9</ele>
        <time>2016-04-10T08:23:49.855Z</time>
      </trkpt>
      <trkpt lat="47.20616" lon="-1.79956">
        <ele>54.8</ele>
        <time>2016-04-10T08:23:56.102Z</time>
      </trkpt>
      <trkpt lat="47.20616" lon="-1.79959">
        <ele>54.8</ele>
        <time>2016-04-10T08:23:56.853Z</time>
      </trkpt>
      <trkpt lat="47.20618" lon="-1.79971">
        <ele>55</ele>
        <time>2016-04-10T08:24:02.869Z</time>
      </trkpt>
      <trkpt lat="47.20619" lon="-1.79973">
        <ele>55</ele>
        <time>2016-04-10T08:24:03.851Z</time>
      </trkpt>
      <trkpt lat="47.20621" lon="-1.79984">
        <ele>55.3</ele>
        <time>2016-04-10T08:24:10.920Z</time>
      </trkpt>
      <trkpt lat="47.20622" lon="-1.79986">
        <ele>55.3</ele>
        <time>2016-04-10T08:24:12.252Z</time>
      </trkpt>
      <trkpt lat="47.20623" lon="-1.79997">
        <ele>55.4</ele>
        <time>2016-04-10T08:24:15.932Z</time>
      </trkpt>
      <trkpt lat="47.20623" lon="-1.8">
        <ele>55.5</ele>
        <time>2016-04-10T08:24:16.854Z</time>
      </trkpt>
      <trkpt lat="47.20625" lon="-1.80011">
        <ele>55.3</ele>
        <time>2016-04-10T08:24:22.976Z</time>
      </trkpt>
      <trkpt lat="47.20625" lon="-1.80014">
        <ele>55.3</ele>
        <time>2016-04-10T08:24:23.809Z</time>
      </trkpt>
      <trkpt lat="47.20626" lon="-1.80025">
        <ele>55.2</ele>
        <time>2016-04-10T08:24:28.946Z</time>
      </trkpt>
      <trkpt lat="47.20626" lon="-1.80027">
        <ele>55.2</ele>
        <time>2016-04-10T08:24:29.905Z</time>
      </trkpt>
      <trkpt lat="47.20627" lon="-1.80039">
        <ele>55.2</ele>
        <time>2016-04-10T08:24:36.901Z</time>
      </trkpt>
      <trkpt lat="47.20626" lon="-1.80041">
        <ele>55.2</ele>
        <time>2016-04-10T08:24:37.859Z</time>
      </trkpt>
      <trkpt lat="47.20626" lon="-1.80053">
        <ele>55.1</ele>
        <time>2016-04-10T08:24:43.888Z</time>
      </trkpt>
      <trkpt lat="47.20626" lon="-1.80055">
        <ele>55</ele>
        <time>2016-04-10T08:24:44.863Z</time>
      </trkpt>
      <trkpt lat="47.20627" lon="-1.80067">
        <ele>54.8</ele>
        <time>2016-04-10T08:24:50.933Z</time>
      </trkpt>
      <trkpt lat="47.20627" lon="-1.80068">
        <ele>54.8</ele>
        <time>2016-04-10T08:24:51.813Z</time>
      </trkpt>
      <trkpt lat="47.20627" lon="-1.8008">
        <ele>54.5</ele>
        <time>2016-04-10T08:24:57.916Z</time>
      </trkpt>
      <trkpt lat="47.20626" lon="-1.80082">
        <ele>54.4</ele>
        <time>2016-04-10T08:24:58.889Z</time>
      </trkpt>
      <trkpt lat="47.20626" lon="-1.80094">
        <ele>54</ele>
        <time>2016-04-10T08:25:04.921Z</time>
      </trkpt>
      <trkpt lat="47.20626" lon="-1.80096">
        <ele>54</ele>
        <time>2016-04-10T08:25:05.859Z</time>
      </trkpt>
      <trkpt lat="47.20627" lon="-1.80109">
        <ele>53.9</ele>
        <time>2016-04-10T08:25:12.313Z</time>
      </trkpt>
      <trkpt lat="47.20627" lon="-1.80111">
        <ele>53.9</ele>
        <time>2016-04-10T08:25:12.853Z</time>
      </trkpt>
      <trkpt lat="47.20627" lon="-1.80122">
        <ele>54.1</ele>
        <time>2016-04-10T08:25:19.913Z</time>
      </trkpt>
      <trkpt lat="47.20627" lon="-1.80125">
        <ele>54.2</ele>
        <time>2016-04-10T08:25:20.858Z</time>
      </trkpt>
      <trkpt lat="47.20626" lon="-1.80138">
        <ele>54.4</ele>
        <time>2016-04-10T08:25:25.975Z</time>
      </trkpt>
      <trkpt lat="47.20626" lon="-1.80139">
        <ele>54.4</ele>
        <time>2016-04-10T08:25:26.858Z</time>
      </trkpt>
      <trkpt lat="47.20627" lon="-1.80149">
        <ele>54.8</ele>
        <time>2016-04-10T08:25:31.926Z</time>
      </trkpt>
      <trkpt lat="47.20628" lon="-1.80152">
        <ele>54.9</ele>
        <time>2016-04-10T08:25:32.855Z</time>
      </trkpt>
      <trkpt lat="47.2063" lon="-1.80163">
        <ele>55.4</ele>
        <time>2016-04-10T08:25:39.054Z</time>
      </trkpt>
      <trkpt lat="47.20631" lon="-1.80165">
        <ele>55.4</ele>
        <time>2016-04-10T08:25:39.854Z</time>
      </trkpt>
      <trkpt lat="47.20632" lon="-1.80177">
        <ele>55.4</ele>
        <time>2016-04-10T08:25:46.273Z</time>
      </trkpt>
      <trkpt lat="47.20632" lon="-1.80179">
        <ele>55.4</ele>
        <time>2016-04-10T08:25:46.860Z</time>
      </trkpt>
      <trkpt lat="47.20634" lon="-1.80191">
        <ele>55.5</ele>
        <time>2016-04-10T08:25:52.947Z</time>
      </trkpt>
      <trkpt lat="47.20634" lon="-1.80193">
        <ele>55.5</ele>
        <time>2016-04-10T08:25:53.821Z</time>
      </trkpt>
      <trkpt lat="47.20638" lon="-1.80203">
        <ele>55.9</ele>
        <time>2016-04-10T08:26:02.085Z</time>
      </trkpt>
      <trkpt lat="47.20638" lon="-1.80205">
        <ele>56</ele>
        <time>2016-04-10T08:26:02.853Z</time>
      </trkpt>
      <trkpt lat="47.20639" lon="-1.80216">
        <ele>56.1</ele>
        <time>2016-04-10T08:26:07.957Z</time>
      </trkpt>
      <trkpt lat="47.20639" lon="-1.80218">
        <ele>56.1</ele>
        <time>2016-04-10T08:26:08.856Z</time>
      </trkpt>
      <trkpt lat="47.2064" lon="-1.8023">
        <ele>55.9</ele>
        <time>2016-04-10T08:26:14.905Z</time>
      </trkpt>
      <trkpt lat="47.2064" lon="-1.80233">
        <ele>55.8</ele>
        <time>2016-04-10T08:26:15.872Z</time>
      </trkpt>
      <trkpt lat="47.2064" lon="-1.80245">
        <ele>55.3</ele>
        <time>2016-04-10T08:26:21.947Z</time>
      </trkpt>
      <trkpt lat="47.2064" lon="-1.80248">
        <ele>55.3</ele>
        <time>2016-04-10T08:26:22.806Z</time>
      </trkpt>
      <trkpt lat="47.2064" lon="-1.8026">
        <ele>55.3</ele>
        <time>2016-04-10T08:26:28.927Z</time>
      </trkpt>
      <trkpt lat="47.2064" lon="-1.80262">
        <ele>55.3</ele>
        <time>2016-04-10T08:26:29.852Z</time>
      </trkpt>
      <trkpt lat="47.20642" lon="-1.80275">
        <ele>55.2</ele>
        <time>2016-04-10T08:26:35.906Z</time>
      </trkpt>
      <trkpt lat="47.20642" lon="-1.80276">
        <ele>55.2</ele>
        <time>2016-04-10T08:26:36.864Z</time>
      </trkpt>
      <trkpt lat="47.20642" lon="-1.80289">
        <ele>54.8</ele>
        <time>2016-04-10T08:26:44.923Z</time>
      </trkpt>
      <trkpt lat="47.20642" lon="-1.80291">
        <ele>54.8</ele>
        <time>2016-04-10T08:26:45.866Z</time>
      </trkpt>
      <trkpt lat="47.20641" lon="-1.80303">
        <ele>54.2</ele>
        <time>2016-04-10T08:26:51.144Z</time>
      </trkpt>
      <trkpt lat="47.20641" lon="-1.80306">
        <ele>54.2</ele>
        <time>2016-04-10T08:26:51.845Z</time>
      </trkpt>
      <trkpt lat="47.20642" lon="-1.80319">
        <ele>54.1</ele>
        <time>2016-04-10T08:26:57.903Z</time>
      </trkpt>
      <trkpt lat="47.20642" lon="-1.8032">
        <ele>54.1</ele>
        <time>2016-04-10T08:26:58.887Z</time>
      </trkpt>
      <trkpt lat="47.20644" lon="-1.80332">
        <ele>54</ele>
        <time>2016-04-10T08:27:03.857Z</time>
      </trkpt>
      <trkpt lat="47.20644" lon="-1.80335">
        <ele>53.9</ele>
        <time>2016-04-10T08:27:04.895Z</time>
      </trkpt>
      <trkpt lat="47.20644" lon="-1.80346">
        <ele>53.8</ele>
        <time>2016-04-10T08:27:09.957Z</time>
      </trkpt>
      <trkpt lat="47.20643" lon="-1.80348">
        <ele>53.8</ele>
        <time>2016-04-10T08:27:10.866Z</time>
      </trkpt>
      <trkpt lat="47.20644" lon="-1.8036">
        <ele>53.7</ele>
        <time>2016-04-10T08:27:15.900Z</time>
      </trkpt>
      <trkpt lat="47.20644" lon="-1.80363">
        <ele>53.7</ele>
        <time>2016-04-10T08:27:16.858Z</time>
      </trkpt>
      <trkpt lat="47.20646" lon="-1.80375">
        <ele>53.8</ele>
        <time>2016-04-10T08:27:23.816Z</time>
      </trkpt>
      <trkpt lat="47.20646" lon="-1.80378">
        <ele>53.7</ele>
        <time>2016-04-10T08:27:24.853Z</time>
      </trkpt>
      <trkpt lat="47.20647" lon="-1.80389">
        <ele>53.2</ele>
        <time>2016-04-10T08:27:31.905Z</time>
      </trkpt>
      <trkpt lat="47.20647" lon="-1.80392">
        <ele>53.2</ele>
        <time>2016-04-10T08:27:32.854Z</time>
      </trkpt>
      <trkpt lat="47.20647" lon="-1.80404">
        <ele>53</ele>
        <time>2016-04-10T08:27:38.894Z</time>
      </trkpt>
      <trkpt lat="47.20647" lon="-1.80406">
        <ele>53</ele>
        <time>2016-04-10T08:27:39.858Z</time>
      </trkpt>
      <trkpt lat="47.20646" lon="-1.80418">
        <ele>52.9</ele>
        <time>2016-04-10T08:27:48.045Z</time>
      </trkpt>
      <trkpt lat="47.20646" lon="-1.8042">
        <ele>52.8</ele>
        <time>2016-04-10T08:27:48.821Z</time>
      </trkpt>
      <trkpt lat="47.20647" lon="-1.80433">
        <ele>52.9</ele>
        <time>2016-04-10T08:27:55.257Z</time>
      </trkpt>
      <trkpt lat="47.20647" lon="-1.80435">
        <ele>52.8</ele>
        <time>2016-04-10T08:27:55.874Z</time>
      </trkpt>
      <trkpt lat="47.20649" lon="-1.80447">
        <ele>52.7</ele>
        <time>2016-04-10T08:28:02.926Z</time>
      </trkpt>
      <trkpt lat="47.20649" lon="-1.80449">
        <ele>52.7</ele>
        <time>2016-04-10T08:28:03.858Z</time>
      </trkpt>
      <trkpt lat="47.20649" lon="-1.8046">
        <ele>52.7</ele>
        <time>2016-04-10T08:28:09.098Z</time>
      </trkpt>
      <trkpt lat="47.20649" lon="-1.80462">
        <ele>52.7</ele>
        <time>2016-04-10T08:28:09.860Z</time>
      </trkpt>
      <trkpt lat="47.20649" lon="-1.80474">
        <ele>52.9</ele>
        <time>2016-04-10T08:28:15.874Z</time>
      </trkpt>
      <trkpt lat="47.20649" lon="-1.80477">
        <ele>52.9</ele>
        <time>2016-04-10T08:28:16.840Z</time>
      </trkpt>
      <trkpt lat="47.20652" lon="-1.80488">
        <ele>53.2</ele>
        <time>2016-04-10T08:28:23.448Z</time>
      </trkpt>
      <trkpt lat="47.20652" lon="-1.8049">
        <ele>53.1</ele>
        <time>2016-04-10T08:28:23.803Z</time>
      </trkpt>
      <trkpt lat="47.20653" lon="-1.80501">
        <ele>53.3</ele>
        <time>2016-04-10T08:28:30.010Z</time>
      </trkpt>
      <trkpt lat="47.20654" lon="-1.80504">
        <ele>53.4</ele>
        <time>2016-04-10T08:28:30.848Z</time>
      </trkpt>
      <trkpt lat="47.20655" lon="-1.80517">
        <ele>53.7</ele>
        <time>2016-04-10T08:28:35.991Z</time>
      </trkpt>
      <trkpt lat="47.20654" lon="-1.80518">
        <ele>53.7</ele>
        <time>2016-04-10T08:28:36.897Z</time>
      </trkpt>
      <trkpt lat="47.20654" lon="-1.8053">
        <ele>54</ele>
        <time>2016-04-10T08:28:42.917Z</time>
      </trkpt>
      <trkpt lat="47.20654" lon="-1.80532">
        <ele>54</ele>
        <time>2016-04-10T08:28:43.844Z</time>
      </trkpt>
      <trkpt lat="47.20656" lon="-1.80543">
        <ele>54.3</ele>
        <time>2016-04-10T08:28:49.028Z</time>
      </trkpt>
      <trkpt lat="47.20656" lon="-1.80545">
        <ele>54.5</ele>
        <time>2016-04-10T08:28:49.861Z</time>
      </trkpt>
      <trkpt lat="47.20657" lon="-1.80557">
        <ele>55</ele>
        <time>2016-04-10T08:28:55.922Z</time>
      </trkpt>
      <trkpt lat="47.20657" lon="-1.80559">
        <ele>55</ele>
        <time>2016-04-10T08:28:56.853Z</time>
      </trkpt>
      <trkpt lat="47.20659" lon="-1.80572">
        <ele>55.1</ele>
        <time>2016-04-10T08:29:03.922Z</time>
      </trkpt>
      <trkpt lat="47.20659" lon="-1.80573">
        <ele>55.1</ele>
        <time>2016-04-10T08:29:04.851Z</time>
      </trkpt>
      <trkpt lat="47.20659" lon="-1.80586">
        <ele>55.4</ele>
        <time>2016-04-10T08:29:11.838Z</time>
      </trkpt>
      <trkpt lat="47.20659" lon="-1.80589">
        <ele>55.5</ele>
        <time>2016-04-10T08:29:13.064Z</time>
      </trkpt>
      <trkpt lat="47.20661" lon="-1.806">
        <ele>56</ele>
        <time>2016-04-10T08:29:18.942Z</time>
      </trkpt>
      <trkpt lat="47.20661" lon="-1.80602">
        <ele>56.1</ele>
        <time>2016-04-10T08:29:19.859Z</time>
      </trkpt>
      <trkpt lat="47.20663" lon="-1.80614">
        <ele>56.6</ele>
        <time>2016-04-10T08:29:26.415Z</time>
      </trkpt>
      <trkpt lat="47.20663" lon="-1.80615">
        <ele>56.6</ele>
        <time>2016-04-10T08:29:26.838Z</time>
      </trkpt>
      <trkpt lat="47.20664" lon="-1.80627">
        <ele>57</ele>
        <time>2016-04-10T08:29:31.876Z</time>
      </trkpt>
      <trkpt lat="47.20665" lon="-1.80629">
        <ele>57.1</ele>
        <time>2016-04-10T08:29:32.872Z</time>
      </trkpt>
      <trkpt lat="47.20665" lon="-1.80642">
        <ele>56.8</ele>
        <time>2016-04-10T08:29:38.864Z</time>
      </trkpt>
      <trkpt lat="47.20665" lon="-1.80644">
        <ele>56.7</ele>
        <time>2016-04-10T08:29:39.850Z</time>
      </trkpt>
      <trkpt lat="47.20665" lon="-1.80656">
        <ele>56.2</ele>
        <time>2016-04-10T08:29:45.931Z</time>
      </trkpt>
      <trkpt lat="47.20665" lon="-1.80657">
        <ele>56.2</ele>
        <time>2016-04-10T08:29:46.797Z</time>
      </trkpt>
      <trkpt lat="47.20666" lon="-1.8067">
        <ele>56.2</ele>
        <time>2016-04-10T08:29:53.101Z</time>
      </trkpt>
      <trkpt lat="47.20667" lon="-1.80674">
        <ele>56.2</ele>
        <time>2016-04-10T08:29:53.854Z</time>
      </trkpt>
      <trkpt lat="47.20668" lon="-1.80686">
        <ele>56.1</ele>
        <time>2016-04-10T08:29:58.960Z</time>
      </trkpt>
      <trkpt lat="47.20668" lon="-1.80687">
        <ele>56</ele>
        <time>2016-04-10T08:29:59.814Z</time>
      </trkpt>
      <trkpt lat="47.20671" lon="-1.80699">
        <ele>55.9</ele>
        <time>2016-04-10T08:30:05.984Z</time>
      </trkpt>
      <trkpt lat="47.20671" lon="-1.80701">
        <ele>55.9</ele>
        <time>2016-04-10T08:30:07.163Z</time>
      </trkpt>
      <trkpt lat="47.20672" lon="-1.80714">
        <ele>55.6</ele>
        <time>2016-04-10T08:30:13.920Z</time>
      </trkpt>
      <trkpt lat="47.20672" lon="-1.80717">
        <ele>55.5</ele>
        <time>2016-04-10T08:30:14.856Z</time>
      </trkpt>
      <trkpt lat="47.20674" lon="-1.80728">
        <ele>55.4</ele>
        <time>2016-04-10T08:30:19.950Z</time>
      </trkpt>
      <trkpt lat="47.20674" lon="-1.8073">
        <ele>55.5</ele>
        <time>2016-04-10T08:30:20.860Z</time>
      </trkpt>
      <trkpt lat="47.20674" lon="-1.80741">
        <ele>55.5</ele>
        <time>2016-04-10T08:30:26.984Z</time>
      </trkpt>
      <trkpt lat="47.20674" lon="-1.80743">
        <ele>55.6</ele>
        <time>2016-04-10T08:30:27.810Z</time>
      </trkpt>
      <trkpt lat="47.20674" lon="-1.80756">
        <ele>55.6</ele>
        <time>2016-04-10T08:30:34.426Z</time>
      </trkpt>
      <trkpt lat="47.20673" lon="-1.80757">
        <ele>55.6</ele>
        <time>2016-04-10T08:30:34.859Z</time>
      </trkpt>
      <trkpt lat="47.20673" lon="-1.80769">
        <ele>55.7</ele>
        <time>2016-04-10T08:30:39.869Z</time>
      </trkpt>
      <trkpt lat="47.20673" lon="-1.80772">
        <ele>55.8</ele>
        <time>2016-04-10T08:30:40.822Z</time>
      </trkpt>
      <trkpt lat="47.20672" lon="-1.80784">
        <ele>56</ele>
        <time>2016-04-10T08:30:47.001Z</time>
      </trkpt>
      <trkpt lat="47.20672" lon="-1.80786">
        <ele>56.1</ele>
        <time>2016-04-10T08:30:47.866Z</time>
      </trkpt>
      <trkpt lat="47.2067" lon="-1.80799">
        <ele>56</ele>
        <time>2016-04-10T08:30:54.994Z</time>
      </trkpt>
      <trkpt lat="47.2067" lon="-1.80801">
        <ele>55.9</ele>
        <time>2016-04-10T08:30:55.887Z</time>
      </trkpt>
      <trkpt lat="47.20669" lon="-1.80813">
        <ele>56.1</ele>
        <time>2016-04-10T08:31:03.963Z</time>
      </trkpt>
      <trkpt lat="47.20669" lon="-1.80815">
        <ele>56.1</ele>
        <time>2016-04-10T08:31:04.860Z</time>
      </trkpt>
      <trkpt lat="47.20669" lon="-1.80827">
        <ele>55.9</ele>
        <time>2016-04-10T08:31:10.968Z</time>
      </trkpt>
      <trkpt lat="47.20669" lon="-1.80829">
        <ele>55.8</ele>
        <time>2016-04-10T08:31:11.873Z</time>
      </trkpt>
      <trkpt lat="47.20669" lon="-1.80841">
        <ele>55.9</ele>
        <time>2016-04-10T08:31:17.910Z</time>
      </trkpt>
      <trkpt lat="47.20669" lon="-1.80842">
        <ele>55.9</ele>
        <time>2016-04-10T08:31:18.861Z</time>
      </trkpt>
      <trkpt lat="47.20671" lon="-1.80855">
        <ele>56.2</ele>
        <time>2016-04-10T08:31:24.865Z</time>
      </trkpt>
      <trkpt lat="47.2067" lon="-1.80857">
        <ele>56.3</ele>
        <time>2016-04-10T08:31:25.868Z</time>
      </trkpt>
      <trkpt lat="47.2067" lon="-1.80869">
        <ele>56.5</ele>
        <time>2016-04-10T08:31:31.915Z</time>
      </trkpt>
      <trkpt lat="47.2067" lon="-1.80872">
        <ele>56.6</ele>
        <time>2016-04-10T08:31:32.871Z</time>
      </trkpt>
      <trkpt lat="47.20673" lon="-1.80883">
        <ele>57.1</ele>
        <time>2016-04-10T08:31:39.945Z</time>
      </trkpt>
      <trkpt lat="47.20674" lon="-1.80885">
        <ele>57.1</ele>
        <time>2016-04-10T08:31:40.868Z</time>
      </trkpt>
      <trkpt lat="47.20677" lon="-1.80895">
        <ele>57</ele>
        <time>2016-04-10T08:31:45.852Z</time>
      </trkpt>
      <trkpt lat="47.20677" lon="-1.80897">
        <ele>57</ele>
        <time>2016-04-10T08:31:46.887Z</time>
      </trkpt>
      <trkpt lat="47.2068" lon="-1.80908">
        <ele>56.3</ele>
        <time>2016-04-10T08:31:52.944Z</time>
      </trkpt>
      <trkpt lat="47.20681" lon="-1.8091">
        <ele>56.2</ele>
        <time>2016-04-10T08:31:53.865Z</time>
      </trkpt>
      <trkpt lat="47.20682" lon="-1.80923">
        <ele>56</ele>
        <time>2016-04-10T08:31:59.941Z</time>
      </trkpt>
      <trkpt lat="47.20682" lon="-1.80925">
        <ele>56</ele>
        <time>2016-04-10T08:32:00.814Z</time>
      </trkpt>
      <trkpt lat="47.20685" lon="-1.80937">
        <ele>56.4</ele>
        <time>2016-04-10T08:32:06.973Z</time>
      </trkpt>
      <trkpt lat="47.20685" lon="-1.80938">
        <ele>56.4</ele>
        <time>2016-04-10T08:32:07.879Z</time>
      </trkpt>
      <trkpt lat="47.20685" lon="-1.8095">
        <ele>56.8</ele>
        <time>2016-04-10T08:32:14.986Z</time>
      </trkpt>
      <trkpt lat="47.20686" lon="-1.80952">
        <ele>56.9</ele>
        <time>2016-04-10T08:32:15.886Z</time>
      </trkpt>
      <trkpt lat="47.20685" lon="-1.80964">
        <ele>57.7</ele>
        <time>2016-04-10T08:32:22.966Z</time>
      </trkpt>
      <trkpt lat="47.20684" lon="-1.80966">
        <ele>57.8</ele>
        <time>2016-04-10T08:32:23.865Z</time>
      </trkpt>
      <trkpt lat="47.2068" lon="-1.80977">
        <ele>58.2</ele>
        <time>2016-04-10T08:32:27.930Z</time>
      </trkpt>
      <trkpt lat="47.2068" lon="-1.80979">
        <ele>58.2</ele>
        <time>2016-04-10T08:32:28.872Z</time>
      </trkpt>
      <trkpt lat="47.20674" lon="-1.80989">
        <ele>57.7</ele>
        <time>2016-04-10T08:32:39.927Z</time>
      </trkpt>
      <trkpt lat="47.20673" lon="-1.8099">
        <ele>57.6</ele>
        <time>2016-04-10T08:32:40.879Z</time>
      </trkpt>
      <trkpt lat="47.20666" lon="-1.80994">
        <ele>56.9</ele>
        <time>2016-04-10T08:32:46.960Z</time>
      </trkpt>
      <trkpt lat="47.20665" lon="-1.80995">
        <ele>56.8</ele>
        <time>2016-04-10T08:32:47.880Z</time>
      </trkpt>
      <trkpt lat="47.20657" lon="-1.80999">
        <ele>56</ele>
        <time>2016-04-10T08:32:54.984Z</time>
      </trkpt>
      <trkpt lat="47.20656" lon="-1.81">
        <ele>55.9</ele>
        <time>2016-04-10T08:32:55.874Z</time>
      </trkpt>
      <trkpt lat="47.20648" lon="-1.81002">
        <ele>55.9</ele>
        <time>2016-04-10T08:33:01.933Z</time>
      </trkpt>
      <trkpt lat="47.20647" lon="-1.81003">
        <ele>55.9</ele>
        <time>2016-04-10T08:33:02.858Z</time>
      </trkpt>
      <trkpt lat="47.20638" lon="-1.81005">
        <ele>55.8</ele>
        <time>2016-04-10T08:33:09.923Z</time>
      </trkpt>
      <trkpt lat="47.20637" lon="-1.81006">
        <ele>55.7</ele>
        <time>2016-04-10T08:33:10.813Z</time>
      </trkpt>
      <trkpt lat="47.20629" lon="-1.81009">
        <ele>55.6</ele>
        <time>2016-04-10T08:33:17.091Z</time>
      </trkpt>
      <trkpt lat="47.20627" lon="-1.8101">
        <ele>55.5</ele>
        <time>2016-04-10T08:33:17.864Z</time>
      </trkpt>
      <trkpt lat="47.20619" lon="-1.81012">
        <ele>55.2</ele>
        <time>2016-04-10T08:33:22.942Z</time>
      </trkpt>
      <trkpt lat="47.20617" lon="-1.81012">
        <ele>55.2</ele>
        <time>2016-04-10T08:33:23.866Z</time>
      </trkpt>
      <trkpt lat="47.20609" lon="-1.81016">
        <ele>55.3</ele>
        <time>2016-04-10T08:33:31.858Z</time>
      </trkpt>
      <trkpt lat="47.20608" lon="-1.81017">
        <ele>55.4</ele>
        <time>2016-04-10T08:33:32.863Z</time>
      </trkpt>
      <trkpt lat="47.206" lon="-1.81022">
        <ele>55.7</ele>
        <time>2016-04-10T08:33:39.982Z</time>
      </trkpt>
      <trkpt lat="47.20599" lon="-1.81023">
        <ele>55.7</ele>
        <time>2016-04-10T08:33:40.864Z</time>
      </trkpt>
      <trkpt lat="47.20592" lon="-1.81028">
        <ele>55.4</ele>
        <time>2016-04-10T08:33:45.962Z</time>
      </trkpt>
      <trkpt lat="47.20591" lon="-1.81029">
        <ele>55.3</ele>
        <time>2016-04-10T08:33:46.893Z</time>
      </trkpt>
      <trkpt lat="47.20584" lon="-1.81035">
        <ele>55.1</ele>
        <time>2016-04-10T08:33:52.936Z</time>
      </trkpt>
      <trkpt lat="47.20583" lon="-1.81036">
        <ele>55.2</ele>
        <time>2016-04-10T08:33:53.888Z</time>
      </trkpt>
      <trkpt lat="47.20578" lon="-1.81045">
        <ele>55.6</ele>
        <time>2016-04-10T08:34:01.940Z</time>
      </trkpt>
      <trkpt lat="47.20577" lon="-1.81048">
        <ele>55.7</ele>
        <time>2016-04-10T08:34:02.874Z</time>
      </trkpt>
      <trkpt lat="47.20571" lon="-1.81058">
        <ele>56</ele>
        <time>2016-04-10T08:34:09.033Z</time>
      </trkpt>
      <trkpt lat="47.2057" lon="-1.8106">
        <ele>56</ele>
        <time>2016-04-10T08:34:09.845Z</time>
      </trkpt>
      <trkpt lat="47.20565" lon="-1.8107">
        <ele>56.2</ele>
        <time>2016-04-10T08:34:15.953Z</time>
      </trkpt>
      <trkpt lat="47.20565" lon="-1.81071">
        <ele>56.2</ele>
        <time>2016-04-10T08:34:16.871Z</time>
      </trkpt>
      <trkpt lat="47.20559" lon="-1.81081">
        <ele>56.4</ele>
        <time>2016-04-10T08:34:22.946Z</time>
      </trkpt>
      <trkpt lat="47.20558" lon="-1.81082">
        <ele>56.4</ele>
        <time>2016-04-10T08:34:23.867Z</time>
      </trkpt>
      <trkpt lat="47.20554" lon="-1.81092">
        <ele>56.9</ele>
        <time>2016-04-10T08:34:28.913Z</time>
      </trkpt>
      <trkpt lat="47.20553" lon="-1.81094">
        <ele>57</ele>
        <time>2016-04-10T08:34:29.869Z</time>
      </trkpt>
      <trkpt lat="47.20548" lon="-1.81105">
        <ele>57.1</ele>
        <time>2016-04-10T08:34:35.944Z</time>
      </trkpt>
      <trkpt lat="47.20547" lon="-1.81106">
        <ele>57.1</ele>
        <time>2016-04-10T08:34:36.897Z</time>
      </trkpt>
      <trkpt lat="47.20542" lon="-1.81116">
        <ele>57.3</ele>
        <time>2016-04-10T08:34:42.901Z</time>
      </trkpt>
      <trkpt lat="47.20541" lon="-1.81118">
        <ele>57.2</ele>
        <time>2016-04-10T08:34:43.918Z</time>
      </trkpt>
      <trkpt lat="47.20535" lon="-1.81127">
        <ele>57</ele>
        <time>2016-04-10T08:34:49.959Z</time>
      </trkpt>
      <trkpt lat="47.20534" lon="-1.81128">
        <ele>56.9</ele>
        <time>2016-04-10T08:34:50.878Z</time>
      </trkpt>
      <trkpt lat="47.20527" lon="-1.81134">
        <ele>56.6</ele>
        <time>2016-04-10T08:34:56.956Z</time>
      </trkpt>
      <trkpt lat="47.20526" lon="-1.81135">
        <ele>56.6</ele>
        <time>2016-04-10T08:34:57.904Z</time>
      </trkpt>
      <trkpt lat="47.20519" lon="-1.81142">
        <ele>56.7</ele>
        <time>2016-04-10T08:35:05.936Z</time>
      </trkpt>
      <trkpt lat="47.20517" lon="-1.81143">
        <ele>56.7</ele>
        <time>2016-04-10T08:35:06.839Z</time>
      </trkpt>
      <trkpt lat="47.20509" lon="-1.81148">
        <ele>56.7</ele>
        <time>2016-04-10T08:35:12.952Z</time>
      </trkpt>
      <trkpt lat="47.20508" lon="-1.81149">
        <ele>56.6</ele>
        <time>2016-04-10T08:35:13.831Z</time>
      </trkpt>
      <trkpt lat="47.20501" lon="-1.81155">
        <ele>56.4</ele>
        <time>2016-04-10T08:35:19.978Z</time>
      </trkpt>
      <trkpt lat="47.205" lon="-1.81156">
        <ele>56.4</ele>
        <time>2016-04-10T08:35:20.873Z</time>
      </trkpt>
      <trkpt lat="47.20493" lon="-1.81162">
        <ele>56</ele>
        <time>2016-04-10T08:35:25.977Z</time>
      </trkpt>
      <trkpt lat="47.20492" lon="-1.81164">
        <ele>55.9</ele>
        <time>2016-04-10T08:35:26.848Z</time>
      </trkpt>
      <trkpt lat="47.20485" lon="-1.81171">
        <ele>55.2</ele>
        <time>2016-04-10T08:35:32.945Z</time>
      </trkpt>
      <trkpt lat="47.20484" lon="-1.81172">
        <ele>55.1</ele>
        <time>2016-04-10T08:35:33.944Z</time>
      </trkpt>
      <trkpt lat="47.20479" lon="-1.81181">
        <ele>55</ele>
        <time>2016-04-10T08:35:39.973Z</time>
      </trkpt>
      <trkpt lat="47.20478" lon="-1.81182">
        <ele>55.1</ele>
        <time>2016-04-10T08:35:40.807Z</time>
      </trkpt>
      <trkpt lat="47.20472" lon="-1.8119">
        <ele>54.9</ele>
        <time>2016-04-10T08:35:46.866Z</time>
      </trkpt>
      <trkpt lat="47.20471" lon="-1.81192">
        <ele>54.9</ele>
        <time>2016-04-10T08:35:47.807Z</time>
      </trkpt>
      <trkpt lat="47.20465" lon="-1.81201">
        <ele>54.7</ele>
        <time>2016-04-10T08:35:54.876Z</time>
      </trkpt>
      <trkpt lat="47.20465" lon="-1.81203">
        <ele>54.7</ele>
        <time>2016-04-10T08:35:55.873Z</time>
      </trkpt>
      <trkpt lat="47.2046" lon="-1.81213">
        <ele>54.5</ele>
        <time>2016-04-10T08:36:02.908Z</time>
      </trkpt>
      <trkpt lat="47.2046" lon="-1.81214">
        <ele>54.5</ele>
        <time>2016-04-10T08:36:03.874Z</time>
      </trkpt>
      <trkpt lat="47.20456" lon="-1.81225">
        <ele>54.5</ele>
        <time>2016-04-10T08:36:09.890Z</time>
      </trkpt>
      <trkpt lat="47.20455" lon="-1.81227">
        <ele>54.5</ele>
        <time>2016-04-10T08:36:11.134Z</time>
      </trkpt>
      <trkpt lat="47.20453" lon="-1.81239">
        <ele>54.3</ele>
        <time>2016-04-10T08:36:17.425Z</time>
      </trkpt>
      <trkpt lat="47.20453" lon="-1.81241">
        <ele>54.3</ele>
        <time>2016-04-10T08:36:17.813Z</time>
      </trkpt>
      <trkpt lat="47.20454" lon="-1.81253">
        <ele>54</ele>
        <time>2016-04-10T08:36:23.961Z</time>
      </trkpt>
      <trkpt lat="47.20455" lon="-1.81255">
        <ele>54</ele>
        <time>2016-04-10T08:36:24.854Z</time>
      </trkpt>
      <trkpt lat="47.20458" lon="-1.81265">
        <ele>54</ele>
        <time>2016-04-10T08:36:30.942Z</time>
      </trkpt>
      <trkpt lat="47.20459" lon="-1.81268">
        <ele>54</ele>
        <time>2016-04-10T08:36:31.875Z</time>
      </trkpt>
      <trkpt lat="47.20463" lon="-1.81279">
        <ele>53.8</ele>
        <time>2016-04-10T08:36:38.901Z</time>
      </trkpt>
      <trkpt lat="47.20463" lon="-1.81281">
        <ele>53.8</ele>
        <time>2016-04-10T08:36:39.962Z</time>
      </trkpt>
      <trkpt lat="47.20466" lon="-1.81291">
        <ele>53.7</ele>
        <time>2016-04-10T08:36:44.860Z</time>
      </trkpt>
      <trkpt lat="47.20466" lon="-1.81294">
        <ele>53.7</ele>
        <time>2016-04-10T08:36:45.884Z</time>
      </trkpt>
      <trkpt lat="47.20467" lon="-1.81307">
        <ele>53.9</ele>
        <time>2016-04-10T08:36:53.028Z</time>
      </trkpt>
      <trkpt lat="47.20466" lon="-1.81309">
        <ele>53.9</ele>
        <time>2016-04-10T08:36:53.883Z</time>
      </trkpt>
      <trkpt lat="47.20466" lon="-1.81321">
        <ele>54</ele>
        <time>2016-04-10T08:37:00.297Z</time>
      </trkpt>
      <trkpt lat="47.20466" lon="-1.81323">
        <ele>54</ele>
        <time>2016-04-10T08:37:00.832Z</time>
      </trkpt>
      <trkpt lat="47.20463" lon="-1.81335">
        <ele>54.2</ele>
        <time>2016-04-10T08:37:07.867Z</time>
      </trkpt>
      <trkpt lat="47.20462" lon="-1.81336">
        <ele>54.2</ele>
        <time>2016-04-10T08:37:08.845Z</time>
      </trkpt>
      <trkpt lat="47.20456" lon="-1.81344">
        <ele>54.3</ele>
        <time>2016-04-10T08:37:14.972Z</time>
      </trkpt>
      <trkpt lat="47.20455" lon="-1.81345">
        <ele>54.3</ele>
        <time>2016-04-10T08:37:15.869Z</time>
      </trkpt>
      <trkpt lat="47.20448" lon="-1.81353">
        <ele>54.4</ele>
        <time>2016-04-10T08:37:22.907Z</time>
      </trkpt>
      <trkpt lat="47.20447" lon="-1.81354">
        <ele>54.4</ele>
        <time>2016-04-10T08:37:23.951Z</time>
      </trkpt>
      <trkpt lat="47.2044" lon="-1.81361">
        <ele>54.8</ele>
        <time>2016-04-10T08:37:30.970Z</time>
      </trkpt>
      <trkpt lat="47.20438" lon="-1.81361">
        <ele>54.9</ele>
        <time>2016-04-10T08:37:31.914Z</time>
      </trkpt>
      <trkpt lat="47.20432" lon="-1.81366">
        <ele>55.3</ele>
        <time>2016-04-10T08:37:37.951Z</time>
      </trkpt>
      <trkpt lat="47.2043" lon="-1.81367">
        <ele>55.4</ele>
        <time>2016-04-10T08:37:38.816Z</time>
      </trkpt>
      <trkpt lat="47.20422" lon="-1.81372">
        <ele>55.8</ele>
        <time>2016-04-10T08:37:45.412Z</time>
      </trkpt>
      <trkpt lat="47.20421" lon="-1.81373">
        <ele>55.8</ele>
        <time>2016-04-10T08:37:45.809Z</time>
      </trkpt>
      <trkpt lat="47.20413" lon="-1.81377">
        <ele>56</ele>
        <time>2016-04-10T08:37:53.910Z</time>
      </trkpt>
      <trkpt lat="47.20412" lon="-1.81379">
        <ele>56</ele>
        <time>2016-04-10T08:37:54.876Z</time>
      </trkpt>
      <trkpt lat="47.20404" lon="-1.81386">
        <ele>56.3</ele>
        <time>2016-04-10T08:38:01.936Z</time>
      </trkpt>
      <trkpt lat="47.20403" lon="-1.81387">
        <ele>56.3</ele>
        <time>2016-04-10T08:38:02.867Z</time>
      </trkpt>
      <trkpt lat="47.20396" lon="-1.81392">
        <ele>56.2</ele>
        <time>2016-04-10T08:38:11.169Z</time>
      </trkpt>
      <trkpt lat="47.20395" lon="-1.81393">
        <ele>56.2</ele>
        <time>2016-04-10T08:38:11.871Z</time>
      </trkpt>
      <trkpt lat="47.20388" lon="-1.81399">
        <ele>56.3</ele>
        <time>2016-04-10T08:38:18.856Z</time>
      </trkpt>
      <trkpt lat="47.20386" lon="-1.814">
        <ele>56.3</ele>
        <time>2016-04-10T08:38:19.875Z</time>
      </trkpt>
      <trkpt lat="47.20378" lon="-1.81404">
        <ele>56</ele>
        <time>2016-04-10T08:38:26.973Z</time>
      </trkpt>
      <trkpt lat="47.20376" lon="-1.81405">
        <ele>55.9</ele>
        <time>2016-04-10T08:38:27.876Z</time>
      </trkpt>
      <trkpt lat="47.20369" lon="-1.8141">
        <ele>55.5</ele>
        <time>2016-04-10T08:38:33.966Z</time>
      </trkpt>
      <trkpt lat="47.20368" lon="-1.8141">
        <ele>55.4</ele>
        <time>2016-04-10T08:38:34.853Z</time>
      </trkpt>
      <trkpt lat="47.2036" lon="-1.81417">
        <ele>55.4</ele>
        <time>2016-04-10T08:38:41.970Z</time>
      </trkpt>
      <trkpt lat="47.20358" lon="-1.81419">
        <ele>55.5</ele>
        <time>2016-04-10T08:38:42.822Z</time>
      </trkpt>
      <trkpt lat="47.20351" lon="-1.81426">
        <ele>56</ele>
        <time>2016-04-10T08:38:50.963Z</time>
      </trkpt>
      <trkpt lat="47.2035" lon="-1.81427">
        <ele>56</ele>
        <time>2016-04-10T08:38:51.875Z</time>
      </trkpt>
      <trkpt lat="47.20342" lon="-1.81432">
        <ele>56.5</ele>
        <time>2016-04-10T08:38:59.933Z</time>
      </trkpt>
      <trkpt lat="47.20341" lon="-1.81433">
        <ele>56.5</ele>
        <time>2016-04-10T08:39:00.824Z</time>
      </trkpt>
      <trkpt lat="47.20334" lon="-1.81439">
        <ele>56.8</ele>
        <time>2016-04-10T08:39:08.007Z</time>
      </trkpt>
      <trkpt lat="47.20332" lon="-1.8144">
        <ele>56.8</ele>
        <time>2016-04-10T08:39:09.205Z</time>
      </trkpt>
      <trkpt lat="47.20325" lon="-1.81445">
        <ele>57.4</ele>
        <time>2016-04-10T08:39:16.998Z</time>
      </trkpt>
      <trkpt lat="47.20324" lon="-1.81445">
        <ele>57.5</ele>
        <time>2016-04-10T08:39:17.884Z</time>
      </trkpt>
      <trkpt lat="47.20315" lon="-1.81449">
        <ele>58.1</ele>
        <time>2016-04-10T08:39:24.955Z</time>
      </trkpt>
      <trkpt lat="47.20314" lon="-1.81449">
        <ele>58.2</ele>
        <time>2016-04-10T08:39:25.881Z</time>
      </trkpt>
      <trkpt lat="47.20306" lon="-1.81453">
        <ele>58.8</ele>
        <time>2016-04-10T08:39:32.137Z</time>
      </trkpt>
      <trkpt lat="47.20305" lon="-1.81454">
        <ele>58.9</ele>
        <time>2016-04-10T08:39:32.878Z</time>
      </trkpt>
      <trkpt lat="47.20297" lon="-1.81458">
        <ele>59.6</ele>
        <time>2016-04-10T08:39:39.523Z</time>
      </trkpt>
      <trkpt lat="47.20295" lon="-1.81459">
        <ele>59.7</ele>
        <time>2016-04-10T08:39:39.808Z</time>
      </trkpt>
      <trkpt lat="47.20287" lon="-1.81463">
        <ele>60.3</ele>
        <time>2016-04-10T08:39:46.200Z</time>
      </trkpt>
      <trkpt lat="47.20286" lon="-1.81465">
        <ele>60.4</ele>
        <time>2016-04-10T08:39:46.866Z</time>
      </trkpt>
      <trkpt lat="47.20278" lon="-1.8147">
        <ele>61</ele>
        <time>2016-04-10T08:39:53.971Z</time>
      </trkpt>
      <trkpt lat="47.20277" lon="-1.81471">
        <ele>61</ele>
        <time>2016-04-10T08:39:54.870Z</time>
      </trkpt>
      <trkpt lat="47.20269" lon="-1.81476">
        <ele>61</ele>
        <time>2016-04-10T08:40:01.940Z</time>
      </trkpt>
      <trkpt lat="47.20268" lon="-1.81476">
        <ele>61</ele>
        <time>2016-04-10T08:40:02.883Z</time>
      </trkpt>
      <trkpt lat="47.20261" lon="-1.81483">
        <ele>61.1</ele>
        <time>2016-04-10T08:40:11.034Z</time>
      </trkpt>
      <trkpt lat="47.2026" lon="-1.81484">
        <ele>61.1</ele>
        <time>2016-04-10T08:40:11.873Z</time>
      </trkpt>
      <trkpt lat="47.20254" lon="-1.81491">
        <ele>60.7</ele>
        <time>2016-04-10T08:40:20.116Z</time>
      </trkpt>
      <trkpt lat="47.20253" lon="-1.81492">
        <ele>60.6</ele>
        <time>2016-04-10T08:40:20.860Z</time>
      </trkpt>
      <trkpt lat="47.20246" lon="-1.81498">
        <ele>60.4</ele>
        <time>2016-04-10T08:40:25.973Z</time>
      </trkpt>
      <trkpt lat="47.20245" lon="-1.815">
        <ele>60.4</ele>
        <time>2016-04-10T08:40:26.868Z</time>
      </trkpt>
      <trkpt lat="47.20239" lon="-1.8151">
        <ele>60.4</ele>
        <time>2016-04-10T08:40:32.957Z</time>
      </trkpt>
      <trkpt lat="47.20239" lon="-1.81511">
        <ele>60.5</ele>
        <time>2016-04-10T08:40:33.820Z</time>
      </trkpt>
      <trkpt lat="47.20235" lon="-1.81523">
        <ele>60.5</ele>
        <time>2016-04-10T08:40:41.982Z</time>
      </trkpt>
      <trkpt lat="47.20235" lon="-1.81525">
        <ele>60.6</ele>
        <time>2016-04-10T08:40:42.854Z</time>
      </trkpt>
      <trkpt lat="47.20233" lon="-1.81538">
        <ele>60.5</ele>
        <time>2016-04-10T08:40:50.169Z</time>
      </trkpt>
      <trkpt lat="47.20233" lon="-1.81539">
        <ele>60.5</ele>
        <time>2016-04-10T08:40:50.855Z</time>
      </trkpt>
      <trkpt lat="47.20233" lon="-1.81552">
        <ele>60.3</ele>
        <time>2016-04-10T08:40:59.962Z</time>
      </trkpt>
      <trkpt lat="47.20233" lon="-1.81553">
        <ele>60.3</ele>
        <time>2016-04-10T08:41:01.017Z</time>
      </trkpt>
      <trkpt lat="47.20237" lon="-1.81565">
        <ele>60.1</ele>
        <time>2016-04-10T08:41:06.939Z</time>
      </trkpt>
      <trkpt lat="47.20237" lon="-1.81567">
        <ele>60.1</ele>
        <time>2016-04-10T08:41:07.879Z</time>
      </trkpt>
      <trkpt lat="47.2024" lon="-1.81579">
        <ele>60.2</ele>
        <time>2016-04-10T08:41:14.977Z</time>
      </trkpt>
      <trkpt lat="47.20241" lon="-1.81581">
        <ele>60.2</ele>
        <time>2016-04-10T08:41:15.890Z</time>
      </trkpt>
      <trkpt lat="47.20243" lon="-1.81591">
        <ele>60.4</ele>
        <time>2016-04-10T08:41:21.950Z</time>
      </trkpt>
      <trkpt lat="47.20244" lon="-1.81593">
        <ele>60.4</ele>
        <time>2016-04-10T08:41:22.983Z</time>
      </trkpt>
      <trkpt lat="47.20248" lon="-1.81604">
        <ele>60.3</ele>
        <time>2016-04-10T08:41:29.908Z</time>
      </trkpt>
      <trkpt lat="47.20249" lon="-1.81606">
        <ele>60.3</ele>
        <time>2016-04-10T08:41:30.831Z</time>
      </trkpt>
      <trkpt lat="47.20252" lon="-1.81618">
        <ele>60.1</ele>
        <time>2016-04-10T08:41:37.887Z</time>
      </trkpt>
      <trkpt lat="47.20252" lon="-1.8162">
        <ele>60.1</ele>
        <time>2016-04-10T08:41:38.823Z</time>
      </trkpt>
      <trkpt lat="47.20255" lon="-1.81632">
        <ele>60.1</ele>
        <time>2016-04-10T08:41:45.951Z</time>
      </trkpt>
      <trkpt lat="47.20255" lon="-1.81634">
        <ele>60.1</ele>
        <time>2016-04-10T08:41:46.889Z</time>
      </trkpt>
      <trkpt lat="47.20257" lon="-1.81646">
        <ele>60.3</ele>
        <time>2016-04-10T08:41:54.019Z</time>
      </trkpt>
      <trkpt lat="47.20257" lon="-1.81648">
        <ele>60.4</ele>
        <time>2016-04-10T08:41:54.875Z</time>
      </trkpt>
      <trkpt lat="47.2026" lon="-1.81659">
        <ele>60.8</ele>
        <time>2016-04-10T08:42:00.865Z</time>
      </trkpt>
      <trkpt lat="47.2026" lon="-1.81661">
        <ele>60.8</ele>
        <time>2016-04-10T08:42:01.870Z</time>
      </trkpt>
      <trkpt lat="47.20262" lon="-1.81673">
        <ele>61.1</ele>
        <time>2016-04-10T08:42:07.899Z</time>
      </trkpt>
      <trkpt lat="47.20262" lon="-1.81675">
        <ele>61.1</ele>
        <time>2016-04-10T08:42:08.837Z</time>
      </trkpt>
      <trkpt lat="47.20265" lon="-1.81687">
        <ele>61.5</ele>
        <time>2016-04-10T08:42:15.889Z</time>
      </trkpt>
      <trkpt lat="47.20266" lon="-1.81688">
        <ele>61.5</ele>
        <time>2016-04-10T08:42:16.878Z</time>
      </trkpt>
      <trkpt lat="47.20268" lon="-1.817">
        <ele>61.2</ele>
        <time>2016-04-10T08:42:25.020Z</time>
      </trkpt>
      <trkpt lat="47.20268" lon="-1.81702">
        <ele>61.1</ele>
        <time>2016-04-10T08:42:25.875Z</time>
      </trkpt>
      <trkpt lat="47.2027" lon="-1.81714">
        <ele>61.2</ele>
        <time>2016-04-10T08:42:33.003Z</time>
      </trkpt>
      <trkpt lat="47.2027" lon="-1.81716">
        <ele>61.2</ele>
        <time>2016-04-10T08:42:33.871Z</time>
      </trkpt>
      <trkpt lat="47.20272" lon="-1.81727">
        <ele>61.3</ele>
        <time>2016-04-10T08:42:40.957Z</time>
      </trkpt>
      <trkpt lat="47.20272" lon="-1.8173">
        <ele>61.3</ele>
        <time>2016-04-10T08:42:41.872Z</time>
      </trkpt>
      <trkpt lat="47.20271" lon="-1.81741">
        <ele>61.6</ele>
        <time>2016-04-10T08:42:48.004Z</time>
      </trkpt>
      <trkpt lat="47.2027" lon="-1.81743">
        <ele>61.7</ele>
        <time>2016-04-10T08:42:48.854Z</time>
      </trkpt>
      <trkpt lat="47.20266" lon="-1.81755">
        <ele>62.4</ele>
        <time>2016-04-10T08:42:56.974Z</time>
      </trkpt>
      <trkpt lat="47.20266" lon="-1.81756">
        <ele>62.4</ele>
        <time>2016-04-10T08:42:57.891Z</time>
      </trkpt>
      <trkpt lat="47.20258" lon="-1.81749">
        <ele>64.4</ele>
        <time>2016-04-10T08:52:50.058Z</time>
      </trkpt>
      <trkpt lat="47.20258" lon="-1.81749">
        <ele>64.3</ele>
        <time>2016-04-10T08:52:50.896Z</time>
      </trkpt>
      <trkpt lat="47.20249" lon="-1.81751">
        <ele>64.2</ele>
        <time>2016-04-10T08:53:01.062Z</time>
      </trkpt>
      <trkpt lat="47.20248" lon="-1.81751">
        <ele>64.1</ele>
        <time>2016-04-10T08:53:01.903Z</time>
      </trkpt>
      <trkpt lat="47.20239" lon="-1.81751">
        <ele>64.2</ele>
        <time>2016-04-10T08:53:08.179Z</time>
      </trkpt>
      <trkpt lat="47.20238" lon="-1.81752">
        <ele>64.2</ele>
        <time>2016-04-10T08:53:08.847Z</time>
      </trkpt>
      <trkpt lat="47.20231" lon="-1.81753">
        <ele>64.2</ele>
        <time>2016-04-10T08:53:14.989Z</time>
      </trkpt>
      <trkpt lat="47.20229" lon="-1.81753">
        <ele>64.2</ele>
        <time>2016-04-10T08:53:15.860Z</time>
      </trkpt>
      <trkpt lat="47.20221" lon="-1.81755">
        <ele>64.5</ele>
        <time>2016-04-10T08:53:23.041Z</time>
      </trkpt>
      <trkpt lat="47.20219" lon="-1.81756">
        <ele>64.5</ele>
        <time>2016-04-10T08:53:23.873Z</time>
      </trkpt>
      <trkpt lat="47.20211" lon="-1.81758">
        <ele>64.1</ele>
        <time>2016-04-10T08:53:30.994Z</time>
      </trkpt>
      <trkpt lat="47.2021" lon="-1.81759">
        <ele>64</ele>
        <time>2016-04-10T08:53:31.867Z</time>
      </trkpt>
      <trkpt lat="47.20201" lon="-1.81758">
        <ele>63.6</ele>
        <time>2016-04-10T08:53:38.900Z</time>
      </trkpt>
      <trkpt lat="47.202" lon="-1.81758">
        <ele>63.6</ele>
        <time>2016-04-10T08:53:39.870Z</time>
      </trkpt>
      <trkpt lat="47.20192" lon="-1.81758">
        <ele>63.7</ele>
        <time>2016-04-10T08:53:45.996Z</time>
      </trkpt>
      <trkpt lat="47.20191" lon="-1.81758">
        <ele>63.7</ele>
        <time>2016-04-10T08:53:46.852Z</time>
      </trkpt>
      <trkpt lat="47.20182" lon="-1.81758">
        <ele>63.7</ele>
        <time>2016-04-10T08:53:54.002Z</time>
      </trkpt>
      <trkpt lat="47.20181" lon="-1.81758">
        <ele>63.7</ele>
        <time>2016-04-10T08:53:54.898Z</time>
      </trkpt>
      <trkpt lat="47.20173" lon="-1.81759">
        <ele>63.9</ele>
        <time>2016-04-10T08:54:00.950Z</time>
      </trkpt>
      <trkpt lat="47.20171" lon="-1.81759">
        <ele>64</ele>
        <time>2016-04-10T08:54:01.845Z</time>
      </trkpt>
      <trkpt lat="47.20163" lon="-1.8176">
        <ele>64</ele>
        <time>2016-04-10T08:54:08.914Z</time>
      </trkpt>
      <trkpt lat="47.20162" lon="-1.8176">
        <ele>64</ele>
        <time>2016-04-10T08:54:10.177Z</time>
      </trkpt>
      <trkpt lat="47.20153" lon="-1.81761">
        <ele>64</ele>
        <time>2016-04-10T08:54:16.959Z</time>
      </trkpt>
      <trkpt lat="47.20152" lon="-1.81761">
        <ele>64.1</ele>
        <time>2016-04-10T08:54:17.841Z</time>
      </trkpt>
      <trkpt lat="47.20143" lon="-1.81761">
        <ele>64</ele>
        <time>2016-04-10T08:54:23.947Z</time>
      </trkpt>
      <trkpt lat="47.20142" lon="-1.81762">
        <ele>64.1</ele>
        <time>2016-04-10T08:54:24.888Z</time>
      </trkpt>
      <trkpt lat="47.20134" lon="-1.8176">
        <ele>64.1</ele>
        <time>2016-04-10T08:54:30.997Z</time>
      </trkpt>
      <trkpt lat="47.20132" lon="-1.8176">
        <ele>64.1</ele>
        <time>2016-04-10T08:54:31.849Z</time>
      </trkpt>
      <trkpt lat="47.20124" lon="-1.81759">
        <ele>64.2</ele>
        <time>2016-04-10T08:54:38.114Z</time>
      </trkpt>
      <trkpt lat="47.20123" lon="-1.81758">
        <ele>64.3</ele>
        <time>2016-04-10T08:54:39.091Z</time>
      </trkpt>
      <trkpt lat="47.20115" lon="-1.81755">
        <ele>64.3</ele>
        <time>2016-04-10T08:54:47.924Z</time>
      </trkpt>
      <trkpt lat="47.20114" lon="-1.81754">
        <ele>64.4</ele>
        <time>2016-04-10T08:54:48.898Z</time>
      </trkpt>
      <trkpt lat="47.20106" lon="-1.8175">
        <ele>64.6</ele>
        <time>2016-04-10T08:54:55.169Z</time>
      </trkpt>
      <trkpt lat="47.20105" lon="-1.81749">
        <ele>64.7</ele>
        <time>2016-04-10T08:54:55.984Z</time>
      </trkpt>
      <trkpt lat="47.20097" lon="-1.81747">
        <ele>64.8</ele>
        <time>2016-04-10T08:55:01.885Z</time>
      </trkpt>
      <trkpt lat="47.20095" lon="-1.81747">
        <ele>64.8</ele>
        <time>2016-04-10T08:55:02.842Z</time>
      </trkpt>
      <trkpt lat="47.20087" lon="-1.81746">
        <ele>64.7</ele>
        <time>2016-04-10T08:55:08.979Z</time>
      </trkpt>
      <trkpt lat="47.20086" lon="-1.81745">
        <ele>64.6</ele>
        <time>2016-04-10T08:55:09.881Z</time>
      </trkpt>
      <trkpt lat="47.20077" lon="-1.81742">
        <ele>64.5</ele>
        <time>2016-04-10T08:55:16.954Z</time>
      </trkpt>
      <trkpt lat="47.20075" lon="-1.81742">
        <ele>64.5</ele>
        <time>2016-04-10T08:55:17.889Z</time>
      </trkpt>
      <trkpt lat="47.20067" lon="-1.81739">
        <ele>64.3</ele>
        <time>2016-04-10T08:55:24.998Z</time>
      </trkpt>
      <trkpt lat="47.20065" lon="-1.81739">
        <ele>64.2</ele>
        <time>2016-04-10T08:55:25.875Z</time>
      </trkpt>
      <trkpt lat="47.20057" lon="-1.81736">
        <ele>64</ele>
        <time>2016-04-10T08:55:34.326Z</time>
      </trkpt>
      <trkpt lat="47.20056" lon="-1.81735">
        <ele>64</ele>
        <time>2016-04-10T08:55:34.814Z</time>
      </trkpt>
      <trkpt lat="47.20048" lon="-1.81735">
        <ele>63.9</ele>
        <time>2016-04-10T08:55:40.992Z</time>
      </trkpt>
      <trkpt lat="47.20046" lon="-1.81735">
        <ele>63.9</ele>
        <time>2016-04-10T08:55:41.850Z</time>
      </trkpt>
      <trkpt lat="47.20038" lon="-1.81736">
        <ele>64</ele>
        <time>2016-04-10T08:55:47.872Z</time>
      </trkpt>
      <trkpt lat="47.20036" lon="-1.81736">
        <ele>64.1</ele>
        <time>2016-04-10T08:55:48.891Z</time>
      </trkpt>
      <trkpt lat="47.20029" lon="-1.81732">
        <ele>64.2</ele>
        <time>2016-04-10T08:55:54.015Z</time>
      </trkpt>
      <trkpt lat="47.20027" lon="-1.81731">
        <ele>64.1</ele>
        <time>2016-04-10T08:55:54.884Z</time>
      </trkpt>
      <trkpt lat="47.2002" lon="-1.81726">
        <ele>63.7</ele>
        <time>2016-04-10T08:56:00.904Z</time>
      </trkpt>
      <trkpt lat="47.20019" lon="-1.81725">
        <ele>63.6</ele>
        <time>2016-04-10T08:56:01.889Z</time>
      </trkpt>
      <trkpt lat="47.20012" lon="-1.81721">
        <ele>63.2</ele>
        <time>2016-04-10T08:56:09.986Z</time>
      </trkpt>
      <trkpt lat="47.20011" lon="-1.81721">
        <ele>63.2</ele>
        <time>2016-04-10T08:56:10.844Z</time>
      </trkpt>
      <trkpt lat="47.20002" lon="-1.81717">
        <ele>63.1</ele>
        <time>2016-04-10T08:56:17.989Z</time>
      </trkpt>
      <trkpt lat="47.20002" lon="-1.81717">
        <ele>63.1</ele>
        <time>2016-04-10T08:56:18.869Z</time>
      </trkpt>
      <trkpt lat="47.19994" lon="-1.81711">
        <ele>62.9</ele>
        <time>2016-04-10T08:56:27.984Z</time>
      </trkpt>
      <trkpt lat="47.19993" lon="-1.81711">
        <ele>62.8</ele>
        <time>2016-04-10T08:56:28.859Z</time>
      </trkpt>
      <trkpt lat="47.19985" lon="-1.81709">
        <ele>62.6</ele>
        <time>2016-04-10T08:56:35.983Z</time>
      </trkpt>
      <trkpt lat="47.19984" lon="-1.81708">
        <ele>62.6</ele>
        <time>2016-04-10T08:56:36.924Z</time>
      </trkpt>
      <trkpt lat="47.19976" lon="-1.81705">
        <ele>62.5</ele>
        <time>2016-04-10T08:56:43.158Z</time>
      </trkpt>
      <trkpt lat="47.19975" lon="-1.81705">
        <ele>62.5</ele>
        <time>2016-04-10T08:56:43.883Z</time>
      </trkpt>
      <trkpt lat="47.19966" lon="-1.81706">
        <ele>62.2</ele>
        <time>2016-04-10T08:56:51.048Z</time>
      </trkpt>
      <trkpt lat="47.19965" lon="-1.81706">
        <ele>62.1</ele>
        <time>2016-04-10T08:56:51.886Z</time>
      </trkpt>
      <trkpt lat="47.19958" lon="-1.8171">
        <ele>61.1</ele>
        <time>2016-04-10T08:56:59.997Z</time>
      </trkpt>
      <trkpt lat="47.19957" lon="-1.81711">
        <ele>61</ele>
        <time>2016-04-10T08:57:00.836Z</time>
      </trkpt>
      <trkpt lat="47.19952" lon="-1.81722">
        <ele>60.3</ele>
        <time>2016-04-10T08:57:08.999Z</time>
      </trkpt>
      <trkpt lat="47.19952" lon="-1.81724">
        <ele>60.2</ele>
        <time>2016-04-10T08:57:09.902Z</time>
      </trkpt>
      <trkpt lat="47.19947" lon="-1.81735">
        <ele>59.8</ele>
        <time>2016-04-10T08:57:16.954Z</time>
      </trkpt>
      <trkpt lat="47.19946" lon="-1.81736">
        <ele>59.8</ele>
        <time>2016-04-10T08:57:17.898Z</time>
      </trkpt>
      <trkpt lat="47.19939" lon="-1.81742">
        <ele>59.6</ele>
        <time>2016-04-10T08:57:23.893Z</time>
      </trkpt>
      <trkpt lat="47.19938" lon="-1.81743">
        <ele>59.6</ele>
        <time>2016-04-10T08:57:24.902Z</time>
      </trkpt>
      <trkpt lat="47.19931" lon="-1.81748">
        <ele>59.4</ele>
        <time>2016-04-10T08:57:30.915Z</time>
      </trkpt>
      <trkpt lat="47.1993" lon="-1.81749">
        <ele>59.3</ele>
        <time>2016-04-10T08:57:31.854Z</time>
      </trkpt>
      <trkpt lat="47.19922" lon="-1.81755">
        <ele>59.2</ele>
        <time>2016-04-10T08:57:39.983Z</time>
      </trkpt>
      <trkpt lat="47.19922" lon="-1.81755">
        <ele>59.2</ele>
        <time>2016-04-10T08:57:40.905Z</time>
      </trkpt>
      <trkpt lat="47.19914" lon="-1.81757">
        <ele>59.5</ele>
        <time>2016-04-10T08:57:47.971Z</time>
      </trkpt>
      <trkpt lat="47.19912" lon="-1.81757">
        <ele>59.5</ele>
        <time>2016-04-10T08:57:48.903Z</time>
      </trkpt>
      <trkpt lat="47.19904" lon="-1.81761">
        <ele>59.1</ele>
        <time>2016-04-10T08:57:55.017Z</time>
      </trkpt>
      <trkpt lat="47.19903" lon="-1.81762">
        <ele>59.1</ele>
        <time>2016-04-10T08:57:55.861Z</time>
      </trkpt>
      <trkpt lat="47.19897" lon="-1.81771">
        <ele>59.2</ele>
        <time>2016-04-10T08:58:13.902Z</time>
      </trkpt>
      <trkpt lat="47.19897" lon="-1.81773">
        <ele>59.2</ele>
        <time>2016-04-10T08:58:14.892Z</time>
      </trkpt>
      <trkpt lat="47.19896" lon="-1.81785">
        <ele>59</ele>
        <time>2016-04-10T08:58:23.892Z</time>
      </trkpt>
      <trkpt lat="47.19896" lon="-1.81786">
        <ele>59.1</ele>
        <time>2016-04-10T08:58:24.900Z</time>
      </trkpt>
      <trkpt lat="47.19896" lon="-1.81799">
        <ele>59.4</ele>
        <time>2016-04-10T08:58:58.898Z</time>
      </trkpt>
      <trkpt lat="47.19895" lon="-1.818">
        <ele>59.4</ele>
        <time>2016-04-10T08:58:59.901Z</time>
      </trkpt>
      <trkpt lat="47.19888" lon="-1.81806">
        <ele>59.5</ele>
        <time>2016-04-10T08:59:08.898Z</time>
      </trkpt>
      <trkpt lat="47.19887" lon="-1.81807">
        <ele>59.6</ele>
        <time>2016-04-10T08:59:09.890Z</time>
      </trkpt>
      <trkpt lat="47.19883" lon="-1.81818">
        <ele>59.8</ele>
        <time>2016-04-10T08:59:16.983Z</time>
      </trkpt>
      <trkpt lat="47.19882" lon="-1.81819">
        <ele>59.8</ele>
        <time>2016-04-10T08:59:17.900Z</time>
      </trkpt>
      <trkpt lat="47.19878" lon="-1.81831">
        <ele>59.6</ele>
        <time>2016-04-10T08:59:24.250Z</time>
      </trkpt>
      <trkpt lat="47.19877" lon="-1.81832">
        <ele>59.6</ele>
        <time>2016-04-10T08:59:24.880Z</time>
      </trkpt>
      <trkpt lat="47.19872" lon="-1.81842">
        <ele>59.6</ele>
        <time>2016-04-10T08:59:31.978Z</time>
      </trkpt>
      <trkpt lat="47.19871" lon="-1.81844">
        <ele>59.6</ele>
        <time>2016-04-10T08:59:32.837Z</time>
      </trkpt>
      <trkpt lat="47.19866" lon="-1.81854">
        <ele>60.3</ele>
        <time>2016-04-10T08:59:40.979Z</time>
      </trkpt>
      <trkpt lat="47.19866" lon="-1.81855">
        <ele>60.4</ele>
        <time>2016-04-10T08:59:41.887Z</time>
      </trkpt>
      <trkpt lat="47.1986" lon="-1.81865">
        <ele>60.9</ele>
        <time>2016-04-10T08:59:48.054Z</time>
      </trkpt>
      <trkpt lat="47.19859" lon="-1.81866">
        <ele>61</ele>
        <time>2016-04-10T08:59:48.900Z</time>
      </trkpt>
      <trkpt lat="47.19853" lon="-1.81875">
        <ele>61.4</ele>
        <time>2016-04-10T08:59:55.973Z</time>
      </trkpt>
      <trkpt lat="47.19852" lon="-1.81877">
        <ele>61.4</ele>
        <time>2016-04-10T08:59:56.903Z</time>
      </trkpt>
      <trkpt lat="47.19846" lon="-1.81884">
        <ele>61.5</ele>
        <time>2016-04-10T09:00:02.958Z</time>
      </trkpt>
      <trkpt lat="47.19845" lon="-1.81885">
        <ele>61.5</ele>
        <time>2016-04-10T09:00:03.912Z</time>
      </trkpt>
      <trkpt lat="47.19838" lon="-1.81893">
        <ele>61.7</ele>
        <time>2016-04-10T09:00:10.984Z</time>
      </trkpt>
      <trkpt lat="47.19837" lon="-1.81894">
        <ele>61.6</ele>
        <time>2016-04-10T09:00:11.907Z</time>
      </trkpt>
      <trkpt lat="47.1983" lon="-1.81901">
        <ele>61.6</ele>
        <time>2016-04-10T09:00:19.045Z</time>
      </trkpt>
      <trkpt lat="47.19829" lon="-1.81902">
        <ele>61.7</ele>
        <time>2016-04-10T09:00:19.897Z</time>
      </trkpt>
      <trkpt lat="47.19822" lon="-1.8191">
        <ele>62.2</ele>
        <time>2016-04-10T09:00:26.065Z</time>
      </trkpt>
      <trkpt lat="47.19821" lon="-1.81912">
        <ele>62.3</ele>
        <time>2016-04-10T09:00:26.892Z</time>
      </trkpt>
      <trkpt lat="47.19815" lon="-1.8192">
        <ele>62.9</ele>
        <time>2016-04-10T09:00:34.993Z</time>
      </trkpt>
      <trkpt lat="47.19813" lon="-1.81921">
        <ele>63</ele>
        <time>2016-04-10T09:00:35.907Z</time>
      </trkpt>
      <trkpt lat="47.19807" lon="-1.81927">
        <ele>63.4</ele>
        <time>2016-04-10T09:00:42.029Z</time>
      </trkpt>
      <trkpt lat="47.19806" lon="-1.81928">
        <ele>63.5</ele>
        <time>2016-04-10T09:00:42.899Z</time>
      </trkpt>
      <trkpt lat="47.198" lon="-1.81936">
        <ele>64</ele>
        <time>2016-04-10T09:00:48.985Z</time>
      </trkpt>
      <trkpt lat="47.19799" lon="-1.81937">
        <ele>64.1</ele>
        <time>2016-04-10T09:00:49.897Z</time>
      </trkpt>
      <trkpt lat="47.19791" lon="-1.81943">
        <ele>64.3</ele>
        <time>2016-04-10T09:00:57.032Z</time>
      </trkpt>
      <trkpt lat="47.1979" lon="-1.81944">
        <ele>64.3</ele>
        <time>2016-04-10T09:00:57.899Z</time>
      </trkpt>
      <trkpt lat="47.19783" lon="-1.8195">
        <ele>64.4</ele>
        <time>2016-04-10T09:01:04.992Z</time>
      </trkpt>
      <trkpt lat="47.19781" lon="-1.81951">
        <ele>64.3</ele>
        <time>2016-04-10T09:01:05.968Z</time>
      </trkpt>
      <trkpt lat="47.19774" lon="-1.81956">
        <ele>64</ele>
        <time>2016-04-10T09:01:12.420Z</time>
      </trkpt>
      <trkpt lat="47.19773" lon="-1.81957">
        <ele>64</ele>
        <time>2016-04-10T09:01:12.887Z</time>
      </trkpt>
      <trkpt lat="47.19766" lon="-1.81962">
        <ele>64.2</ele>
        <time>2016-04-10T09:01:18.982Z</time>
      </trkpt>
      <trkpt lat="47.19765" lon="-1.81963">
        <ele>64.1</ele>
        <time>2016-04-10T09:01:19.899Z</time>
      </trkpt>
      <trkpt lat="47.19757" lon="-1.8197">
        <ele>63.9</ele>
        <time>2016-04-10T09:01:26.884Z</time>
      </trkpt>
      <trkpt lat="47.19756" lon="-1.81971">
        <ele>63.8</ele>
        <time>2016-04-10T09:01:27.845Z</time>
      </trkpt>
      <trkpt lat="47.19749" lon="-1.81977">
        <ele>63.5</ele>
        <time>2016-04-10T09:01:33.043Z</time>
      </trkpt>
      <trkpt lat="47.19748" lon="-1.81977">
        <ele>63.5</ele>
        <time>2016-04-10T09:01:33.870Z</time>
      </trkpt>
      <trkpt lat="47.19741" lon="-1.81984">
        <ele>63.1</ele>
        <time>2016-04-10T09:01:39.986Z</time>
      </trkpt>
      <trkpt lat="47.1974" lon="-1.81985">
        <ele>63</ele>
        <time>2016-04-10T09:01:40.892Z</time>
      </trkpt>
      <trkpt lat="47.19733" lon="-1.81988">
        <ele>62.6</ele>
        <time>2016-04-10T09:01:46.864Z</time>
      </trkpt>
      <trkpt lat="47.19731" lon="-1.81988">
        <ele>62.6</ele>
        <time>2016-04-10T09:01:47.888Z</time>
      </trkpt>
      <trkpt lat="47.19723" lon="-1.81992">
        <ele>62.5</ele>
        <time>2016-04-10T09:01:53.837Z</time>
      </trkpt>
      <trkpt lat="47.19722" lon="-1.81993">
        <ele>62.5</ele>
        <time>2016-04-10T09:01:54.873Z</time>
      </trkpt>
      <trkpt lat="47.19715" lon="-1.81998">
        <ele>62.8</ele>
        <time>2016-04-10T09:02:01.039Z</time>
      </trkpt>
      <trkpt lat="47.19713" lon="-1.81999">
        <ele>62.8</ele>
        <time>2016-04-10T09:02:01.887Z</time>
      </trkpt>
      <trkpt lat="47.19705" lon="-1.82004">
        <ele>63.1</ele>
        <time>2016-04-10T09:02:09.072Z</time>
      </trkpt>
      <trkpt lat="47.19704" lon="-1.82004">
        <ele>63.1</ele>
        <time>2016-04-10T09:02:09.891Z</time>
      </trkpt>
      <trkpt lat="47.19696" lon="-1.82007">
        <ele>63.4</ele>
        <time>2016-04-10T09:02:15.944Z</time>
      </trkpt>
      <trkpt lat="47.19695" lon="-1.82008">
        <ele>63.4</ele>
        <time>2016-04-10T09:02:16.888Z</time>
      </trkpt>
      <trkpt lat="47.19686" lon="-1.8201">
        <ele>63.7</ele>
        <time>2016-04-10T09:02:24.119Z</time>
      </trkpt>
      <trkpt lat="47.19685" lon="-1.82011">
        <ele>63.7</ele>
        <time>2016-04-10T09:02:24.979Z</time>
      </trkpt>
      <trkpt lat="47.19676" lon="-1.82013">
        <ele>64.2</ele>
        <time>2016-04-10T09:02:31.075Z</time>
      </trkpt>
      <trkpt lat="47.19675" lon="-1.82013">
        <ele>64.3</ele>
        <time>2016-04-10T09:02:31.951Z</time>
      </trkpt>
      <trkpt lat="47.19667" lon="-1.82015">
        <ele>64.6</ele>
        <time>2016-04-10T09:02:37.076Z</time>
      </trkpt>
      <trkpt lat="47.19665" lon="-1.82014">
        <ele>64.7</ele>
        <time>2016-04-10T09:02:37.946Z</time>
      </trkpt>
      <trkpt lat="47.19656" lon="-1.82013">
        <ele>65.2</ele>
        <time>2016-04-10T09:02:44.923Z</time>
      </trkpt>
      <trkpt lat="47.19655" lon="-1.82013">
        <ele>65.3</ele>
        <time>2016-04-10T09:02:45.850Z</time>
      </trkpt>
      <trkpt lat="47.19647" lon="-1.8201">
        <ele>66.1</ele>
        <time>2016-04-10T09:02:51.999Z</time>
      </trkpt>
      <trkpt lat="47.19645" lon="-1.8201">
        <ele>66.2</ele>
        <time>2016-04-10T09:02:52.850Z</time>
      </trkpt>
      <trkpt lat="47.19637" lon="-1.82005">
        <ele>66.8</ele>
        <time>2016-04-10T09:03:00.653Z</time>
      </trkpt>
      <trkpt lat="47.19636" lon="-1.82003">
        <ele>66.9</ele>
        <time>2016-04-10T09:03:00.835Z</time>
      </trkpt>
      <trkpt lat="47.19629" lon="-1.81997">
        <ele>67.1</ele>
        <time>2016-04-10T09:03:06.053Z</time>
      </trkpt>
      <trkpt lat="47.19627" lon="-1.81996">
        <ele>67.1</ele>
        <time>2016-04-10T09:03:06.884Z</time>
      </trkpt>
      <trkpt lat="47.1962" lon="-1.81989">
        <ele>67.5</ele>
        <time>2016-04-10T09:03:13.880Z</time>
      </trkpt>
      <trkpt lat="47.19619" lon="-1.81988">
        <ele>67.6</ele>
        <time>2016-04-10T09:03:15.150Z</time>
      </trkpt>
      <trkpt lat="47.19612" lon="-1.81979">
        <ele>67.7</ele>
        <time>2016-04-10T09:03:21.900Z</time>
      </trkpt>
      <trkpt lat="47.19612" lon="-1.81978">
        <ele>67.7</ele>
        <time>2016-04-10T09:03:22.896Z</time>
      </trkpt>
      <trkpt lat="47.19604" lon="-1.81971">
        <ele>67.8</ele>
        <time>2016-04-10T09:03:28.991Z</time>
      </trkpt>
      <trkpt lat="47.19603" lon="-1.81969">
        <ele>67.7</ele>
        <time>2016-04-10T09:03:29.875Z</time>
      </trkpt>
      <trkpt lat="47.19596" lon="-1.81961">
        <ele>67.6</ele>
        <time>2016-04-10T09:03:35.985Z</time>
      </trkpt>
      <trkpt lat="47.19595" lon="-1.8196">
        <ele>67.6</ele>
        <time>2016-04-10T09:03:36.885Z</time>
      </trkpt>
      <trkpt lat="47.19588" lon="-1.81953">
        <ele>67.4</ele>
        <time>2016-04-10T09:03:42.992Z</time>
      </trkpt>
      <trkpt lat="47.19586" lon="-1.81952">
        <ele>67.3</ele>
        <time>2016-04-10T09:03:43.891Z</time>
      </trkpt>
      <trkpt lat="47.1958" lon="-1.81945">
        <ele>67.1</ele>
        <time>2016-04-10T09:03:49.985Z</time>
      </trkpt>
      <trkpt lat="47.19579" lon="-1.81944">
        <ele>67</ele>
        <time>2016-04-10T09:03:50.886Z</time>
      </trkpt>
      <trkpt lat="47.19572" lon="-1.81937">
        <ele>66.6</ele>
        <time>2016-04-10T09:03:57.005Z</time>
      </trkpt>
      <trkpt lat="47.19571" lon="-1.81935">
        <ele>66.6</ele>
        <time>2016-04-10T09:03:57.849Z</time>
      </trkpt>
      <trkpt lat="47.19564" lon="-1.8193">
        <ele>66.3</ele>
        <time>2016-04-10T09:04:03.924Z</time>
      </trkpt>
      <trkpt lat="47.19562" lon="-1.81929">
        <ele>66.3</ele>
        <time>2016-04-10T09:04:04.988Z</time>
      </trkpt>
      <trkpt lat="47.19555" lon="-1.81923">
        <ele>66</ele>
        <time>2016-04-10T09:04:10.906Z</time>
      </trkpt>
      <trkpt lat="47.19554" lon="-1.81923">
        <ele>66</ele>
        <time>2016-04-10T09:04:11.893Z</time>
      </trkpt>
      <trkpt lat="47.19547" lon="-1.81917">
        <ele>65.9</ele>
        <time>2016-04-10T09:04:18.077Z</time>
      </trkpt>
      <trkpt lat="47.19545" lon="-1.81916">
        <ele>65.9</ele>
        <time>2016-04-10T09:04:18.873Z</time>
      </trkpt>
      <trkpt lat="47.19538" lon="-1.81912">
        <ele>65.7</ele>
        <time>2016-04-10T09:04:24.899Z</time>
      </trkpt>
      <trkpt lat="47.19537" lon="-1.81911">
        <ele>65.6</ele>
        <time>2016-04-10T09:04:25.907Z</time>
      </trkpt>
      <trkpt lat="47.19529" lon="-1.81907">
        <ele>65.4</ele>
        <time>2016-04-10T09:04:31.976Z</time>
      </trkpt>
      <trkpt lat="47.19527" lon="-1.81906">
        <ele>65.4</ele>
        <time>2016-04-10T09:04:32.868Z</time>
      </trkpt>
      <trkpt lat="47.1952" lon="-1.81901">
        <ele>65.3</ele>
        <time>2016-04-10T09:04:38.966Z</time>
      </trkpt>
      <trkpt lat="47.19519" lon="-1.819">
        <ele>65.2</ele>
        <time>2016-04-10T09:04:39.900Z</time>
      </trkpt>
      <trkpt lat="47.19512" lon="-1.81895">
        <ele>64.8</ele>
        <time>2016-04-10T09:04:45.937Z</time>
      </trkpt>
      <trkpt lat="47.19511" lon="-1.81893">
        <ele>64.7</ele>
        <time>2016-04-10T09:04:47.016Z</time>
      </trkpt>
      <trkpt lat="47.19505" lon="-1.81884">
        <ele>64.3</ele>
        <time>2016-04-10T09:04:53.028Z</time>
      </trkpt>
      <trkpt lat="47.19504" lon="-1.81882">
        <ele>64.2</ele>
        <time>2016-04-10T09:04:53.857Z</time>
      </trkpt>
      <trkpt lat="47.19499" lon="-1.81873">
        <ele>63.5</ele>
        <time>2016-04-10T09:04:59.964Z</time>
      </trkpt>
      <trkpt lat="47.19498" lon="-1.81872">
        <ele>63.4</ele>
        <time>2016-04-10T09:05:00.840Z</time>
      </trkpt>
      <trkpt lat="47.19492" lon="-1.81862">
        <ele>62.8</ele>
        <time>2016-04-10T09:05:07.015Z</time>
      </trkpt>
      <trkpt lat="47.19491" lon="-1.8186">
        <ele>62.7</ele>
        <time>2016-04-10T09:05:07.882Z</time>
      </trkpt>
      <trkpt lat="47.19486" lon="-1.8185">
        <ele>62.2</ele>
        <time>2016-04-10T09:05:13.998Z</time>
      </trkpt>
      <trkpt lat="47.19486" lon="-1.81848">
        <ele>62.1</ele>
        <time>2016-04-10T09:05:14.883Z</time>
      </trkpt>
      <trkpt lat="47.19481" lon="-1.81838">
        <ele>61.7</ele>
        <time>2016-04-10T09:05:22.185Z</time>
      </trkpt>
      <trkpt lat="47.1948" lon="-1.81836">
        <ele>61.6</ele>
        <time>2016-04-10T09:05:22.873Z</time>
      </trkpt>
      <trkpt lat="47.19477" lon="-1.81825">
        <ele>61.4</ele>
        <time>2016-04-10T09:05:29.992Z</time>
      </trkpt>
      <trkpt lat="47.19477" lon="-1.81823">
        <ele>61.4</ele>
        <time>2016-04-10T09:05:31.031Z</time>
      </trkpt>
      <trkpt lat="47.19474" lon="-1.81812">
        <ele>61.5</ele>
        <time>2016-04-10T09:05:37.032Z</time>
      </trkpt>
      <trkpt lat="47.19473" lon="-1.81811">
        <ele>61.5</ele>
        <time>2016-04-10T09:05:37.892Z</time>
      </trkpt>
      <trkpt lat="47.19469" lon="-1.818">
        <ele>61.8</ele>
        <time>2016-04-10T09:05:43.977Z</time>
      </trkpt>
      <trkpt lat="47.19469" lon="-1.81799">
        <ele>61.8</ele>
        <time>2016-04-10T09:05:44.895Z</time>
      </trkpt>
      <trkpt lat="47.19464" lon="-1.81787">
        <ele>62</ele>
        <time>2016-04-10T09:05:51.976Z</time>
      </trkpt>
      <trkpt lat="47.19464" lon="-1.81786">
        <ele>62</ele>
        <time>2016-04-10T09:05:52.895Z</time>
      </trkpt>
      <trkpt lat="47.19461" lon="-1.81773">
        <ele>62.6</ele>
        <time>2016-04-10T09:06:00.195Z</time>
      </trkpt>
      <trkpt lat="47.19461" lon="-1.81771">
        <ele>62.6</ele>
        <time>2016-04-10T09:06:00.876Z</time>
      </trkpt>
      <trkpt lat="47.19459" lon="-1.8176">
        <ele>62.9</ele>
        <time>2016-04-10T09:06:06.039Z</time>
      </trkpt>
      <trkpt lat="47.19458" lon="-1.81758">
        <ele>62.9</ele>
        <time>2016-04-10T09:06:06.846Z</time>
      </trkpt>
      <trkpt lat="47.19455" lon="-1.81747">
        <ele>63.2</ele>
        <time>2016-04-10T09:06:13.359Z</time>
      </trkpt>
      <trkpt lat="47.19455" lon="-1.81745">
        <ele>63.3</ele>
        <time>2016-04-10T09:06:13.843Z</time>
      </trkpt>
      <trkpt lat="47.19452" lon="-1.81733">
        <ele>63.5</ele>
        <time>2016-04-10T09:06:20.942Z</time>
      </trkpt>
      <trkpt lat="47.19451" lon="-1.81731">
        <ele>63.5</ele>
        <time>2016-04-10T09:06:21.892Z</time>
      </trkpt>
      <trkpt lat="47.19447" lon="-1.81721">
        <ele>63.2</ele>
        <time>2016-04-10T09:06:27.002Z</time>
      </trkpt>
      <trkpt lat="47.19447" lon="-1.81719">
        <ele>63.1</ele>
        <time>2016-04-10T09:06:27.904Z</time>
      </trkpt>
      <trkpt lat="47.19445" lon="-1.81707">
        <ele>62.7</ele>
        <time>2016-04-10T09:06:33.912Z</time>
      </trkpt>
      <trkpt lat="47.19445" lon="-1.81704">
        <ele>62.7</ele>
        <time>2016-04-10T09:06:34.903Z</time>
      </trkpt>
      <trkpt lat="47.19443" lon="-1.81693">
        <ele>62.3</ele>
        <time>2016-04-10T09:06:42.018Z</time>
      </trkpt>
      <trkpt lat="47.19442" lon="-1.81691">
        <ele>62.3</ele>
        <time>2016-04-10T09:06:42.886Z</time>
      </trkpt>
      <trkpt lat="47.19439" lon="-1.81679">
        <ele>62.3</ele>
        <time>2016-04-10T09:06:48.985Z</time>
      </trkpt>
      <trkpt lat="47.19438" lon="-1.81677">
        <ele>62.3</ele>
        <time>2016-04-10T09:06:50.104Z</time>
      </trkpt>
      <trkpt lat="47.19436" lon="-1.81665">
        <ele>61.9</ele>
        <time>2016-04-10T09:06:56.976Z</time>
      </trkpt>
      <trkpt lat="47.19435" lon="-1.81663">
        <ele>61.8</ele>
        <time>2016-04-10T09:06:57.928Z</time>
      </trkpt>
      <trkpt lat="47.19431" lon="-1.81653">
        <ele>61.5</ele>
        <time>2016-04-10T09:07:04.004Z</time>
      </trkpt>
      <trkpt lat="47.19431" lon="-1.8165">
        <ele>61.5</ele>
        <time>2016-04-10T09:07:04.845Z</time>
      </trkpt>
      <trkpt lat="47.19429" lon="-1.81639">
        <ele>61.4</ele>
        <time>2016-04-10T09:07:10.121Z</time>
      </trkpt>
      <trkpt lat="47.19428" lon="-1.81637">
        <ele>61.4</ele>
        <time>2016-04-10T09:07:10.840Z</time>
      </trkpt>
      <trkpt lat="47.19426" lon="-1.81625">
        <ele>61.6</ele>
        <time>2016-04-10T09:07:17.868Z</time>
      </trkpt>
      <trkpt lat="47.19426" lon="-1.81622">
        <ele>61.7</ele>
        <time>2016-04-10T09:07:18.901Z</time>
      </trkpt>
      <trkpt lat="47.19423" lon="-1.8161">
        <ele>62</ele>
        <time>2016-04-10T09:07:25.013Z</time>
      </trkpt>
      <trkpt lat="47.19423" lon="-1.81608">
        <ele>62</ele>
        <time>2016-04-10T09:07:25.848Z</time>
      </trkpt>
      <trkpt lat="47.19423" lon="-1.81596">
        <ele>62.2</ele>
        <time>2016-04-10T09:07:33.074Z</time>
      </trkpt>
      <trkpt lat="47.19422" lon="-1.81595">
        <ele>62.3</ele>
        <time>2016-04-10T09:07:33.848Z</time>
      </trkpt>
      <trkpt lat="47.19421" lon="-1.81583">
        <ele>62.6</ele>
        <time>2016-04-10T09:07:40.299Z</time>
      </trkpt>
      <trkpt lat="47.19421" lon="-1.81581">
        <ele>62.6</ele>
        <time>2016-04-10T09:07:40.893Z</time>
      </trkpt>
      <trkpt lat="47.19419" lon="-1.8157">
        <ele>62.8</ele>
        <time>2016-04-10T09:07:46.950Z</time>
      </trkpt>
      <trkpt lat="47.19418" lon="-1.81568">
        <ele>62.9</ele>
        <time>2016-04-10T09:07:47.973Z</time>
      </trkpt>
      <trkpt lat="47.19416" lon="-1.81556">
        <ele>63.4</ele>
        <time>2016-04-10T09:07:54.158Z</time>
      </trkpt>
      <trkpt lat="47.19415" lon="-1.81554">
        <ele>63.5</ele>
        <time>2016-04-10T09:07:54.892Z</time>
      </trkpt>
      <trkpt lat="47.19413" lon="-1.81542">
        <ele>63.8</ele>
        <time>2016-04-10T09:08:00.862Z</time>
      </trkpt>
      <trkpt lat="47.19413" lon="-1.8154">
        <ele>63.8</ele>
        <time>2016-04-10T09:08:01.848Z</time>
      </trkpt>
      <trkpt lat="47.19411" lon="-1.81527">
        <ele>64.2</ele>
        <time>2016-04-10T09:08:08.918Z</time>
      </trkpt>
      <trkpt lat="47.19411" lon="-1.81525">
        <ele>64.3</ele>
        <time>2016-04-10T09:08:09.899Z</time>
      </trkpt>
      <trkpt lat="47.1941" lon="-1.81514">
        <ele>65.1</ele>
        <time>2016-04-10T09:08:15.936Z</time>
      </trkpt>
      <trkpt lat="47.1941" lon="-1.81512">
        <ele>65.2</ele>
        <time>2016-04-10T09:08:17.083Z</time>
      </trkpt>
      <trkpt lat="47.1941" lon="-1.815">
        <ele>65.3</ele>
        <time>2016-04-10T09:08:22.338Z</time>
      </trkpt>
      <trkpt lat="47.1941" lon="-1.81498">
        <ele>65.3</ele>
        <time>2016-04-10T09:08:22.847Z</time>
      </trkpt>
      <trkpt lat="47.19409" lon="-1.81487">
        <ele>65.1</ele>
        <time>2016-04-10T09:08:29.012Z</time>
      </trkpt>
      <trkpt lat="47.19409" lon="-1.81484">
        <ele>65.1</ele>
        <time>2016-04-10T09:08:29.881Z</time>
      </trkpt>
      <trkpt lat="47.19409" lon="-1.81472">
        <ele>65</ele>
        <time>2016-04-10T09:08:36.045Z</time>
      </trkpt>
      <trkpt lat="47.19409" lon="-1.8147">
        <ele>65</ele>
        <time>2016-04-10T09:08:36.905Z</time>
      </trkpt>
      <trkpt lat="47.19407" lon="-1.81458">
        <ele>64.5</ele>
        <time>2016-04-10T09:08:43.306Z</time>
      </trkpt>
      <trkpt lat="47.19407" lon="-1.81456">
        <ele>64.4</ele>
        <time>2016-04-10T09:08:43.855Z</time>
      </trkpt>
      <trkpt lat="47.19406" lon="-1.81445">
        <ele>63.4</ele>
        <time>2016-04-10T09:08:50.029Z</time>
      </trkpt>
      <trkpt lat="47.19405" lon="-1.81443">
        <ele>63.2</ele>
        <time>2016-04-10T09:08:50.904Z</time>
      </trkpt>
      <trkpt lat="47.19405" lon="-1.8143">
        <ele>62.4</ele>
        <time>2016-04-10T09:08:56.937Z</time>
      </trkpt>
      <trkpt lat="47.19405" lon="-1.81427">
        <ele>62.3</ele>
        <time>2016-04-10T09:08:57.915Z</time>
      </trkpt>
      <trkpt lat="47.19405" lon="-1.81415">
        <ele>61.6</ele>
        <time>2016-04-10T09:09:04.987Z</time>
      </trkpt>
      <trkpt lat="47.19404" lon="-1.81412">
        <ele>61.5</ele>
        <time>2016-04-10T09:09:05.877Z</time>
      </trkpt>
      <trkpt lat="47.19403" lon="-1.814">
        <ele>60.8</ele>
        <time>2016-04-10T09:09:12.431Z</time>
      </trkpt>
      <trkpt lat="47.19403" lon="-1.81398">
        <ele>60.7</ele>
        <time>2016-04-10T09:09:12.924Z</time>
      </trkpt>
      <trkpt lat="47.19403" lon="-1.81386">
        <ele>60.3</ele>
        <time>2016-04-10T09:09:19.910Z</time>
      </trkpt>
      <trkpt lat="47.19403" lon="-1.81384">
        <ele>60.3</ele>
        <time>2016-04-10T09:09:20.852Z</time>
      </trkpt>
      <trkpt lat="47.19404" lon="-1.81372">
        <ele>60.2</ele>
        <time>2016-04-10T09:09:26.957Z</time>
      </trkpt>
      <trkpt lat="47.19404" lon="-1.8137">
        <ele>60.1</ele>
        <time>2016-04-10T09:09:27.902Z</time>
      </trkpt>
      <trkpt lat="47.19404" lon="-1.81357">
        <ele>59.7</ele>
        <time>2016-04-10T09:09:33.980Z</time>
      </trkpt>
      <trkpt lat="47.19404" lon="-1.81355">
        <ele>59.6</ele>
        <time>2016-04-10T09:09:34.989Z</time>
      </trkpt>
      <trkpt lat="47.19404" lon="-1.81342">
        <ele>59.1</ele>
        <time>2016-04-10T09:09:42.041Z</time>
      </trkpt>
      <trkpt lat="47.19404" lon="-1.8134">
        <ele>59.1</ele>
        <time>2016-04-10T09:09:42.902Z</time>
      </trkpt>
      <trkpt lat="47.19405" lon="-1.81327">
        <ele>58.7</ele>
        <time>2016-04-10T09:09:48.997Z</time>
      </trkpt>
      <trkpt lat="47.19405" lon="-1.81325">
        <ele>58.7</ele>
        <time>2016-04-10T09:09:49.906Z</time>
      </trkpt>
      <trkpt lat="47.19406" lon="-1.81314">
        <ele>58.5</ele>
        <time>2016-04-10T09:09:55.938Z</time>
      </trkpt>
      <trkpt lat="47.19406" lon="-1.81312">
        <ele>58.5</ele>
        <time>2016-04-10T09:09:56.879Z</time>
      </trkpt>
      <trkpt lat="47.19404" lon="-1.813">
        <ele>58.2</ele>
        <time>2016-04-10T09:10:03.986Z</time>
      </trkpt>
      <trkpt lat="47.19404" lon="-1.81298">
        <ele>58.2</ele>
        <time>2016-04-10T09:10:04.902Z</time>
      </trkpt>
      <trkpt lat="47.19404" lon="-1.81286">
        <ele>58</ele>
        <time>2016-04-10T09:10:10.939Z</time>
      </trkpt>
      <trkpt lat="47.19404" lon="-1.81284">
        <ele>58</ele>
        <time>2016-04-10T09:10:11.913Z</time>
      </trkpt>
      <trkpt lat="47.19404" lon="-1.81272">
        <ele>57.8</ele>
        <time>2016-04-10T09:10:18.001Z</time>
      </trkpt>
      <trkpt lat="47.19404" lon="-1.8127">
        <ele>57.9</ele>
        <time>2016-04-10T09:10:18.858Z</time>
      </trkpt>
      <trkpt lat="47.19403" lon="-1.81257">
        <ele>57.8</ele>
        <time>2016-04-10T09:10:24.993Z</time>
      </trkpt>
      <trkpt lat="47.19403" lon="-1.81256">
        <ele>57.8</ele>
        <time>2016-04-10T09:10:25.896Z</time>
      </trkpt>
      <trkpt lat="47.19402" lon="-1.81243">
        <ele>57.5</ele>
        <time>2016-04-10T09:10:32.036Z</time>
      </trkpt>
      <trkpt lat="47.19402" lon="-1.81241">
        <ele>57.5</ele>
        <time>2016-04-10T09:10:32.909Z</time>
      </trkpt>
      <trkpt lat="47.19403" lon="-1.81229">
        <ele>57.4</ele>
        <time>2016-04-10T09:10:39.979Z</time>
      </trkpt>
      <trkpt lat="47.19402" lon="-1.81227">
        <ele>57.5</ele>
        <time>2016-04-10T09:10:40.852Z</time>
      </trkpt>
      <trkpt lat="47.19403" lon="-1.81216">
        <ele>57.5</ele>
        <time>2016-04-10T09:10:46.009Z</time>
      </trkpt>
      <trkpt lat="47.19404" lon="-1.81214">
        <ele>57.5</ele>
        <time>2016-04-10T09:10:46.851Z</time>
      </trkpt>
      <trkpt lat="47.19404" lon="-1.81202">
        <ele>58.2</ele>
        <time>2016-04-10T09:10:54.029Z</time>
      </trkpt>
      <trkpt lat="47.19404" lon="-1.812">
        <ele>58.3</ele>
        <time>2016-04-10T09:10:54.905Z</time>
      </trkpt>
      <trkpt lat="47.19404" lon="-1.81189">
        <ele>59.2</ele>
        <time>2016-04-10T09:11:00.876Z</time>
      </trkpt>
      <trkpt lat="47.19404" lon="-1.81187">
        <ele>59.3</ele>
        <time>2016-04-10T09:11:01.884Z</time>
      </trkpt>
      <trkpt lat="47.19403" lon="-1.81176">
        <ele>59.5</ele>
        <time>2016-04-10T09:11:05.998Z</time>
      </trkpt>
      <trkpt lat="47.19402" lon="-1.81174">
        <ele>59.4</ele>
        <time>2016-04-10T09:11:06.885Z</time>
      </trkpt>
      <trkpt lat="47.19401" lon="-1.81162">
        <ele>58.9</ele>
        <time>2016-04-10T09:11:12.981Z</time>
      </trkpt>
      <trkpt lat="47.19401" lon="-1.8116">
        <ele>58.8</ele>
        <time>2016-04-10T09:11:13.902Z</time>
      </trkpt>
      <trkpt lat="47.194" lon="-1.81147">
        <ele>58.5</ele>
        <time>2016-04-10T09:11:21.044Z</time>
      </trkpt>
      <trkpt lat="47.194" lon="-1.81145">
        <ele>58.5</ele>
        <time>2016-04-10T09:11:21.897Z</time>
      </trkpt>
      <trkpt lat="47.194" lon="-1.81133">
        <ele>58.2</ele>
        <time>2016-04-10T09:11:28.994Z</time>
      </trkpt>
      <trkpt lat="47.194" lon="-1.81132">
        <ele>58.2</ele>
        <time>2016-04-10T09:11:29.842Z</time>
      </trkpt>
      <trkpt lat="47.19398" lon="-1.81119">
        <ele>58.2</ele>
        <time>2016-04-10T09:11:35.998Z</time>
      </trkpt>
      <trkpt lat="47.19398" lon="-1.81117">
        <ele>58.1</ele>
        <time>2016-04-10T09:11:36.912Z</time>
      </trkpt>
      <trkpt lat="47.19393" lon="-1.81108">
        <ele>58.1</ele>
        <time>2016-04-10T09:11:45.994Z</time>
      </trkpt>
      <trkpt lat="47.19392" lon="-1.81107">
        <ele>58.1</ele>
        <time>2016-04-10T09:11:46.894Z</time>
      </trkpt>
      <trkpt lat="47.19394" lon="-1.81096">
        <ele>57.8</ele>
        <time>2016-04-10T09:12:32.967Z</time>
      </trkpt>
      <trkpt lat="47.19394" lon="-1.81093">
        <ele>57.8</ele>
        <time>2016-04-10T09:12:33.982Z</time>
      </trkpt>
      <trkpt lat="47.19393" lon="-1.81081">
        <ele>57.9</ele>
        <time>2016-04-10T09:12:40.897Z</time>
      </trkpt>
      <trkpt lat="47.19392" lon="-1.81079">
        <ele>57.9</ele>
        <time>2016-04-10T09:12:41.888Z</time>
      </trkpt>
      <trkpt lat="47.1939" lon="-1.81067">
        <ele>58.1</ele>
        <time>2016-04-10T09:12:47.075Z</time>
      </trkpt>
      <trkpt lat="47.19389" lon="-1.81066">
        <ele>58</ele>
        <time>2016-04-10T09:12:47.888Z</time>
      </trkpt>
      <trkpt lat="47.19387" lon="-1.81054">
        <ele>57.9</ele>
        <time>2016-04-10T09:12:54.010Z</time>
      </trkpt>
      <trkpt lat="47.19387" lon="-1.81052">
        <ele>57.9</ele>
        <time>2016-04-10T09:12:54.964Z</time>
      </trkpt>
      <trkpt lat="47.19384" lon="-1.8104">
        <ele>58.2</ele>
        <time>2016-04-10T09:13:01.982Z</time>
      </trkpt>
      <trkpt lat="47.19384" lon="-1.81039">
        <ele>58.3</ele>
        <time>2016-04-10T09:13:02.901Z</time>
      </trkpt>
      <trkpt lat="47.19382" lon="-1.81027">
        <ele>58.9</ele>
        <time>2016-04-10T09:13:09.959Z</time>
      </trkpt>
      <trkpt lat="47.19382" lon="-1.81026">
        <ele>58.9</ele>
        <time>2016-04-10T09:13:10.896Z</time>
      </trkpt>
      <trkpt lat="47.1938" lon="-1.81013">
        <ele>59.2</ele>
        <time>2016-04-10T09:13:18.422Z</time>
      </trkpt>
      <trkpt lat="47.1938" lon="-1.81011">
        <ele>59.2</ele>
        <time>2016-04-10T09:13:18.898Z</time>
      </trkpt>
      <trkpt lat="47.1938" lon="-1.80999">
        <ele>59.3</ele>
        <time>2016-04-10T09:13:24.098Z</time>
      </trkpt>
      <trkpt lat="47.1938" lon="-1.80997">
        <ele>59.4</ele>
        <time>2016-04-10T09:13:24.903Z</time>
      </trkpt>
      <trkpt lat="47.19379" lon="-1.80985">
        <ele>59.3</ele>
        <time>2016-04-10T09:13:30.966Z</time>
      </trkpt>
      <trkpt lat="47.19379" lon="-1.80983">
        <ele>59.3</ele>
        <time>2016-04-10T09:13:31.914Z</time>
      </trkpt>
      <trkpt lat="47.19378" lon="-1.80971">
        <ele>59.1</ele>
        <time>2016-04-10T09:13:37.887Z</time>
      </trkpt>
      <trkpt lat="47.19377" lon="-1.80969">
        <ele>59.1</ele>
        <time>2016-04-10T09:13:38.848Z</time>
      </trkpt>
      <trkpt lat="47.19376" lon="-1.80957">
        <ele>59.2</ele>
        <time>2016-04-10T09:13:45.899Z</time>
      </trkpt>
      <trkpt lat="47.19376" lon="-1.80956">
        <ele>59.3</ele>
        <time>2016-04-10T09:13:46.855Z</time>
      </trkpt>
      <trkpt lat="47.19374" lon="-1.80944">
        <ele>59.9</ele>
        <time>2016-04-10T09:13:52.952Z</time>
      </trkpt>
      <trkpt lat="47.19374" lon="-1.80942">
        <ele>59.9</ele>
        <time>2016-04-10T09:13:53.901Z</time>
      </trkpt>
      <trkpt lat="47.19372" lon="-1.80929">
        <ele>60.5</ele>
        <time>2016-04-10T09:14:01.386Z</time>
      </trkpt>
      <trkpt lat="47.19371" lon="-1.80927">
        <ele>60.6</ele>
        <time>2016-04-10T09:14:01.895Z</time>
      </trkpt>
      <trkpt lat="47.1937" lon="-1.80915">
        <ele>61.4</ele>
        <time>2016-04-10T09:14:07.965Z</time>
      </trkpt>
      <trkpt lat="47.1937" lon="-1.80913">
        <ele>61.4</ele>
        <time>2016-04-10T09:14:08.879Z</time>
      </trkpt>
      <trkpt lat="47.19369" lon="-1.809">
        <ele>61.5</ele>
        <time>2016-04-10T09:14:14.934Z</time>
      </trkpt>
      <trkpt lat="47.19369" lon="-1.80898">
        <ele>61.5</ele>
        <time>2016-04-10T09:14:15.910Z</time>
      </trkpt>
      <trkpt lat="47.19368" lon="-1.80885">
        <ele>61.5</ele>
        <time>2016-04-10T09:14:22.978Z</time>
      </trkpt>
      <trkpt lat="47.19368" lon="-1.80883">
        <ele>61.6</ele>
        <time>2016-04-10T09:14:23.844Z</time>
      </trkpt>
      <trkpt lat="47.19366" lon="-1.80871">
        <ele>61.7</ele>
        <time>2016-04-10T09:14:29.891Z</time>
      </trkpt>
      <trkpt lat="47.19365" lon="-1.80869">
        <ele>61.7</ele>
        <time>2016-04-10T09:14:30.875Z</time>
      </trkpt>
      <trkpt lat="47.19364" lon="-1.80856">
        <ele>61.6</ele>
        <time>2016-04-10T09:14:37.928Z</time>
      </trkpt>
      <trkpt lat="47.19364" lon="-1.80854">
        <ele>61.6</ele>
        <time>2016-04-10T09:14:38.859Z</time>
      </trkpt>
      <trkpt lat="47.19362" lon="-1.80841">
        <ele>61.6</ele>
        <time>2016-04-10T09:14:44.999Z</time>
      </trkpt>
      <trkpt lat="47.19362" lon="-1.80839">
        <ele>61.6</ele>
        <time>2016-04-10T09:14:46.073Z</time>
      </trkpt>
      <trkpt lat="47.1936" lon="-1.80827">
        <ele>61.6</ele>
        <time>2016-04-10T09:14:52.012Z</time>
      </trkpt>
      <trkpt lat="47.19359" lon="-1.80825">
        <ele>61.6</ele>
        <time>2016-04-10T09:14:52.999Z</time>
      </trkpt>
      <trkpt lat="47.19357" lon="-1.80814">
        <ele>61.5</ele>
        <time>2016-04-10T09:14:58.931Z</time>
      </trkpt>
      <trkpt lat="47.19356" lon="-1.80812">
        <ele>61.4</ele>
        <time>2016-04-10T09:14:59.903Z</time>
      </trkpt>
      <trkpt lat="47.19354" lon="-1.80799">
        <ele>61.1</ele>
        <time>2016-04-10T09:15:07.199Z</time>
      </trkpt>
      <trkpt lat="47.19354" lon="-1.80797">
        <ele>61.1</ele>
        <time>2016-04-10T09:15:07.866Z</time>
      </trkpt>
      <trkpt lat="47.1935" lon="-1.80786">
        <ele>61.2</ele>
        <time>2016-04-10T09:15:13.928Z</time>
      </trkpt>
      <trkpt lat="47.1935" lon="-1.80785">
        <ele>61.2</ele>
        <time>2016-04-10T09:15:14.911Z</time>
      </trkpt>
      <trkpt lat="47.19347" lon="-1.80773">
        <ele>61.5</ele>
        <time>2016-04-10T09:15:21.925Z</time>
      </trkpt>
      <trkpt lat="47.19347" lon="-1.80771">
        <ele>61.6</ele>
        <time>2016-04-10T09:15:23.137Z</time>
      </trkpt>
      <trkpt lat="47.19344" lon="-1.80758">
        <ele>62.5</ele>
        <time>2016-04-10T09:15:30.953Z</time>
      </trkpt>
      <trkpt lat="47.19344" lon="-1.80756">
        <ele>62.7</ele>
        <time>2016-04-10T09:15:31.859Z</time>
      </trkpt>
      <trkpt lat="47.19343" lon="-1.80743">
        <ele>63.6</ele>
        <time>2016-04-10T09:15:39.981Z</time>
      </trkpt>
      <trkpt lat="47.19343" lon="-1.8074">
        <ele>63.7</ele>
        <time>2016-04-10T09:15:40.972Z</time>
      </trkpt>
      <trkpt lat="47.19342" lon="-1.80728">
        <ele>64</ele>
        <time>2016-04-10T09:15:48.013Z</time>
      </trkpt>
      <trkpt lat="47.19342" lon="-1.80727">
        <ele>64.1</ele>
        <time>2016-04-10T09:15:48.871Z</time>
      </trkpt>
      <trkpt lat="47.19342" lon="-1.80716">
        <ele>64.1</ele>
        <time>2016-04-10T09:15:55.926Z</time>
      </trkpt>
      <trkpt lat="47.19342" lon="-1.80713">
        <ele>64.2</ele>
        <time>2016-04-10T09:15:56.887Z</time>
      </trkpt>
      <trkpt lat="47.19344" lon="-1.80702">
        <ele>64.7</ele>
        <time>2016-04-10T09:16:00.925Z</time>
      </trkpt>
      <trkpt lat="47.19345" lon="-1.80699">
        <ele>64.9</ele>
        <time>2016-04-10T09:16:01.935Z</time>
      </trkpt>
      <trkpt lat="47.19347" lon="-1.80686">
        <ele>65.9</ele>
        <time>2016-04-10T09:16:09.901Z</time>
      </trkpt>
      <trkpt lat="47.19347" lon="-1.80686">
        <ele>65.9</ele>
        <time>2016-04-10T09:16:10.890Z</time>
      </trkpt>
      <trkpt lat="47.19349" lon="-1.80674">
        <ele>66.3</ele>
        <time>2016-04-10T09:16:16.995Z</time>
      </trkpt>
      <trkpt lat="47.19349" lon="-1.80672">
        <ele>66.3</ele>
        <time>2016-04-10T09:16:17.872Z</time>
      </trkpt>
      <trkpt lat="47.19349" lon="-1.8066">
        <ele>66.3</ele>
        <time>2016-04-10T09:16:22.950Z</time>
      </trkpt>
      <trkpt lat="47.19349" lon="-1.80658">
        <ele>66.2</ele>
        <time>2016-04-10T09:16:23.849Z</time>
      </trkpt>
      <trkpt lat="47.19349" lon="-1.80646">
        <ele>66</ele>
        <time>2016-04-10T09:16:28.934Z</time>
      </trkpt>
      <trkpt lat="47.19349" lon="-1.80643">
        <ele>65.9</ele>
        <time>2016-04-10T09:16:29.866Z</time>
      </trkpt>
      <trkpt lat="47.19347" lon="-1.8063">
        <ele>65.8</ele>
        <time>2016-04-10T09:16:35.971Z</time>
      </trkpt>
      <trkpt lat="47.19347" lon="-1.80628">
        <ele>65.7</ele>
        <time>2016-04-10T09:16:36.874Z</time>
      </trkpt>
      <trkpt lat="47.19343" lon="-1.80617">
        <ele>65.5</ele>
        <time>2016-04-10T09:16:48.036Z</time>
      </trkpt>
      <trkpt lat="47.19342" lon="-1.80615">
        <ele>65.4</ele>
        <time>2016-04-10T09:16:48.921Z</time>
      </trkpt>
      <trkpt lat="47.19342" lon="-1.80605">
        <ele>65.2</ele>
        <time>2016-04-10T09:16:51.973Z</time>
      </trkpt>
      <trkpt lat="47.19342" lon="-1.80602">
        <ele>65.1</ele>
        <time>2016-04-10T09:16:52.900Z</time>
      </trkpt>
      <trkpt lat="47.19342" lon="-1.80589">
        <ele>65</ele>
        <time>2016-04-10T09:17:00.211Z</time>
      </trkpt>
      <trkpt lat="47.19342" lon="-1.80587">
        <ele>65</ele>
        <time>2016-04-10T09:17:00.838Z</time>
      </trkpt>
      <trkpt lat="47.1934" lon="-1.80574">
        <ele>64.7</ele>
        <time>2016-04-10T09:17:06.975Z</time>
      </trkpt>
      <trkpt lat="47.1934" lon="-1.80572">
        <ele>64.6</ele>
        <time>2016-04-10T09:17:07.887Z</time>
      </trkpt>
      <trkpt lat="47.1934" lon="-1.80561">
        <ele>64.1</ele>
        <time>2016-04-10T09:17:12.998Z</time>
      </trkpt>
      <trkpt lat="47.19339" lon="-1.80558">
        <ele>64</ele>
        <time>2016-04-10T09:17:13.860Z</time>
      </trkpt>
      <trkpt lat="47.19336" lon="-1.80546">
        <ele>63.4</ele>
        <time>2016-04-10T09:17:20.190Z</time>
      </trkpt>
      <trkpt lat="47.19336" lon="-1.80544">
        <ele>63.4</ele>
        <time>2016-04-10T09:17:20.878Z</time>
      </trkpt>
      <trkpt lat="47.19333" lon="-1.80534">
        <ele>62.9</ele>
        <time>2016-04-10T09:17:26.886Z</time>
      </trkpt>
      <trkpt lat="47.19332" lon="-1.80532">
        <ele>62.8</ele>
        <time>2016-04-10T09:17:27.864Z</time>
      </trkpt>
      <trkpt lat="47.19328" lon="-1.80521">
        <ele>62.4</ele>
        <time>2016-04-10T09:17:34.303Z</time>
      </trkpt>
      <trkpt lat="47.19328" lon="-1.80519">
        <ele>62.3</ele>
        <time>2016-04-10T09:17:34.874Z</time>
      </trkpt>
      <trkpt lat="47.19325" lon="-1.80507">
        <ele>61.9</ele>
        <time>2016-04-10T09:17:41.015Z</time>
      </trkpt>
      <trkpt lat="47.19324" lon="-1.80506">
        <ele>61.8</ele>
        <time>2016-04-10T09:17:41.887Z</time>
      </trkpt>
      <trkpt lat="47.19321" lon="-1.80494">
        <ele>61.6</ele>
        <time>2016-04-10T09:17:49.006Z</time>
      </trkpt>
      <trkpt lat="47.1932" lon="-1.80492">
        <ele>61.6</ele>
        <time>2016-04-10T09:17:49.903Z</time>
      </trkpt>
      <trkpt lat="47.19315" lon="-1.80483">
        <ele>61.3</ele>
        <time>2016-04-10T09:17:54.974Z</time>
      </trkpt>
      <trkpt lat="47.19315" lon="-1.80481">
        <ele>61.3</ele>
        <time>2016-04-10T09:17:55.890Z</time>
      </trkpt>
      <trkpt lat="47.1931" lon="-1.8047">
        <ele>61.1</ele>
        <time>2016-04-10T09:18:01.929Z</time>
      </trkpt>
      <trkpt lat="47.1931" lon="-1.80468">
        <ele>61</ele>
        <time>2016-04-10T09:18:02.899Z</time>
      </trkpt>
      <trkpt lat="47.19307" lon="-1.80457">
        <ele>60.7</ele>
        <time>2016-04-10T09:18:08.995Z</time>
      </trkpt>
      <trkpt lat="47.19306" lon="-1.80455">
        <ele>60.7</ele>
        <time>2016-04-10T09:18:09.854Z</time>
      </trkpt>
      <trkpt lat="47.19303" lon="-1.80444">
        <ele>60.3</ele>
        <time>2016-04-10T09:18:15.977Z</time>
      </trkpt>
      <trkpt lat="47.19302" lon="-1.80443">
        <ele>60.2</ele>
        <time>2016-04-10T09:18:16.905Z</time>
      </trkpt>
      <trkpt lat="47.19299" lon="-1.80432">
        <ele>60</ele>
        <time>2016-04-10T09:18:23.143Z</time>
      </trkpt>
      <trkpt lat="47.19298" lon="-1.80431">
        <ele>60</ele>
        <time>2016-04-10T09:18:23.891Z</time>
      </trkpt>
      <trkpt lat="47.19294" lon="-1.8042">
        <ele>59.9</ele>
        <time>2016-04-10T09:18:30.032Z</time>
      </trkpt>
      <trkpt lat="47.19293" lon="-1.80419">
        <ele>59.8</ele>
        <time>2016-04-10T09:18:30.885Z</time>
      </trkpt>
      <trkpt lat="47.19289" lon="-1.80409">
        <ele>59.8</ele>
        <time>2016-04-10T09:18:36.148Z</time>
      </trkpt>
      <trkpt lat="47.19288" lon="-1.80407">
        <ele>59.8</ele>
        <time>2016-04-10T09:18:36.893Z</time>
      </trkpt>
      <trkpt lat="47.19283" lon="-1.80397">
        <ele>59.7</ele>
        <time>2016-04-10T09:18:43.427Z</time>
      </trkpt>
      <trkpt lat="47.19282" lon="-1.80395">
        <ele>59.6</ele>
        <time>2016-04-10T09:18:43.837Z</time>
      </trkpt>
      <trkpt lat="47.19277" lon="-1.80385">
        <ele>59.3</ele>
        <time>2016-04-10T09:18:53.031Z</time>
      </trkpt>
      <trkpt lat="47.19276" lon="-1.80384">
        <ele>59.3</ele>
        <time>2016-04-10T09:18:53.838Z</time>
      </trkpt>
      <trkpt lat="47.19271" lon="-1.80374">
        <ele>60.7</ele>
        <time>2016-04-10T09:19:13.034Z</time>
      </trkpt>
      <trkpt lat="47.1927" lon="-1.80373">
        <ele>60.8</ele>
        <time>2016-04-10T09:19:13.916Z</time>
      </trkpt>
      <trkpt lat="47.19264" lon="-1.80365">
        <ele>61</ele>
        <time>2016-04-10T09:19:26.017Z</time>
      </trkpt>
      <trkpt lat="47.19263" lon="-1.80364">
        <ele>61</ele>
        <time>2016-04-10T09:19:26.884Z</time>
      </trkpt>
      <trkpt lat="47.19257" lon="-1.80357">
        <ele>61.5</ele>
        <time>2016-04-10T09:19:32.951Z</time>
      </trkpt>
      <trkpt lat="47.19256" lon="-1.80356">
        <ele>61.6</ele>
        <time>2016-04-10T09:19:33.901Z</time>
      </trkpt>
      <trkpt lat="47.19251" lon="-1.80347">
        <ele>62.3</ele>
        <time>2016-04-10T09:19:40.985Z</time>
      </trkpt>
      <trkpt lat="47.1925" lon="-1.80346">
        <ele>62.3</ele>
        <time>2016-04-10T09:19:41.893Z</time>
      </trkpt>
      <trkpt lat="47.19244" lon="-1.80337">
        <ele>62.4</ele>
        <time>2016-04-10T09:19:48.044Z</time>
      </trkpt>
      <trkpt lat="47.19243" lon="-1.80336">
        <ele>62.6</ele>
        <time>2016-04-10T09:19:48.854Z</time>
      </trkpt>
      <trkpt lat="47.19237" lon="-1.80328">
        <ele>63.4</ele>
        <time>2016-04-10T09:19:53.943Z</time>
      </trkpt>
      <trkpt lat="47.19236" lon="-1.80327">
        <ele>63.5</ele>
        <time>2016-04-10T09:19:54.907Z</time>
      </trkpt>
      <trkpt lat="47.1923" lon="-1.80317">
        <ele>64.3</ele>
        <time>2016-04-10T09:20:02.914Z</time>
      </trkpt>
      <trkpt lat="47.19229" lon="-1.80316">
        <ele>64.4</ele>
        <time>2016-04-10T09:20:03.897Z</time>
      </trkpt>
      <trkpt lat="47.19223" lon="-1.80311">
        <ele>64.4</ele>
        <time>2016-04-10T09:20:08.951Z</time>
      </trkpt>
      <trkpt lat="47.19221" lon="-1.8031">
        <ele>64.4</ele>
        <time>2016-04-10T09:20:09.874Z</time>
      </trkpt>
      <trkpt lat="47.19215" lon="-1.80302">
        <ele>64.4</ele>
        <time>2016-04-10T09:20:14.949Z</time>
      </trkpt>
      <trkpt lat="47.19214" lon="-1.803">
        <ele>64.5</ele>
        <time>2016-04-10T09:20:15.966Z</time>
      </trkpt>
      <trkpt lat="47.19208" lon="-1.80292">
        <ele>64.9</ele>
        <time>2016-04-10T09:20:21.973Z</time>
      </trkpt>
      <trkpt lat="47.19207" lon="-1.80291">
        <ele>65</ele>
        <time>2016-04-10T09:20:22.906Z</time>
      </trkpt>
      <trkpt lat="47.19201" lon="-1.80283">
        <ele>65.6</ele>
        <time>2016-04-10T09:20:29.890Z</time>
      </trkpt>
      <trkpt lat="47.192" lon="-1.80282">
        <ele>65.7</ele>
        <time>2016-04-10T09:20:30.881Z</time>
      </trkpt>
      <trkpt lat="47.19193" lon="-1.80274">
        <ele>66.1</ele>
        <time>2016-04-10T09:20:35.992Z</time>
      </trkpt>
      <trkpt lat="47.19192" lon="-1.80273">
        <ele>66.2</ele>
        <time>2016-04-10T09:20:36.907Z</time>
      </trkpt>
      <trkpt lat="47.19186" lon="-1.80264">
        <ele>66.7</ele>
        <time>2016-04-10T09:20:43.184Z</time>
      </trkpt>
      <trkpt lat="47.19184" lon="-1.80263">
        <ele>66.7</ele>
        <time>2016-04-10T09:20:43.922Z</time>
      </trkpt>
      <trkpt lat="47.19176" lon="-1.80257">
        <ele>66.9</ele>
        <time>2016-04-10T09:20:49.878Z</time>
      </trkpt>
      <trkpt lat="47.19175" lon="-1.80256">
        <ele>66.9</ele>
        <time>2016-04-10T09:20:50.884Z</time>
      </trkpt>
      <trkpt lat="47.19169" lon="-1.80248">
        <ele>66.9</ele>
        <time>2016-04-10T09:20:55.913Z</time>
      </trkpt>
      <trkpt lat="47.19167" lon="-1.80247">
        <ele>66.9</ele>
        <time>2016-04-10T09:20:56.897Z</time>
      </trkpt>
      <trkpt lat="47.19161" lon="-1.80238">
        <ele>66.7</ele>
        <time>2016-04-10T09:21:02.930Z</time>
      </trkpt>
      <trkpt lat="47.1916" lon="-1.80237">
        <ele>66.7</ele>
        <time>2016-04-10T09:21:03.879Z</time>
      </trkpt>
      <trkpt lat="47.19154" lon="-1.80231">
        <ele>66.7</ele>
        <time>2016-04-10T09:21:10.289Z</time>
      </trkpt>
      <trkpt lat="47.19153" lon="-1.80229">
        <ele>66.8</ele>
        <time>2016-04-10T09:21:10.900Z</time>
      </trkpt>
      <trkpt lat="47.19145" lon="-1.80223">
        <ele>66.9</ele>
        <time>2016-04-10T09:21:17.938Z</time>
      </trkpt>
      <trkpt lat="47.19144" lon="-1.80222">
        <ele>67</ele>
        <time>2016-04-10T09:21:18.900Z</time>
      </trkpt>
      <trkpt lat="47.19137" lon="-1.80213">
        <ele>67.2</ele>
        <time>2016-04-10T09:21:24.932Z</time>
      </trkpt>
      <trkpt lat="47.19136" lon="-1.80212">
        <ele>67.3</ele>
        <time>2016-04-10T09:21:25.898Z</time>
      </trkpt>
      <trkpt lat="47.19128" lon="-1.80205">
        <ele>67.7</ele>
        <time>2016-04-10T09:21:33.070Z</time>
      </trkpt>
      <trkpt lat="47.19127" lon="-1.80203">
        <ele>67.7</ele>
        <time>2016-04-10T09:21:33.888Z</time>
      </trkpt>
      <trkpt lat="47.19121" lon="-1.80196">
        <ele>67.9</ele>
        <time>2016-04-10T09:21:38.928Z</time>
      </trkpt>
      <trkpt lat="47.1912" lon="-1.80194">
        <ele>67.9</ele>
        <time>2016-04-10T09:21:39.902Z</time>
      </trkpt>
      <trkpt lat="47.19114" lon="-1.80186">
        <ele>68.1</ele>
        <time>2016-04-10T09:21:45.960Z</time>
      </trkpt>
      <trkpt lat="47.19113" lon="-1.80184">
        <ele>68.1</ele>
        <time>2016-04-10T09:21:46.904Z</time>
      </trkpt>
      <trkpt lat="47.19106" lon="-1.80177">
        <ele>68.5</ele>
        <time>2016-04-10T09:21:52.911Z</time>
      </trkpt>
      <trkpt lat="47.19105" lon="-1.80175">
        <ele>68.6</ele>
        <time>2016-04-10T09:21:53.885Z</time>
      </trkpt>
      <trkpt lat="47.19099" lon="-1.80167">
        <ele>69.4</ele>
        <time>2016-04-10T09:22:01.917Z</time>
      </trkpt>
      <trkpt lat="47.19098" lon="-1.80165">
        <ele>69.5</ele>
        <time>2016-04-10T09:22:02.889Z</time>
      </trkpt>
      <trkpt lat="47.19093" lon="-1.80156">
        <ele>70</ele>
        <time>2016-04-10T09:22:08.020Z</time>
      </trkpt>
      <trkpt lat="47.19091" lon="-1.80155">
        <ele>70</ele>
        <time>2016-04-10T09:22:08.903Z</time>
      </trkpt>
      <trkpt lat="47.19084" lon="-1.80149">
        <ele>70.5</ele>
        <time>2016-04-10T09:22:16.995Z</time>
      </trkpt>
      <trkpt lat="47.19083" lon="-1.80148">
        <ele>70.5</ele>
        <time>2016-04-10T09:22:17.893Z</time>
      </trkpt>
      <trkpt lat="47.19076" lon="-1.8014">
        <ele>69.9</ele>
        <time>2016-04-10T09:22:24.973Z</time>
      </trkpt>
      <trkpt lat="47.19075" lon="-1.80138">
        <ele>69.8</ele>
        <time>2016-04-10T09:22:25.874Z</time>
      </trkpt>
      <trkpt lat="47.19068" lon="-1.80131">
        <ele>69.1</ele>
        <time>2016-04-10T09:22:32.926Z</time>
      </trkpt>
      <trkpt lat="47.19066" lon="-1.8013">
        <ele>69</ele>
        <time>2016-04-10T09:22:33.888Z</time>
      </trkpt>
      <trkpt lat="47.19059" lon="-1.80124">
        <ele>69.1</ele>
        <time>2016-04-10T09:22:38.947Z</time>
      </trkpt>
      <trkpt lat="47.19058" lon="-1.80124">
        <ele>69.2</ele>
        <time>2016-04-10T09:22:39.841Z</time>
      </trkpt>
      <trkpt lat="47.1905" lon="-1.80118">
        <ele>69.4</ele>
        <time>2016-04-10T09:22:47.041Z</time>
      </trkpt>
      <trkpt lat="47.19049" lon="-1.80116">
        <ele>69.4</ele>
        <time>2016-04-10T09:22:47.869Z</time>
      </trkpt>
      <trkpt lat="47.19042" lon="-1.8011">
        <ele>69.3</ele>
        <time>2016-04-10T09:22:52.946Z</time>
      </trkpt>
      <trkpt lat="47.1904" lon="-1.80108">
        <ele>69.3</ele>
        <time>2016-04-10T09:22:53.843Z</time>
      </trkpt>
      <trkpt lat="47.19033" lon="-1.80101">
        <ele>69.2</ele>
        <time>2016-04-10T09:23:01.193Z</time>
      </trkpt>
      <trkpt lat="47.19032" lon="-1.80099">
        <ele>69.2</ele>
        <time>2016-04-10T09:23:01.895Z</time>
      </trkpt>
      <trkpt lat="47.19027" lon="-1.8009">
        <ele>68.5</ele>
        <time>2016-04-10T09:23:09.912Z</time>
      </trkpt>
      <trkpt lat="47.19026" lon="-1.80089">
        <ele>68.5</ele>
        <time>2016-04-10T09:23:10.899Z</time>
      </trkpt>
      <trkpt lat="47.19019" lon="-1.80082">
        <ele>68.2</ele>
        <time>2016-04-10T09:23:16.161Z</time>
      </trkpt>
      <trkpt lat="47.19017" lon="-1.80081">
        <ele>68.2</ele>
        <time>2016-04-10T09:23:16.906Z</time>
      </trkpt>
      <trkpt lat="47.1901" lon="-1.80074">
        <ele>67.9</ele>
        <time>2016-04-10T09:23:22.950Z</time>
      </trkpt>
      <trkpt lat="47.19009" lon="-1.80072">
        <ele>67.8</ele>
        <time>2016-04-10T09:23:23.917Z</time>
      </trkpt>
      <trkpt lat="47.19003" lon="-1.80065">
        <ele>68.1</ele>
        <time>2016-04-10T09:23:30.953Z</time>
      </trkpt>
      <trkpt lat="47.19002" lon="-1.80063">
        <ele>68.2</ele>
        <time>2016-04-10T09:23:32.308Z</time>
      </trkpt>
      <trkpt lat="47.18996" lon="-1.80054">
        <ele>69.3</ele>
        <time>2016-04-10T09:23:38.956Z</time>
      </trkpt>
      <trkpt lat="47.18995" lon="-1.80052">
        <ele>69.5</ele>
        <time>2016-04-10T09:23:39.900Z</time>
      </trkpt>
      <trkpt lat="47.18988" lon="-1.80045">
        <ele>70.5</ele>
        <time>2016-04-10T09:23:46.011Z</time>
      </trkpt>
      <trkpt lat="47.18986" lon="-1.80043">
        <ele>70.6</ele>
        <time>2016-04-10T09:23:46.926Z</time>
      </trkpt>
      <trkpt lat="47.18979" lon="-1.80035">
        <ele>70.6</ele>
        <time>2016-04-10T09:23:53.074Z</time>
      </trkpt>
      <trkpt lat="47.18978" lon="-1.80035">
        <ele>70.7</ele>
        <time>2016-04-10T09:23:53.860Z</time>
      </trkpt>
      <trkpt lat="47.18971" lon="-1.80029">
        <ele>71</ele>
        <time>2016-04-10T09:23:59.955Z</time>
      </trkpt>
      <trkpt lat="47.1897" lon="-1.80028">
        <ele>71.2</ele>
        <time>2016-04-10T09:24:00.841Z</time>
      </trkpt>
      <trkpt lat="47.18962" lon="-1.80023">
        <ele>71.4</ele>
        <time>2016-04-10T09:24:04.941Z</time>
      </trkpt>
      <trkpt lat="47.1896" lon="-1.80022">
        <ele>71.4</ele>
        <time>2016-04-10T09:24:05.871Z</time>
      </trkpt>
      <trkpt lat="47.18953" lon="-1.80015">
        <ele>71.7</ele>
        <time>2016-04-10T09:24:11.924Z</time>
      </trkpt>
      <trkpt lat="47.18952" lon="-1.80014">
        <ele>71.6</ele>
        <time>2016-04-10T09:24:12.898Z</time>
      </trkpt>
      <trkpt lat="47.18946" lon="-1.80006">
        <ele>71.5</ele>
        <time>2016-04-10T09:24:19.031Z</time>
      </trkpt>
      <trkpt lat="47.18945" lon="-1.80005">
        <ele>71.5</ele>
        <time>2016-04-10T09:24:19.896Z</time>
      </trkpt>
      <trkpt lat="47.18938" lon="-1.79998">
        <ele>71.8</ele>
        <time>2016-04-10T09:24:26.043Z</time>
      </trkpt>
      <trkpt lat="47.18936" lon="-1.79996">
        <ele>71.8</ele>
        <time>2016-04-10T09:24:26.891Z</time>
      </trkpt>
      <trkpt lat="47.1893" lon="-1.79987">
        <ele>71.4</ele>
        <time>2016-04-10T09:24:32.890Z</time>
      </trkpt>
      <trkpt lat="47.18929" lon="-1.79986">
        <ele>71.3</ele>
        <time>2016-04-10T09:24:33.849Z</time>
      </trkpt>
      <trkpt lat="47.18922" lon="-1.79979">
        <ele>70.7</ele>
        <time>2016-04-10T09:24:40.958Z</time>
      </trkpt>
      <trkpt lat="47.18921" lon="-1.79978">
        <ele>70.6</ele>
        <time>2016-04-10T09:24:41.858Z</time>
      </trkpt>
      <trkpt lat="47.18914" lon="-1.79971">
        <ele>70</ele>
        <time>2016-04-10T09:24:48.926Z</time>
      </trkpt>
      <trkpt lat="47.18912" lon="-1.79969">
        <ele>69.9</ele>
        <time>2016-04-10T09:24:49.878Z</time>
      </trkpt>
      <trkpt lat="47.18906" lon="-1.79963">
        <ele>69.7</ele>
        <time>2016-04-10T09:24:54.974Z</time>
      </trkpt>
      <trkpt lat="47.18905" lon="-1.79961">
        <ele>69.7</ele>
        <time>2016-04-10T09:24:55.884Z</time>
      </trkpt>
      <trkpt lat="47.18898" lon="-1.79955">
        <ele>69.5</ele>
        <time>2016-04-10T09:25:01.878Z</time>
      </trkpt>
      <trkpt lat="47.18897" lon="-1.79954">
        <ele>69.5</ele>
        <time>2016-04-10T09:25:02.844Z</time>
      </trkpt>
      <trkpt lat="47.18891" lon="-1.79945">
        <ele>69.7</ele>
        <time>2016-04-10T09:25:08.957Z</time>
      </trkpt>
      <trkpt lat="47.18891" lon="-1.79944">
        <ele>69.6</ele>
        <time>2016-04-10T09:25:09.879Z</time>
      </trkpt>
      <trkpt lat="47.18884" lon="-1.79937">
        <ele>69.6</ele>
        <time>2016-04-10T09:25:16.048Z</time>
      </trkpt>
      <trkpt lat="47.18883" lon="-1.79936">
        <ele>69.6</ele>
        <time>2016-04-10T09:25:16.878Z</time>
      </trkpt>
      <trkpt lat="47.18877" lon="-1.7993">
        <ele>69.7</ele>
        <time>2016-04-10T09:25:22.308Z</time>
      </trkpt>
      <trkpt lat="47.18876" lon="-1.79929">
        <ele>69.7</ele>
        <time>2016-04-10T09:25:22.916Z</time>
      </trkpt>
      <trkpt lat="47.1887" lon="-1.79921">
        <ele>69.9</ele>
        <time>2016-04-10T09:25:28.920Z</time>
      </trkpt>
      <trkpt lat="47.18869" lon="-1.79919">
        <ele>69.9</ele>
        <time>2016-04-10T09:25:29.904Z</time>
      </trkpt>
      <trkpt lat="47.18863" lon="-1.79911">
        <ele>70.2</ele>
        <time>2016-04-10T09:25:36.930Z</time>
      </trkpt>
      <trkpt lat="47.18862" lon="-1.7991">
        <ele>70.3</ele>
        <time>2016-04-10T09:25:37.903Z</time>
      </trkpt>
      <trkpt lat="47.18855" lon="-1.79904">
        <ele>70.4</ele>
        <time>2016-04-10T09:25:43.307Z</time>
      </trkpt>
      <trkpt lat="47.18853" lon="-1.79902">
        <ele>70.5</ele>
        <time>2016-04-10T09:25:43.896Z</time>
      </trkpt>
      <trkpt lat="47.18847" lon="-1.79896">
        <ele>70.4</ele>
        <time>2016-04-10T09:25:49.979Z</time>
      </trkpt>
      <trkpt lat="47.18846" lon="-1.79894">
        <ele>70.4</ele>
        <time>2016-04-10T09:25:50.887Z</time>
      </trkpt>
      <trkpt lat="47.18839" lon="-1.79887">
        <ele>70.4</ele>
        <time>2016-04-10T09:25:55.948Z</time>
      </trkpt>
      <trkpt lat="47.18838" lon="-1.79885">
        <ele>70.4</ele>
        <time>2016-04-10T09:25:56.908Z</time>
      </trkpt>
      <trkpt lat="47.18832" lon="-1.79879">
        <ele>70.2</ele>
        <time>2016-04-10T09:26:02.928Z</time>
      </trkpt>
      <trkpt lat="47.1883" lon="-1.79878">
        <ele>70.3</ele>
        <time>2016-04-10T09:26:03.897Z</time>
      </trkpt>
      <trkpt lat="47.18824" lon="-1.79871">
        <ele>70.4</ele>
        <time>2016-04-10T09:26:10.073Z</time>
      </trkpt>
      <trkpt lat="47.18823" lon="-1.7987">
        <ele>70.4</ele>
        <time>2016-04-10T09:26:10.904Z</time>
      </trkpt>
      <trkpt lat="47.18817" lon="-1.79862">
        <ele>70.5</ele>
        <time>2016-04-10T09:26:16.907Z</time>
      </trkpt>
      <trkpt lat="47.18816" lon="-1.79861">
        <ele>70.5</ele>
        <time>2016-04-10T09:26:17.907Z</time>
      </trkpt>
      <trkpt lat="47.18808" lon="-1.79853">
        <ele>70.3</ele>
        <time>2016-04-10T09:26:25.010Z</time>
      </trkpt>
      <trkpt lat="47.18808" lon="-1.79853">
        <ele>70.2</ele>
        <time>2016-04-10T09:26:25.885Z</time>
      </trkpt>
      <trkpt lat="47.18801" lon="-1.79846">
        <ele>70.2</ele>
        <time>2016-04-10T09:26:31.952Z</time>
      </trkpt>
      <trkpt lat="47.188" lon="-1.79845">
        <ele>70.3</ele>
        <time>2016-04-10T09:26:32.832Z</time>
      </trkpt>
      <trkpt lat="47.18793" lon="-1.79837">
        <ele>70.4</ele>
        <time>2016-04-10T09:26:38.890Z</time>
      </trkpt>
      <trkpt lat="47.18792" lon="-1.79836">
        <ele>70.4</ele>
        <time>2016-04-10T09:26:39.895Z</time>
      </trkpt>
      <trkpt lat="47.18785" lon="-1.79829">
        <ele>70.6</ele>
        <time>2016-04-10T09:26:45.980Z</time>
      </trkpt>
      <trkpt lat="47.18784" lon="-1.79829">
        <ele>70.6</ele>
        <time>2016-04-10T09:26:46.898Z</time>
      </trkpt>
      <trkpt lat="47.18777" lon="-1.7982">
        <ele>70.7</ele>
        <time>2016-04-10T09:26:53.898Z</time>
      </trkpt>
      <trkpt lat="47.18776" lon="-1.79819">
        <ele>70.7</ele>
        <time>2016-04-10T09:26:54.891Z</time>
      </trkpt>
      <trkpt lat="47.1877" lon="-1.79812">
        <ele>70.5</ele>
        <time>2016-04-10T09:27:00.886Z</time>
      </trkpt>
      <trkpt lat="47.18769" lon="-1.79811">
        <ele>70.4</ele>
        <time>2016-04-10T09:27:01.884Z</time>
      </trkpt>
      <trkpt lat="47.18762" lon="-1.79803">
        <ele>70.2</ele>
        <time>2016-04-10T09:27:08.035Z</time>
      </trkpt>
      <trkpt lat="47.18761" lon="-1.79802">
        <ele>70.2</ele>
        <time>2016-04-10T09:27:08.910Z</time>
      </trkpt>
      <trkpt lat="47.18754" lon="-1.79795">
        <ele>70.2</ele>
        <time>2016-04-10T09:27:14.989Z</time>
      </trkpt>
      <trkpt lat="47.18753" lon="-1.79794">
        <ele>70.2</ele>
        <time>2016-04-10T09:27:15.900Z</time>
      </trkpt>
      <trkpt lat="47.18746" lon="-1.79786">
        <ele>70.4</ele>
        <time>2016-04-10T09:27:21.874Z</time>
      </trkpt>
      <trkpt lat="47.18745" lon="-1.79785">
        <ele>70.4</ele>
        <time>2016-04-10T09:27:22.910Z</time>
      </trkpt>
      <trkpt lat="47.18738" lon="-1.79778">
        <ele>70.8</ele>
        <time>2016-04-10T09:27:28.945Z</time>
      </trkpt>
      <trkpt lat="47.18737" lon="-1.79777">
        <ele>70.9</ele>
        <time>2016-04-10T09:27:29.893Z</time>
      </trkpt>
      <trkpt lat="47.1873" lon="-1.7977">
        <ele>71.2</ele>
        <time>2016-04-10T09:27:36.000Z</time>
      </trkpt>
      <trkpt lat="47.18729" lon="-1.79769">
        <ele>71.3</ele>
        <time>2016-04-10T09:27:36.880Z</time>
      </trkpt>
      <trkpt lat="47.18725" lon="-1.7976">
        <ele>71.5</ele>
        <time>2016-04-10T09:27:41.974Z</time>
      </trkpt>
      <trkpt lat="47.18724" lon="-1.79757">
        <ele>71.5</ele>
        <time>2016-04-10T09:27:42.897Z</time>
      </trkpt>
      <trkpt lat="47.18721" lon="-1.79746">
        <ele>71.6</ele>
        <time>2016-04-10T09:27:48.937Z</time>
      </trkpt>
      <trkpt lat="47.1872" lon="-1.79744">
        <ele>71.6</ele>
        <time>2016-04-10T09:27:49.911Z</time>
      </trkpt>
      <trkpt lat="47.18718" lon="-1.79734">
        <ele>71.3</ele>
        <time>2016-04-10T09:27:56.002Z</time>
      </trkpt>
      <trkpt lat="47.18717" lon="-1.79732">
        <ele>71.2</ele>
        <time>2016-04-10T09:27:56.917Z</time>
      </trkpt>
      <trkpt lat="47.18715" lon="-1.79719">
        <ele>70.6</ele>
        <time>2016-04-10T09:28:02.949Z</time>
      </trkpt>
      <trkpt lat="47.18715" lon="-1.79718">
        <ele>70.4</ele>
        <time>2016-04-10T09:28:03.904Z</time>
      </trkpt>
      <trkpt lat="47.18714" lon="-1.79706">
        <ele>69.8</ele>
        <time>2016-04-10T09:28:09.997Z</time>
      </trkpt>
      <trkpt lat="47.18714" lon="-1.79704">
        <ele>69.8</ele>
        <time>2016-04-10T09:28:10.886Z</time>
      </trkpt>
      <trkpt lat="47.18713" lon="-1.79691">
        <ele>71</ele>
        <time>2016-04-10T09:28:24.013Z</time>
      </trkpt>
      <trkpt lat="47.18713" lon="-1.7969">
        <ele>71.1</ele>
        <time>2016-04-10T09:28:24.916Z</time>
      </trkpt>
      <trkpt lat="47.18712" lon="-1.79679">
        <ele>71.2</ele>
        <time>2016-04-10T09:28:34.039Z</time>
      </trkpt>
      <trkpt lat="47.18712" lon="-1.79676">
        <ele>71.1</ele>
        <time>2016-04-10T09:28:34.928Z</time>
      </trkpt>
      <trkpt lat="47.1871" lon="-1.79665">
        <ele>70.9</ele>
        <time>2016-04-10T09:28:40.008Z</time>
      </trkpt>
      <trkpt lat="47.1871" lon="-1.79662">
        <ele>70.8</ele>
        <time>2016-04-10T09:28:40.942Z</time>
      </trkpt>
      <trkpt lat="47.18708" lon="-1.7965">
        <ele>70.4</ele>
        <time>2016-04-10T09:28:46.994Z</time>
      </trkpt>
      <trkpt lat="47.18708" lon="-1.79648">
        <ele>70.3</ele>
        <time>2016-04-10T09:28:47.892Z</time>
      </trkpt>
      <trkpt lat="47.18706" lon="-1.79636">
        <ele>69.7</ele>
        <time>2016-04-10T09:28:54.107Z</time>
      </trkpt>
      <trkpt lat="47.18706" lon="-1.79634">
        <ele>69.6</ele>
        <time>2016-04-10T09:28:54.859Z</time>
      </trkpt>
      <trkpt lat="47.18706" lon="-1.79622">
        <ele>69.3</ele>
        <time>2016-04-10T09:29:00.957Z</time>
      </trkpt>
      <trkpt lat="47.18706" lon="-1.79619">
        <ele>69.2</ele>
        <time>2016-04-10T09:29:01.879Z</time>
      </trkpt>
      <trkpt lat="47.18707" lon="-1.79607">
        <ele>68.9</ele>
        <time>2016-04-10T09:29:07.264Z</time>
      </trkpt>
      <trkpt lat="47.18707" lon="-1.79605">
        <ele>68.9</ele>
        <time>2016-04-10T09:29:07.878Z</time>
      </trkpt>
      <trkpt lat="47.1871" lon="-1.79594">
        <ele>68.5</ele>
        <time>2016-04-10T09:29:18.918Z</time>
      </trkpt>
      <trkpt lat="47.18711" lon="-1.79592">
        <ele>68.6</ele>
        <time>2016-04-10T09:29:19.876Z</time>
      </trkpt>
      <trkpt lat="47.18715" lon="-1.79582">
        <ele>68.2</ele>
        <time>2016-04-10T09:29:24.947Z</time>
      </trkpt>
      <trkpt lat="47.18716" lon="-1.7958">
        <ele>68.1</ele>
        <time>2016-04-10T09:29:25.899Z</time>
      </trkpt>
      <trkpt lat="47.1872" lon="-1.79569">
        <ele>67.8</ele>
        <time>2016-04-10T09:29:30.922Z</time>
      </trkpt>
      <trkpt lat="47.1872" lon="-1.79567">
        <ele>67.7</ele>
        <time>2016-04-10T09:29:31.916Z</time>
      </trkpt>
      <trkpt lat="47.18723" lon="-1.79556">
        <ele>67.6</ele>
        <time>2016-04-10T09:29:38.893Z</time>
      </trkpt>
      <trkpt lat="47.18723" lon="-1.79554">
        <ele>67.6</ele>
        <time>2016-04-10T09:29:40.037Z</time>
      </trkpt>
      <trkpt lat="47.18726" lon="-1.79542">
        <ele>67.4</ele>
        <time>2016-04-10T09:29:47.115Z</time>
      </trkpt>
      <trkpt lat="47.18726" lon="-1.79541">
        <ele>67.4</ele>
        <time>2016-04-10T09:29:47.903Z</time>
      </trkpt>
      <trkpt lat="47.18725" lon="-1.79529">
        <ele>67.4</ele>
        <time>2016-04-10T09:29:53.924Z</time>
      </trkpt>
      <trkpt lat="47.18725" lon="-1.79527">
        <ele>67.5</ele>
        <time>2016-04-10T09:29:54.944Z</time>
      </trkpt>
      <trkpt lat="47.18726" lon="-1.79516">
        <ele>67.6</ele>
        <time>2016-04-10T09:30:01.910Z</time>
      </trkpt>
      <trkpt lat="47.18726" lon="-1.79514">
        <ele>67.7</ele>
        <time>2016-04-10T09:30:02.843Z</time>
      </trkpt>
      <trkpt lat="47.18729" lon="-1.79502">
        <ele>67.7</ele>
        <time>2016-04-10T09:30:08.896Z</time>
      </trkpt>
      <trkpt lat="47.18729" lon="-1.795">
        <ele>67.6</ele>
        <time>2016-04-10T09:30:09.855Z</time>
      </trkpt>
      <trkpt lat="47.18732" lon="-1.79488">
        <ele>67.7</ele>
        <time>2016-04-10T09:30:16.931Z</time>
      </trkpt>
      <trkpt lat="47.18732" lon="-1.79487">
        <ele>67.7</ele>
        <time>2016-04-10T09:30:17.852Z</time>
      </trkpt>
      <trkpt lat="47.18735" lon="-1.79476">
        <ele>68.2</ele>
        <time>2016-04-10T09:30:27.895Z</time>
      </trkpt>
      <trkpt lat="47.18736" lon="-1.79474">
        <ele>68.3</ele>
        <time>2016-04-10T09:30:28.840Z</time>
      </trkpt>
      <trkpt lat="47.18737" lon="-1.79461">
        <ele>69.2</ele>
        <time>2016-04-10T09:30:36.923Z</time>
      </trkpt>
      <trkpt lat="47.18737" lon="-1.7946">
        <ele>69.4</ele>
        <time>2016-04-10T09:30:37.840Z</time>
      </trkpt>
      <trkpt lat="47.18735" lon="-1.79448">
        <ele>70.9</ele>
        <time>2016-04-10T09:30:45.899Z</time>
      </trkpt>
      <trkpt lat="47.18735" lon="-1.79446">
        <ele>71.1</ele>
        <time>2016-04-10T09:30:46.838Z</time>
      </trkpt>
      <trkpt lat="47.18735" lon="-1.79433">
        <ele>71.4</ele>
        <time>2016-04-10T09:30:52.926Z</time>
      </trkpt>
      <trkpt lat="47.18736" lon="-1.79429">
        <ele>71.4</ele>
        <time>2016-04-10T09:30:53.855Z</time>
      </trkpt>
      <trkpt lat="47.18738" lon="-1.79418">
        <ele>71.7</ele>
        <time>2016-04-10T09:30:58.937Z</time>
      </trkpt>
      <trkpt lat="47.18738" lon="-1.79416">
        <ele>71.7</ele>
        <time>2016-04-10T09:30:59.842Z</time>
      </trkpt>
      <trkpt lat="47.1874" lon="-1.79404">
        <ele>72.5</ele>
        <time>2016-04-10T09:31:05.906Z</time>
      </trkpt>
      <trkpt lat="47.18739" lon="-1.79399">
        <ele>72.5</ele>
        <time>2016-04-10T09:31:06.847Z</time>
      </trkpt>
      <trkpt lat="47.1874" lon="-1.79387">
        <ele>72.6</ele>
        <time>2016-04-10T09:31:12.931Z</time>
      </trkpt>
      <trkpt lat="47.1874" lon="-1.79385">
        <ele>72.7</ele>
        <time>2016-04-10T09:31:13.848Z</time>
      </trkpt>
      <trkpt lat="47.18743" lon="-1.79373">
        <ele>72.9</ele>
        <time>2016-04-10T09:31:18.931Z</time>
      </trkpt>
      <trkpt lat="47.18744" lon="-1.79372">
        <ele>72.9</ele>
        <time>2016-04-10T09:31:19.855Z</time>
      </trkpt>
      <trkpt lat="47.18746" lon="-1.7936">
        <ele>72.7</ele>
        <time>2016-04-10T09:31:27.936Z</time>
      </trkpt>
      <trkpt lat="47.18746" lon="-1.79359">
        <ele>72.7</ele>
        <time>2016-04-10T09:31:28.849Z</time>
      </trkpt>
      <trkpt lat="47.18746" lon="-1.79349">
        <ele>72.7</ele>
        <time>2016-04-10T09:31:33.942Z</time>
      </trkpt>
      <trkpt lat="47.18746" lon="-1.79343">
        <ele>72.8</ele>
        <time>2016-04-10T09:31:34.835Z</time>
      </trkpt>
      <trkpt lat="47.18748" lon="-1.79331">
        <ele>73.2</ele>
        <time>2016-04-10T09:31:41.930Z</time>
      </trkpt>
      <trkpt lat="47.18748" lon="-1.79328">
        <ele>73.2</ele>
        <time>2016-04-10T09:31:42.841Z</time>
      </trkpt>
      <trkpt lat="47.18749" lon="-1.79319">
        <ele>73.2</ele>
        <time>2016-04-10T09:31:46.972Z</time>
      </trkpt>
      <trkpt lat="47.1875" lon="-1.79315">
        <ele>73.4</ele>
        <time>2016-04-10T09:31:47.847Z</time>
      </trkpt>
      <trkpt lat="47.18752" lon="-1.79305">
        <ele>73.8</ele>
        <time>2016-04-10T09:31:52.987Z</time>
      </trkpt>
      <trkpt lat="47.18753" lon="-1.79302">
        <ele>73.8</ele>
        <time>2016-04-10T09:31:53.847Z</time>
      </trkpt>
      <trkpt lat="47.18755" lon="-1.79291">
        <ele>73.9</ele>
        <time>2016-04-10T09:31:57.905Z</time>
      </trkpt>
      <trkpt lat="47.18755" lon="-1.79289">
        <ele>73.9</ele>
        <time>2016-04-10T09:31:58.854Z</time>
      </trkpt>
      <trkpt lat="47.18756" lon="-1.79277">
        <ele>74.1</ele>
        <time>2016-04-10T09:32:06.935Z</time>
      </trkpt>
      <trkpt lat="47.18756" lon="-1.79274">
        <ele>74.2</ele>
        <time>2016-04-10T09:32:07.850Z</time>
      </trkpt>
      <trkpt lat="47.18758" lon="-1.79263">
        <ele>74.7</ele>
        <time>2016-04-10T09:32:12.965Z</time>
      </trkpt>
      <trkpt lat="47.18758" lon="-1.79261">
        <ele>74.8</ele>
        <time>2016-04-10T09:32:13.850Z</time>
      </trkpt>
      <trkpt lat="47.1876" lon="-1.79249">
        <ele>75.4</ele>
        <time>2016-04-10T09:32:21.951Z</time>
      </trkpt>
      <trkpt lat="47.1876" lon="-1.79248">
        <ele>75.5</ele>
        <time>2016-04-10T09:32:22.844Z</time>
      </trkpt>
      <trkpt lat="47.18762" lon="-1.79236">
        <ele>75.8</ele>
        <time>2016-04-10T09:32:28.935Z</time>
      </trkpt>
      <trkpt lat="47.18762" lon="-1.79234">
        <ele>75.8</ele>
        <time>2016-04-10T09:32:29.845Z</time>
      </trkpt>
      <trkpt lat="47.18763" lon="-1.79222">
        <ele>76.3</ele>
        <time>2016-04-10T09:32:36.919Z</time>
      </trkpt>
      <trkpt lat="47.18763" lon="-1.7922">
        <ele>76.4</ele>
        <time>2016-04-10T09:32:37.846Z</time>
      </trkpt>
      <trkpt lat="47.18766" lon="-1.79208">
        <ele>76.1</ele>
        <time>2016-04-10T09:32:43.901Z</time>
      </trkpt>
      <trkpt lat="47.18766" lon="-1.79206">
        <ele>76.1</ele>
        <time>2016-04-10T09:32:44.854Z</time>
      </trkpt>
      <trkpt lat="47.18767" lon="-1.79193">
        <ele>76.2</ele>
        <time>2016-04-10T09:32:51.936Z</time>
      </trkpt>
      <trkpt lat="47.18767" lon="-1.79191">
        <ele>76.4</ele>
        <time>2016-04-10T09:32:52.849Z</time>
      </trkpt>
      <trkpt lat="47.18767" lon="-1.79179">
        <ele>76.9</ele>
        <time>2016-04-10T09:32:58.979Z</time>
      </trkpt>
      <trkpt lat="47.18767" lon="-1.79176">
        <ele>76.9</ele>
        <time>2016-04-10T09:32:59.914Z</time>
      </trkpt>
      <trkpt lat="47.18768" lon="-1.79165">
        <ele>76.9</ele>
        <time>2016-04-10T09:33:04.942Z</time>
      </trkpt>
      <trkpt lat="47.18768" lon="-1.79163">
        <ele>76.9</ele>
        <time>2016-04-10T09:33:05.936Z</time>
      </trkpt>
      <trkpt lat="47.1877" lon="-1.7915">
        <ele>76.6</ele>
        <time>2016-04-10T09:33:12.959Z</time>
      </trkpt>
      <trkpt lat="47.1877" lon="-1.79148">
        <ele>76.6</ele>
        <time>2016-04-10T09:33:13.898Z</time>
      </trkpt>
      <trkpt lat="47.18771" lon="-1.79137">
        <ele>76.9</ele>
        <time>2016-04-10T09:33:18.013Z</time>
      </trkpt>
      <trkpt lat="47.18771" lon="-1.79135">
        <ele>77</ele>
        <time>2016-04-10T09:33:18.900Z</time>
      </trkpt>
      <trkpt lat="47.18773" lon="-1.79124">
        <ele>77.5</ele>
        <time>2016-04-10T09:33:21.936Z</time>
      </trkpt>
      <trkpt lat="47.18774" lon="-1.7912">
        <ele>77.6</ele>
        <time>2016-04-10T09:33:22.910Z</time>
      </trkpt>
      <trkpt lat="47.18775" lon="-1.79108">
        <ele>77.9</ele>
        <time>2016-04-10T09:33:28.944Z</time>
      </trkpt>
      <trkpt lat="47.18775" lon="-1.79107">
        <ele>77.9</ele>
        <time>2016-04-10T09:33:29.866Z</time>
      </trkpt>
      <trkpt lat="47.18775" lon="-1.79094">
        <ele>77.9</ele>
        <time>2016-04-10T09:33:36.970Z</time>
      </trkpt>
      <trkpt lat="47.18775" lon="-1.79093">
        <ele>77.8</ele>
        <time>2016-04-10T09:33:37.905Z</time>
      </trkpt>
      <trkpt lat="47.18776" lon="-1.79082">
        <ele>77.4</ele>
        <time>2016-04-10T09:33:46.052Z</time>
      </trkpt>
      <trkpt lat="47.18776" lon="-1.7908">
        <ele>77.5</ele>
        <time>2016-04-10T09:33:46.913Z</time>
      </trkpt>
      <trkpt lat="47.18778" lon="-1.79069">
        <ele>77.5</ele>
        <time>2016-04-10T09:33:50.994Z</time>
      </trkpt>
      <trkpt lat="47.18778" lon="-1.79067">
        <ele>77.4</ele>
        <time>2016-04-10T09:33:51.886Z</time>
      </trkpt>
      <trkpt lat="47.1878" lon="-1.79055">
        <ele>77.2</ele>
        <time>2016-04-10T09:33:56.971Z</time>
      </trkpt>
      <trkpt lat="47.1878" lon="-1.79053">
        <ele>77.2</ele>
        <time>2016-04-10T09:33:57.903Z</time>
      </trkpt>
      <trkpt lat="47.18781" lon="-1.7904">
        <ele>77.2</ele>
        <time>2016-04-10T09:34:05.908Z</time>
      </trkpt>
      <trkpt lat="47.18781" lon="-1.79038">
        <ele>77.3</ele>
        <time>2016-04-10T09:34:06.915Z</time>
      </trkpt>
      <trkpt lat="47.18783" lon="-1.79025">
        <ele>77.1</ele>
        <time>2016-04-10T09:34:14.983Z</time>
      </trkpt>
      <trkpt lat="47.18783" lon="-1.79024">
        <ele>77.1</ele>
        <time>2016-04-10T09:34:15.916Z</time>
      </trkpt>
      <trkpt lat="47.18786" lon="-1.79013">
        <ele>77</ele>
        <time>2016-04-10T09:34:21.001Z</time>
      </trkpt>
      <trkpt lat="47.18786" lon="-1.79011">
        <ele>76.9</ele>
        <time>2016-04-10T09:34:21.859Z</time>
      </trkpt>
      <trkpt lat="47.18788" lon="-1.79001">
        <ele>76.8</ele>
        <time>2016-04-10T09:34:25.963Z</time>
      </trkpt>
      <trkpt lat="47.18788" lon="-1.78998">
        <ele>76.7</ele>
        <time>2016-04-10T09:34:26.903Z</time>
      </trkpt>
      <trkpt lat="47.1879" lon="-1.78987">
        <ele>76.5</ele>
        <time>2016-04-10T09:34:32.031Z</time>
      </trkpt>
      <trkpt lat="47.1879" lon="-1.78984">
        <ele>76.5</ele>
        <time>2016-04-10T09:34:32.866Z</time>
      </trkpt>
      <trkpt lat="47.18789" lon="-1.78971">
        <ele>76.3</ele>
        <time>2016-04-10T09:34:38.980Z</time>
      </trkpt>
      <trkpt lat="47.18789" lon="-1.78969">
        <ele>76.2</ele>
        <time>2016-04-10T09:34:39.897Z</time>
      </trkpt>
      <trkpt lat="47.18791" lon="-1.78956">
        <ele>75.8</ele>
        <time>2016-04-10T09:34:48.922Z</time>
      </trkpt>
      <trkpt lat="47.18791" lon="-1.78954">
        <ele>75.8</ele>
        <time>2016-04-10T09:34:49.911Z</time>
      </trkpt>
      <trkpt lat="47.18793" lon="-1.78943">
        <ele>75.8</ele>
        <time>2016-04-10T09:34:55.952Z</time>
      </trkpt>
      <trkpt lat="47.18794" lon="-1.78941">
        <ele>75.8</ele>
        <time>2016-04-10T09:34:56.905Z</time>
      </trkpt>
      <trkpt lat="47.18795" lon="-1.7893">
        <ele>75.8</ele>
        <time>2016-04-10T09:35:02.896Z</time>
      </trkpt>
      <trkpt lat="47.18795" lon="-1.78927">
        <ele>75.8</ele>
        <time>2016-04-10T09:35:03.914Z</time>
      </trkpt>
      <trkpt lat="47.18795" lon="-1.78915">
        <ele>75.4</ele>
        <time>2016-04-10T09:35:09.916Z</time>
      </trkpt>
      <trkpt lat="47.18795" lon="-1.78913">
        <ele>75.3</ele>
        <time>2016-04-10T09:35:10.915Z</time>
      </trkpt>
      <trkpt lat="47.18796" lon="-1.78901">
        <ele>74.9</ele>
        <time>2016-04-10T09:35:17.958Z</time>
      </trkpt>
      <trkpt lat="47.18797" lon="-1.78899">
        <ele>74.8</ele>
        <time>2016-04-10T09:35:18.911Z</time>
      </trkpt>
      <trkpt lat="47.18798" lon="-1.78887">
        <ele>74.2</ele>
        <time>2016-04-10T09:35:24.946Z</time>
      </trkpt>
      <trkpt lat="47.18798" lon="-1.78885">
        <ele>74.1</ele>
        <time>2016-04-10T09:35:25.877Z</time>
      </trkpt>
      <trkpt lat="47.18799" lon="-1.78875">
        <ele>74</ele>
        <time>2016-04-10T09:35:31.956Z</time>
      </trkpt>
      <trkpt lat="47.18799" lon="-1.78872">
        <ele>73.9</ele>
        <time>2016-04-10T09:35:33.015Z</time>
      </trkpt>
      <trkpt lat="47.18801" lon="-1.78859">
        <ele>73.8</ele>
        <time>2016-04-10T09:35:39.990Z</time>
      </trkpt>
      <trkpt lat="47.18801" lon="-1.78857">
        <ele>73.8</ele>
        <time>2016-04-10T09:35:40.867Z</time>
      </trkpt>
      <trkpt lat="47.18804" lon="-1.78846">
        <ele>73.5</ele>
        <time>2016-04-10T09:35:47.177Z</time>
      </trkpt>
      <trkpt lat="47.18804" lon="-1.78843">
        <ele>73.5</ele>
        <time>2016-04-10T09:35:47.908Z</time>
      </trkpt>
      <trkpt lat="47.18806" lon="-1.78832">
        <ele>73.4</ele>
        <time>2016-04-10T09:35:53.997Z</time>
      </trkpt>
      <trkpt lat="47.18806" lon="-1.78829">
        <ele>73.4</ele>
        <time>2016-04-10T09:35:55.266Z</time>
      </trkpt>
      <trkpt lat="47.18808" lon="-1.78817">
        <ele>73.2</ele>
        <time>2016-04-10T09:35:59.957Z</time>
      </trkpt>
      <trkpt lat="47.18809" lon="-1.78814">
        <ele>73.2</ele>
        <time>2016-04-10T09:36:00.918Z</time>
      </trkpt>
      <trkpt lat="47.1881" lon="-1.78801">
        <ele>73.5</ele>
        <time>2016-04-10T09:36:07.997Z</time>
      </trkpt>
      <trkpt lat="47.1881" lon="-1.788">
        <ele>73.5</ele>
        <time>2016-04-10T09:36:08.895Z</time>
      </trkpt>
      <trkpt lat="47.18809" lon="-1.78788">
        <ele>73.7</ele>
        <time>2016-04-10T09:36:15.996Z</time>
      </trkpt>
      <trkpt lat="47.1881" lon="-1.78786">
        <ele>73.7</ele>
        <time>2016-04-10T09:36:16.923Z</time>
      </trkpt>
      <trkpt lat="47.18813" lon="-1.78774">
        <ele>73.6</ele>
        <time>2016-04-10T09:36:22.966Z</time>
      </trkpt>
      <trkpt lat="47.18813" lon="-1.78773">
        <ele>73.6</ele>
        <time>2016-04-10T09:36:23.898Z</time>
      </trkpt>
      <trkpt lat="47.18814" lon="-1.78763">
        <ele>74</ele>
        <time>2016-04-10T09:36:29.993Z</time>
      </trkpt>
      <trkpt lat="47.18814" lon="-1.78759">
        <ele>74</ele>
        <time>2016-04-10T09:36:30.915Z</time>
      </trkpt>
      <trkpt lat="47.18815" lon="-1.78747">
        <ele>74</ele>
        <time>2016-04-10T09:36:36.994Z</time>
      </trkpt>
      <trkpt lat="47.18815" lon="-1.78745">
        <ele>74</ele>
        <time>2016-04-10T09:36:37.894Z</time>
      </trkpt>
      <trkpt lat="47.18816" lon="-1.78733">
        <ele>73.9</ele>
        <time>2016-04-10T09:36:43.986Z</time>
      </trkpt>
      <trkpt lat="47.18816" lon="-1.7873">
        <ele>74</ele>
        <time>2016-04-10T09:36:44.919Z</time>
      </trkpt>
      <trkpt lat="47.18817" lon="-1.78718">
        <ele>74</ele>
        <time>2016-04-10T09:36:53.370Z</time>
      </trkpt>
      <trkpt lat="47.18817" lon="-1.78716">
        <ele>73.9</ele>
        <time>2016-04-10T09:36:53.858Z</time>
      </trkpt>
      <trkpt lat="47.18818" lon="-1.78703">
        <ele>73.3</ele>
        <time>2016-04-10T09:37:08.981Z</time>
      </trkpt>
      <trkpt lat="47.18818" lon="-1.78702">
        <ele>73.2</ele>
        <time>2016-04-10T09:37:09.910Z</time>
      </trkpt>
      <trkpt lat="47.18822" lon="-1.78692">
        <ele>72.7</ele>
        <time>2016-04-10T09:38:05.973Z</time>
      </trkpt>
      <trkpt lat="47.18822" lon="-1.7869">
        <ele>72.7</ele>
        <time>2016-04-10T09:38:06.940Z</time>
      </trkpt>
      <trkpt lat="47.18823" lon="-1.78679">
        <ele>73</ele>
        <time>2016-04-10T09:38:15.949Z</time>
      </trkpt>
      <trkpt lat="47.18823" lon="-1.78677">
        <ele>72.9</ele>
        <time>2016-04-10T09:38:16.938Z</time>
      </trkpt>
      <trkpt lat="47.18821" lon="-1.78664">
        <ele>72.9</ele>
        <time>2016-04-10T09:38:25.403Z</time>
      </trkpt>
      <trkpt lat="47.18821" lon="-1.78663">
        <ele>73</ele>
        <time>2016-04-10T09:38:25.967Z</time>
      </trkpt>
      <trkpt lat="47.18821" lon="-1.7865">
        <ele>72.8</ele>
        <time>2016-04-10T09:38:32.967Z</time>
      </trkpt>
      <trkpt lat="47.18821" lon="-1.78648">
        <ele>72.9</ele>
        <time>2016-04-10T09:38:33.924Z</time>
      </trkpt>
      <trkpt lat="47.18821" lon="-1.78637">
        <ele>73.5</ele>
        <time>2016-04-10T09:38:42.003Z</time>
      </trkpt>
      <trkpt lat="47.18822" lon="-1.78635">
        <ele>73.6</ele>
        <time>2016-04-10T09:38:43.042Z</time>
      </trkpt>
      <trkpt lat="47.18824" lon="-1.78624">
        <ele>73.8</ele>
        <time>2016-04-10T09:38:47.021Z</time>
      </trkpt>
      <trkpt lat="47.18824" lon="-1.78621">
        <ele>73.9</ele>
        <time>2016-04-10T09:38:47.920Z</time>
      </trkpt>
      <trkpt lat="47.18826" lon="-1.78608">
        <ele>74.1</ele>
        <time>2016-04-10T09:38:55.028Z</time>
      </trkpt>
      <trkpt lat="47.18826" lon="-1.78607">
        <ele>74.1</ele>
        <time>2016-04-10T09:38:55.923Z</time>
      </trkpt>
      <trkpt lat="47.18828" lon="-1.78594">
        <ele>73.6</ele>
        <time>2016-04-10T09:39:02.067Z</time>
      </trkpt>
      <trkpt lat="47.18828" lon="-1.78591">
        <ele>73.5</ele>
        <time>2016-04-10T09:39:02.874Z</time>
      </trkpt>
      <trkpt lat="47.18829" lon="-1.78578">
        <ele>73.2</ele>
        <time>2016-04-10T09:39:09.979Z</time>
      </trkpt>
      <trkpt lat="47.18829" lon="-1.78577">
        <ele>73.1</ele>
        <time>2016-04-10T09:39:10.922Z</time>
      </trkpt>
      <trkpt lat="47.18829" lon="-1.78565">
        <ele>72.9</ele>
        <time>2016-04-10T09:39:17.947Z</time>
      </trkpt>
      <trkpt lat="47.18829" lon="-1.78563">
        <ele>72.8</ele>
        <time>2016-04-10T09:39:18.889Z</time>
      </trkpt>
      <trkpt lat="47.18831" lon="-1.78552">
        <ele>72.7</ele>
        <time>2016-04-10T09:39:23.381Z</time>
      </trkpt>
      <trkpt lat="47.18832" lon="-1.7855">
        <ele>72.7</ele>
        <time>2016-04-10T09:39:23.856Z</time>
      </trkpt>
      <trkpt lat="47.18835" lon="-1.78538">
        <ele>72.6</ele>
        <time>2016-04-10T09:39:28.946Z</time>
      </trkpt>
      <trkpt lat="47.18835" lon="-1.78535">
        <ele>72.5</ele>
        <time>2016-04-10T09:39:29.917Z</time>
      </trkpt>
      <trkpt lat="47.18836" lon="-1.78522">
        <ele>72.3</ele>
        <time>2016-04-10T09:39:34.027Z</time>
      </trkpt>
      <trkpt lat="47.18837" lon="-1.7852">
        <ele>72.2</ele>
        <time>2016-04-10T09:39:34.910Z</time>
      </trkpt>
      <trkpt lat="47.18839" lon="-1.78508">
        <ele>72</ele>
        <time>2016-04-10T09:39:40.980Z</time>
      </trkpt>
      <trkpt lat="47.18839" lon="-1.78506">
        <ele>72</ele>
        <time>2016-04-10T09:39:41.914Z</time>
      </trkpt>
      <trkpt lat="47.18842" lon="-1.78493">
        <ele>72.2</ele>
        <time>2016-04-10T09:39:47.996Z</time>
      </trkpt>
      <trkpt lat="47.18843" lon="-1.78491">
        <ele>72.2</ele>
        <time>2016-04-10T09:39:48.937Z</time>
      </trkpt>
      <trkpt lat="47.18846" lon="-1.7848">
        <ele>72.4</ele>
        <time>2016-04-10T09:39:56.036Z</time>
      </trkpt>
      <trkpt lat="47.18846" lon="-1.78477">
        <ele>72.4</ele>
        <time>2016-04-10T09:39:56.893Z</time>
      </trkpt>
      <trkpt lat="47.18847" lon="-1.78466">
        <ele>72.4</ele>
        <time>2016-04-10T09:40:02.940Z</time>
      </trkpt>
      <trkpt lat="47.18848" lon="-1.78464">
        <ele>72.4</ele>
        <time>2016-04-10T09:40:03.917Z</time>
      </trkpt>
      <trkpt lat="47.1885" lon="-1.78451">
        <ele>72</ele>
        <time>2016-04-10T09:40:10.928Z</time>
      </trkpt>
      <trkpt lat="47.1885" lon="-1.7845">
        <ele>71.9</ele>
        <time>2016-04-10T09:40:11.907Z</time>
      </trkpt>
      <trkpt lat="47.18851" lon="-1.78438">
        <ele>71.6</ele>
        <time>2016-04-10T09:40:17.913Z</time>
      </trkpt>
      <trkpt lat="47.18851" lon="-1.78436">
        <ele>71.6</ele>
        <time>2016-04-10T09:40:18.899Z</time>
      </trkpt>
      <trkpt lat="47.18851" lon="-1.78423">
        <ele>72.4</ele>
        <time>2016-04-10T09:40:28.012Z</time>
      </trkpt>
      <trkpt lat="47.18852" lon="-1.78421">
        <ele>72.5</ele>
        <time>2016-04-10T09:40:28.903Z</time>
      </trkpt>
      <trkpt lat="47.18854" lon="-1.78409">
        <ele>72.9</ele>
        <time>2016-04-10T09:40:35.997Z</time>
      </trkpt>
      <trkpt lat="47.18855" lon="-1.78408">
        <ele>72.9</ele>
        <time>2016-04-10T09:40:36.910Z</time>
      </trkpt>
      <trkpt lat="47.18856" lon="-1.78395">
        <ele>73.3</ele>
        <time>2016-04-10T09:40:44.985Z</time>
      </trkpt>
      <trkpt lat="47.18856" lon="-1.78393">
        <ele>73.3</ele>
        <time>2016-04-10T09:40:45.900Z</time>
      </trkpt>
      <trkpt lat="47.18856" lon="-1.78382">
        <ele>73.7</ele>
        <time>2016-04-10T09:40:52.056Z</time>
      </trkpt>
      <trkpt lat="47.18857" lon="-1.78379">
        <ele>73.8</ele>
        <time>2016-04-10T09:40:52.908Z</time>
      </trkpt>
      <trkpt lat="47.1886" lon="-1.78366">
        <ele>74.2</ele>
        <time>2016-04-10T09:40:58.989Z</time>
      </trkpt>
      <trkpt lat="47.18861" lon="-1.78364">
        <ele>74.2</ele>
        <time>2016-04-10T09:40:59.893Z</time>
      </trkpt>
      <trkpt lat="47.18864" lon="-1.78353">
        <ele>74.5</ele>
        <time>2016-04-10T09:41:05.002Z</time>
      </trkpt>
      <trkpt lat="47.18865" lon="-1.7835">
        <ele>74.5</ele>
        <time>2016-04-10T09:41:05.979Z</time>
      </trkpt>
      <trkpt lat="47.18867" lon="-1.78338">
        <ele>74.6</ele>
        <time>2016-04-10T09:41:11.989Z</time>
      </trkpt>
      <trkpt lat="47.18867" lon="-1.78335">
        <ele>74.6</ele>
        <time>2016-04-10T09:41:12.903Z</time>
      </trkpt>
      <trkpt lat="47.18868" lon="-1.78324">
        <ele>75.4</ele>
        <time>2016-04-10T09:41:20.956Z</time>
      </trkpt>
      <trkpt lat="47.18868" lon="-1.78321">
        <ele>75.5</ele>
        <time>2016-04-10T09:41:22.263Z</time>
      </trkpt>
      <trkpt lat="47.1887" lon="-1.78309">
        <ele>75.7</ele>
        <time>2016-04-10T09:41:28.001Z</time>
      </trkpt>
      <trkpt lat="47.1887" lon="-1.78308">
        <ele>75.7</ele>
        <time>2016-04-10T09:41:28.974Z</time>
      </trkpt>
      <trkpt lat="47.18872" lon="-1.78298">
        <ele>76</ele>
        <time>2016-04-10T09:41:32.898Z</time>
      </trkpt>
      <trkpt lat="47.18873" lon="-1.78294">
        <ele>76.1</ele>
        <time>2016-04-10T09:41:33.985Z</time>
      </trkpt>
      <trkpt lat="47.18877" lon="-1.78282">
        <ele>76</ele>
        <time>2016-04-10T09:41:37.982Z</time>
      </trkpt>
      <trkpt lat="47.18878" lon="-1.7828">
        <ele>75.9</ele>
        <time>2016-04-10T09:41:38.921Z</time>
      </trkpt>
      <trkpt lat="47.18882" lon="-1.7827">
        <ele>75.5</ele>
        <time>2016-04-10T09:41:43.362Z</time>
      </trkpt>
      <trkpt lat="47.18882" lon="-1.78268">
        <ele>75.4</ele>
        <time>2016-04-10T09:41:43.867Z</time>
      </trkpt>
      <trkpt lat="47.18885" lon="-1.78258">
        <ele>75</ele>
        <time>2016-04-10T09:41:47.962Z</time>
      </trkpt>
      <trkpt lat="47.18886" lon="-1.78255">
        <ele>74.8</ele>
        <time>2016-04-10T09:41:48.921Z</time>
      </trkpt>
      <trkpt lat="47.18888" lon="-1.78245">
        <ele>74.1</ele>
        <time>2016-04-10T09:41:54.340Z</time>
      </trkpt>
      <trkpt lat="47.18889" lon="-1.78242">
        <ele>74</ele>
        <time>2016-04-10T09:41:54.856Z</time>
      </trkpt>
      <trkpt lat="47.1889" lon="-1.7823">
        <ele>73.1</ele>
        <time>2016-04-10T09:42:02.984Z</time>
      </trkpt>
      <trkpt lat="47.18891" lon="-1.78229">
        <ele>73.1</ele>
        <time>2016-04-10T09:42:03.929Z</time>
      </trkpt>
      <trkpt lat="47.18892" lon="-1.78216">
        <ele>72.4</ele>
        <time>2016-04-10T09:42:12.998Z</time>
      </trkpt>
      <trkpt lat="47.18893" lon="-1.78215">
        <ele>72.3</ele>
        <time>2016-04-10T09:42:13.906Z</time>
      </trkpt>
      <trkpt lat="47.18896" lon="-1.78204">
        <ele>72.4</ele>
        <time>2016-04-10T09:42:19.962Z</time>
      </trkpt>
      <trkpt lat="47.18897" lon="-1.78202">
        <ele>72.4</ele>
        <time>2016-04-10T09:42:20.922Z</time>
      </trkpt>
      <trkpt lat="47.189" lon="-1.78192">
        <ele>72.1</ele>
        <time>2016-04-10T09:42:25.003Z</time>
      </trkpt>
      <trkpt lat="47.18901" lon="-1.7819">
        <ele>72</ele>
        <time>2016-04-10T09:42:25.946Z</time>
      </trkpt>
      <trkpt lat="47.18904" lon="-1.78179">
        <ele>71.7</ele>
        <time>2016-04-10T09:42:29.976Z</time>
      </trkpt>
      <trkpt lat="47.18904" lon="-1.78175">
        <ele>71.6</ele>
        <time>2016-04-10T09:42:30.895Z</time>
      </trkpt>
      <trkpt lat="47.18907" lon="-1.78164">
        <ele>70.9</ele>
        <time>2016-04-10T09:42:36.984Z</time>
      </trkpt>
      <trkpt lat="47.18907" lon="-1.78162">
        <ele>70.7</ele>
        <time>2016-04-10T09:42:37.921Z</time>
      </trkpt>
      <trkpt lat="47.1891" lon="-1.78151">
        <ele>70.1</ele>
        <time>2016-04-10T09:42:45.987Z</time>
      </trkpt>
      <trkpt lat="47.1891" lon="-1.78149">
        <ele>70.1</ele>
        <time>2016-04-10T09:42:46.965Z</time>
      </trkpt>
      <trkpt lat="47.18912" lon="-1.78137">
        <ele>69.9</ele>
        <time>2016-04-10T09:42:53.012Z</time>
      </trkpt>
      <trkpt lat="47.18913" lon="-1.78135">
        <ele>69.8</ele>
        <time>2016-04-10T09:42:53.955Z</time>
      </trkpt>
      <trkpt lat="47.18916" lon="-1.78123">
        <ele>69.7</ele>
        <time>2016-04-10T09:42:59.965Z</time>
      </trkpt>
      <trkpt lat="47.18916" lon="-1.78121">
        <ele>69.7</ele>
        <time>2016-04-10T09:43:00.862Z</time>
      </trkpt>
      <trkpt lat="47.1892" lon="-1.78111">
        <ele>69.3</ele>
        <time>2016-04-10T09:43:06.920Z</time>
      </trkpt>
      <trkpt lat="47.18921" lon="-1.78108">
        <ele>69.3</ele>
        <time>2016-04-10T09:43:07.953Z</time>
      </trkpt>
      <trkpt lat="47.18923" lon="-1.78098">
        <ele>69.1</ele>
        <time>2016-04-10T09:43:13.049Z</time>
      </trkpt>
      <trkpt lat="47.18923" lon="-1.78095">
        <ele>69.1</ele>
        <time>2016-04-10T09:43:13.860Z</time>
      </trkpt>
      <trkpt lat="47.18925" lon="-1.78083">
        <ele>68.4</ele>
        <time>2016-04-10T09:43:19.977Z</time>
      </trkpt>
      <trkpt lat="47.18925" lon="-1.78081">
        <ele>68.4</ele>
        <time>2016-04-10T09:43:20.902Z</time>
      </trkpt>
      <trkpt lat="47.18929" lon="-1.78069">
        <ele>68.2</ele>
        <time>2016-04-10T09:43:28.094Z</time>
      </trkpt>
      <trkpt lat="47.18929" lon="-1.78067">
        <ele>68.1</ele>
        <time>2016-04-10T09:43:28.920Z</time>
      </trkpt>
      <trkpt lat="47.18932" lon="-1.78055">
        <ele>68</ele>
        <time>2016-04-10T09:43:35.979Z</time>
      </trkpt>
      <trkpt lat="47.18933" lon="-1.78053">
        <ele>68</ele>
        <time>2016-04-10T09:43:36.979Z</time>
      </trkpt>
      <trkpt lat="47.18936" lon="-1.78043">
        <ele>68</ele>
        <time>2016-04-10T09:43:42.033Z</time>
      </trkpt>
      <trkpt lat="47.18937" lon="-1.7804">
        <ele>68</ele>
        <time>2016-04-10T09:43:42.918Z</time>
      </trkpt>
      <trkpt lat="47.1894" lon="-1.78028">
        <ele>68.1</ele>
        <time>2016-04-10T09:43:48.018Z</time>
      </trkpt>
      <trkpt lat="47.1894" lon="-1.78026">
        <ele>68.2</ele>
        <time>2016-04-10T09:43:48.899Z</time>
      </trkpt>
      <trkpt lat="47.18942" lon="-1.78013">
        <ele>68.2</ele>
        <time>2016-04-10T09:43:55.251Z</time>
      </trkpt>
      <trkpt lat="47.18943" lon="-1.78011">
        <ele>68.2</ele>
        <time>2016-04-10T09:43:55.921Z</time>
      </trkpt>
      <trkpt lat="47.18943" lon="-1.77999">
        <ele>67.9</ele>
        <time>2016-04-10T09:44:01.965Z</time>
      </trkpt>
      <trkpt lat="47.18943" lon="-1.77997">
        <ele>67.9</ele>
        <time>2016-04-10T09:44:02.855Z</time>
      </trkpt>
      <trkpt lat="47.18945" lon="-1.77986">
        <ele>67.6</ele>
        <time>2016-04-10T09:44:07.021Z</time>
      </trkpt>
      <trkpt lat="47.18945" lon="-1.77983">
        <ele>67.6</ele>
        <time>2016-04-10T09:44:07.911Z</time>
      </trkpt>
      <trkpt lat="47.18946" lon="-1.77971">
        <ele>67.3</ele>
        <time>2016-04-10T09:44:13.000Z</time>
      </trkpt>
      <trkpt lat="47.18947" lon="-1.77968">
        <ele>67.2</ele>
        <time>2016-04-10T09:44:13.900Z</time>
      </trkpt>
      <trkpt lat="47.18949" lon="-1.77957">
        <ele>67</ele>
        <time>2016-04-10T09:44:19.957Z</time>
      </trkpt>
      <trkpt lat="47.18949" lon="-1.77955">
        <ele>67</ele>
        <time>2016-04-10T09:44:20.906Z</time>
      </trkpt>
      <trkpt lat="47.1895" lon="-1.77942">
        <ele>67</ele>
        <time>2016-04-10T09:44:27.905Z</time>
      </trkpt>
      <trkpt lat="47.1895" lon="-1.77941">
        <ele>67</ele>
        <time>2016-04-10T09:44:28.856Z</time>
      </trkpt>
      <trkpt lat="47.1895" lon="-1.77929">
        <ele>66.9</ele>
        <time>2016-04-10T09:44:34.964Z</time>
      </trkpt>
      <trkpt lat="47.1895" lon="-1.77926">
        <ele>66.9</ele>
        <time>2016-04-10T09:44:35.922Z</time>
      </trkpt>
      <trkpt lat="47.1895" lon="-1.77915">
        <ele>66.5</ele>
        <time>2016-04-10T09:44:42.967Z</time>
      </trkpt>
      <trkpt lat="47.1895" lon="-1.77912">
        <ele>66.5</ele>
        <time>2016-04-10T09:44:43.897Z</time>
      </trkpt>
      <trkpt lat="47.1895" lon="-1.77901">
        <ele>66.4</ele>
        <time>2016-04-10T09:44:49.894Z</time>
      </trkpt>
      <trkpt lat="47.1895" lon="-1.77899">
        <ele>66.4</ele>
        <time>2016-04-10T09:44:50.906Z</time>
      </trkpt>
      <trkpt lat="47.18951" lon="-1.77886">
        <ele>66.6</ele>
        <time>2016-04-10T09:44:57.009Z</time>
      </trkpt>
      <trkpt lat="47.18951" lon="-1.77884">
        <ele>66.6</ele>
        <time>2016-04-10T09:44:58.074Z</time>
      </trkpt>
      <trkpt lat="47.18951" lon="-1.77872">
        <ele>67</ele>
        <time>2016-04-10T09:45:07.004Z</time>
      </trkpt>
      <trkpt lat="47.18952" lon="-1.77869">
        <ele>67</ele>
        <time>2016-04-10T09:45:07.921Z</time>
      </trkpt>
      <trkpt lat="47.18952" lon="-1.77856">
        <ele>67.6</ele>
        <time>2016-04-10T09:45:13.924Z</time>
      </trkpt>
      <trkpt lat="47.18953" lon="-1.77854">
        <ele>67.7</ele>
        <time>2016-04-10T09:45:14.909Z</time>
      </trkpt>
      <trkpt lat="47.18953" lon="-1.77841">
        <ele>68.6</ele>
        <time>2016-04-10T09:45:22.979Z</time>
      </trkpt>
      <trkpt lat="47.18952" lon="-1.77839">
        <ele>68.6</ele>
        <time>2016-04-10T09:45:23.912Z</time>
      </trkpt>
      <trkpt lat="47.1895" lon="-1.77828">
        <ele>68.6</ele>
        <time>2016-04-10T09:45:29.972Z</time>
      </trkpt>
      <trkpt lat="47.1895" lon="-1.77825">
        <ele>68.7</ele>
        <time>2016-04-10T09:45:30.916Z</time>
      </trkpt>
      <trkpt lat="47.18951" lon="-1.77813">
        <ele>69</ele>
        <time>2016-04-10T09:45:35.989Z</time>
      </trkpt>
      <trkpt lat="47.18951" lon="-1.77809">
        <ele>69</ele>
        <time>2016-04-10T09:45:36.922Z</time>
      </trkpt>
      <trkpt lat="47.18952" lon="-1.77797">
        <ele>68.6</ele>
        <time>2016-04-10T09:45:42.011Z</time>
      </trkpt>
      <trkpt lat="47.18952" lon="-1.77795">
        <ele>68.6</ele>
        <time>2016-04-10T09:45:42.888Z</time>
      </trkpt>
      <trkpt lat="47.18954" lon="-1.77782">
        <ele>68.2</ele>
        <time>2016-04-10T09:45:49.005Z</time>
      </trkpt>
      <trkpt lat="47.18954" lon="-1.7778">
        <ele>68.2</ele>
        <time>2016-04-10T09:45:49.927Z</time>
      </trkpt>
      <trkpt lat="47.18956" lon="-1.77767">
        <ele>67.6</ele>
        <time>2016-04-10T09:45:57.948Z</time>
      </trkpt>
      <trkpt lat="47.18956" lon="-1.77765">
        <ele>67.6</ele>
        <time>2016-04-10T09:45:58.885Z</time>
      </trkpt>
      <trkpt lat="47.18957" lon="-1.77753">
        <ele>66.9</ele>
        <time>2016-04-10T09:46:05.005Z</time>
      </trkpt>
      <trkpt lat="47.18957" lon="-1.77751">
        <ele>66.7</ele>
        <time>2016-04-10T09:46:05.956Z</time>
      </trkpt>
      <trkpt lat="47.18958" lon="-1.77739">
        <ele>65.5</ele>
        <time>2016-04-10T09:46:14.964Z</time>
      </trkpt>
      <trkpt lat="47.18958" lon="-1.77738">
        <ele>65.4</ele>
        <time>2016-04-10T09:46:15.865Z</time>
      </trkpt>
      <trkpt lat="47.18961" lon="-1.77726">
        <ele>64.8</ele>
        <time>2016-04-10T09:46:22.897Z</time>
      </trkpt>
      <trkpt lat="47.18961" lon="-1.77724">
        <ele>64.8</ele>
        <time>2016-04-10T09:46:23.908Z</time>
      </trkpt>
      <trkpt lat="47.18964" lon="-1.77712">
        <ele>64.9</ele>
        <time>2016-04-10T09:46:30.010Z</time>
      </trkpt>
      <trkpt lat="47.18964" lon="-1.77711">
        <ele>64.9</ele>
        <time>2016-04-10T09:46:30.908Z</time>
      </trkpt>
      <trkpt lat="47.18966" lon="-1.777">
        <ele>65</ele>
        <time>2016-04-10T09:46:36.103Z</time>
      </trkpt>
      <trkpt lat="47.18967" lon="-1.77695">
        <ele>65.1</ele>
        <time>2016-04-10T09:46:36.910Z</time>
      </trkpt>
      <trkpt lat="47.1897" lon="-1.77683">
        <ele>65.1</ele>
        <time>2016-04-10T09:46:41.967Z</time>
      </trkpt>
      <trkpt lat="47.18971" lon="-1.77681">
        <ele>65.2</ele>
        <time>2016-04-10T09:46:42.895Z</time>
      </trkpt>
      <trkpt lat="47.18975" lon="-1.7767">
        <ele>65.5</ele>
        <time>2016-04-10T09:46:50.015Z</time>
      </trkpt>
      <trkpt lat="47.18976" lon="-1.77668">
        <ele>65.6</ele>
        <time>2016-04-10T09:46:50.864Z</time>
      </trkpt>
      <trkpt lat="47.18977" lon="-1.77656">
        <ele>65.5</ele>
        <time>2016-04-10T09:46:58.033Z</time>
      </trkpt>
      <trkpt lat="47.18977" lon="-1.77653">
        <ele>65.4</ele>
        <time>2016-04-10T09:46:58.923Z</time>
      </trkpt>
      <trkpt lat="47.18978" lon="-1.7764">
        <ele>64.7</ele>
        <time>2016-04-10T09:47:04.954Z</time>
      </trkpt>
      <trkpt lat="47.18978" lon="-1.77639">
        <ele>64.5</ele>
        <time>2016-04-10T09:47:05.930Z</time>
      </trkpt>
      <trkpt lat="47.18979" lon="-1.77626">
        <ele>63.4</ele>
        <time>2016-04-10T09:47:14.870Z</time>
      </trkpt>
      <trkpt lat="47.18979" lon="-1.77623">
        <ele>63.4</ele>
        <time>2016-04-10T09:47:15.855Z</time>
      </trkpt>
      <trkpt lat="47.18982" lon="-1.77612">
        <ele>63.8</ele>
        <time>2016-04-10T09:47:20.964Z</time>
      </trkpt>
      <trkpt lat="47.18983" lon="-1.7761">
        <ele>63.9</ele>
        <time>2016-04-10T09:47:21.915Z</time>
      </trkpt>
      <trkpt lat="47.18984" lon="-1.77599">
        <ele>64.8</ele>
        <time>2016-04-10T09:47:28.023Z</time>
      </trkpt>
      <trkpt lat="47.18985" lon="-1.77596">
        <ele>64.9</ele>
        <time>2016-04-10T09:47:28.885Z</time>
      </trkpt>
      <trkpt lat="47.18985" lon="-1.77583">
        <ele>64.9</ele>
        <time>2016-04-10T09:47:37.008Z</time>
      </trkpt>
      <trkpt lat="47.18985" lon="-1.77582">
        <ele>65</ele>
        <time>2016-04-10T09:47:37.910Z</time>
      </trkpt>
      <trkpt lat="47.18985" lon="-1.7757">
        <ele>65.4</ele>
        <time>2016-04-10T09:47:44.981Z</time>
      </trkpt>
      <trkpt lat="47.18986" lon="-1.77567">
        <ele>65.5</ele>
        <time>2016-04-10T09:47:45.924Z</time>
      </trkpt>
      <trkpt lat="47.18988" lon="-1.77557">
        <ele>65.8</ele>
        <time>2016-04-10T09:47:50.055Z</time>
      </trkpt>
      <trkpt lat="47.18989" lon="-1.77554">
        <ele>66</ele>
        <time>2016-04-10T09:47:50.887Z</time>
      </trkpt>
      <trkpt lat="47.18992" lon="-1.77542">
        <ele>66.5</ele>
        <time>2016-04-10T09:47:56.065Z</time>
      </trkpt>
      <trkpt lat="47.18992" lon="-1.7754">
        <ele>66.6</ele>
        <time>2016-04-10T09:47:56.935Z</time>
      </trkpt>
      <trkpt lat="47.18996" lon="-1.77528">
        <ele>66.6</ele>
        <time>2016-04-10T09:48:03.013Z</time>
      </trkpt>
      <trkpt lat="47.18996" lon="-1.77526">
        <ele>66.6</ele>
        <time>2016-04-10T09:48:03.907Z</time>
      </trkpt>
      <trkpt lat="47.18997" lon="-1.77513">
        <ele>66.8</ele>
        <time>2016-04-10T09:48:12.454Z</time>
      </trkpt>
      <trkpt lat="47.18997" lon="-1.77512">
        <ele>66.8</ele>
        <time>2016-04-10T09:48:12.872Z</time>
      </trkpt>
      <trkpt lat="47.18999" lon="-1.775">
        <ele>67.1</ele>
        <time>2016-04-10T09:48:18.958Z</time>
      </trkpt>
      <trkpt lat="47.18999" lon="-1.77499">
        <ele>67.2</ele>
        <time>2016-04-10T09:48:19.921Z</time>
      </trkpt>
      <trkpt lat="47.19001" lon="-1.77486">
        <ele>67.6</ele>
        <time>2016-04-10T09:48:27.008Z</time>
      </trkpt>
      <trkpt lat="47.19001" lon="-1.77484">
        <ele>67.7</ele>
        <time>2016-04-10T09:48:27.888Z</time>
      </trkpt>
      <trkpt lat="47.19003" lon="-1.77472">
        <ele>67.8</ele>
        <time>2016-04-10T09:48:32.008Z</time>
      </trkpt>
      <trkpt lat="47.19003" lon="-1.7747">
        <ele>67.8</ele>
        <time>2016-04-10T09:48:32.977Z</time>
      </trkpt>
      <trkpt lat="47.19003" lon="-1.77458">
        <ele>67.8</ele>
        <time>2016-04-10T09:48:39.025Z</time>
      </trkpt>
      <trkpt lat="47.19004" lon="-1.77456">
        <ele>67.8</ele>
        <time>2016-04-10T09:48:39.924Z</time>
      </trkpt>
      <trkpt lat="47.19005" lon="-1.77444">
        <ele>67.8</ele>
        <time>2016-04-10T09:48:45.929Z</time>
      </trkpt>
      <trkpt lat="47.19005" lon="-1.77442">
        <ele>67.8</ele>
        <time>2016-04-10T09:48:46.929Z</time>
      </trkpt>
      <trkpt lat="47.19006" lon="-1.7743">
        <ele>67.7</ele>
        <time>2016-04-10T09:48:51.952Z</time>
      </trkpt>
      <trkpt lat="47.19007" lon="-1.77427">
        <ele>67.7</ele>
        <time>2016-04-10T09:48:52.888Z</time>
      </trkpt>
      <trkpt lat="47.19009" lon="-1.77415">
        <ele>67.6</ele>
        <time>2016-04-10T09:48:57.983Z</time>
      </trkpt>
      <trkpt lat="47.19009" lon="-1.77414">
        <ele>67.6</ele>
        <time>2016-04-10T09:48:58.979Z</time>
      </trkpt>
      <trkpt lat="47.19009" lon="-1.77401">
        <ele>67.7</ele>
        <time>2016-04-10T09:49:05.925Z</time>
      </trkpt>
      <trkpt lat="47.19009" lon="-1.77399">
        <ele>67.7</ele>
        <time>2016-04-10T09:49:06.928Z</time>
      </trkpt>
      <trkpt lat="47.19011" lon="-1.77387">
        <ele>67.5</ele>
        <time>2016-04-10T09:49:13.996Z</time>
      </trkpt>
      <trkpt lat="47.19011" lon="-1.77385">
        <ele>67.4</ele>
        <time>2016-04-10T09:49:14.912Z</time>
      </trkpt>
      <trkpt lat="47.19012" lon="-1.77372">
        <ele>67</ele>
        <time>2016-04-10T09:49:22.006Z</time>
      </trkpt>
      <trkpt lat="47.19012" lon="-1.77371">
        <ele>66.9</ele>
        <time>2016-04-10T09:49:22.909Z</time>
      </trkpt>
      <trkpt lat="47.19014" lon="-1.77359">
        <ele>67.1</ele>
        <time>2016-04-10T09:49:28.975Z</time>
      </trkpt>
      <trkpt lat="47.19014" lon="-1.77357">
        <ele>67.2</ele>
        <time>2016-04-10T09:49:30.045Z</time>
      </trkpt>
      <trkpt lat="47.19017" lon="-1.77345">
        <ele>67.7</ele>
        <time>2016-04-10T09:49:37.048Z</time>
      </trkpt>
      <trkpt lat="47.19017" lon="-1.77344">
        <ele>67.7</ele>
        <time>2016-04-10T09:49:37.926Z</time>
      </trkpt>
      <trkpt lat="47.1902" lon="-1.77334">
        <ele>67.8</ele>
        <time>2016-04-10T09:49:44.141Z</time>
      </trkpt>
      <trkpt lat="47.19021" lon="-1.77331">
        <ele>67.9</ele>
        <time>2016-04-10T09:49:44.923Z</time>
      </trkpt>
      <trkpt lat="47.19023" lon="-1.77319">
        <ele>68.3</ele>
        <time>2016-04-10T09:49:51.986Z</time>
      </trkpt>
      <trkpt lat="47.19023" lon="-1.77317">
        <ele>68.3</ele>
        <time>2016-04-10T09:49:52.934Z</time>
      </trkpt>
      <trkpt lat="47.19026" lon="-1.77306">
        <ele>68.6</ele>
        <time>2016-04-10T09:49:58.885Z</time>
      </trkpt>
      <trkpt lat="47.19026" lon="-1.77303">
        <ele>68.6</ele>
        <time>2016-04-10T09:49:59.908Z</time>
      </trkpt>
      <trkpt lat="47.19028" lon="-1.77291">
        <ele>68.7</ele>
        <time>2016-04-10T09:50:05.968Z</time>
      </trkpt>
      <trkpt lat="47.19028" lon="-1.77289">
        <ele>68.7</ele>
        <time>2016-04-10T09:50:06.980Z</time>
      </trkpt>
      <trkpt lat="47.1903" lon="-1.77277">
        <ele>68.8</ele>
        <time>2016-04-10T09:50:13.013Z</time>
      </trkpt>
      <trkpt lat="47.19031" lon="-1.77275">
        <ele>68.7</ele>
        <time>2016-04-10T09:50:13.917Z</time>
      </trkpt>
      <trkpt lat="47.19034" lon="-1.77264">
        <ele>69</ele>
        <time>2016-04-10T09:50:20.011Z</time>
      </trkpt>
      <trkpt lat="47.19034" lon="-1.77262">
        <ele>69</ele>
        <time>2016-04-10T09:50:21.104Z</time>
      </trkpt>
      <trkpt lat="47.19036" lon="-1.77249">
        <ele>69</ele>
        <time>2016-04-10T09:50:26.045Z</time>
      </trkpt>
      <trkpt lat="47.19037" lon="-1.77246">
        <ele>69</ele>
        <time>2016-04-10T09:50:26.893Z</time>
      </trkpt>
      <trkpt lat="47.19039" lon="-1.77235">
        <ele>68.7</ele>
        <time>2016-04-10T09:50:33.961Z</time>
      </trkpt>
      <trkpt lat="47.1904" lon="-1.77233">
        <ele>68.7</ele>
        <time>2016-04-10T09:50:34.993Z</time>
      </trkpt>
      <trkpt lat="47.19044" lon="-1.77221">
        <ele>68.6</ele>
        <time>2016-04-10T09:50:41.994Z</time>
      </trkpt>
      <trkpt lat="47.19044" lon="-1.7722">
        <ele>68.6</ele>
        <time>2016-04-10T09:50:42.922Z</time>
      </trkpt>
      <trkpt lat="47.19048" lon="-1.77208">
        <ele>68.6</ele>
        <time>2016-04-10T09:50:49.008Z</time>
      </trkpt>
      <trkpt lat="47.1905" lon="-1.77206">
        <ele>68.6</ele>
        <time>2016-04-10T09:50:49.915Z</time>
      </trkpt>
      <trkpt lat="47.19054" lon="-1.77195">
        <ele>68.7</ele>
        <time>2016-04-10T09:50:57.917Z</time>
      </trkpt>
      <trkpt lat="47.19054" lon="-1.77193">
        <ele>68.7</ele>
        <time>2016-04-10T09:50:58.944Z</time>
      </trkpt>
      <trkpt lat="47.19057" lon="-1.77182">
        <ele>68.6</ele>
        <time>2016-04-10T09:51:05.032Z</time>
      </trkpt>
      <trkpt lat="47.19058" lon="-1.7718">
        <ele>68.6</ele>
        <time>2016-04-10T09:51:05.871Z</time>
      </trkpt>
      <trkpt lat="47.19062" lon="-1.77169">
        <ele>68.5</ele>
        <time>2016-04-10T09:51:11.993Z</time>
      </trkpt>
      <trkpt lat="47.19063" lon="-1.77167">
        <ele>68.6</ele>
        <time>2016-04-10T09:51:12.914Z</time>
      </trkpt>
      <trkpt lat="47.19066" lon="-1.77157">
        <ele>68.4</ele>
        <time>2016-04-10T09:51:19.001Z</time>
      </trkpt>
      <trkpt lat="47.19067" lon="-1.77155">
        <ele>68.4</ele>
        <time>2016-04-10T09:51:19.923Z</time>
      </trkpt>
      <trkpt lat="47.19071" lon="-1.77144">
        <ele>68.4</ele>
        <time>2016-04-10T09:51:27.054Z</time>
      </trkpt>
      <trkpt lat="47.19071" lon="-1.77143">
        <ele>68.4</ele>
        <time>2016-04-10T09:51:27.921Z</time>
      </trkpt>
      <trkpt lat="47.19076" lon="-1.77132">
        <ele>68.4</ele>
        <time>2016-04-10T09:51:35.894Z</time>
      </trkpt>
      <trkpt lat="47.19077" lon="-1.77131">
        <ele>68.4</ele>
        <time>2016-04-10T09:51:36.899Z</time>
      </trkpt>
      <trkpt lat="47.1908" lon="-1.7712">
        <ele>68.9</ele>
        <time>2016-04-10T09:51:42.948Z</time>
      </trkpt>
      <trkpt lat="47.1908" lon="-1.77118">
        <ele>68.9</ele>
        <time>2016-04-10T09:51:43.916Z</time>
      </trkpt>
      <trkpt lat="47.19083" lon="-1.77108">
        <ele>69.1</ele>
        <time>2016-04-10T09:51:50.001Z</time>
      </trkpt>
      <trkpt lat="47.19084" lon="-1.77105">
        <ele>69</ele>
        <time>2016-04-10T09:51:50.917Z</time>
      </trkpt>
      <trkpt lat="47.19085" lon="-1.77094">
        <ele>68.8</ele>
        <time>2016-04-10T09:51:55.966Z</time>
      </trkpt>
      <trkpt lat="47.19085" lon="-1.77092">
        <ele>68.7</ele>
        <time>2016-04-10T09:51:56.858Z</time>
      </trkpt>
      <trkpt lat="47.19087" lon="-1.77081">
        <ele>68.4</ele>
        <time>2016-04-10T09:52:02.117Z</time>
      </trkpt>
      <trkpt lat="47.19088" lon="-1.77079">
        <ele>68.4</ele>
        <time>2016-04-10T09:52:02.914Z</time>
      </trkpt>
      <trkpt lat="47.19091" lon="-1.77067">
        <ele>68.3</ele>
        <time>2016-04-10T09:52:10.145Z</time>
      </trkpt>
      <trkpt lat="47.19091" lon="-1.77065">
        <ele>68.4</ele>
        <time>2016-04-10T09:52:10.914Z</time>
      </trkpt>
      <trkpt lat="47.19093" lon="-1.77053">
        <ele>68.4</ele>
        <time>2016-04-10T09:52:16.926Z</time>
      </trkpt>
      <trkpt lat="47.19093" lon="-1.77051">
        <ele>68.5</ele>
        <time>2016-04-10T09:52:17.912Z</time>
      </trkpt>
      <trkpt lat="47.19095" lon="-1.77039">
        <ele>68</ele>
        <time>2016-04-10T09:52:24.990Z</time>
      </trkpt>
      <trkpt lat="47.19096" lon="-1.77038">
        <ele>68</ele>
        <time>2016-04-10T09:52:25.912Z</time>
      </trkpt>
      <trkpt lat="47.19098" lon="-1.77027">
        <ele>68</ele>
        <time>2016-04-10T09:52:31.987Z</time>
      </trkpt>
      <trkpt lat="47.19099" lon="-1.77025">
        <ele>68.1</ele>
        <time>2016-04-10T09:52:32.917Z</time>
      </trkpt>
      <trkpt lat="47.19102" lon="-1.77013">
        <ele>68.4</ele>
        <time>2016-04-10T09:52:39.092Z</time>
      </trkpt>
      <trkpt lat="47.19102" lon="-1.77012">
        <ele>68.5</ele>
        <time>2016-04-10T09:52:39.974Z</time>
      </trkpt>
      <trkpt lat="47.19104" lon="-1.77001">
        <ele>69.2</ele>
        <time>2016-04-10T09:52:47.013Z</time>
      </trkpt>
      <trkpt lat="47.19104" lon="-1.76999">
        <ele>69.3</ele>
        <time>2016-04-10T09:52:47.861Z</time>
      </trkpt>
      <trkpt lat="47.19106" lon="-1.76987">
        <ele>69.9</ele>
        <time>2016-04-10T09:52:54.037Z</time>
      </trkpt>
      <trkpt lat="47.19106" lon="-1.76985">
        <ele>69.9</ele>
        <time>2016-04-10T09:52:54.874Z</time>
      </trkpt>
      <trkpt lat="47.19109" lon="-1.76973">
        <ele>70.2</ele>
        <time>2016-04-10T09:53:02.014Z</time>
      </trkpt>
      <trkpt lat="47.19109" lon="-1.76972">
        <ele>70.2</ele>
        <time>2016-04-10T09:53:02.915Z</time>
      </trkpt>
      <trkpt lat="47.19109" lon="-1.76964">
        <ele>70.2</ele>
        <time>2016-04-10T09:53:08.102Z</time>
      </trkpt>
      <trkpt lat="47.1911" lon="-1.76958">
        <ele>70.2</ele>
        <time>2016-04-10T09:53:08.864Z</time>
      </trkpt>
      <trkpt lat="47.19111" lon="-1.76947">
        <ele>70.3</ele>
        <time>2016-04-10T09:53:14.960Z</time>
      </trkpt>
      <trkpt lat="47.19111" lon="-1.76945">
        <ele>70.3</ele>
        <time>2016-04-10T09:53:15.926Z</time>
      </trkpt>
      <trkpt lat="47.19113" lon="-1.76933">
        <ele>70.2</ele>
        <time>2016-04-10T09:53:20.988Z</time>
      </trkpt>
      <trkpt lat="47.19113" lon="-1.76931">
        <ele>70.2</ele>
        <time>2016-04-10T09:53:21.890Z</time>
      </trkpt>
      <trkpt lat="47.19114" lon="-1.76919">
        <ele>70.3</ele>
        <time>2016-04-10T09:53:27.048Z</time>
      </trkpt>
      <trkpt lat="47.19114" lon="-1.76916">
        <ele>70.3</ele>
        <time>2016-04-10T09:53:27.928Z</time>
      </trkpt>
      <trkpt lat="47.19118" lon="-1.76904">
        <ele>69.9</ele>
        <time>2016-04-10T09:53:38.974Z</time>
      </trkpt>
      <trkpt lat="47.19119" lon="-1.76901">
        <ele>69.9</ele>
        <time>2016-04-10T09:53:39.906Z</time>
      </trkpt>
      <trkpt lat="47.19115" lon="-1.7689">
        <ele>69.9</ele>
        <time>2016-04-10T09:53:46.977Z</time>
      </trkpt>
      <trkpt lat="47.19114" lon="-1.76889">
        <ele>69.9</ele>
        <time>2016-04-10T09:53:47.913Z</time>
      </trkpt>
      <trkpt lat="47.19108" lon="-1.7688">
        <ele>69.5</ele>
        <time>2016-04-10T09:53:53.942Z</time>
      </trkpt>
      <trkpt lat="47.19106" lon="-1.76878">
        <ele>69.5</ele>
        <time>2016-04-10T09:53:54.851Z</time>
      </trkpt>
      <trkpt lat="47.191" lon="-1.7687">
        <ele>69.4</ele>
        <time>2016-04-10T09:54:00.886Z</time>
      </trkpt>
      <trkpt lat="47.19099" lon="-1.76869">
        <ele>69.4</ele>
        <time>2016-04-10T09:54:01.886Z</time>
      </trkpt>
      <trkpt lat="47.19093" lon="-1.76861">
        <ele>69.1</ele>
        <time>2016-04-10T09:54:09.310Z</time>
      </trkpt>
      <trkpt lat="47.19092" lon="-1.7686">
        <ele>69.1</ele>
        <time>2016-04-10T09:54:09.919Z</time>
      </trkpt>
      <trkpt lat="47.19085" lon="-1.76852">
        <ele>69</ele>
        <time>2016-04-10T09:54:15.957Z</time>
      </trkpt>
      <trkpt lat="47.19084" lon="-1.76851">
        <ele>69</ele>
        <time>2016-04-10T09:54:16.920Z</time>
      </trkpt>
      <trkpt lat="47.19077" lon="-1.76845">
        <ele>69</ele>
        <time>2016-04-10T09:54:23.896Z</time>
      </trkpt>
      <trkpt lat="47.19075" lon="-1.76844">
        <ele>69</ele>
        <time>2016-04-10T09:54:24.928Z</time>
      </trkpt>
      <trkpt lat="47.19068" lon="-1.76838">
        <ele>68.7</ele>
        <time>2016-04-10T09:54:32.014Z</time>
      </trkpt>
      <trkpt lat="47.19067" lon="-1.76837">
        <ele>68.7</ele>
        <time>2016-04-10T09:54:32.933Z</time>
      </trkpt>
      <trkpt lat="47.19059" lon="-1.76837">
        <ele>68.6</ele>
        <time>2016-04-10T09:54:40.001Z</time>
      </trkpt>
      <trkpt lat="47.19058" lon="-1.76837">
        <ele>68.6</ele>
        <time>2016-04-10T09:54:40.937Z</time>
      </trkpt>
      <trkpt lat="47.1905" lon="-1.76834">
        <ele>68.4</ele>
        <time>2016-04-10T09:54:50.148Z</time>
      </trkpt>
      <trkpt lat="47.19049" lon="-1.76833">
        <ele>68.4</ele>
        <time>2016-04-10T09:54:50.940Z</time>
      </trkpt>
      <trkpt lat="47.19041" lon="-1.76829">
        <ele>68.7</ele>
        <time>2016-04-10T09:54:59.074Z</time>
      </trkpt>
      <trkpt lat="47.1904" lon="-1.76829">
        <ele>68.6</ele>
        <time>2016-04-10T09:54:59.925Z</time>
      </trkpt>
      <trkpt lat="47.19032" lon="-1.76825">
        <ele>68.7</ele>
        <time>2016-04-10T09:55:07.255Z</time>
      </trkpt>
      <trkpt lat="47.19031" lon="-1.76825">
        <ele>68.7</ele>
        <time>2016-04-10T09:55:07.920Z</time>
      </trkpt>
      <trkpt lat="47.19023" lon="-1.76818">
        <ele>68.9</ele>
        <time>2016-04-10T09:55:14.000Z</time>
      </trkpt>
      <trkpt lat="47.19022" lon="-1.76817">
        <ele>68.9</ele>
        <time>2016-04-10T09:55:14.924Z</time>
      </trkpt>
      <trkpt lat="47.19015" lon="-1.76811">
        <ele>69.3</ele>
        <time>2016-04-10T09:55:23.978Z</time>
      </trkpt>
      <trkpt lat="47.19014" lon="-1.7681">
        <ele>69.3</ele>
        <time>2016-04-10T09:55:24.921Z</time>
      </trkpt>
      <trkpt lat="47.19006" lon="-1.76804">
        <ele>69.7</ele>
        <time>2016-04-10T09:55:33.006Z</time>
      </trkpt>
      <trkpt lat="47.19005" lon="-1.76803">
        <ele>69.7</ele>
        <time>2016-04-10T09:55:33.915Z</time>
      </trkpt>
      <trkpt lat="47.18997" lon="-1.76799">
        <ele>69.8</ele>
        <time>2016-04-10T09:55:40.009Z</time>
      </trkpt>
      <trkpt lat="47.18996" lon="-1.76797">
        <ele>69.8</ele>
        <time>2016-04-10T09:55:40.954Z</time>
      </trkpt>
      <trkpt lat="47.18988" lon="-1.76792">
        <ele>69.6</ele>
        <time>2016-04-10T09:55:46.045Z</time>
      </trkpt>
      <trkpt lat="47.18987" lon="-1.76792">
        <ele>69.6</ele>
        <time>2016-04-10T09:55:46.920Z</time>
      </trkpt>
      <trkpt lat="47.18979" lon="-1.76788">
        <ele>69.9</ele>
        <time>2016-04-10T09:55:52.882Z</time>
      </trkpt>
      <trkpt lat="47.18977" lon="-1.76787">
        <ele>69.9</ele>
        <time>2016-04-10T09:55:53.926Z</time>
      </trkpt>
      <trkpt lat="47.18969" lon="-1.76783">
        <ele>70</ele>
        <time>2016-04-10T09:56:01.977Z</time>
      </trkpt>
      <trkpt lat="47.18968" lon="-1.76782">
        <ele>70</ele>
        <time>2016-04-10T09:56:02.920Z</time>
      </trkpt>
      <trkpt lat="47.1896" lon="-1.76776">
        <ele>70.3</ele>
        <time>2016-04-10T09:56:11.000Z</time>
      </trkpt>
      <trkpt lat="47.18959" lon="-1.76775">
        <ele>70.3</ele>
        <time>2016-04-10T09:56:11.851Z</time>
      </trkpt>
      <trkpt lat="47.18952" lon="-1.76767">
        <ele>70.6</ele>
        <time>2016-04-10T09:56:19.979Z</time>
      </trkpt>
      <trkpt lat="47.18951" lon="-1.76766">
        <ele>70.6</ele>
        <time>2016-04-10T09:56:20.915Z</time>
      </trkpt>
      <trkpt lat="47.18945" lon="-1.76758">
        <ele>70.8</ele>
        <time>2016-04-10T09:56:28.007Z</time>
      </trkpt>
      <trkpt lat="47.18944" lon="-1.76757">
        <ele>70.8</ele>
        <time>2016-04-10T09:56:28.915Z</time>
      </trkpt>
      <trkpt lat="47.18937" lon="-1.7675">
        <ele>70.6</ele>
        <time>2016-04-10T09:56:35.200Z</time>
      </trkpt>
      <trkpt lat="47.18936" lon="-1.7675">
        <ele>70.6</ele>
        <time>2016-04-10T09:56:35.929Z</time>
      </trkpt>
      <trkpt lat="47.1893" lon="-1.76743">
        <ele>70.6</ele>
        <time>2016-04-10T09:56:40.991Z</time>
      </trkpt>
      <trkpt lat="47.18929" lon="-1.76742">
        <ele>70.6</ele>
        <time>2016-04-10T09:56:41.931Z</time>
      </trkpt>
      <trkpt lat="47.18922" lon="-1.76734">
        <ele>70.6</ele>
        <time>2016-04-10T09:56:47.002Z</time>
      </trkpt>
      <trkpt lat="47.18921" lon="-1.76732">
        <ele>70.6</ele>
        <time>2016-04-10T09:56:47.945Z</time>
      </trkpt>
      <trkpt lat="47.18915" lon="-1.76727">
        <ele>70.4</ele>
        <time>2016-04-10T09:56:53.982Z</time>
      </trkpt>
      <trkpt lat="47.18913" lon="-1.76726">
        <ele>70.4</ele>
        <time>2016-04-10T09:56:54.934Z</time>
      </trkpt>
      <trkpt lat="47.18907" lon="-1.76719">
        <ele>70.4</ele>
        <time>2016-04-10T09:57:01.004Z</time>
      </trkpt>
      <trkpt lat="47.18905" lon="-1.76718">
        <ele>70.4</ele>
        <time>2016-04-10T09:57:01.928Z</time>
      </trkpt>
      <trkpt lat="47.18899" lon="-1.76711">
        <ele>70.2</ele>
        <time>2016-04-10T09:57:07.974Z</time>
      </trkpt>
      <trkpt lat="47.18898" lon="-1.7671">
        <ele>70.1</ele>
        <time>2016-04-10T09:57:08.932Z</time>
      </trkpt>
      <trkpt lat="47.18893" lon="-1.76701">
        <ele>70.3</ele>
        <time>2016-04-10T09:57:16.005Z</time>
      </trkpt>
      <trkpt lat="47.18892" lon="-1.76699">
        <ele>70.3</ele>
        <time>2016-04-10T09:57:16.910Z</time>
      </trkpt>
      <trkpt lat="47.18888" lon="-1.76689">
        <ele>70.4</ele>
        <time>2016-04-10T09:57:22.962Z</time>
      </trkpt>
      <trkpt lat="47.18887" lon="-1.76687">
        <ele>70.5</ele>
        <time>2016-04-10T09:57:23.927Z</time>
      </trkpt>
      <trkpt lat="47.18881" lon="-1.76678">
        <ele>70.9</ele>
        <time>2016-04-10T09:57:29.047Z</time>
      </trkpt>
      <trkpt lat="47.1888" lon="-1.76677">
        <ele>71</ele>
        <time>2016-04-10T09:57:29.927Z</time>
      </trkpt>
      <trkpt lat="47.18875" lon="-1.76668">
        <ele>71.2</ele>
        <time>2016-04-10T09:57:36.016Z</time>
      </trkpt>
      <trkpt lat="47.18873" lon="-1.76666">
        <ele>71.3</ele>
        <time>2016-04-10T09:57:36.915Z</time>
      </trkpt>
      <trkpt lat="47.18867" lon="-1.76657">
        <ele>71.3</ele>
        <time>2016-04-10T09:57:42.992Z</time>
      </trkpt>
      <trkpt lat="47.18866" lon="-1.76655">
        <ele>71.3</ele>
        <time>2016-04-10T09:57:43.927Z</time>
      </trkpt>
      <trkpt lat="47.18859" lon="-1.76648">
        <ele>71</ele>
        <time>2016-04-10T09:57:50.006Z</time>
      </trkpt>
      <trkpt lat="47.18858" lon="-1.76646">
        <ele>70.9</ele>
        <time>2016-04-10T09:57:50.980Z</time>
      </trkpt>
      <trkpt lat="47.18853" lon="-1.76636">
        <ele>70.9</ele>
        <time>2016-04-10T09:57:55.997Z</time>
      </trkpt>
      <trkpt lat="47.18852" lon="-1.76635">
        <ele>70.9</ele>
        <time>2016-04-10T09:57:56.914Z</time>
      </trkpt>
      <trkpt lat="47.18846" lon="-1.76624">
        <ele>70.8</ele>
        <time>2016-04-10T09:58:03.062Z</time>
      </trkpt>
      <trkpt lat="47.18845" lon="-1.76622">
        <ele>70.8</ele>
        <time>2016-04-10T09:58:04.105Z</time>
      </trkpt>
      <trkpt lat="47.1884" lon="-1.76612">
        <ele>70.8</ele>
        <time>2016-04-10T09:58:10.008Z</time>
      </trkpt>
      <trkpt lat="47.1884" lon="-1.76611">
        <ele>70.8</ele>
        <time>2016-04-10T09:58:10.872Z</time>
      </trkpt>
      <trkpt lat="47.18836" lon="-1.76601">
        <ele>70.9</ele>
        <time>2016-04-10T09:58:16.031Z</time>
      </trkpt>
      <trkpt lat="47.18835" lon="-1.76599">
        <ele>70.9</ele>
        <time>2016-04-10T09:58:16.870Z</time>
      </trkpt>
      <trkpt lat="47.18831" lon="-1.76588">
        <ele>70.9</ele>
        <time>2016-04-10T09:58:24.019Z</time>
      </trkpt>
      <trkpt lat="47.1883" lon="-1.76586">
        <ele>70.8</ele>
        <time>2016-04-10T09:58:24.926Z</time>
      </trkpt>
      <trkpt lat="47.18827" lon="-1.76576">
        <ele>70.5</ele>
        <time>2016-04-10T09:58:29.950Z</time>
      </trkpt>
      <trkpt lat="47.18826" lon="-1.76573">
        <ele>70.4</ele>
        <time>2016-04-10T09:58:30.913Z</time>
      </trkpt>
      <trkpt lat="47.18821" lon="-1.76564">
        <ele>70.1</ele>
        <time>2016-04-10T09:58:36.001Z</time>
      </trkpt>
      <trkpt lat="47.1882" lon="-1.76562">
        <ele>70</ele>
        <time>2016-04-10T09:58:36.934Z</time>
      </trkpt>
      <trkpt lat="47.18816" lon="-1.76551">
        <ele>69.4</ele>
        <time>2016-04-10T09:58:42.976Z</time>
      </trkpt>
      <trkpt lat="47.18815" lon="-1.76549">
        <ele>69.3</ele>
        <time>2016-04-10T09:58:43.920Z</time>
      </trkpt>
      <trkpt lat="47.1881" lon="-1.76539">
        <ele>68.9</ele>
        <time>2016-04-10T09:58:50.898Z</time>
      </trkpt>
      <trkpt lat="47.1881" lon="-1.76537">
        <ele>68.8</ele>
        <time>2016-04-10T09:58:51.916Z</time>
      </trkpt>
      <trkpt lat="47.18806" lon="-1.76525">
        <ele>68</ele>
        <time>2016-04-10T09:58:58.039Z</time>
      </trkpt>
      <trkpt lat="47.18806" lon="-1.76523">
        <ele>67.9</ele>
        <time>2016-04-10T09:58:58.886Z</time>
      </trkpt>
      <trkpt lat="47.18803" lon="-1.7651">
        <ele>67.6</ele>
        <time>2016-04-10T09:59:07.977Z</time>
      </trkpt>
      <trkpt lat="47.18803" lon="-1.7651">
        <ele>67.6</ele>
        <time>2016-04-10T09:59:08.932Z</time>
      </trkpt>
      <trkpt lat="47.1881" lon="-1.76517">
        <ele>67.5</ele>
        <time>2016-04-10T10:01:09.957Z</time>
      </trkpt>
      <trkpt lat="47.1881" lon="-1.76517">
        <ele>67.6</ele>
        <time>2016-04-10T10:01:10.901Z</time>
      </trkpt>
      <trkpt lat="47.18803" lon="-1.76511">
        <ele>68.1</ele>
        <time>2016-04-10T10:01:24.016Z</time>
      </trkpt>
      <trkpt lat="47.18802" lon="-1.76511">
        <ele>68.1</ele>
        <time>2016-04-10T10:01:24.896Z</time>
      </trkpt>
      <trkpt lat="47.18795" lon="-1.76505">
        <ele>68</ele>
        <time>2016-04-10T10:01:29.156Z</time>
      </trkpt>
      <trkpt lat="47.18794" lon="-1.76504">
        <ele>68</ele>
        <time>2016-04-10T10:01:29.933Z</time>
      </trkpt>
      <trkpt lat="47.18787" lon="-1.76498">
        <ele>68.2</ele>
        <time>2016-04-10T10:01:35.114Z</time>
      </trkpt>
      <trkpt lat="47.18786" lon="-1.76497">
        <ele>68.3</ele>
        <time>2016-04-10T10:01:35.957Z</time>
      </trkpt>
      <trkpt lat="47.18779" lon="-1.76492">
        <ele>68.5</ele>
        <time>2016-04-10T10:01:42.006Z</time>
      </trkpt>
      <trkpt lat="47.18778" lon="-1.76491">
        <ele>68.5</ele>
        <time>2016-04-10T10:01:42.921Z</time>
      </trkpt>
      <trkpt lat="47.1877" lon="-1.76487">
        <ele>68.3</ele>
        <time>2016-04-10T10:01:47.977Z</time>
      </trkpt>
      <trkpt lat="47.18769" lon="-1.76486">
        <ele>68.2</ele>
        <time>2016-04-10T10:01:48.946Z</time>
      </trkpt>
      <trkpt lat="47.18762" lon="-1.76483">
        <ele>68</ele>
        <time>2016-04-10T10:01:54.056Z</time>
      </trkpt>
      <trkpt lat="47.1876" lon="-1.76482">
        <ele>68</ele>
        <time>2016-04-10T10:01:54.916Z</time>
      </trkpt>
      <trkpt lat="47.18753" lon="-1.76478">
        <ele>68.1</ele>
        <time>2016-04-10T10:02:00.922Z</time>
      </trkpt>
      <trkpt lat="47.18752" lon="-1.76477">
        <ele>68.1</ele>
        <time>2016-04-10T10:02:01.952Z</time>
      </trkpt>
      <trkpt lat="47.18744" lon="-1.76472">
        <ele>68.2</ele>
        <time>2016-04-10T10:02:09.935Z</time>
      </trkpt>
      <trkpt lat="47.18742" lon="-1.76471">
        <ele>68.2</ele>
        <time>2016-04-10T10:02:10.957Z</time>
      </trkpt>
      <trkpt lat="47.18735" lon="-1.76467">
        <ele>67.8</ele>
        <time>2016-04-10T10:02:16.020Z</time>
      </trkpt>
      <trkpt lat="47.18733" lon="-1.76466">
        <ele>67.8</ele>
        <time>2016-04-10T10:02:17.216Z</time>
      </trkpt>
      <trkpt lat="47.18726" lon="-1.76461">
        <ele>67.3</ele>
        <time>2016-04-10T10:02:22.999Z</time>
      </trkpt>
      <trkpt lat="47.18724" lon="-1.76461">
        <ele>67.3</ele>
        <time>2016-04-10T10:02:23.915Z</time>
      </trkpt>
      <trkpt lat="47.18716" lon="-1.76456">
        <ele>67.1</ele>
        <time>2016-04-10T10:02:29.959Z</time>
      </trkpt>
      <trkpt lat="47.18715" lon="-1.76455">
        <ele>67.2</ele>
        <time>2016-04-10T10:02:30.969Z</time>
      </trkpt>
      <trkpt lat="47.18708" lon="-1.7645">
        <ele>67.4</ele>
        <time>2016-04-10T10:02:36.961Z</time>
      </trkpt>
      <trkpt lat="47.18706" lon="-1.7645">
        <ele>67.4</ele>
        <time>2016-04-10T10:02:37.952Z</time>
      </trkpt>
      <trkpt lat="47.18697" lon="-1.76445">
        <ele>67.8</ele>
        <time>2016-04-10T10:02:44.990Z</time>
      </trkpt>
      <trkpt lat="47.18696" lon="-1.76444">
        <ele>67.8</ele>
        <time>2016-04-10T10:02:45.934Z</time>
      </trkpt>
      <trkpt lat="47.18689" lon="-1.76441">
        <ele>68</ele>
        <time>2016-04-10T10:02:50.982Z</time>
      </trkpt>
      <trkpt lat="47.18687" lon="-1.7644">
        <ele>68</ele>
        <time>2016-04-10T10:02:51.934Z</time>
      </trkpt>
      <trkpt lat="47.1868" lon="-1.76436">
        <ele>68.4</ele>
        <time>2016-04-10T10:02:57.009Z</time>
      </trkpt>
      <trkpt lat="47.18678" lon="-1.76436">
        <ele>68.5</ele>
        <time>2016-04-10T10:02:57.955Z</time>
      </trkpt>
      <trkpt lat="47.18671" lon="-1.76431">
        <ele>68.7</ele>
        <time>2016-04-10T10:03:01.989Z</time>
      </trkpt>
      <trkpt lat="47.18669" lon="-1.7643">
        <ele>68.7</ele>
        <time>2016-04-10T10:03:02.947Z</time>
      </trkpt>
      <trkpt lat="47.18662" lon="-1.76426">
        <ele>68.8</ele>
        <time>2016-04-10T10:03:07.941Z</time>
      </trkpt>
      <trkpt lat="47.1866" lon="-1.76425">
        <ele>68.8</ele>
        <time>2016-04-10T10:03:08.938Z</time>
      </trkpt>
      <trkpt lat="47.18652" lon="-1.76421">
        <ele>68.9</ele>
        <time>2016-04-10T10:03:14.025Z</time>
      </trkpt>
      <trkpt lat="47.18651" lon="-1.7642">
        <ele>68.9</ele>
        <time>2016-04-10T10:03:14.934Z</time>
      </trkpt>
      <trkpt lat="47.18643" lon="-1.76414">
        <ele>68.8</ele>
        <time>2016-04-10T10:03:20.974Z</time>
      </trkpt>
      <trkpt lat="47.18641" lon="-1.76414">
        <ele>68.7</ele>
        <time>2016-04-10T10:03:21.882Z</time>
      </trkpt>
      <trkpt lat="47.18633" lon="-1.7641">
        <ele>68.6</ele>
        <time>2016-04-10T10:03:26.986Z</time>
      </trkpt>
      <trkpt lat="47.18632" lon="-1.76409">
        <ele>68.6</ele>
        <time>2016-04-10T10:03:27.934Z</time>
      </trkpt>
      <trkpt lat="47.18625" lon="-1.76406">
        <ele>68.6</ele>
        <time>2016-04-10T10:03:34.017Z</time>
      </trkpt>
      <trkpt lat="47.18623" lon="-1.76405">
        <ele>68.6</ele>
        <time>2016-04-10T10:03:34.937Z</time>
      </trkpt>
      <trkpt lat="47.18615" lon="-1.76402">
        <ele>68.6</ele>
        <time>2016-04-10T10:03:40.228Z</time>
      </trkpt>
      <trkpt lat="47.18613" lon="-1.76401">
        <ele>68.5</ele>
        <time>2016-04-10T10:03:41.021Z</time>
      </trkpt>
      <trkpt lat="47.18606" lon="-1.76398">
        <ele>68.4</ele>
        <time>2016-04-10T10:03:46.104Z</time>
      </trkpt>
      <trkpt lat="47.18605" lon="-1.76398">
        <ele>68.3</ele>
        <time>2016-04-10T10:03:46.942Z</time>
      </trkpt>
      <trkpt lat="47.18597" lon="-1.76391">
        <ele>68.3</ele>
        <time>2016-04-10T10:03:54.076Z</time>
      </trkpt>
      <trkpt lat="47.18596" lon="-1.7639">
        <ele>68.3</ele>
        <time>2016-04-10T10:03:54.933Z</time>
      </trkpt>
      <trkpt lat="47.18597" lon="-1.76378">
        <ele>68.6</ele>
        <time>2016-04-10T10:04:07.980Z</time>
      </trkpt>
      <trkpt lat="47.18597" lon="-1.76377">
        <ele>68.6</ele>
        <time>2016-04-10T10:04:08.937Z</time>
      </trkpt>
      <trkpt lat="47.18602" lon="-1.76366">
        <ele>68.6</ele>
        <time>2016-04-10T10:04:17.149Z</time>
      </trkpt>
      <trkpt lat="47.18603" lon="-1.76364">
        <ele>68.6</ele>
        <time>2016-04-10T10:04:17.887Z</time>
      </trkpt>
      <trkpt lat="47.18607" lon="-1.76353">
        <ele>68.7</ele>
        <time>2016-04-10T10:04:24.015Z</time>
      </trkpt>
      <trkpt lat="47.18608" lon="-1.76352">
        <ele>68.8</ele>
        <time>2016-04-10T10:04:24.940Z</time>
      </trkpt>
      <trkpt lat="47.18613" lon="-1.76341">
        <ele>68.9</ele>
        <time>2016-04-10T10:04:33.090Z</time>
      </trkpt>
      <trkpt lat="47.18613" lon="-1.7634">
        <ele>69</ele>
        <time>2016-04-10T10:04:34.055Z</time>
      </trkpt>
      <trkpt lat="47.18618" lon="-1.7633">
        <ele>69</ele>
        <time>2016-04-10T10:04:40.069Z</time>
      </trkpt>
      <trkpt lat="47.18619" lon="-1.76329">
        <ele>69</ele>
        <time>2016-04-10T10:04:41.086Z</time>
      </trkpt>
      <trkpt lat="47.18623" lon="-1.76318">
        <ele>69.1</ele>
        <time>2016-04-10T10:04:45.947Z</time>
      </trkpt>
      <trkpt lat="47.18623" lon="-1.76317">
        <ele>69.1</ele>
        <time>2016-04-10T10:04:46.950Z</time>
      </trkpt>
      <trkpt lat="47.18627" lon="-1.76307">
        <ele>69.1</ele>
        <time>2016-04-10T10:04:53.050Z</time>
      </trkpt>
      <trkpt lat="47.18628" lon="-1.76305">
        <ele>69</ele>
        <time>2016-04-10T10:04:54.334Z</time>
      </trkpt>
      <trkpt lat="47.18632" lon="-1.76294">
        <ele>68.7</ele>
        <time>2016-04-10T10:05:00.426Z</time>
      </trkpt>
      <trkpt lat="47.18633" lon="-1.76293">
        <ele>68.6</ele>
        <time>2016-04-10T10:05:00.969Z</time>
      </trkpt>
      <trkpt lat="47.18638" lon="-1.76283">
        <ele>68.7</ele>
        <time>2016-04-10T10:05:09.006Z</time>
      </trkpt>
      <trkpt lat="47.18639" lon="-1.76281">
        <ele>68.7</ele>
        <time>2016-04-10T10:05:09.942Z</time>
      </trkpt>
      <trkpt lat="47.18644" lon="-1.7627">
        <ele>68.8</ele>
        <time>2016-04-10T10:05:16.974Z</time>
      </trkpt>
      <trkpt lat="47.18645" lon="-1.76268">
        <ele>68.8</ele>
        <time>2016-04-10T10:05:17.966Z</time>
      </trkpt>
      <trkpt lat="47.18649" lon="-1.76258">
        <ele>68.5</ele>
        <time>2016-04-10T10:05:24.014Z</time>
      </trkpt>
      <trkpt lat="47.1865" lon="-1.76256">
        <ele>68.5</ele>
        <time>2016-04-10T10:05:24.941Z</time>
      </trkpt>
      <trkpt lat="47.18654" lon="-1.76246">
        <ele>68.2</ele>
        <time>2016-04-10T10:05:29.976Z</time>
      </trkpt>
      <trkpt lat="47.18655" lon="-1.76244">
        <ele>68.1</ele>
        <time>2016-04-10T10:05:30.942Z</time>
      </trkpt>
      <trkpt lat="47.18658" lon="-1.76236">
        <ele>68.2</ele>
        <time>2016-04-10T10:05:38.037Z</time>
      </trkpt>
      <trkpt lat="47.1866" lon="-1.76232">
        <ele>68.2</ele>
        <time>2016-04-10T10:05:38.899Z</time>
      </trkpt>
      <trkpt lat="47.18663" lon="-1.76225">
        <ele>68.3</ele>
        <time>2016-04-10T10:05:42.006Z</time>
      </trkpt>
      <trkpt lat="47.18665" lon="-1.76222">
        <ele>68.3</ele>
        <time>2016-04-10T10:05:42.950Z</time>
      </trkpt>
      <trkpt lat="47.1867" lon="-1.76211">
        <ele>68.9</ele>
        <time>2016-04-10T10:05:49.187Z</time>
      </trkpt>
      <trkpt lat="47.1867" lon="-1.7621">
        <ele>69</ele>
        <time>2016-04-10T10:05:49.934Z</time>
      </trkpt>
      <trkpt lat="47.18674" lon="-1.76198">
        <ele>69.1</ele>
        <time>2016-04-10T10:05:57.061Z</time>
      </trkpt>
      <trkpt lat="47.18675" lon="-1.76196">
        <ele>69.1</ele>
        <time>2016-04-10T10:05:57.904Z</time>
      </trkpt>
      <trkpt lat="47.18678" lon="-1.76185">
        <ele>68.8</ele>
        <time>2016-04-10T10:06:04.275Z</time>
      </trkpt>
      <trkpt lat="47.18679" lon="-1.76183">
        <ele>68.8</ele>
        <time>2016-04-10T10:06:04.971Z</time>
      </trkpt>
      <trkpt lat="47.18683" lon="-1.76171">
        <ele>68.2</ele>
        <time>2016-04-10T10:06:11.071Z</time>
      </trkpt>
      <trkpt lat="47.18684" lon="-1.76169">
        <ele>68.2</ele>
        <time>2016-04-10T10:06:11.939Z</time>
      </trkpt>
      <trkpt lat="47.18688" lon="-1.76158">
        <ele>67.8</ele>
        <time>2016-04-10T10:06:17.103Z</time>
      </trkpt>
      <trkpt lat="47.18689" lon="-1.76156">
        <ele>67.8</ele>
        <time>2016-04-10T10:06:17.892Z</time>
      </trkpt>
      <trkpt lat="47.18693" lon="-1.76146">
        <ele>67.5</ele>
        <time>2016-04-10T10:06:23.228Z</time>
      </trkpt>
      <trkpt lat="47.18694" lon="-1.76144">
        <ele>67.5</ele>
        <time>2016-04-10T10:06:23.927Z</time>
      </trkpt>
      <trkpt lat="47.18698" lon="-1.76134">
        <ele>67.5</ele>
        <time>2016-04-10T10:06:29.034Z</time>
      </trkpt>
      <trkpt lat="47.18699" lon="-1.76132">
        <ele>67.5</ele>
        <time>2016-04-10T10:06:29.886Z</time>
      </trkpt>
      <trkpt lat="47.18703" lon="-1.76123">
        <ele>67.4</ele>
        <time>2016-04-10T10:06:35.025Z</time>
      </trkpt>
      <trkpt lat="47.18704" lon="-1.7612">
        <ele>67.4</ele>
        <time>2016-04-10T10:06:35.958Z</time>
      </trkpt>
      <trkpt lat="47.18708" lon="-1.76111">
        <ele>67.1</ele>
        <time>2016-04-10T10:06:41.064Z</time>
      </trkpt>
      <trkpt lat="47.18709" lon="-1.76109">
        <ele>67.1</ele>
        <time>2016-04-10T10:06:41.938Z</time>
      </trkpt>
      <trkpt lat="47.18713" lon="-1.76098">
        <ele>67.3</ele>
        <time>2016-04-10T10:06:46.992Z</time>
      </trkpt>
      <trkpt lat="47.18714" lon="-1.76097">
        <ele>67.4</ele>
        <time>2016-04-10T10:06:47.936Z</time>
      </trkpt>
      <trkpt lat="47.18719" lon="-1.76086">
        <ele>67.6</ele>
        <time>2016-04-10T10:06:53.986Z</time>
      </trkpt>
      <trkpt lat="47.18719" lon="-1.76085">
        <ele>67.6</ele>
        <time>2016-04-10T10:06:54.945Z</time>
      </trkpt>
      <trkpt lat="47.18724" lon="-1.76074">
        <ele>67.8</ele>
        <time>2016-04-10T10:07:02.015Z</time>
      </trkpt>
      <trkpt lat="47.18725" lon="-1.76073">
        <ele>67.8</ele>
        <time>2016-04-10T10:07:02.937Z</time>
      </trkpt>
      <trkpt lat="47.18729" lon="-1.76062">
        <ele>67.9</ele>
        <time>2016-04-10T10:07:08.980Z</time>
      </trkpt>
      <trkpt lat="47.1873" lon="-1.76061">
        <ele>67.9</ele>
        <time>2016-04-10T10:07:09.937Z</time>
      </trkpt>
      <trkpt lat="47.18734" lon="-1.76052">
        <ele>68.3</ele>
        <time>2016-04-10T10:07:14.950Z</time>
      </trkpt>
      <trkpt lat="47.18735" lon="-1.7605">
        <ele>68.4</ele>
        <time>2016-04-10T10:07:15.924Z</time>
      </trkpt>
      <trkpt lat="47.1874" lon="-1.7604">
        <ele>68.7</ele>
        <time>2016-04-10T10:07:21.927Z</time>
      </trkpt>
      <trkpt lat="47.18741" lon="-1.76038">
        <ele>68.8</ele>
        <time>2016-04-10T10:07:22.940Z</time>
      </trkpt>
      <trkpt lat="47.18745" lon="-1.76029">
        <ele>69.1</ele>
        <time>2016-04-10T10:07:28.942Z</time>
      </trkpt>
      <trkpt lat="47.18746" lon="-1.76027">
        <ele>69.2</ele>
        <time>2016-04-10T10:07:29.943Z</time>
      </trkpt>
      <trkpt lat="47.1875" lon="-1.76016">
        <ele>69.4</ele>
        <time>2016-04-10T10:07:35.969Z</time>
      </trkpt>
      <trkpt lat="47.1875" lon="-1.76015">
        <ele>69.4</ele>
        <time>2016-04-10T10:07:36.878Z</time>
      </trkpt>
      <trkpt lat="47.18755" lon="-1.76005">
        <ele>69.3</ele>
        <time>2016-04-10T10:07:44.074Z</time>
      </trkpt>
      <trkpt lat="47.18756" lon="-1.76003">
        <ele>69.2</ele>
        <time>2016-04-10T10:07:44.944Z</time>
      </trkpt>
      <trkpt lat="47.18761" lon="-1.75993">
        <ele>69.2</ele>
        <time>2016-04-10T10:07:48.984Z</time>
      </trkpt>
      <trkpt lat="47.18762" lon="-1.7599">
        <ele>69.2</ele>
        <time>2016-04-10T10:07:49.937Z</time>
      </trkpt>
      <trkpt lat="47.18766" lon="-1.7598">
        <ele>69.2</ele>
        <time>2016-04-10T10:07:55.192Z</time>
      </trkpt>
      <trkpt lat="47.18767" lon="-1.75979">
        <ele>69.2</ele>
        <time>2016-04-10T10:07:55.952Z</time>
      </trkpt>
      <trkpt lat="47.18771" lon="-1.75969">
        <ele>69.2</ele>
        <time>2016-04-10T10:08:03.033Z</time>
      </trkpt>
      <trkpt lat="47.18772" lon="-1.75967">
        <ele>69.1</ele>
        <time>2016-04-10T10:08:03.945Z</time>
      </trkpt>
      <trkpt lat="47.18776" lon="-1.75956">
        <ele>69.2</ele>
        <time>2016-04-10T10:08:09.948Z</time>
      </trkpt>
      <trkpt lat="47.18777" lon="-1.75954">
        <ele>69.1</ele>
        <time>2016-04-10T10:08:10.923Z</time>
      </trkpt>
      <trkpt lat="47.1878" lon="-1.75942">
        <ele>68.7</ele>
        <time>2016-04-10T10:08:19.041Z</time>
      </trkpt>
      <trkpt lat="47.18781" lon="-1.75941">
        <ele>68.6</ele>
        <time>2016-04-10T10:08:20.012Z</time>
      </trkpt>
      <trkpt lat="47.18784" lon="-1.75931">
        <ele>68</ele>
        <time>2016-04-10T10:08:26.985Z</time>
      </trkpt>
      <trkpt lat="47.18785" lon="-1.75929">
        <ele>68</ele>
        <time>2016-04-10T10:08:27.941Z</time>
      </trkpt>
      <trkpt lat="47.18789" lon="-1.75919">
        <ele>68.1</ele>
        <time>2016-04-10T10:08:35.017Z</time>
      </trkpt>
      <trkpt lat="47.18791" lon="-1.75917">
        <ele>68.2</ele>
        <time>2016-04-10T10:08:35.957Z</time>
      </trkpt>
      <trkpt lat="47.18796" lon="-1.75908">
        <ele>68.4</ele>
        <time>2016-04-10T10:08:41.043Z</time>
      </trkpt>
      <trkpt lat="47.18797" lon="-1.75906">
        <ele>68.4</ele>
        <time>2016-04-10T10:08:41.950Z</time>
      </trkpt>
      <trkpt lat="47.18802" lon="-1.75897">
        <ele>69.5</ele>
        <time>2016-04-10T10:08:50.034Z</time>
      </trkpt>
      <trkpt lat="47.18803" lon="-1.75895">
        <ele>69.6</ele>
        <time>2016-04-10T10:08:50.948Z</time>
      </trkpt>
      <trkpt lat="47.18807" lon="-1.75885">
        <ele>70</ele>
        <time>2016-04-10T10:08:57.040Z</time>
      </trkpt>
      <trkpt lat="47.18807" lon="-1.75883">
        <ele>70.1</ele>
        <time>2016-04-10T10:08:57.924Z</time>
      </trkpt>
      <trkpt lat="47.18809" lon="-1.75871">
        <ele>70.5</ele>
        <time>2016-04-10T10:09:04.038Z</time>
      </trkpt>
      <trkpt lat="47.18809" lon="-1.75869">
        <ele>70.6</ele>
        <time>2016-04-10T10:09:04.947Z</time>
      </trkpt>
      <trkpt lat="47.1881" lon="-1.75857">
        <ele>70.8</ele>
        <time>2016-04-10T10:09:11.035Z</time>
      </trkpt>
      <trkpt lat="47.1881" lon="-1.75855">
        <ele>70.8</ele>
        <time>2016-04-10T10:09:11.942Z</time>
      </trkpt>
      <trkpt lat="47.18812" lon="-1.75843">
        <ele>70.9</ele>
        <time>2016-04-10T10:09:17.020Z</time>
      </trkpt>
      <trkpt lat="47.18812" lon="-1.75841">
        <ele>70.9</ele>
        <time>2016-04-10T10:09:17.923Z</time>
      </trkpt>
      <trkpt lat="47.18812" lon="-1.75828">
        <ele>70.7</ele>
        <time>2016-04-10T10:09:24.014Z</time>
      </trkpt>
      <trkpt lat="47.18812" lon="-1.75826">
        <ele>70.7</ele>
        <time>2016-04-10T10:09:24.945Z</time>
      </trkpt>
      <trkpt lat="47.18813" lon="-1.75814">
        <ele>70.4</ele>
        <time>2016-04-10T10:09:31.040Z</time>
      </trkpt>
      <trkpt lat="47.18814" lon="-1.75812">
        <ele>70.4</ele>
        <time>2016-04-10T10:09:31.936Z</time>
      </trkpt>
      <trkpt lat="47.18816" lon="-1.758">
        <ele>70.2</ele>
        <time>2016-04-10T10:09:38.039Z</time>
      </trkpt>
      <trkpt lat="47.18816" lon="-1.75797">
        <ele>70.2</ele>
        <time>2016-04-10T10:09:38.892Z</time>
      </trkpt>
      <trkpt lat="47.18818" lon="-1.75785">
        <ele>70.5</ele>
        <time>2016-04-10T10:09:45.436Z</time>
      </trkpt>
      <trkpt lat="47.18818" lon="-1.75784">
        <ele>70.5</ele>
        <time>2016-04-10T10:09:45.894Z</time>
      </trkpt>
      <trkpt lat="47.18822" lon="-1.75774">
        <ele>70.6</ele>
        <time>2016-04-10T10:09:52.027Z</time>
      </trkpt>
      <trkpt lat="47.18822" lon="-1.75772">
        <ele>70.6</ele>
        <time>2016-04-10T10:09:52.937Z</time>
      </trkpt>
      <trkpt lat="47.18825" lon="-1.75762">
        <ele>70.7</ele>
        <time>2016-04-10T10:10:00.112Z</time>
      </trkpt>
      <trkpt lat="47.18826" lon="-1.75759">
        <ele>70.8</ele>
        <time>2016-04-10T10:10:00.876Z</time>
      </trkpt>
      <trkpt lat="47.1883" lon="-1.75748">
        <ele>71.2</ele>
        <time>2016-04-10T10:10:07.999Z</time>
      </trkpt>
      <trkpt lat="47.1883" lon="-1.75746">
        <ele>71.3</ele>
        <time>2016-04-10T10:10:09.065Z</time>
      </trkpt>
      <trkpt lat="47.18833" lon="-1.75735">
        <ele>71.5</ele>
        <time>2016-04-10T10:10:14.940Z</time>
      </trkpt>
      <trkpt lat="47.18833" lon="-1.75734">
        <ele>71.5</ele>
        <time>2016-04-10T10:10:15.893Z</time>
      </trkpt>
      <trkpt lat="47.18835" lon="-1.75723">
        <ele>71.9</ele>
        <time>2016-04-10T10:10:21.962Z</time>
      </trkpt>
      <trkpt lat="47.18836" lon="-1.7572">
        <ele>72</ele>
        <time>2016-04-10T10:10:22.946Z</time>
      </trkpt>
      <trkpt lat="47.18838" lon="-1.7571">
        <ele>72.3</ele>
        <time>2016-04-10T10:10:26.032Z</time>
      </trkpt>
      <trkpt lat="47.18839" lon="-1.75707">
        <ele>72.4</ele>
        <time>2016-04-10T10:10:26.940Z</time>
      </trkpt>
      <trkpt lat="47.1884" lon="-1.75695">
        <ele>72.6</ele>
        <time>2016-04-10T10:10:33.076Z</time>
      </trkpt>
      <trkpt lat="47.1884" lon="-1.75693">
        <ele>72.6</ele>
        <time>2016-04-10T10:10:33.947Z</time>
      </trkpt>
      <trkpt lat="47.18841" lon="-1.75681">
        <ele>72.3</ele>
        <time>2016-04-10T10:10:41.034Z</time>
      </trkpt>
      <trkpt lat="47.18841" lon="-1.75679">
        <ele>72.3</ele>
        <time>2016-04-10T10:10:41.933Z</time>
      </trkpt>
      <trkpt lat="47.18842" lon="-1.75668">
        <ele>72.2</ele>
        <time>2016-04-10T10:10:48.013Z</time>
      </trkpt>
      <trkpt lat="47.18843" lon="-1.75666">
        <ele>72.2</ele>
        <time>2016-04-10T10:10:48.944Z</time>
      </trkpt>
      <trkpt lat="47.18844" lon="-1.75654">
        <ele>72.5</ele>
        <time>2016-04-10T10:10:57.030Z</time>
      </trkpt>
      <trkpt lat="47.18844" lon="-1.75653">
        <ele>72.5</ele>
        <time>2016-04-10T10:10:57.910Z</time>
      </trkpt>
      <trkpt lat="47.18844" lon="-1.7564">
        <ele>73</ele>
        <time>2016-04-10T10:11:07.995Z</time>
      </trkpt>
      <trkpt lat="47.18845" lon="-1.75637">
        <ele>73</ele>
        <time>2016-04-10T10:11:08.947Z</time>
      </trkpt>
      <trkpt lat="47.18847" lon="-1.75625">
        <ele>73.2</ele>
        <time>2016-04-10T10:11:13.041Z</time>
      </trkpt>
      <trkpt lat="47.18847" lon="-1.75621">
        <ele>73.2</ele>
        <time>2016-04-10T10:11:14.124Z</time>
      </trkpt>
      <trkpt lat="47.1885" lon="-1.75608">
        <ele>73.7</ele>
        <time>2016-04-10T10:11:20.964Z</time>
      </trkpt>
      <trkpt lat="47.1885" lon="-1.75607">
        <ele>73.8</ele>
        <time>2016-04-10T10:11:21.911Z</time>
      </trkpt>
      <trkpt lat="47.18852" lon="-1.75595">
        <ele>73.9</ele>
        <time>2016-04-10T10:11:26.988Z</time>
      </trkpt>
      <trkpt lat="47.18853" lon="-1.75593">
        <ele>73.9</ele>
        <time>2016-04-10T10:11:27.943Z</time>
      </trkpt>
      <trkpt lat="47.18854" lon="-1.75582">
        <ele>74</ele>
        <time>2016-04-10T10:11:32.069Z</time>
      </trkpt>
      <trkpt lat="47.18855" lon="-1.75579">
        <ele>74.1</ele>
        <time>2016-04-10T10:11:32.972Z</time>
      </trkpt>
      <trkpt lat="47.18856" lon="-1.75568">
        <ele>74.3</ele>
        <time>2016-04-10T10:11:39.032Z</time>
      </trkpt>
      <trkpt lat="47.18857" lon="-1.75566">
        <ele>74.3</ele>
        <time>2016-04-10T10:11:39.943Z</time>
      </trkpt>
      <trkpt lat="47.1886" lon="-1.75554">
        <ele>74.6</ele>
        <time>2016-04-10T10:11:46.925Z</time>
      </trkpt>
      <trkpt lat="47.1886" lon="-1.75554">
        <ele>74.6</ele>
        <time>2016-04-10T10:11:47.947Z</time>
      </trkpt>
      <trkpt lat="47.18855" lon="-1.75543">
        <ele>75</ele>
        <time>2016-04-10T10:12:00.196Z</time>
      </trkpt>
      <trkpt lat="47.18856" lon="-1.75541">
        <ele>75</ele>
        <time>2016-04-10T10:12:00.904Z</time>
      </trkpt>
      <trkpt lat="47.18859" lon="-1.75529">
        <ele>75.4</ele>
        <time>2016-04-10T10:12:08.035Z</time>
      </trkpt>
      <trkpt lat="47.1886" lon="-1.75527">
        <ele>75.4</ele>
        <time>2016-04-10T10:12:08.949Z</time>
      </trkpt>
      <trkpt lat="47.1886" lon="-1.75516">
        <ele>75.6</ele>
        <time>2016-04-10T10:12:11.931Z</time>
      </trkpt>
      <trkpt lat="47.18861" lon="-1.75512">
        <ele>75.7</ele>
        <time>2016-04-10T10:12:12.943Z</time>
      </trkpt>
      <trkpt lat="47.18864" lon="-1.755">
        <ele>75.8</ele>
        <time>2016-04-10T10:12:17.990Z</time>
      </trkpt>
      <trkpt lat="47.18864" lon="-1.75498">
        <ele>75.8</ele>
        <time>2016-04-10T10:12:18.914Z</time>
      </trkpt>
      <trkpt lat="47.18866" lon="-1.75485">
        <ele>75.8</ele>
        <time>2016-04-10T10:12:26.924Z</time>
      </trkpt>
      <trkpt lat="47.18866" lon="-1.75484">
        <ele>75.9</ele>
        <time>2016-04-10T10:12:27.927Z</time>
      </trkpt>
      <trkpt lat="47.18867" lon="-1.75473">
        <ele>76.4</ele>
        <time>2016-04-10T10:12:35.127Z</time>
      </trkpt>
      <trkpt lat="47.18867" lon="-1.75469">
        <ele>76.5</ele>
        <time>2016-04-10T10:12:35.958Z</time>
      </trkpt>
      <trkpt lat="47.18868" lon="-1.75456">
        <ele>76.8</ele>
        <time>2016-04-10T10:12:41.040Z</time>
      </trkpt>
      <trkpt lat="47.18868" lon="-1.75455">
        <ele>76.9</ele>
        <time>2016-04-10T10:12:41.894Z</time>
      </trkpt>
      <trkpt lat="47.18868" lon="-1.75442">
        <ele>77.3</ele>
        <time>2016-04-10T10:12:49.004Z</time>
      </trkpt>
      <trkpt lat="47.18869" lon="-1.7544">
        <ele>77.4</ele>
        <time>2016-04-10T10:12:49.944Z</time>
      </trkpt>
      <trkpt lat="47.1887" lon="-1.75428">
        <ele>77.9</ele>
        <time>2016-04-10T10:12:55.998Z</time>
      </trkpt>
      <trkpt lat="47.1887" lon="-1.75426">
        <ele>78</ele>
        <time>2016-04-10T10:12:56.951Z</time>
      </trkpt>
      <trkpt lat="47.1887" lon="-1.75413">
        <ele>78.7</ele>
        <time>2016-04-10T10:13:05.970Z</time>
      </trkpt>
      <trkpt lat="47.1887" lon="-1.75412">
        <ele>78.7</ele>
        <time>2016-04-10T10:13:06.934Z</time>
      </trkpt>
      <trkpt lat="47.1887" lon="-1.75401">
        <ele>76.3</ele>
        <time>2016-04-10T10:13:56.033Z</time>
      </trkpt>
      <trkpt lat="47.18871" lon="-1.75399">
        <ele>76.3</ele>
        <time>2016-04-10T10:13:56.951Z</time>
      </trkpt>
      <trkpt lat="47.18873" lon="-1.75387">
        <ele>75.9</ele>
        <time>2016-04-10T10:14:09.078Z</time>
      </trkpt>
      <trkpt lat="47.18873" lon="-1.75385">
        <ele>75.8</ele>
        <time>2016-04-10T10:14:09.890Z</time>
      </trkpt>
      <trkpt lat="47.18872" lon="-1.75372">
        <ele>75.1</ele>
        <time>2016-04-10T10:14:18.159Z</time>
      </trkpt>
      <trkpt lat="47.18872" lon="-1.7537">
        <ele>75</ele>
        <time>2016-04-10T10:14:18.985Z</time>
      </trkpt>
      <trkpt lat="47.18872" lon="-1.75358">
        <ele>75.1</ele>
        <time>2016-04-10T10:14:25.945Z</time>
      </trkpt>
      <trkpt lat="47.18871" lon="-1.75357">
        <ele>75.2</ele>
        <time>2016-04-10T10:14:26.920Z</time>
      </trkpt>
      <trkpt lat="47.1887" lon="-1.75344">
        <ele>75.4</ele>
        <time>2016-04-10T10:14:34.060Z</time>
      </trkpt>
      <trkpt lat="47.1887" lon="-1.75342">
        <ele>75.4</ele>
        <time>2016-04-10T10:14:34.872Z</time>
      </trkpt>
      <trkpt lat="47.18871" lon="-1.75331">
        <ele>75.6</ele>
        <time>2016-04-10T10:14:41.004Z</time>
      </trkpt>
      <trkpt lat="47.18872" lon="-1.75327">
        <ele>75.7</ele>
        <time>2016-04-10T10:14:41.941Z</time>
      </trkpt>
      <trkpt lat="47.18873" lon="-1.75316">
        <ele>75.9</ele>
        <time>2016-04-10T10:14:47.095Z</time>
      </trkpt>
      <trkpt lat="47.18874" lon="-1.75314">
        <ele>75.9</ele>
        <time>2016-04-10T10:14:47.944Z</time>
      </trkpt>
      <trkpt lat="47.18875" lon="-1.75302">
        <ele>75.9</ele>
        <time>2016-04-10T10:14:53.027Z</time>
      </trkpt>
      <trkpt lat="47.18875" lon="-1.75299">
        <ele>75.9</ele>
        <time>2016-04-10T10:14:53.943Z</time>
      </trkpt>
      <trkpt lat="47.18874" lon="-1.75286">
        <ele>75.8</ele>
        <time>2016-04-10T10:14:59.018Z</time>
      </trkpt>
      <trkpt lat="47.18874" lon="-1.75284">
        <ele>75.8</ele>
        <time>2016-04-10T10:14:59.945Z</time>
      </trkpt>
      <trkpt lat="47.18874" lon="-1.75273">
        <ele>75.6</ele>
        <time>2016-04-10T10:15:06.005Z</time>
      </trkpt>
      <trkpt lat="47.18874" lon="-1.75271">
        <ele>75.6</ele>
        <time>2016-04-10T10:15:07.066Z</time>
      </trkpt>
      <trkpt lat="47.18875" lon="-1.75259">
        <ele>75.4</ele>
        <time>2016-04-10T10:15:13.066Z</time>
      </trkpt>
      <trkpt lat="47.18875" lon="-1.75256">
        <ele>75.4</ele>
        <time>2016-04-10T10:15:13.907Z</time>
      </trkpt>
      <trkpt lat="47.18874" lon="-1.75243">
        <ele>75.2</ele>
        <time>2016-04-10T10:15:20.016Z</time>
      </trkpt>
      <trkpt lat="47.18874" lon="-1.75241">
        <ele>75.2</ele>
        <time>2016-04-10T10:15:20.875Z</time>
      </trkpt>
      <trkpt lat="47.18875" lon="-1.75228">
        <ele>75.2</ele>
        <time>2016-04-10T10:15:27.918Z</time>
      </trkpt>
      <trkpt lat="47.18875" lon="-1.75227">
        <ele>75.1</ele>
        <time>2016-04-10T10:15:28.881Z</time>
      </trkpt>
      <trkpt lat="47.18874" lon="-1.75214">
        <ele>75.1</ele>
        <time>2016-04-10T10:15:36.563Z</time>
      </trkpt>
      <trkpt lat="47.18874" lon="-1.75212">
        <ele>75.1</ele>
        <time>2016-04-10T10:15:37.893Z</time>
      </trkpt>
      <trkpt lat="47.18875" lon="-1.752">
        <ele>75</ele>
        <time>2016-04-10T10:15:43.216Z</time>
      </trkpt>
      <trkpt lat="47.18875" lon="-1.75197">
        <ele>75</ele>
        <time>2016-04-10T10:15:44.076Z</time>
      </trkpt>
      <trkpt lat="47.18875" lon="-1.75185">
        <ele>74.5</ele>
        <time>2016-04-10T10:15:51.887Z</time>
      </trkpt>
      <trkpt lat="47.18875" lon="-1.75183">
        <ele>74.4</ele>
        <time>2016-04-10T10:15:52.107Z</time>
      </trkpt>
      <trkpt lat="47.18876" lon="-1.75172">
        <ele>74</ele>
        <time>2016-04-10T10:15:57.749Z</time>
      </trkpt>
      <trkpt lat="47.18876" lon="-1.7517">
        <ele>74</ele>
        <time>2016-04-10T10:15:58.027Z</time>
      </trkpt>
      <trkpt lat="47.18875" lon="-1.75157">
        <ele>73.8</ele>
        <time>2016-04-10T10:16:04.023Z</time>
      </trkpt>
      <trkpt lat="47.18875" lon="-1.75155">
        <ele>73.9</ele>
        <time>2016-04-10T10:16:04.885Z</time>
      </trkpt>
      <trkpt lat="47.18874" lon="-1.75143">
        <ele>74.4</ele>
        <time>2016-04-10T10:16:13.077Z</time>
      </trkpt>
      <trkpt lat="47.18874" lon="-1.75142">
        <ele>74.4</ele>
        <time>2016-04-10T10:16:13.900Z</time>
      </trkpt>
      <trkpt lat="47.18874" lon="-1.75129">
        <ele>74.1</ele>
        <time>2016-04-10T10:16:21.059Z</time>
      </trkpt>
      <trkpt lat="47.18874" lon="-1.75127">
        <ele>74.1</ele>
        <time>2016-04-10T10:16:22.799Z</time>
      </trkpt>
      <trkpt lat="47.18875" lon="-1.75116">
        <ele>74.2</ele>
        <time>2016-04-10T10:16:28.092Z</time>
      </trkpt>
      <trkpt lat="47.18875" lon="-1.75113">
        <ele>74.3</ele>
        <time>2016-04-10T10:16:28.966Z</time>
      </trkpt>
      <trkpt lat="47.18875" lon="-1.75101">
        <ele>74.9</ele>
        <time>2016-04-10T10:16:34.962Z</time>
      </trkpt>
      <trkpt lat="47.18875" lon="-1.75099">
        <ele>74.9</ele>
        <time>2016-04-10T10:16:35.973Z</time>
      </trkpt>
      <trkpt lat="47.18875" lon="-1.75087">
        <ele>75</ele>
        <time>2016-04-10T10:16:42.122Z</time>
      </trkpt>
      <trkpt lat="47.18875" lon="-1.75085">
        <ele>75</ele>
        <time>2016-04-10T10:16:43.011Z</time>
      </trkpt>
      <trkpt lat="47.18876" lon="-1.75073">
        <ele>75.5</ele>
        <time>2016-04-10T10:16:49.068Z</time>
      </trkpt>
      <trkpt lat="47.18876" lon="-1.75071">
        <ele>75.6</ele>
        <time>2016-04-10T10:16:49.962Z</time>
      </trkpt>
      <trkpt lat="47.18875" lon="-1.75059">
        <ele>76.5</ele>
        <time>2016-04-10T10:16:58.109Z</time>
      </trkpt>
      <trkpt lat="47.18875" lon="-1.75058">
        <ele>76.6</ele>
        <time>2016-04-10T10:16:58.929Z</time>
      </trkpt>
      <trkpt lat="47.18877" lon="-1.75046">
        <ele>76.9</ele>
        <time>2016-04-10T10:17:05.052Z</time>
      </trkpt>
      <trkpt lat="47.18877" lon="-1.75044">
        <ele>76.9</ele>
        <time>2016-04-10T10:17:05.903Z</time>
      </trkpt>
      <trkpt lat="47.18877" lon="-1.75032">
        <ele>77.1</ele>
        <time>2016-04-10T10:17:12.206Z</time>
      </trkpt>
      <trkpt lat="47.18877" lon="-1.7503">
        <ele>77.2</ele>
        <time>2016-04-10T10:17:12.903Z</time>
      </trkpt>
      <trkpt lat="47.18876" lon="-1.75018">
        <ele>77.1</ele>
        <time>2016-04-10T10:17:19.069Z</time>
      </trkpt>
      <trkpt lat="47.18875" lon="-1.75017">
        <ele>77.1</ele>
        <time>2016-04-10T10:17:20.045Z</time>
      </trkpt>
      <trkpt lat="47.18873" lon="-1.75005">
        <ele>77.2</ele>
        <time>2016-04-10T10:17:26.079Z</time>
      </trkpt>
      <trkpt lat="47.18873" lon="-1.75004">
        <ele>77.2</ele>
        <time>2016-04-10T10:17:26.950Z</time>
      </trkpt>
      <trkpt lat="47.18872" lon="-1.74992">
        <ele>77.1</ele>
        <time>2016-04-10T10:17:35.017Z</time>
      </trkpt>
      <trkpt lat="47.18872" lon="-1.7499">
        <ele>77.1</ele>
        <time>2016-04-10T10:17:35.973Z</time>
      </trkpt>
      <trkpt lat="47.18873" lon="-1.74978">
        <ele>76.7</ele>
        <time>2016-04-10T10:17:41.019Z</time>
      </trkpt>
      <trkpt lat="47.18873" lon="-1.74976">
        <ele>76.7</ele>
        <time>2016-04-10T10:17:41.961Z</time>
      </trkpt>
      <trkpt lat="47.18873" lon="-1.74963">
        <ele>76.2</ele>
        <time>2016-04-10T10:17:47.928Z</time>
      </trkpt>
      <trkpt lat="47.18873" lon="-1.7496">
        <ele>76.2</ele>
        <time>2016-04-10T10:17:48.958Z</time>
      </trkpt>
      <trkpt lat="47.18872" lon="-1.74947">
        <ele>76.3</ele>
        <time>2016-04-10T10:17:56.992Z</time>
      </trkpt>
      <trkpt lat="47.18872" lon="-1.74946">
        <ele>76.3</ele>
        <time>2016-04-10T10:17:57.955Z</time>
      </trkpt>
      <trkpt lat="47.18871" lon="-1.74933">
        <ele>76.6</ele>
        <time>2016-04-10T10:18:06.998Z</time>
      </trkpt>
      <trkpt lat="47.18871" lon="-1.74932">
        <ele>76.6</ele>
        <time>2016-04-10T10:18:07.968Z</time>
      </trkpt>
      <trkpt lat="47.18869" lon="-1.74922">
        <ele>76.7</ele>
        <time>2016-04-10T10:18:15.014Z</time>
      </trkpt>
      <trkpt lat="47.18869" lon="-1.74918">
        <ele>76.7</ele>
        <time>2016-04-10T10:18:15.949Z</time>
      </trkpt>
      <trkpt lat="47.1887" lon="-1.74905">
        <ele>76.9</ele>
        <time>2016-04-10T10:18:24.061Z</time>
      </trkpt>
      <trkpt lat="47.1887" lon="-1.74902">
        <ele>76.9</ele>
        <time>2016-04-10T10:18:25.203Z</time>
      </trkpt>
      <trkpt lat="47.18871" lon="-1.74891">
        <ele>76.7</ele>
        <time>2016-04-10T10:18:30.043Z</time>
      </trkpt>
      <trkpt lat="47.18872" lon="-1.74889">
        <ele>76.7</ele>
        <time>2016-04-10T10:18:30.967Z</time>
      </trkpt>
      <trkpt lat="47.18878" lon="-1.74883">
        <ele>76.6</ele>
        <time>2016-04-10T10:18:34.970Z</time>
      </trkpt>
      <trkpt lat="47.1888" lon="-1.74882">
        <ele>76.6</ele>
        <time>2016-04-10T10:18:35.977Z</time>
      </trkpt>
      <trkpt lat="47.18888" lon="-1.74881">
        <ele>76.1</ele>
        <time>2016-04-10T10:18:43.019Z</time>
      </trkpt>
      <trkpt lat="47.18889" lon="-1.7488">
        <ele>75.9</ele>
        <time>2016-04-10T10:18:43.973Z</time>
      </trkpt>
      <trkpt lat="47.18897" lon="-1.74879">
        <ele>74.9</ele>
        <time>2016-04-10T10:18:50.053Z</time>
      </trkpt>
      <trkpt lat="47.18899" lon="-1.74879">
        <ele>74.7</ele>
        <time>2016-04-10T10:18:50.931Z</time>
      </trkpt>
      <trkpt lat="47.18907" lon="-1.74877">
        <ele>74.2</ele>
        <time>2016-04-10T10:18:57.036Z</time>
      </trkpt>
      <trkpt lat="47.18908" lon="-1.74876">
        <ele>74.1</ele>
        <time>2016-04-10T10:18:57.982Z</time>
      </trkpt>
      <trkpt lat="47.18916" lon="-1.74873">
        <ele>73.8</ele>
        <time>2016-04-10T10:19:04.049Z</time>
      </trkpt>
      <trkpt lat="47.18918" lon="-1.74873">
        <ele>73.7</ele>
        <time>2016-04-10T10:19:04.904Z</time>
      </trkpt>
      <trkpt lat="47.18925" lon="-1.74871">
        <ele>73.6</ele>
        <time>2016-04-10T10:19:10.953Z</time>
      </trkpt>
      <trkpt lat="47.18927" lon="-1.7487">
        <ele>73.6</ele>
        <time>2016-04-10T10:19:11.941Z</time>
      </trkpt>
      <trkpt lat="47.18935" lon="-1.74868">
        <ele>73</ele>
        <time>2016-04-10T10:19:19.024Z</time>
      </trkpt>
      <trkpt lat="47.18936" lon="-1.74868">
        <ele>72.9</ele>
        <time>2016-04-10T10:19:20.036Z</time>
      </trkpt>
      <trkpt lat="47.18945" lon="-1.74864">
        <ele>72.4</ele>
        <time>2016-04-10T10:19:26.919Z</time>
      </trkpt>
      <trkpt lat="47.18946" lon="-1.74863">
        <ele>72.3</ele>
        <time>2016-04-10T10:19:27.930Z</time>
      </trkpt>
      <trkpt lat="47.18954" lon="-1.74861">
        <ele>71.9</ele>
        <time>2016-04-10T10:19:32.939Z</time>
      </trkpt>
      <trkpt lat="47.18955" lon="-1.74861">
        <ele>71.8</ele>
        <time>2016-04-10T10:19:33.958Z</time>
      </trkpt>
      <trkpt lat="47.18963" lon="-1.74857">
        <ele>71.4</ele>
        <time>2016-04-10T10:19:41.074Z</time>
      </trkpt>
      <trkpt lat="47.18965" lon="-1.74856">
        <ele>71.4</ele>
        <time>2016-04-10T10:19:41.939Z</time>
      </trkpt>
      <trkpt lat="47.18973" lon="-1.74854">
        <ele>71.5</ele>
        <time>2016-04-10T10:19:49.059Z</time>
      </trkpt>
      <trkpt lat="47.18974" lon="-1.74854">
        <ele>71.5</ele>
        <time>2016-04-10T10:19:49.949Z</time>
      </trkpt>
      <trkpt lat="47.18981" lon="-1.74852">
        <ele>71.7</ele>
        <time>2016-04-10T10:19:54.998Z</time>
      </trkpt>
      <trkpt lat="47.18983" lon="-1.74851">
        <ele>71.7</ele>
        <time>2016-04-10T10:19:56.128Z</time>
      </trkpt>
      <trkpt lat="47.18991" lon="-1.74848">
        <ele>71.3</ele>
        <time>2016-04-10T10:20:01.946Z</time>
      </trkpt>
      <trkpt lat="47.18993" lon="-1.74848">
        <ele>71.2</ele>
        <time>2016-04-10T10:20:02.946Z</time>
      </trkpt>
      <trkpt lat="47.19002" lon="-1.74846">
        <ele>70.8</ele>
        <time>2016-04-10T10:20:10.043Z</time>
      </trkpt>
      <trkpt lat="47.19003" lon="-1.74846">
        <ele>70.8</ele>
        <time>2016-04-10T10:20:10.953Z</time>
      </trkpt>
      <trkpt lat="47.19012" lon="-1.74846">
        <ele>70.5</ele>
        <time>2016-04-10T10:20:18.113Z</time>
      </trkpt>
      <trkpt lat="47.19013" lon="-1.74846">
        <ele>70.5</ele>
        <time>2016-04-10T10:20:18.976Z</time>
      </trkpt>
      <trkpt lat="47.19021" lon="-1.74845">
        <ele>70.1</ele>
        <time>2016-04-10T10:20:26.002Z</time>
      </trkpt>
      <trkpt lat="47.19023" lon="-1.74844">
        <ele>70</ele>
        <time>2016-04-10T10:20:26.963Z</time>
      </trkpt>
      <trkpt lat="47.1903" lon="-1.7484">
        <ele>69.4</ele>
        <time>2016-04-10T10:20:33.024Z</time>
      </trkpt>
      <trkpt lat="47.19031" lon="-1.74839">
        <ele>69.3</ele>
        <time>2016-04-10T10:20:34.026Z</time>
      </trkpt>
      <trkpt lat="47.19038" lon="-1.74832">
        <ele>68.9</ele>
        <time>2016-04-10T10:20:41.122Z</time>
      </trkpt>
      <trkpt lat="47.19039" lon="-1.7483">
        <ele>68.9</ele>
        <time>2016-04-10T10:20:41.897Z</time>
      </trkpt>
      <trkpt lat="47.19043" lon="-1.74819">
        <ele>68.9</ele>
        <time>2016-04-10T10:20:47.996Z</time>
      </trkpt>
      <trkpt lat="47.19043" lon="-1.74818">
        <ele>68.9</ele>
        <time>2016-04-10T10:20:48.958Z</time>
      </trkpt>
      <trkpt lat="47.19047" lon="-1.74808">
        <ele>69.4</ele>
        <time>2016-04-10T10:20:55.029Z</time>
      </trkpt>
      <trkpt lat="47.19047" lon="-1.74806">
        <ele>69.5</ele>
        <time>2016-04-10T10:20:55.974Z</time>
      </trkpt>
      <trkpt lat="47.1905" lon="-1.74795">
        <ele>70</ele>
        <time>2016-04-10T10:21:02.993Z</time>
      </trkpt>
      <trkpt lat="47.1905" lon="-1.74793">
        <ele>70.1</ele>
        <time>2016-04-10T10:21:03.895Z</time>
      </trkpt>
      <trkpt lat="47.19046" lon="-1.74782">
        <ele>70.1</ele>
        <time>2016-04-10T10:21:12.951Z</time>
      </trkpt>
      <trkpt lat="47.19044" lon="-1.74781">
        <ele>70.1</ele>
        <time>2016-04-10T10:21:13.974Z</time>
      </trkpt>
      <trkpt lat="47.19036" lon="-1.74782">
        <ele>70.1</ele>
        <time>2016-04-10T10:21:20.970Z</time>
      </trkpt>
      <trkpt lat="47.19035" lon="-1.74782">
        <ele>70.2</ele>
        <time>2016-04-10T10:21:21.960Z</time>
      </trkpt>
      <trkpt lat="47.19027" lon="-1.74785">
        <ele>70.7</ele>
        <time>2016-04-10T10:21:48.955Z</time>
      </trkpt>
      <trkpt lat="47.19026" lon="-1.74784">
        <ele>70.8</ele>
        <time>2016-04-10T10:21:49.894Z</time>
      </trkpt>
      <trkpt lat="47.19024" lon="-1.74771">
        <ele>70.9</ele>
        <time>2016-04-10T10:22:04.140Z</time>
      </trkpt>
      <trkpt lat="47.19026" lon="-1.7477">
        <ele>70.9</ele>
        <time>2016-04-10T10:22:04.970Z</time>
      </trkpt>
      <trkpt lat="47.19034" lon="-1.74768">
        <ele>70.8</ele>
        <time>2016-04-10T10:22:15.086Z</time>
      </trkpt>
      <trkpt lat="47.19035" lon="-1.74768">
        <ele>70.8</ele>
        <time>2016-04-10T10:22:15.923Z</time>
      </trkpt>
      <trkpt lat="47.19029" lon="-1.74758">
        <ele>71.7</ele>
        <time>2016-04-10T10:23:32.016Z</time>
      </trkpt>
      <trkpt lat="47.19029" lon="-1.74758">
        <ele>71.7</ele>
        <time>2016-04-10T10:23:32.902Z</time>
      </trkpt>
      <trkpt lat="47.19037" lon="-1.74759">
        <ele>70.6</ele>
        <time>2016-04-10T10:25:06.076Z</time>
      </trkpt>
      <trkpt lat="47.19038" lon="-1.74759">
        <ele>70.6</ele>
        <time>2016-04-10T10:25:06.950Z</time>
      </trkpt>
      <trkpt lat="47.19035" lon="-1.74771">
        <ele>69.5</ele>
        <time>2016-04-10T10:26:21.063Z</time>
      </trkpt>
      <trkpt lat="47.19035" lon="-1.74773">
        <ele>69.5</ele>
        <time>2016-04-10T10:26:21.907Z</time>
      </trkpt>
      <trkpt lat="47.1904" lon="-1.74762">
        <ele>63.9</ele>
        <time>2016-04-10T10:30:29.984Z</time>
      </trkpt>
      <trkpt lat="47.1904" lon="-1.74761">
        <ele>63.9</ele>
        <time>2016-04-10T10:30:30.893Z</time>
      </trkpt>
      <trkpt lat="47.19034" lon="-1.7477">
        <ele>62.5</ele>
        <time>2016-04-10T10:31:08.993Z</time>
      </trkpt>
      <trkpt lat="47.19034" lon="-1.74771">
        <ele>62.5</ele>
        <time>2016-04-10T10:31:09.910Z</time>
      </trkpt>
      <trkpt lat="47.19043" lon="-1.7477">
        <ele>61.2</ele>
        <time>2016-04-10T10:37:08.957Z</time>
      </trkpt>
      <trkpt lat="47.19043" lon="-1.7477">
        <ele>61.2</ele>
        <time>2016-04-10T10:37:09.917Z</time>
      </trkpt>
      <trkpt lat="47.19036" lon="-1.74762">
        <ele>62</ele>
        <time>2016-04-10T10:38:28.125Z</time>
      </trkpt>
      <trkpt lat="47.19035" lon="-1.74762">
        <ele>62</ele>
        <time>2016-04-10T10:38:28.928Z</time>
      </trkpt>
      <trkpt lat="47.19036" lon="-1.7475">
        <ele>61.7</ele>
        <time>2016-04-10T10:40:31.012Z</time>
      </trkpt>
      <trkpt lat="47.19036" lon="-1.74749">
        <ele>61.7</ele>
        <time>2016-04-10T10:40:32.025Z</time>
      </trkpt>
      <trkpt lat="47.19041" lon="-1.7476">
        <ele>62.1</ele>
        <time>2016-04-10T10:40:53.204Z</time>
      </trkpt>
      <trkpt lat="47.19041" lon="-1.7476">
        <ele>62.1</ele>
        <time>2016-04-10T10:40:53.889Z</time>
      </trkpt>
      <trkpt lat="47.19046" lon="-1.74771">
        <ele>63.3</ele>
        <time>2016-04-10T10:42:04.999Z</time>
      </trkpt>
      <trkpt lat="47.19046" lon="-1.74771">
        <ele>63.3</ele>
        <time>2016-04-10T10:42:05.883Z</time>
      </trkpt>
      <trkpt lat="47.19038" lon="-1.74765">
        <ele>64</ele>
        <time>2016-04-10T10:44:27.061Z</time>
      </trkpt>
      <trkpt lat="47.19038" lon="-1.74765">
        <ele>64</ele>
        <time>2016-04-10T10:44:27.872Z</time>
      </trkpt>
      <trkpt lat="47.19033" lon="-1.74756">
        <ele>67.6</ele>
        <time>2016-04-10T11:08:46.887Z</time>
      </trkpt>
      <trkpt lat="47.1903" lon="-1.74756">
        <ele>67.9</ele>
        <time>2016-04-10T11:08:47.865Z</time>
      </trkpt>
      <trkpt lat="47.19022" lon="-1.74757">
        <ele>68.7</ele>
        <time>2016-04-10T11:08:50.922Z</time>
      </trkpt>
      <trkpt lat="47.19019" lon="-1.74759">
        <ele>68.9</ele>
        <time>2016-04-10T11:08:51.849Z</time>
      </trkpt>
      <trkpt lat="47.19016" lon="-1.74771">
        <ele>71.2</ele>
        <time>2016-04-10T11:08:59.923Z</time>
      </trkpt>
      <trkpt lat="47.19015" lon="-1.74774">
        <ele>71.7</ele>
        <time>2016-04-10T11:09:00.849Z</time>
      </trkpt>
      <trkpt lat="47.19014" lon="-1.74784">
        <ele>72.9</ele>
        <time>2016-04-10T11:09:03.867Z</time>
      </trkpt>
      <trkpt lat="47.19014" lon="-1.74788">
        <ele>73.3</ele>
        <time>2016-04-10T11:09:04.870Z</time>
      </trkpt>
      <trkpt lat="47.19013" lon="-1.74798">
        <ele>74.1</ele>
        <time>2016-04-10T11:09:07.895Z</time>
      </trkpt>
      <trkpt lat="47.19012" lon="-1.74804">
        <ele>75.1</ele>
        <time>2016-04-10T11:09:09.873Z</time>
      </trkpt>
      <trkpt lat="47.1901" lon="-1.74809">
        <ele>75.1</ele>
        <time>2016-04-10T11:09:11.881Z</time>
      </trkpt>
      <trkpt lat="47.19045" lon="-1.74759">
        <ele>79.2</ele>
        <time>2016-04-10T11:10:46.877Z</time>
      </trkpt>
      <trkpt lat="47.19036" lon="-1.74756">
        <ele>73</ele>
        <time>2016-04-10T11:14:01.449Z</time>
      </trkpt>
      <trkpt lat="47.19036" lon="-1.74756">
        <ele>73</ele>
        <time>2016-04-10T11:14:01.973Z</time>
      </trkpt>
      <trkpt lat="47.19044" lon="-1.74762">
        <ele>71.9</ele>
        <time>2016-04-10T11:34:19.962Z</time>
      </trkpt>
      <trkpt lat="47.19045" lon="-1.74762">
        <ele>71.9</ele>
        <time>2016-04-10T11:34:20.961Z</time>
      </trkpt>
      <trkpt lat="47.19036" lon="-1.7476">
        <ele>72.2</ele>
        <time>2016-04-10T11:46:52.050Z</time>
      </trkpt>
      <trkpt lat="47.19036" lon="-1.7476">
        <ele>72.2</ele>
        <time>2016-04-10T11:46:52.985Z</time>
      </trkpt>
      <trkpt lat="47.19027" lon="-1.74761">
        <ele>71.6</ele>
        <time>2016-04-10T12:03:41.031Z</time>
      </trkpt>
      <trkpt lat="47.19026" lon="-1.74761">
        <ele>71.7</ele>
        <time>2016-04-10T12:03:41.972Z</time>
      </trkpt>
      <trkpt lat="47.19019" lon="-1.74768">
        <ele>71.7</ele>
        <time>2016-04-10T12:04:19.092Z</time>
      </trkpt>
      <trkpt lat="47.19019" lon="-1.74768">
        <ele>71.7</ele>
        <time>2016-04-10T12:04:19.981Z</time>
      </trkpt>
      <trkpt lat="47.19024" lon="-1.74778">
        <ele>71.2</ele>
        <time>2016-04-10T12:07:04.062Z</time>
      </trkpt>
      <trkpt lat="47.19025" lon="-1.74779">
        <ele>71.2</ele>
        <time>2016-04-10T12:07:04.987Z</time>
      </trkpt>
      <trkpt lat="47.19034" lon="-1.74779">
        <ele>71.3</ele>
        <time>2016-04-10T12:07:48.037Z</time>
      </trkpt>
      <trkpt lat="47.19034" lon="-1.74779">
        <ele>71.3</ele>
        <time>2016-04-10T12:07:48.961Z</time>
      </trkpt>
      <trkpt lat="47.19042" lon="-1.74777">
        <ele>71.2</ele>
        <time>2016-04-10T12:07:55.075Z</time>
      </trkpt>
      <trkpt lat="47.19043" lon="-1.74776">
        <ele>71.2</ele>
        <time>2016-04-10T12:07:55.982Z</time>
      </trkpt>
      <trkpt lat="47.19051" lon="-1.74771">
        <ele>71.3</ele>
        <time>2016-04-10T12:08:00.982Z</time>
      </trkpt>
      <trkpt lat="47.19052" lon="-1.74769">
        <ele>71.2</ele>
        <time>2016-04-10T12:08:01.922Z</time>
      </trkpt>
      <trkpt lat="47.19056" lon="-1.74758">
        <ele>71.2</ele>
        <time>2016-04-10T12:08:08.187Z</time>
      </trkpt>
      <trkpt lat="47.19057" lon="-1.74756">
        <ele>71.2</ele>
        <time>2016-04-10T12:08:09.044Z</time>
      </trkpt>
      <trkpt lat="47.19059" lon="-1.74745">
        <ele>71.2</ele>
        <time>2016-04-10T12:08:14.179Z</time>
      </trkpt>
      <trkpt lat="47.19059" lon="-1.74743">
        <ele>71.2</ele>
        <time>2016-04-10T12:08:15.006Z</time>
      </trkpt>
      <trkpt lat="47.19062" lon="-1.74731">
        <ele>71.2</ele>
        <time>2016-04-10T12:08:21.094Z</time>
      </trkpt>
      <trkpt lat="47.19062" lon="-1.74728">
        <ele>71.2</ele>
        <time>2016-04-10T12:08:21.992Z</time>
      </trkpt>
      <trkpt lat="47.19064" lon="-1.74716">
        <ele>71.3</ele>
        <time>2016-04-10T12:08:29.113Z</time>
      </trkpt>
      <trkpt lat="47.19065" lon="-1.74714">
        <ele>71.3</ele>
        <time>2016-04-10T12:08:29.989Z</time>
      </trkpt>
      <trkpt lat="47.19066" lon="-1.74702">
        <ele>71.3</ele>
        <time>2016-04-10T12:08:35.075Z</time>
      </trkpt>
      <trkpt lat="47.19067" lon="-1.74701">
        <ele>71.3</ele>
        <time>2016-04-10T12:08:35.992Z</time>
      </trkpt>
      <trkpt lat="47.19069" lon="-1.74688">
        <ele>71.2</ele>
        <time>2016-04-10T12:08:44.368Z</time>
      </trkpt>
      <trkpt lat="47.19069" lon="-1.74686">
        <ele>71.2</ele>
        <time>2016-04-10T12:08:44.999Z</time>
      </trkpt>
      <trkpt lat="47.1907" lon="-1.74674">
        <ele>71.2</ele>
        <time>2016-04-10T12:08:51.101Z</time>
      </trkpt>
      <trkpt lat="47.1907" lon="-1.74672">
        <ele>71.3</ele>
        <time>2016-04-10T12:08:51.952Z</time>
      </trkpt>
      <trkpt lat="47.19073" lon="-1.7466">
        <ele>71.3</ele>
        <time>2016-04-10T12:08:58.059Z</time>
      </trkpt>
      <trkpt lat="47.19073" lon="-1.74659">
        <ele>71.3</ele>
        <time>2016-04-10T12:08:59.078Z</time>
      </trkpt>
      <trkpt lat="47.19074" lon="-1.74646">
        <ele>71.4</ele>
        <time>2016-04-10T12:09:07.038Z</time>
      </trkpt>
      <trkpt lat="47.19074" lon="-1.74645">
        <ele>71.4</ele>
        <time>2016-04-10T12:09:07.992Z</time>
      </trkpt>
      <trkpt lat="47.19075" lon="-1.74632">
        <ele>71.5</ele>
        <time>2016-04-10T12:09:14.147Z</time>
      </trkpt>
      <trkpt lat="47.19075" lon="-1.7463">
        <ele>71.5</ele>
        <time>2016-04-10T12:09:14.990Z</time>
      </trkpt>
      <trkpt lat="47.19076" lon="-1.74618">
        <ele>71.5</ele>
        <time>2016-04-10T12:09:21.249Z</time>
      </trkpt>
      <trkpt lat="47.19076" lon="-1.74616">
        <ele>71.5</ele>
        <time>2016-04-10T12:09:21.984Z</time>
      </trkpt>
      <trkpt lat="47.19077" lon="-1.74604">
        <ele>71.5</ele>
        <time>2016-04-10T12:09:28.038Z</time>
      </trkpt>
      <trkpt lat="47.19077" lon="-1.74602">
        <ele>71.5</ele>
        <time>2016-04-10T12:09:28.991Z</time>
      </trkpt>
      <trkpt lat="47.19078" lon="-1.7459">
        <ele>71.6</ele>
        <time>2016-04-10T12:09:37.094Z</time>
      </trkpt>
      <trkpt lat="47.19078" lon="-1.74589">
        <ele>71.7</ele>
        <time>2016-04-10T12:09:37.988Z</time>
      </trkpt>
      <trkpt lat="47.1908" lon="-1.74577">
        <ele>71.8</ele>
        <time>2016-04-10T12:09:45.088Z</time>
      </trkpt>
      <trkpt lat="47.1908" lon="-1.74575">
        <ele>71.8</ele>
        <time>2016-04-10T12:09:45.964Z</time>
      </trkpt>
      <trkpt lat="47.19082" lon="-1.74562">
        <ele>72</ele>
        <time>2016-04-10T12:09:53.022Z</time>
      </trkpt>
      <trkpt lat="47.19082" lon="-1.74561">
        <ele>72</ele>
        <time>2016-04-10T12:09:53.989Z</time>
      </trkpt>
      <trkpt lat="47.19084" lon="-1.74549">
        <ele>72.1</ele>
        <time>2016-04-10T12:10:00.196Z</time>
      </trkpt>
      <trkpt lat="47.19084" lon="-1.74546">
        <ele>72.1</ele>
        <time>2016-04-10T12:10:00.929Z</time>
      </trkpt>
      <trkpt lat="47.19086" lon="-1.74535">
        <ele>72.2</ele>
        <time>2016-04-10T12:10:06.067Z</time>
      </trkpt>
      <trkpt lat="47.19087" lon="-1.74533">
        <ele>72.2</ele>
        <time>2016-04-10T12:10:06.988Z</time>
      </trkpt>
      <trkpt lat="47.19087" lon="-1.74521">
        <ele>72.3</ele>
        <time>2016-04-10T12:10:13.030Z</time>
      </trkpt>
      <trkpt lat="47.19087" lon="-1.74519">
        <ele>72.3</ele>
        <time>2016-04-10T12:10:13.988Z</time>
      </trkpt>
      <trkpt lat="47.19088" lon="-1.74508">
        <ele>72.3</ele>
        <time>2016-04-10T12:10:19.073Z</time>
      </trkpt>
      <trkpt lat="47.19088" lon="-1.74505">
        <ele>72.3</ele>
        <time>2016-04-10T12:10:19.989Z</time>
      </trkpt>
      <trkpt lat="47.1909" lon="-1.74493">
        <ele>72.3</ele>
        <time>2016-04-10T12:10:27.153Z</time>
      </trkpt>
      <trkpt lat="47.1909" lon="-1.74491">
        <ele>72.3</ele>
        <time>2016-04-10T12:10:27.929Z</time>
      </trkpt>
      <trkpt lat="47.19092" lon="-1.7448">
        <ele>72.4</ele>
        <time>2016-04-10T12:10:34.137Z</time>
      </trkpt>
      <trkpt lat="47.19092" lon="-1.74478">
        <ele>72.4</ele>
        <time>2016-04-10T12:10:34.992Z</time>
      </trkpt>
      <trkpt lat="47.19094" lon="-1.74466">
        <ele>72.4</ele>
        <time>2016-04-10T12:10:40.966Z</time>
      </trkpt>
      <trkpt lat="47.19095" lon="-1.74464">
        <ele>72.4</ele>
        <time>2016-04-10T12:10:41.975Z</time>
      </trkpt>
      <trkpt lat="47.19099" lon="-1.74454">
        <ele>72.4</ele>
        <time>2016-04-10T12:10:49.070Z</time>
      </trkpt>
      <trkpt lat="47.191" lon="-1.74453">
        <ele>72.4</ele>
        <time>2016-04-10T12:10:49.916Z</time>
      </trkpt>
      <trkpt lat="47.19105" lon="-1.74442">
        <ele>72.4</ele>
        <time>2016-04-10T12:10:56.016Z</time>
      </trkpt>
      <trkpt lat="47.19106" lon="-1.7444">
        <ele>72.4</ele>
        <time>2016-04-10T12:10:56.969Z</time>
      </trkpt>
      <trkpt lat="47.19109" lon="-1.74429">
        <ele>72.4</ele>
        <time>2016-04-10T12:11:03.119Z</time>
      </trkpt>
      <trkpt lat="47.1911" lon="-1.74427">
        <ele>72.4</ele>
        <time>2016-04-10T12:11:03.947Z</time>
      </trkpt>
      <trkpt lat="47.19113" lon="-1.74416">
        <ele>72.4</ele>
        <time>2016-04-10T12:11:10.151Z</time>
      </trkpt>
      <trkpt lat="47.19113" lon="-1.74414">
        <ele>72.4</ele>
        <time>2016-04-10T12:11:10.979Z</time>
      </trkpt>
      <trkpt lat="47.19117" lon="-1.74403">
        <ele>72.4</ele>
        <time>2016-04-10T12:11:16.953Z</time>
      </trkpt>
      <trkpt lat="47.19118" lon="-1.74401">
        <ele>72.4</ele>
        <time>2016-04-10T12:11:17.915Z</time>
      </trkpt>
      <trkpt lat="47.1912" lon="-1.74391">
        <ele>72.5</ele>
        <time>2016-04-10T12:11:24.028Z</time>
      </trkpt>
      <trkpt lat="47.1912" lon="-1.74389">
        <ele>72.5</ele>
        <time>2016-04-10T12:11:24.953Z</time>
      </trkpt>
      <trkpt lat="47.19122" lon="-1.74377">
        <ele>72.5</ele>
        <time>2016-04-10T12:11:31.086Z</time>
      </trkpt>
      <trkpt lat="47.19123" lon="-1.74375">
        <ele>72.5</ele>
        <time>2016-04-10T12:11:32.384Z</time>
      </trkpt>
      <trkpt lat="47.19125" lon="-1.74364">
        <ele>72.5</ele>
        <time>2016-04-10T12:11:37.075Z</time>
      </trkpt>
      <trkpt lat="47.19125" lon="-1.74362">
        <ele>72.5</ele>
        <time>2016-04-10T12:11:37.961Z</time>
      </trkpt>
      <trkpt lat="47.19129" lon="-1.7435">
        <ele>72.5</ele>
        <time>2016-04-10T12:11:45.034Z</time>
      </trkpt>
      <trkpt lat="47.19129" lon="-1.74349">
        <ele>72.5</ele>
        <time>2016-04-10T12:11:46.038Z</time>
      </trkpt>
      <trkpt lat="47.19131" lon="-1.74338">
        <ele>72.5</ele>
        <time>2016-04-10T12:11:52.359Z</time>
      </trkpt>
      <trkpt lat="47.19131" lon="-1.74336">
        <ele>72.5</ele>
        <time>2016-04-10T12:11:52.941Z</time>
      </trkpt>
      <trkpt lat="47.19134" lon="-1.74325">
        <ele>72.5</ele>
        <time>2016-04-10T12:11:59.100Z</time>
      </trkpt>
      <trkpt lat="47.19134" lon="-1.74323">
        <ele>72.5</ele>
        <time>2016-04-10T12:11:59.951Z</time>
      </trkpt>
      <trkpt lat="47.19137" lon="-1.74311">
        <ele>72.6</ele>
        <time>2016-04-10T12:12:08.106Z</time>
      </trkpt>
      <trkpt lat="47.19138" lon="-1.7431">
        <ele>72.7</ele>
        <time>2016-04-10T12:12:09.080Z</time>
      </trkpt>
      <trkpt lat="47.19138" lon="-1.74303">
        <ele>72.7</ele>
        <time>2016-04-10T12:12:13.121Z</time>
      </trkpt>
      <trkpt lat="47.19142" lon="-1.74291">
        <ele>72.7</ele>
        <time>2016-04-10T12:12:14.019Z</time>
      </trkpt>
      <trkpt lat="47.19143" lon="-1.7428">
        <ele>73</ele>
        <time>2016-04-10T12:12:18.096Z</time>
      </trkpt>
      <trkpt lat="47.19144" lon="-1.74276">
        <ele>73</ele>
        <time>2016-04-10T12:12:19.056Z</time>
      </trkpt>
      <trkpt lat="47.19146" lon="-1.74264">
        <ele>73</ele>
        <time>2016-04-10T12:12:25.014Z</time>
      </trkpt>
      <trkpt lat="47.19147" lon="-1.74262">
        <ele>73</ele>
        <time>2016-04-10T12:12:26.040Z</time>
      </trkpt>
      <trkpt lat="47.1915" lon="-1.74251">
        <ele>73.5</ele>
        <time>2016-04-10T12:12:34.047Z</time>
      </trkpt>
      <trkpt lat="47.1915" lon="-1.7425">
        <ele>73.5</ele>
        <time>2016-04-10T12:12:35.027Z</time>
      </trkpt>
      <trkpt lat="47.19153" lon="-1.74238">
        <ele>73.9</ele>
        <time>2016-04-10T12:12:42.136Z</time>
      </trkpt>
      <trkpt lat="47.19154" lon="-1.74237">
        <ele>74</ele>
        <time>2016-04-10T12:12:42.942Z</time>
      </trkpt>
      <trkpt lat="47.19158" lon="-1.74226">
        <ele>74.5</ele>
        <time>2016-04-10T12:12:49.100Z</time>
      </trkpt>
      <trkpt lat="47.19158" lon="-1.74224">
        <ele>74.6</ele>
        <time>2016-04-10T12:12:49.961Z</time>
      </trkpt>
      <trkpt lat="47.1916" lon="-1.74212">
        <ele>75</ele>
        <time>2016-04-10T12:12:56.236Z</time>
      </trkpt>
      <trkpt lat="47.1916" lon="-1.7421">
        <ele>75</ele>
        <time>2016-04-10T12:12:56.974Z</time>
      </trkpt>
      <trkpt lat="47.19164" lon="-1.74198">
        <ele>74.9</ele>
        <time>2016-04-10T12:13:05.309Z</time>
      </trkpt>
      <trkpt lat="47.19165" lon="-1.74196">
        <ele>75</ele>
        <time>2016-04-10T12:13:06.036Z</time>
      </trkpt>
      <trkpt lat="47.19168" lon="-1.74186">
        <ele>74.9</ele>
        <time>2016-04-10T12:13:11.130Z</time>
      </trkpt>
      <trkpt lat="47.19169" lon="-1.74184">
        <ele>75</ele>
        <time>2016-04-10T12:13:12.019Z</time>
      </trkpt>
      <trkpt lat="47.19171" lon="-1.74171">
        <ele>75.4</ele>
        <time>2016-04-10T12:13:19.106Z</time>
      </trkpt>
      <trkpt lat="47.19171" lon="-1.74168">
        <ele>75.4</ele>
        <time>2016-04-10T12:13:20.095Z</time>
      </trkpt>
      <trkpt lat="47.19172" lon="-1.74156">
        <ele>75.8</ele>
        <time>2016-04-10T12:13:25.996Z</time>
      </trkpt>
      <trkpt lat="47.19173" lon="-1.74153">
        <ele>75.8</ele>
        <time>2016-04-10T12:13:26.984Z</time>
      </trkpt>
      <trkpt lat="47.19174" lon="-1.74141">
        <ele>76</ele>
        <time>2016-04-10T12:13:33.041Z</time>
      </trkpt>
      <trkpt lat="47.19175" lon="-1.74139">
        <ele>76.1</ele>
        <time>2016-04-10T12:13:34.024Z</time>
      </trkpt>
      <trkpt lat="47.19177" lon="-1.74128">
        <ele>76.3</ele>
        <time>2016-04-10T12:13:40.023Z</time>
      </trkpt>
      <trkpt lat="47.19178" lon="-1.74125">
        <ele>76.3</ele>
        <time>2016-04-10T12:13:40.978Z</time>
      </trkpt>
      <trkpt lat="47.19179" lon="-1.74115">
        <ele>76.4</ele>
        <time>2016-04-10T12:13:47.156Z</time>
      </trkpt>
      <trkpt lat="47.1918" lon="-1.74112">
        <ele>76.5</ele>
        <time>2016-04-10T12:13:47.972Z</time>
      </trkpt>
      <trkpt lat="47.19182" lon="-1.74101">
        <ele>76.9</ele>
        <time>2016-04-10T12:13:54.036Z</time>
      </trkpt>
      <trkpt lat="47.19182" lon="-1.74098">
        <ele>77</ele>
        <time>2016-04-10T12:13:54.978Z</time>
      </trkpt>
      <trkpt lat="47.19182" lon="-1.74086">
        <ele>77.1</ele>
        <time>2016-04-10T12:14:00.086Z</time>
      </trkpt>
      <trkpt lat="47.19182" lon="-1.74084">
        <ele>77.2</ele>
        <time>2016-04-10T12:14:01.005Z</time>
      </trkpt>
      <trkpt lat="47.19185" lon="-1.74075">
        <ele>77.1</ele>
        <time>2016-04-10T12:14:05.033Z</time>
      </trkpt>
      <trkpt lat="47.19187" lon="-1.74072">
        <ele>77.1</ele>
        <time>2016-04-10T12:14:05.992Z</time>
      </trkpt>
      <trkpt lat="47.19194" lon="-1.74064">
        <ele>77</ele>
        <time>2016-04-10T12:14:11.058Z</time>
      </trkpt>
      <trkpt lat="47.19195" lon="-1.74062">
        <ele>77</ele>
        <time>2016-04-10T12:14:12.023Z</time>
      </trkpt>
      <trkpt lat="47.19202" lon="-1.74056">
        <ele>76.5</ele>
        <time>2016-04-10T12:14:19.115Z</time>
      </trkpt>
      <trkpt lat="47.19204" lon="-1.74055">
        <ele>76.5</ele>
        <time>2016-04-10T12:14:19.968Z</time>
      </trkpt>
      <trkpt lat="47.1921" lon="-1.74051">
        <ele>76.1</ele>
        <time>2016-04-10T12:14:25.049Z</time>
      </trkpt>
      <trkpt lat="47.19212" lon="-1.74049">
        <ele>76</ele>
        <time>2016-04-10T12:14:26.000Z</time>
      </trkpt>
      <trkpt lat="47.19212" lon="-1.74036">
        <ele>74.5</ele>
        <time>2016-04-10T12:14:36.107Z</time>
      </trkpt>
      <trkpt lat="47.19212" lon="-1.74035">
        <ele>74.4</ele>
        <time>2016-04-10T12:14:37.007Z</time>
      </trkpt>
      <trkpt lat="47.19211" lon="-1.74023">
        <ele>74</ele>
        <time>2016-04-10T12:14:44.118Z</time>
      </trkpt>
      <trkpt lat="47.19211" lon="-1.74021">
        <ele>74</ele>
        <time>2016-04-10T12:14:44.970Z</time>
      </trkpt>
      <trkpt lat="47.19211" lon="-1.74008">
        <ele>73.9</ele>
        <time>2016-04-10T12:14:52.128Z</time>
      </trkpt>
      <trkpt lat="47.19212" lon="-1.74006">
        <ele>74</ele>
        <time>2016-04-10T12:14:52.999Z</time>
      </trkpt>
      <trkpt lat="47.19211" lon="-1.73993">
        <ele>74.4</ele>
        <time>2016-04-10T12:15:01.156Z</time>
      </trkpt>
      <trkpt lat="47.19211" lon="-1.73992">
        <ele>74.5</ele>
        <time>2016-04-10T12:15:02.009Z</time>
      </trkpt>
      <trkpt lat="47.1921" lon="-1.7398">
        <ele>75.5</ele>
        <time>2016-04-10T12:15:09.012Z</time>
      </trkpt>
      <trkpt lat="47.1921" lon="-1.73978">
        <ele>75.5</ele>
        <time>2016-04-10T12:15:09.993Z</time>
      </trkpt>
      <trkpt lat="47.1921" lon="-1.73966">
        <ele>75.1</ele>
        <time>2016-04-10T12:15:17.069Z</time>
      </trkpt>
      <trkpt lat="47.1921" lon="-1.73962">
        <ele>75.1</ele>
        <time>2016-04-10T12:15:18.013Z</time>
      </trkpt>
      <trkpt lat="47.19208" lon="-1.73949">
        <ele>75</ele>
        <time>2016-04-10T12:15:23.398Z</time>
      </trkpt>
      <trkpt lat="47.19209" lon="-1.73947">
        <ele>75</ele>
        <time>2016-04-10T12:15:23.950Z</time>
      </trkpt>
      <trkpt lat="47.19209" lon="-1.73934">
        <ele>74.8</ele>
        <time>2016-04-10T12:15:33.079Z</time>
      </trkpt>
      <trkpt lat="47.19209" lon="-1.73933">
        <ele>74.7</ele>
        <time>2016-04-10T12:15:33.994Z</time>
      </trkpt>
      <trkpt lat="47.1921" lon="-1.7392">
        <ele>74.1</ele>
        <time>2016-04-10T12:15:39.999Z</time>
      </trkpt>
      <trkpt lat="47.1921" lon="-1.73919">
        <ele>74.1</ele>
        <time>2016-04-10T12:15:40.991Z</time>
      </trkpt>
      <trkpt lat="47.19211" lon="-1.73906">
        <ele>73.7</ele>
        <time>2016-04-10T12:15:50.258Z</time>
      </trkpt>
      <trkpt lat="47.19211" lon="-1.73904">
        <ele>73.7</ele>
        <time>2016-04-10T12:15:50.991Z</time>
      </trkpt>
      <trkpt lat="47.19211" lon="-1.73894">
        <ele>73.8</ele>
        <time>2016-04-10T12:15:55.112Z</time>
      </trkpt>
      <trkpt lat="47.19212" lon="-1.7389">
        <ele>73.7</ele>
        <time>2016-04-10T12:15:55.994Z</time>
      </trkpt>
      <trkpt lat="47.19211" lon="-1.73879">
        <ele>73.5</ele>
        <time>2016-04-10T12:16:00.995Z</time>
      </trkpt>
      <trkpt lat="47.19211" lon="-1.73877">
        <ele>73.5</ele>
        <time>2016-04-10T12:16:02.020Z</time>
      </trkpt>
      <trkpt lat="47.19206" lon="-1.73866">
        <ele>73</ele>
        <time>2016-04-10T12:16:08.026Z</time>
      </trkpt>
      <trkpt lat="47.19206" lon="-1.73865">
        <ele>72.8</ele>
        <time>2016-04-10T12:16:08.950Z</time>
      </trkpt>
      <trkpt lat="47.19205" lon="-1.73853">
        <ele>72.4</ele>
        <time>2016-04-10T12:16:16.068Z</time>
      </trkpt>
      <trkpt lat="47.19205" lon="-1.73851">
        <ele>72.4</ele>
        <time>2016-04-10T12:16:17.019Z</time>
      </trkpt>
      <trkpt lat="47.19201" lon="-1.73839">
        <ele>72.1</ele>
        <time>2016-04-10T12:16:23.321Z</time>
      </trkpt>
      <trkpt lat="47.192" lon="-1.73837">
        <ele>72</ele>
        <time>2016-04-10T12:16:23.974Z</time>
      </trkpt>
      <trkpt lat="47.19195" lon="-1.73827">
        <ele>71.7</ele>
        <time>2016-04-10T12:16:29.204Z</time>
      </trkpt>
      <trkpt lat="47.19195" lon="-1.73825">
        <ele>71.6</ele>
        <time>2016-04-10T12:16:29.999Z</time>
      </trkpt>
      <trkpt lat="47.1919" lon="-1.73815">
        <ele>71.6</ele>
        <time>2016-04-10T12:16:39.062Z</time>
      </trkpt>
      <trkpt lat="47.19189" lon="-1.73813">
        <ele>71.5</ele>
        <time>2016-04-10T12:16:39.952Z</time>
      </trkpt>
      <trkpt lat="47.19185" lon="-1.73804">
        <ele>71.6</ele>
        <time>2016-04-10T12:16:45.997Z</time>
      </trkpt>
      <trkpt lat="47.19184" lon="-1.73801">
        <ele>71.7</ele>
        <time>2016-04-10T12:16:46.940Z</time>
      </trkpt>
      <trkpt lat="47.1918" lon="-1.7379">
        <ele>72</ele>
        <time>2016-04-10T12:16:52.278Z</time>
      </trkpt>
      <trkpt lat="47.19179" lon="-1.73787">
        <ele>72.1</ele>
        <time>2016-04-10T12:16:52.979Z</time>
      </trkpt>
      <trkpt lat="47.19176" lon="-1.73775">
        <ele>72.4</ele>
        <time>2016-04-10T12:16:59.103Z</time>
      </trkpt>
      <trkpt lat="47.19176" lon="-1.73772">
        <ele>72.4</ele>
        <time>2016-04-10T12:16:59.973Z</time>
      </trkpt>
      <trkpt lat="47.19174" lon="-1.7376">
        <ele>72.2</ele>
        <time>2016-04-10T12:17:06.090Z</time>
      </trkpt>
      <trkpt lat="47.19174" lon="-1.73758">
        <ele>72.1</ele>
        <time>2016-04-10T12:17:07.015Z</time>
      </trkpt>
      <trkpt lat="47.19172" lon="-1.73747">
        <ele>71.9</ele>
        <time>2016-04-10T12:17:11.994Z</time>
      </trkpt>
      <trkpt lat="47.19171" lon="-1.73745">
        <ele>71.9</ele>
        <time>2016-04-10T12:17:12.975Z</time>
      </trkpt>
      <trkpt lat="47.19168" lon="-1.73735">
        <ele>71.4</ele>
        <time>2016-04-10T12:17:19.034Z</time>
      </trkpt>
      <trkpt lat="47.19167" lon="-1.73733">
        <ele>71.4</ele>
        <time>2016-04-10T12:17:19.996Z</time>
      </trkpt>
      <trkpt lat="47.19164" lon="-1.73722">
        <ele>71</ele>
        <time>2016-04-10T12:17:28.074Z</time>
      </trkpt>
      <trkpt lat="47.19163" lon="-1.7372">
        <ele>70.9</ele>
        <time>2016-04-10T12:17:28.991Z</time>
      </trkpt>
      <trkpt lat="47.1916" lon="-1.73708">
        <ele>70</ele>
        <time>2016-04-10T12:17:35.005Z</time>
      </trkpt>
      <trkpt lat="47.1916" lon="-1.73707">
        <ele>69.9</ele>
        <time>2016-04-10T12:17:35.992Z</time>
      </trkpt>
      <trkpt lat="47.19156" lon="-1.73696">
        <ele>69.6</ele>
        <time>2016-04-10T12:17:42.096Z</time>
      </trkpt>
      <trkpt lat="47.19156" lon="-1.73694">
        <ele>69.6</ele>
        <time>2016-04-10T12:17:42.959Z</time>
      </trkpt>
      <trkpt lat="47.19153" lon="-1.73684">
        <ele>69.5</ele>
        <time>2016-04-10T12:17:48.047Z</time>
      </trkpt>
      <trkpt lat="47.19152" lon="-1.73681">
        <ele>69.6</ele>
        <time>2016-04-10T12:17:48.995Z</time>
      </trkpt>
      <trkpt lat="47.19151" lon="-1.7367">
        <ele>70.2</ele>
        <time>2016-04-10T12:17:53.037Z</time>
      </trkpt>
      <trkpt lat="47.1915" lon="-1.73667">
        <ele>70.2</ele>
        <time>2016-04-10T12:17:53.978Z</time>
      </trkpt>
      <trkpt lat="47.19146" lon="-1.73656">
        <ele>70.6</ele>
        <time>2016-04-10T12:18:00.196Z</time>
      </trkpt>
      <trkpt lat="47.19145" lon="-1.73654">
        <ele>70.6</ele>
        <time>2016-04-10T12:18:00.938Z</time>
      </trkpt>
      <trkpt lat="47.19142" lon="-1.73644">
        <ele>70.8</ele>
        <time>2016-04-10T12:18:06.087Z</time>
      </trkpt>
      <trkpt lat="47.19141" lon="-1.73642">
        <ele>70.8</ele>
        <time>2016-04-10T12:18:06.973Z</time>
      </trkpt>
      <trkpt lat="47.19138" lon="-1.7363">
        <ele>71.2</ele>
        <time>2016-04-10T12:18:13.064Z</time>
      </trkpt>
      <trkpt lat="47.19137" lon="-1.73627">
        <ele>71.2</ele>
        <time>2016-04-10T12:18:13.997Z</time>
      </trkpt>
      <trkpt lat="47.19135" lon="-1.73615">
        <ele>71.2</ele>
        <time>2016-04-10T12:18:20.048Z</time>
      </trkpt>
      <trkpt lat="47.19134" lon="-1.73613">
        <ele>71.1</ele>
        <time>2016-04-10T12:18:20.999Z</time>
      </trkpt>
      <trkpt lat="47.19131" lon="-1.73602">
        <ele>71.2</ele>
        <time>2016-04-10T12:18:27.028Z</time>
      </trkpt>
      <trkpt lat="47.1913" lon="-1.736">
        <ele>71.2</ele>
        <time>2016-04-10T12:18:28.021Z</time>
      </trkpt>
      <trkpt lat="47.19127" lon="-1.7359">
        <ele>71.6</ele>
        <time>2016-04-10T12:18:33.044Z</time>
      </trkpt>
      <trkpt lat="47.19126" lon="-1.73588">
        <ele>71.7</ele>
        <time>2016-04-10T12:18:34.008Z</time>
      </trkpt>
      <trkpt lat="47.19123" lon="-1.73577">
        <ele>71.9</ele>
        <time>2016-04-10T12:18:39.989Z</time>
      </trkpt>
      <trkpt lat="47.19122" lon="-1.73575">
        <ele>71.9</ele>
        <time>2016-04-10T12:18:40.997Z</time>
      </trkpt>
      <trkpt lat="47.19119" lon="-1.73563">
        <ele>71.7</ele>
        <time>2016-04-10T12:18:46.171Z</time>
      </trkpt>
      <trkpt lat="47.19119" lon="-1.73561">
        <ele>71.6</ele>
        <time>2016-04-10T12:18:46.977Z</time>
      </trkpt>
      <trkpt lat="47.19116" lon="-1.73549">
        <ele>71</ele>
        <time>2016-04-10T12:18:53.087Z</time>
      </trkpt>
      <trkpt lat="47.19116" lon="-1.73547">
        <ele>70.9</ele>
        <time>2016-04-10T12:18:53.999Z</time>
      </trkpt>
      <trkpt lat="47.19114" lon="-1.73537">
        <ele>70.7</ele>
        <time>2016-04-10T12:18:59.140Z</time>
      </trkpt>
      <trkpt lat="47.19114" lon="-1.73535">
        <ele>70.7</ele>
        <time>2016-04-10T12:18:59.994Z</time>
      </trkpt>
      <trkpt lat="47.19111" lon="-1.73524">
        <ele>70.6</ele>
        <time>2016-04-10T12:19:05.088Z</time>
      </trkpt>
      <trkpt lat="47.19111" lon="-1.73521">
        <ele>70.5</ele>
        <time>2016-04-10T12:19:06.033Z</time>
      </trkpt>
      <trkpt lat="47.19108" lon="-1.73509">
        <ele>70</ele>
        <time>2016-04-10T12:19:12.993Z</time>
      </trkpt>
      <trkpt lat="47.19108" lon="-1.73507">
        <ele>69.9</ele>
        <time>2016-04-10T12:19:13.994Z</time>
      </trkpt>
      <trkpt lat="47.19105" lon="-1.73496">
        <ele>69.5</ele>
        <time>2016-04-10T12:19:20.067Z</time>
      </trkpt>
      <trkpt lat="47.19105" lon="-1.73494">
        <ele>69.4</ele>
        <time>2016-04-10T12:19:21.036Z</time>
      </trkpt>
      <trkpt lat="47.19102" lon="-1.73482">
        <ele>69.2</ele>
        <time>2016-04-10T12:19:28.091Z</time>
      </trkpt>
      <trkpt lat="47.19101" lon="-1.7348">
        <ele>69.2</ele>
        <time>2016-04-10T12:19:29.027Z</time>
      </trkpt>
      <trkpt lat="47.19098" lon="-1.73468">
        <ele>69.5</ele>
        <time>2016-04-10T12:19:35.075Z</time>
      </trkpt>
      <trkpt lat="47.19098" lon="-1.73466">
        <ele>69.5</ele>
        <time>2016-04-10T12:19:36.008Z</time>
      </trkpt>
      <trkpt lat="47.19096" lon="-1.73454">
        <ele>69.9</ele>
        <time>2016-04-10T12:19:42.039Z</time>
      </trkpt>
      <trkpt lat="47.19095" lon="-1.73453">
        <ele>70</ele>
        <time>2016-04-10T12:19:43.021Z</time>
      </trkpt>
      <trkpt lat="47.19093" lon="-1.73442">
        <ele>70.4</ele>
        <time>2016-04-10T12:19:48.105Z</time>
      </trkpt>
      <trkpt lat="47.19093" lon="-1.7344">
        <ele>70.4</ele>
        <time>2016-04-10T12:19:48.982Z</time>
      </trkpt>
      <trkpt lat="47.19091" lon="-1.73428">
        <ele>70.6</ele>
        <time>2016-04-10T12:19:56.061Z</time>
      </trkpt>
      <trkpt lat="47.19091" lon="-1.73426">
        <ele>70.6</ele>
        <time>2016-04-10T12:19:57.042Z</time>
      </trkpt>
      <trkpt lat="47.19091" lon="-1.73413">
        <ele>71.1</ele>
        <time>2016-04-10T12:20:04.065Z</time>
      </trkpt>
      <trkpt lat="47.19091" lon="-1.73412">
        <ele>71.1</ele>
        <time>2016-04-10T12:20:04.978Z</time>
      </trkpt>
      <trkpt lat="47.1909" lon="-1.734">
        <ele>71</ele>
        <time>2016-04-10T12:20:10.214Z</time>
      </trkpt>
      <trkpt lat="47.1909" lon="-1.73398">
        <ele>70.9</ele>
        <time>2016-04-10T12:20:11.024Z</time>
      </trkpt>
      <trkpt lat="47.19089" lon="-1.73386">
        <ele>70.8</ele>
        <time>2016-04-10T12:20:18.033Z</time>
      </trkpt>
      <trkpt lat="47.19089" lon="-1.73384">
        <ele>70.8</ele>
        <time>2016-04-10T12:20:18.995Z</time>
      </trkpt>
      <trkpt lat="47.19087" lon="-1.73372">
        <ele>70.7</ele>
        <time>2016-04-10T12:20:24.974Z</time>
      </trkpt>
      <trkpt lat="47.19086" lon="-1.7337">
        <ele>70.8</ele>
        <time>2016-04-10T12:20:25.954Z</time>
      </trkpt>
      <trkpt lat="47.19085" lon="-1.73357">
        <ele>70.8</ele>
        <time>2016-04-10T12:20:33.226Z</time>
      </trkpt>
      <trkpt lat="47.19085" lon="-1.73355">
        <ele>70.8</ele>
        <time>2016-04-10T12:20:34.061Z</time>
      </trkpt>
      <trkpt lat="47.19083" lon="-1.73342">
        <ele>70.8</ele>
        <time>2016-04-10T12:20:41.034Z</time>
      </trkpt>
      <trkpt lat="47.19083" lon="-1.7334">
        <ele>70.7</ele>
        <time>2016-04-10T12:20:41.986Z</time>
      </trkpt>
      <trkpt lat="47.19081" lon="-1.73328">
        <ele>70.2</ele>
        <time>2016-04-10T12:20:48.159Z</time>
      </trkpt>
      <trkpt lat="47.1908" lon="-1.73326">
        <ele>70.1</ele>
        <time>2016-04-10T12:20:49.003Z</time>
      </trkpt>
      <trkpt lat="47.19078" lon="-1.73314">
        <ele>69.9</ele>
        <time>2016-04-10T12:20:56.039Z</time>
      </trkpt>
      <trkpt lat="47.19077" lon="-1.73312">
        <ele>69.8</ele>
        <time>2016-04-10T12:20:57.032Z</time>
      </trkpt>
      <trkpt lat="47.19074" lon="-1.73301">
        <ele>69.8</ele>
        <time>2016-04-10T12:21:04.059Z</time>
      </trkpt>
      <trkpt lat="47.19074" lon="-1.73298">
        <ele>69.8</ele>
        <time>2016-04-10T12:21:05.019Z</time>
      </trkpt>
      <trkpt lat="47.1907" lon="-1.73287">
        <ele>69.5</ele>
        <time>2016-04-10T12:21:12.397Z</time>
      </trkpt>
      <trkpt lat="47.19069" lon="-1.73285">
        <ele>69.3</ele>
        <time>2016-04-10T12:21:12.953Z</time>
      </trkpt>
      <trkpt lat="47.19067" lon="-1.73274">
        <ele>69.5</ele>
        <time>2016-04-10T12:21:20.096Z</time>
      </trkpt>
      <trkpt lat="47.19067" lon="-1.73272">
        <ele>69.4</ele>
        <time>2016-04-10T12:21:20.952Z</time>
      </trkpt>
      <trkpt lat="47.19064" lon="-1.73261">
        <ele>69.1</ele>
        <time>2016-04-10T12:21:28.214Z</time>
      </trkpt>
      <trkpt lat="47.19063" lon="-1.73259">
        <ele>69.1</ele>
        <time>2016-04-10T12:21:29.010Z</time>
      </trkpt>
      <trkpt lat="47.1906" lon="-1.73249">
        <ele>69.2</ele>
        <time>2016-04-10T12:21:34.107Z</time>
      </trkpt>
      <trkpt lat="47.1906" lon="-1.73247">
        <ele>69.2</ele>
        <time>2016-04-10T12:21:34.985Z</time>
      </trkpt>
      <trkpt lat="47.19057" lon="-1.73235">
        <ele>68.5</ele>
        <time>2016-04-10T12:21:45.058Z</time>
      </trkpt>
      <trkpt lat="47.19057" lon="-1.73234">
        <ele>68.3</ele>
        <time>2016-04-10T12:21:45.994Z</time>
      </trkpt>
      <trkpt lat="47.19057" lon="-1.73221">
        <ele>68.3</ele>
        <time>2016-04-10T12:22:54.192Z</time>
      </trkpt>
      <trkpt lat="47.19056" lon="-1.73219">
        <ele>68.3</ele>
        <time>2016-04-10T12:22:55.010Z</time>
      </trkpt>
      <trkpt lat="47.19051" lon="-1.73208">
        <ele>68</ele>
        <time>2016-04-10T12:23:02.060Z</time>
      </trkpt>
      <trkpt lat="47.19051" lon="-1.73207">
        <ele>68</ele>
        <time>2016-04-10T12:23:03.009Z</time>
      </trkpt>
      <trkpt lat="47.19047" lon="-1.73196">
        <ele>67.8</ele>
        <time>2016-04-10T12:23:10.046Z</time>
      </trkpt>
      <trkpt lat="47.19046" lon="-1.73194">
        <ele>67.8</ele>
        <time>2016-04-10T12:23:10.984Z</time>
      </trkpt>
      <trkpt lat="47.19043" lon="-1.73183">
        <ele>67.7</ele>
        <time>2016-04-10T12:23:17.480Z</time>
      </trkpt>
      <trkpt lat="47.19042" lon="-1.73181">
        <ele>67.7</ele>
        <time>2016-04-10T12:23:17.953Z</time>
      </trkpt>
      <trkpt lat="47.19038" lon="-1.7317">
        <ele>67.1</ele>
        <time>2016-04-10T12:23:24.150Z</time>
      </trkpt>
      <trkpt lat="47.19038" lon="-1.73169">
        <ele>67</ele>
        <time>2016-04-10T12:23:24.988Z</time>
      </trkpt>
      <trkpt lat="47.19035" lon="-1.73158">
        <ele>66.6</ele>
        <time>2016-04-10T12:23:31.092Z</time>
      </trkpt>
      <trkpt lat="47.19035" lon="-1.73156">
        <ele>66.5</ele>
        <time>2016-04-10T12:23:32.083Z</time>
      </trkpt>
      <trkpt lat="47.19032" lon="-1.73146">
        <ele>65.9</ele>
        <time>2016-04-10T12:23:38.118Z</time>
      </trkpt>
      <trkpt lat="47.19031" lon="-1.73143">
        <ele>65.8</ele>
        <time>2016-04-10T12:23:39.083Z</time>
      </trkpt>
      <trkpt lat="47.19028" lon="-1.73132">
        <ele>65.5</ele>
        <time>2016-04-10T12:23:47.032Z</time>
      </trkpt>
      <trkpt lat="47.19027" lon="-1.7313">
        <ele>65.4</ele>
        <time>2016-04-10T12:23:48.028Z</time>
      </trkpt>
      <trkpt lat="47.19022" lon="-1.73121">
        <ele>65.2</ele>
        <time>2016-04-10T12:23:54.083Z</time>
      </trkpt>
      <trkpt lat="47.19021" lon="-1.73119">
        <ele>65.1</ele>
        <time>2016-04-10T12:23:54.979Z</time>
      </trkpt>
      <trkpt lat="47.19016" lon="-1.73108">
        <ele>64.4</ele>
        <time>2016-04-10T12:24:03.020Z</time>
      </trkpt>
      <trkpt lat="47.19016" lon="-1.73107">
        <ele>64.4</ele>
        <time>2016-04-10T12:24:04.025Z</time>
      </trkpt>
      <trkpt lat="47.19012" lon="-1.73096">
        <ele>64.4</ele>
        <time>2016-04-10T12:24:10.053Z</time>
      </trkpt>
      <trkpt lat="47.19011" lon="-1.73094">
        <ele>64.4</ele>
        <time>2016-04-10T12:24:10.984Z</time>
      </trkpt>
      <trkpt lat="47.19008" lon="-1.73082">
        <ele>64.3</ele>
        <time>2016-04-10T12:24:17.375Z</time>
      </trkpt>
      <trkpt lat="47.19008" lon="-1.73081">
        <ele>64.2</ele>
        <time>2016-04-10T12:24:17.970Z</time>
      </trkpt>
      <trkpt lat="47.19002" lon="-1.73073">
        <ele>64.3</ele>
        <time>2016-04-10T12:24:25.008Z</time>
      </trkpt>
      <trkpt lat="47.19001" lon="-1.73072">
        <ele>64.4</ele>
        <time>2016-04-10T12:24:25.989Z</time>
      </trkpt>
      <trkpt lat="47.18992" lon="-1.73069">
        <ele>65.3</ele>
        <time>2016-04-10T12:24:36.085Z</time>
      </trkpt>
      <trkpt lat="47.18991" lon="-1.73069">
        <ele>65.4</ele>
        <time>2016-04-10T12:24:36.996Z</time>
      </trkpt>
      <trkpt lat="47.18984" lon="-1.73076">
        <ele>66.4</ele>
        <time>2016-04-10T12:24:45.055Z</time>
      </trkpt>
      <trkpt lat="47.18983" lon="-1.73077">
        <ele>66.6</ele>
        <time>2016-04-10T12:24:46.152Z</time>
      </trkpt>
      <trkpt lat="47.18977" lon="-1.73085">
        <ele>67.1</ele>
        <time>2016-04-10T12:24:55.079Z</time>
      </trkpt>
      <trkpt lat="47.18976" lon="-1.73086">
        <ele>67.2</ele>
        <time>2016-04-10T12:24:56.030Z</time>
      </trkpt>
      <trkpt lat="47.18972" lon="-1.73097">
        <ele>68.3</ele>
        <time>2016-04-10T12:25:08.131Z</time>
      </trkpt>
      <trkpt lat="47.18972" lon="-1.73098">
        <ele>68.4</ele>
        <time>2016-04-10T12:25:09.010Z</time>
      </trkpt>
      <trkpt lat="47.18969" lon="-1.73108">
        <ele>69.4</ele>
        <time>2016-04-10T12:25:17.052Z</time>
      </trkpt>
      <trkpt lat="47.18968" lon="-1.73111">
        <ele>69.5</ele>
        <time>2016-04-10T12:25:17.987Z</time>
      </trkpt>
      <trkpt lat="47.18962" lon="-1.7312">
        <ele>70.2</ele>
        <time>2016-04-10T12:25:25.014Z</time>
      </trkpt>
      <trkpt lat="47.18961" lon="-1.73121">
        <ele>70.3</ele>
        <time>2016-04-10T12:25:26.031Z</time>
      </trkpt>
      <trkpt lat="47.18956" lon="-1.73128">
        <ele>70.4</ele>
        <time>2016-04-10T12:25:28.095Z</time>
      </trkpt>
      <trkpt lat="47.18953" lon="-1.7313">
        <ele>70.4</ele>
        <time>2016-04-10T12:25:28.968Z</time>
      </trkpt>
      <trkpt lat="47.18947" lon="-1.73137">
        <ele>71.3</ele>
        <time>2016-04-10T12:25:36.049Z</time>
      </trkpt>
      <trkpt lat="47.18946" lon="-1.73139">
        <ele>71.3</ele>
        <time>2016-04-10T12:25:37.002Z</time>
      </trkpt>
      <trkpt lat="47.18941" lon="-1.73148">
        <ele>71.7</ele>
        <time>2016-04-10T12:25:41.003Z</time>
      </trkpt>
      <trkpt lat="47.18939" lon="-1.7315">
        <ele>71.7</ele>
        <time>2016-04-10T12:25:42.058Z</time>
      </trkpt>
      <trkpt lat="47.18933" lon="-1.73156">
        <ele>72</ele>
        <time>2016-04-10T12:25:47.085Z</time>
      </trkpt>
      <trkpt lat="47.18931" lon="-1.73157">
        <ele>72</ele>
        <time>2016-04-10T12:25:47.996Z</time>
      </trkpt>
      <trkpt lat="47.18924" lon="-1.73164">
        <ele>72.3</ele>
        <time>2016-04-10T12:25:56.051Z</time>
      </trkpt>
      <trkpt lat="47.18923" lon="-1.73164">
        <ele>72.3</ele>
        <time>2016-04-10T12:25:56.960Z</time>
      </trkpt>
      <trkpt lat="47.18915" lon="-1.73169">
        <ele>73.1</ele>
        <time>2016-04-10T12:26:06.132Z</time>
      </trkpt>
      <trkpt lat="47.18914" lon="-1.7317">
        <ele>73.1</ele>
        <time>2016-04-10T12:26:07.046Z</time>
      </trkpt>
      <trkpt lat="47.18907" lon="-1.73175">
        <ele>73</ele>
        <time>2016-04-10T12:26:14.087Z</time>
      </trkpt>
      <trkpt lat="47.18904" lon="-1.73177">
        <ele>73.1</ele>
        <time>2016-04-10T12:26:14.992Z</time>
      </trkpt>
      <trkpt lat="47.18897" lon="-1.73184">
        <ele>73.5</ele>
        <time>2016-04-10T12:26:21.079Z</time>
      </trkpt>
      <trkpt lat="47.18896" lon="-1.73184">
        <ele>73.5</ele>
        <time>2016-04-10T12:26:22.023Z</time>
      </trkpt>
      <trkpt lat="47.18889" lon="-1.73192">
        <ele>72.7</ele>
        <time>2016-04-10T12:26:30.096Z</time>
      </trkpt>
      <trkpt lat="47.18888" lon="-1.73193">
        <ele>72.6</ele>
        <time>2016-04-10T12:26:30.992Z</time>
      </trkpt>
      <trkpt lat="47.18881" lon="-1.732">
        <ele>71.5</ele>
        <time>2016-04-10T12:26:40.028Z</time>
      </trkpt>
      <trkpt lat="47.1888" lon="-1.732">
        <ele>71.4</ele>
        <time>2016-04-10T12:26:40.975Z</time>
      </trkpt>
      <trkpt lat="47.18873" lon="-1.73206">
        <ele>71.5</ele>
        <time>2016-04-10T12:26:47.092Z</time>
      </trkpt>
      <trkpt lat="47.18872" lon="-1.73207">
        <ele>71.6</ele>
        <time>2016-04-10T12:26:48.017Z</time>
      </trkpt>
      <trkpt lat="47.18865" lon="-1.73213">
        <ele>71.8</ele>
        <time>2016-04-10T12:26:54.075Z</time>
      </trkpt>
      <trkpt lat="47.18864" lon="-1.73214">
        <ele>71.8</ele>
        <time>2016-04-10T12:26:55.036Z</time>
      </trkpt>
      <trkpt lat="47.18856" lon="-1.73219">
        <ele>71.7</ele>
        <time>2016-04-10T12:27:01.168Z</time>
      </trkpt>
      <trkpt lat="47.18855" lon="-1.7322">
        <ele>71.7</ele>
        <time>2016-04-10T12:27:02.143Z</time>
      </trkpt>
      <trkpt lat="47.18846" lon="-1.73223">
        <ele>71.7</ele>
        <time>2016-04-10T12:27:09.061Z</time>
      </trkpt>
      <trkpt lat="47.18845" lon="-1.73223">
        <ele>71.7</ele>
        <time>2016-04-10T12:27:10.010Z</time>
      </trkpt>
      <trkpt lat="47.18836" lon="-1.73226">
        <ele>71.7</ele>
        <time>2016-04-10T12:27:18.065Z</time>
      </trkpt>
      <trkpt lat="47.18835" lon="-1.73226">
        <ele>71.8</ele>
        <time>2016-04-10T12:27:19.017Z</time>
      </trkpt>
      <trkpt lat="47.18827" lon="-1.73227">
        <ele>71.7</ele>
        <time>2016-04-10T12:27:25.080Z</time>
      </trkpt>
      <trkpt lat="47.18826" lon="-1.73227">
        <ele>71.7</ele>
        <time>2016-04-10T12:27:26.032Z</time>
      </trkpt>
      <trkpt lat="47.18817" lon="-1.73228">
        <ele>71.6</ele>
        <time>2016-04-10T12:27:33.053Z</time>
      </trkpt>
      <trkpt lat="47.18816" lon="-1.73228">
        <ele>71.6</ele>
        <time>2016-04-10T12:27:33.998Z</time>
      </trkpt>
      <trkpt lat="47.18807" lon="-1.73232">
        <ele>71.4</ele>
        <time>2016-04-10T12:27:42.082Z</time>
      </trkpt>
      <trkpt lat="47.18806" lon="-1.73234">
        <ele>71.4</ele>
        <time>2016-04-10T12:27:43.331Z</time>
      </trkpt>
      <trkpt lat="47.18801" lon="-1.73242">
        <ele>71.3</ele>
        <time>2016-04-10T12:27:50.119Z</time>
      </trkpt>
      <trkpt lat="47.188" lon="-1.73243">
        <ele>71.3</ele>
        <time>2016-04-10T12:27:50.998Z</time>
      </trkpt>
      <trkpt lat="47.18793" lon="-1.7325">
        <ele>71.5</ele>
        <time>2016-04-10T12:27:58.084Z</time>
      </trkpt>
      <trkpt lat="47.18793" lon="-1.73251">
        <ele>71.5</ele>
        <time>2016-04-10T12:27:58.966Z</time>
      </trkpt>
      <trkpt lat="47.18786" lon="-1.73259">
        <ele>71.1</ele>
        <time>2016-04-10T12:28:10.063Z</time>
      </trkpt>
      <trkpt lat="47.18786" lon="-1.7326">
        <ele>71.3</ele>
        <time>2016-04-10T12:28:10.994Z</time>
      </trkpt>
      <trkpt lat="47.18782" lon="-1.73271">
        <ele>73.3</ele>
        <time>2016-04-10T12:28:19.096Z</time>
      </trkpt>
      <trkpt lat="47.18782" lon="-1.73272">
        <ele>73.6</ele>
        <time>2016-04-10T12:28:19.998Z</time>
      </trkpt>
      <trkpt lat="47.18775" lon="-1.73281">
        <ele>75.8</ele>
        <time>2016-04-10T12:28:29.070Z</time>
      </trkpt>
      <trkpt lat="47.18774" lon="-1.73284">
        <ele>76</ele>
        <time>2016-04-10T12:28:30.017Z</time>
      </trkpt>
      <trkpt lat="47.18768" lon="-1.73292">
        <ele>76.3</ele>
        <time>2016-04-10T12:28:33.129Z</time>
      </trkpt>
      <trkpt lat="47.18766" lon="-1.73295">
        <ele>76.4</ele>
        <time>2016-04-10T12:28:34.351Z</time>
      </trkpt>
      <trkpt lat="47.18758" lon="-1.733">
        <ele>76.3</ele>
        <time>2016-04-10T12:28:39.049Z</time>
      </trkpt>
      <trkpt lat="47.18757" lon="-1.73299">
        <ele>76.3</ele>
        <time>2016-04-10T12:28:39.963Z</time>
      </trkpt>
      <trkpt lat="47.18748" lon="-1.73298">
        <ele>76.2</ele>
        <time>2016-04-10T12:28:48.137Z</time>
      </trkpt>
      <trkpt lat="47.18747" lon="-1.73298">
        <ele>76.2</ele>
        <time>2016-04-10T12:28:48.992Z</time>
      </trkpt>
      <trkpt lat="47.18739" lon="-1.73297">
        <ele>76</ele>
        <time>2016-04-10T12:28:55.055Z</time>
      </trkpt>
      <trkpt lat="47.18738" lon="-1.73297">
        <ele>76</ele>
        <time>2016-04-10T12:28:56.026Z</time>
      </trkpt>
      <trkpt lat="47.1873" lon="-1.73295">
        <ele>75.4</ele>
        <time>2016-04-10T12:29:02.029Z</time>
      </trkpt>
      <trkpt lat="47.18728" lon="-1.73295">
        <ele>75.3</ele>
        <time>2016-04-10T12:29:02.955Z</time>
      </trkpt>
      <trkpt lat="47.18719" lon="-1.73291">
        <ele>74.5</ele>
        <time>2016-04-10T12:29:08.043Z</time>
      </trkpt>
      <trkpt lat="47.18718" lon="-1.7329">
        <ele>74.4</ele>
        <time>2016-04-10T12:29:08.998Z</time>
      </trkpt>
      <trkpt lat="47.18711" lon="-1.73284">
        <ele>73.9</ele>
        <time>2016-04-10T12:29:14.068Z</time>
      </trkpt>
      <trkpt lat="47.18709" lon="-1.73282">
        <ele>73.8</ele>
        <time>2016-04-10T12:29:15.016Z</time>
      </trkpt>
      <trkpt lat="47.18703" lon="-1.73277">
        <ele>73.5</ele>
        <time>2016-04-10T12:29:38.057Z</time>
      </trkpt>
      <trkpt lat="47.18702" lon="-1.73275">
        <ele>73.4</ele>
        <time>2016-04-10T12:29:39.013Z</time>
      </trkpt>
      <trkpt lat="47.18694" lon="-1.73268">
        <ele>72.5</ele>
        <time>2016-04-10T12:29:46.048Z</time>
      </trkpt>
      <trkpt lat="47.18693" lon="-1.73267">
        <ele>72.4</ele>
        <time>2016-04-10T12:29:47.029Z</time>
      </trkpt>
      <trkpt lat="47.18688" lon="-1.73257">
        <ele>71.8</ele>
        <time>2016-04-10T12:29:53.994Z</time>
      </trkpt>
      <trkpt lat="47.18687" lon="-1.73256">
        <ele>71.7</ele>
        <time>2016-04-10T12:29:54.993Z</time>
      </trkpt>
      <trkpt lat="47.18682" lon="-1.73245">
        <ele>70.5</ele>
        <time>2016-04-10T12:30:03.054Z</time>
      </trkpt>
      <trkpt lat="47.1868" lon="-1.73244">
        <ele>70.4</ele>
        <time>2016-04-10T12:30:03.996Z</time>
      </trkpt>
      <trkpt lat="47.18672" lon="-1.7324">
        <ele>69.7</ele>
        <time>2016-04-10T12:30:12.117Z</time>
      </trkpt>
      <trkpt lat="47.18671" lon="-1.73239">
        <ele>69.7</ele>
        <time>2016-04-10T12:30:12.977Z</time>
      </trkpt>
      <trkpt lat="47.18668" lon="-1.73227">
        <ele>69.8</ele>
        <time>2016-04-10T12:30:17.137Z</time>
      </trkpt>
      <trkpt lat="47.18668" lon="-1.73225">
        <ele>69.9</ele>
        <time>2016-04-10T12:30:17.984Z</time>
      </trkpt>
      <trkpt lat="47.18667" lon="-1.73213">
        <ele>70.4</ele>
        <time>2016-04-10T12:30:25.169Z</time>
      </trkpt>
      <trkpt lat="47.18667" lon="-1.73211">
        <ele>70.4</ele>
        <time>2016-04-10T12:30:26.287Z</time>
      </trkpt>
      <trkpt lat="47.18665" lon="-1.73199">
        <ele>70.8</ele>
        <time>2016-04-10T12:30:34.028Z</time>
      </trkpt>
      <trkpt lat="47.18664" lon="-1.73197">
        <ele>70.8</ele>
        <time>2016-04-10T12:30:34.948Z</time>
      </trkpt>
      <trkpt lat="47.18663" lon="-1.73185">
        <ele>71.1</ele>
        <time>2016-04-10T12:30:41.004Z</time>
      </trkpt>
      <trkpt lat="47.18662" lon="-1.73182">
        <ele>71.1</ele>
        <time>2016-04-10T12:30:42.000Z</time>
      </trkpt>
      <trkpt lat="47.18662" lon="-1.73169">
        <ele>71.5</ele>
        <time>2016-04-10T12:30:46.988Z</time>
      </trkpt>
      <trkpt lat="47.18662" lon="-1.73167">
        <ele>71.6</ele>
        <time>2016-04-10T12:30:47.950Z</time>
      </trkpt>
      <trkpt lat="47.18661" lon="-1.73154">
        <ele>71.9</ele>
        <time>2016-04-10T12:30:55.051Z</time>
      </trkpt>
      <trkpt lat="47.18661" lon="-1.73152">
        <ele>71.9</ele>
        <time>2016-04-10T12:30:55.960Z</time>
      </trkpt>
      <trkpt lat="47.1866" lon="-1.73141">
        <ele>72.2</ele>
        <time>2016-04-10T12:31:01.974Z</time>
      </trkpt>
      <trkpt lat="47.18659" lon="-1.73139">
        <ele>72.2</ele>
        <time>2016-04-10T12:31:02.949Z</time>
      </trkpt>
      <trkpt lat="47.18658" lon="-1.73127">
        <ele>72.4</ele>
        <time>2016-04-10T12:31:09.050Z</time>
      </trkpt>
      <trkpt lat="47.18658" lon="-1.73124">
        <ele>72.4</ele>
        <time>2016-04-10T12:31:09.949Z</time>
      </trkpt>
      <trkpt lat="47.18657" lon="-1.73113">
        <ele>72.2</ele>
        <time>2016-04-10T12:31:16.030Z</time>
      </trkpt>
      <trkpt lat="47.18657" lon="-1.7311">
        <ele>72.2</ele>
        <time>2016-04-10T12:31:16.948Z</time>
      </trkpt>
      <trkpt lat="47.18659" lon="-1.73097">
        <ele>72.2</ele>
        <time>2016-04-10T12:31:28.011Z</time>
      </trkpt>
      <trkpt lat="47.18659" lon="-1.73096">
        <ele>72.1</ele>
        <time>2016-04-10T12:31:28.955Z</time>
      </trkpt>
      <trkpt lat="47.18662" lon="-1.73086">
        <ele>71.9</ele>
        <time>2016-04-10T12:31:34.008Z</time>
      </trkpt>
      <trkpt lat="47.18662" lon="-1.73083">
        <ele>72</ele>
        <time>2016-04-10T12:31:34.949Z</time>
      </trkpt>
      <trkpt lat="47.18666" lon="-1.73072">
        <ele>71.8</ele>
        <time>2016-04-10T12:31:41.015Z</time>
      </trkpt>
      <trkpt lat="47.18667" lon="-1.73071">
        <ele>71.8</ele>
        <time>2016-04-10T12:31:41.941Z</time>
      </trkpt>
      <trkpt lat="47.18672" lon="-1.73062">
        <ele>71.5</ele>
        <time>2016-04-10T12:31:47.984Z</time>
      </trkpt>
      <trkpt lat="47.18673" lon="-1.7306">
        <ele>71.5</ele>
        <time>2016-04-10T12:31:48.961Z</time>
      </trkpt>
      <trkpt lat="47.18677" lon="-1.7305">
        <ele>71.6</ele>
        <time>2016-04-10T12:31:55.000Z</time>
      </trkpt>
      <trkpt lat="47.18678" lon="-1.73049">
        <ele>71.6</ele>
        <time>2016-04-10T12:31:55.945Z</time>
      </trkpt>
      <trkpt lat="47.18684" lon="-1.73039">
        <ele>71.6</ele>
        <time>2016-04-10T12:32:02.011Z</time>
      </trkpt>
      <trkpt lat="47.18684" lon="-1.73038">
        <ele>71.6</ele>
        <time>2016-04-10T12:32:02.946Z</time>
      </trkpt>
      <trkpt lat="47.18689" lon="-1.73028">
        <ele>71.4</ele>
        <time>2016-04-10T12:32:10.026Z</time>
      </trkpt>
      <trkpt lat="47.1869" lon="-1.73026">
        <ele>71.3</ele>
        <time>2016-04-10T12:32:10.950Z</time>
      </trkpt>
      <trkpt lat="47.18693" lon="-1.73014">
        <ele>71</ele>
        <time>2016-04-10T12:32:17.983Z</time>
      </trkpt>
      <trkpt lat="47.18693" lon="-1.73012">
        <ele>71</ele>
        <time>2016-04-10T12:32:18.950Z</time>
      </trkpt>
      <trkpt lat="47.18696" lon="-1.73002">
        <ele>71.1</ele>
        <time>2016-04-10T12:32:25.039Z</time>
      </trkpt>
      <trkpt lat="47.18697" lon="-1.73">
        <ele>71.1</ele>
        <time>2016-04-10T12:32:25.950Z</time>
      </trkpt>
      <trkpt lat="47.187" lon="-1.72989">
        <ele>71.1</ele>
        <time>2016-04-10T12:32:32.048Z</time>
      </trkpt>
      <trkpt lat="47.18701" lon="-1.72988">
        <ele>71.1</ele>
        <time>2016-04-10T12:32:33.000Z</time>
      </trkpt>
      <trkpt lat="47.18705" lon="-1.72978">
        <ele>71.7</ele>
        <time>2016-04-10T12:32:40.089Z</time>
      </trkpt>
      <trkpt lat="47.18706" lon="-1.72976">
        <ele>71.7</ele>
        <time>2016-04-10T12:32:40.950Z</time>
      </trkpt>
      <trkpt lat="47.18709" lon="-1.72966">
        <ele>72.1</ele>
        <time>2016-04-10T12:32:48.985Z</time>
      </trkpt>
      <trkpt lat="47.18709" lon="-1.72963">
        <ele>72.2</ele>
        <time>2016-04-10T12:32:50.002Z</time>
      </trkpt>
      <trkpt lat="47.18711" lon="-1.72951">
        <ele>72.5</ele>
        <time>2016-04-10T12:32:57.072Z</time>
      </trkpt>
      <trkpt lat="47.18711" lon="-1.72948">
        <ele>72.4</ele>
        <time>2016-04-10T12:32:57.950Z</time>
      </trkpt>
      <trkpt lat="47.18711" lon="-1.72936">
        <ele>72.3</ele>
        <time>2016-04-10T12:33:04.026Z</time>
      </trkpt>
      <trkpt lat="47.18711" lon="-1.72935">
        <ele>72.3</ele>
        <time>2016-04-10T12:33:05.018Z</time>
      </trkpt>
      <trkpt lat="47.18713" lon="-1.72922">
        <ele>72.3</ele>
        <time>2016-04-10T12:33:11.019Z</time>
      </trkpt>
      <trkpt lat="47.18714" lon="-1.72921">
        <ele>72.2</ele>
        <time>2016-04-10T12:33:11.946Z</time>
      </trkpt>
      <trkpt lat="47.18717" lon="-1.7291">
        <ele>72.1</ele>
        <time>2016-04-10T12:33:18.004Z</time>
      </trkpt>
      <trkpt lat="47.18717" lon="-1.72908">
        <ele>72.1</ele>
        <time>2016-04-10T12:33:18.955Z</time>
      </trkpt>
      <trkpt lat="47.1872" lon="-1.72897">
        <ele>72.2</ele>
        <time>2016-04-10T12:33:26.025Z</time>
      </trkpt>
      <trkpt lat="47.1872" lon="-1.72895">
        <ele>72.2</ele>
        <time>2016-04-10T12:33:26.965Z</time>
      </trkpt>
      <trkpt lat="47.18722" lon="-1.72882">
        <ele>72.1</ele>
        <time>2016-04-10T12:33:34.035Z</time>
      </trkpt>
      <trkpt lat="47.18722" lon="-1.7288">
        <ele>72.1</ele>
        <time>2016-04-10T12:33:34.951Z</time>
      </trkpt>
      <trkpt lat="47.18724" lon="-1.72869">
        <ele>72.2</ele>
        <time>2016-04-10T12:33:40.108Z</time>
      </trkpt>
      <trkpt lat="47.18725" lon="-1.72867">
        <ele>72.2</ele>
        <time>2016-04-10T12:33:41.008Z</time>
      </trkpt>
      <trkpt lat="47.18727" lon="-1.72855">
        <ele>72.3</ele>
        <time>2016-04-10T12:33:47.023Z</time>
      </trkpt>
      <trkpt lat="47.18727" lon="-1.72853">
        <ele>72.3</ele>
        <time>2016-04-10T12:33:48.040Z</time>
      </trkpt>
      <trkpt lat="47.18728" lon="-1.72841">
        <ele>72</ele>
        <time>2016-04-10T12:33:54.082Z</time>
      </trkpt>
      <trkpt lat="47.18729" lon="-1.72839">
        <ele>71.8</ele>
        <time>2016-04-10T12:33:55.006Z</time>
      </trkpt>
      <trkpt lat="47.18729" lon="-1.72826">
        <ele>71.7</ele>
        <time>2016-04-10T12:34:02.360Z</time>
      </trkpt>
      <trkpt lat="47.18729" lon="-1.72824">
        <ele>71.8</ele>
        <time>2016-04-10T12:34:03.007Z</time>
      </trkpt>
      <trkpt lat="47.1873" lon="-1.72811">
        <ele>72</ele>
        <time>2016-04-10T12:34:10.039Z</time>
      </trkpt>
      <trkpt lat="47.1873" lon="-1.7281">
        <ele>72</ele>
        <time>2016-04-10T12:34:10.997Z</time>
      </trkpt>
      <trkpt lat="47.18731" lon="-1.72797">
        <ele>71.9</ele>
        <time>2016-04-10T12:34:18.127Z</time>
      </trkpt>
      <trkpt lat="47.18731" lon="-1.72796">
        <ele>71.9</ele>
        <time>2016-04-10T12:34:19.008Z</time>
      </trkpt>
      <trkpt lat="47.18733" lon="-1.72785">
        <ele>72</ele>
        <time>2016-04-10T12:34:25.497Z</time>
      </trkpt>
      <trkpt lat="47.18734" lon="-1.72783">
        <ele>72</ele>
        <time>2016-04-10T12:34:25.975Z</time>
      </trkpt>
      <trkpt lat="47.18736" lon="-1.72771">
        <ele>71.9</ele>
        <time>2016-04-10T12:34:32.124Z</time>
      </trkpt>
      <trkpt lat="47.18736" lon="-1.72769">
        <ele>71.9</ele>
        <time>2016-04-10T12:34:33.030Z</time>
      </trkpt>
      <trkpt lat="47.18738" lon="-1.72758">
        <ele>71.9</ele>
        <time>2016-04-10T12:34:40.018Z</time>
      </trkpt>
      <trkpt lat="47.18738" lon="-1.72756">
        <ele>72</ele>
        <time>2016-04-10T12:34:41.008Z</time>
      </trkpt>
      <trkpt lat="47.18738" lon="-1.72743">
        <ele>72.1</ele>
        <time>2016-04-10T12:34:49.029Z</time>
      </trkpt>
      <trkpt lat="47.18738" lon="-1.72741">
        <ele>72.1</ele>
        <time>2016-04-10T12:34:50.022Z</time>
      </trkpt>
      <trkpt lat="47.18738" lon="-1.72729">
        <ele>72.2</ele>
        <time>2016-04-10T12:34:55.057Z</time>
      </trkpt>
      <trkpt lat="47.18738" lon="-1.72727">
        <ele>72.3</ele>
        <time>2016-04-10T12:34:56.009Z</time>
      </trkpt>
      <trkpt lat="47.18737" lon="-1.72714">
        <ele>72.3</ele>
        <time>2016-04-10T12:35:03.061Z</time>
      </trkpt>
      <trkpt lat="47.18737" lon="-1.72713">
        <ele>72.3</ele>
        <time>2016-04-10T12:35:04.004Z</time>
      </trkpt>
      <trkpt lat="47.18738" lon="-1.72701">
        <ele>72.4</ele>
        <time>2016-04-10T12:35:10.119Z</time>
      </trkpt>
      <trkpt lat="47.18738" lon="-1.72699">
        <ele>72.5</ele>
        <time>2016-04-10T12:35:11.125Z</time>
      </trkpt>
      <trkpt lat="47.18739" lon="-1.72688">
        <ele>72.2</ele>
        <time>2016-04-10T12:35:17.229Z</time>
      </trkpt>
      <trkpt lat="47.18739" lon="-1.72685">
        <ele>72.2</ele>
        <time>2016-04-10T12:35:18.024Z</time>
      </trkpt>
      <trkpt lat="47.1874" lon="-1.72675">
        <ele>71.9</ele>
        <time>2016-04-10T12:35:23.996Z</time>
      </trkpt>
      <trkpt lat="47.1874" lon="-1.72672">
        <ele>71.9</ele>
        <time>2016-04-10T12:35:24.995Z</time>
      </trkpt>
      <trkpt lat="47.18741" lon="-1.72659">
        <ele>72.3</ele>
        <time>2016-04-10T12:35:31.054Z</time>
      </trkpt>
      <trkpt lat="47.18741" lon="-1.72659">
        <ele>72.3</ele>
        <time>2016-04-10T12:35:32.021Z</time>
      </trkpt>
      <trkpt lat="47.18739" lon="-1.72646">
        <ele>71.9</ele>
        <time>2016-04-10T12:35:38.151Z</time>
      </trkpt>
      <trkpt lat="47.18739" lon="-1.72644">
        <ele>71.8</ele>
        <time>2016-04-10T12:35:38.998Z</time>
      </trkpt>
      <trkpt lat="47.1874" lon="-1.72632">
        <ele>72</ele>
        <time>2016-04-10T12:35:46.108Z</time>
      </trkpt>
      <trkpt lat="47.18739" lon="-1.7263">
        <ele>72.1</ele>
        <time>2016-04-10T12:35:47.049Z</time>
      </trkpt>
      <trkpt lat="47.18739" lon="-1.72618">
        <ele>72.2</ele>
        <time>2016-04-10T12:35:56.112Z</time>
      </trkpt>
      <trkpt lat="47.18739" lon="-1.72617">
        <ele>72.2</ele>
        <time>2016-04-10T12:35:57.139Z</time>
      </trkpt>
      <trkpt lat="47.18741" lon="-1.72605">
        <ele>72.3</ele>
        <time>2016-04-10T12:36:00.978Z</time>
      </trkpt>
      <trkpt lat="47.18741" lon="-1.72604">
        <ele>72.4</ele>
        <time>2016-04-10T12:36:02.022Z</time>
      </trkpt>
      <trkpt lat="47.18742" lon="-1.72592">
        <ele>73.1</ele>
        <time>2016-04-10T12:36:09.069Z</time>
      </trkpt>
      <trkpt lat="47.18742" lon="-1.72591">
        <ele>73.2</ele>
        <time>2016-04-10T12:36:10.028Z</time>
      </trkpt>
      <trkpt lat="47.18743" lon="-1.72578">
        <ele>74.1</ele>
        <time>2016-04-10T12:36:19.124Z</time>
      </trkpt>
      <trkpt lat="47.18742" lon="-1.72575">
        <ele>74.2</ele>
        <time>2016-04-10T12:36:20.001Z</time>
      </trkpt>
      <trkpt lat="47.18743" lon="-1.72564">
        <ele>74.2</ele>
        <time>2016-04-10T12:36:24.073Z</time>
      </trkpt>
      <trkpt lat="47.18744" lon="-1.72561">
        <ele>74.1</ele>
        <time>2016-04-10T12:36:25.150Z</time>
      </trkpt>
      <trkpt lat="47.1875" lon="-1.72552">
        <ele>73</ele>
        <time>2016-04-10T12:36:34.046Z</time>
      </trkpt>
      <trkpt lat="47.18751" lon="-1.72552">
        <ele>73</ele>
        <time>2016-04-10T12:36:35.063Z</time>
      </trkpt>
      <trkpt lat="47.18759" lon="-1.72546">
        <ele>72.6</ele>
        <time>2016-04-10T12:36:40.027Z</time>
      </trkpt>
      <trkpt lat="47.1876" lon="-1.72545">
        <ele>72.5</ele>
        <time>2016-04-10T12:36:41.041Z</time>
      </trkpt>
      <trkpt lat="47.18768" lon="-1.7254">
        <ele>71.7</ele>
        <time>2016-04-10T12:36:51.063Z</time>
      </trkpt>
      <trkpt lat="47.18769" lon="-1.72539">
        <ele>71.7</ele>
        <time>2016-04-10T12:36:52.007Z</time>
      </trkpt>
      <trkpt lat="47.18777" lon="-1.72536">
        <ele>71.7</ele>
        <time>2016-04-10T12:36:58.008Z</time>
      </trkpt>
      <trkpt lat="47.18778" lon="-1.72536">
        <ele>71.6</ele>
        <time>2016-04-10T12:36:59.034Z</time>
      </trkpt>
      <trkpt lat="47.18786" lon="-1.72532">
        <ele>71.6</ele>
        <time>2016-04-10T12:37:07.170Z</time>
      </trkpt>
      <trkpt lat="47.18787" lon="-1.72531">
        <ele>71.7</ele>
        <time>2016-04-10T12:37:07.968Z</time>
      </trkpt>
      <trkpt lat="47.18795" lon="-1.72525">
        <ele>71.7</ele>
        <time>2016-04-10T12:37:14.034Z</time>
      </trkpt>
      <trkpt lat="47.18796" lon="-1.72524">
        <ele>71.6</ele>
        <time>2016-04-10T12:37:15.040Z</time>
      </trkpt>
      <trkpt lat="47.18804" lon="-1.72521">
        <ele>71.5</ele>
        <time>2016-04-10T12:37:23.116Z</time>
      </trkpt>
      <trkpt lat="47.18805" lon="-1.7252">
        <ele>71.5</ele>
        <time>2016-04-10T12:37:24.386Z</time>
      </trkpt>
      <trkpt lat="47.18812" lon="-1.72517">
        <ele>71.5</ele>
        <time>2016-04-10T12:37:27.213Z</time>
      </trkpt>
      <trkpt lat="47.18814" lon="-1.72517">
        <ele>71.6</ele>
        <time>2016-04-10T12:37:28.021Z</time>
      </trkpt>
      <trkpt lat="47.18823" lon="-1.72517">
        <ele>72</ele>
        <time>2016-04-10T12:37:37.000Z</time>
      </trkpt>
      <trkpt lat="47.18823" lon="-1.72517">
        <ele>72.1</ele>
        <time>2016-04-10T12:37:38.000Z</time>
      </trkpt>
      <trkpt lat="47.18832" lon="-1.72518">
        <ele>72.5</ele>
        <time>2016-04-10T12:37:47.040Z</time>
      </trkpt>
      <trkpt lat="47.18836" lon="-1.72517">
        <ele>72.4</ele>
        <time>2016-04-10T12:37:48.032Z</time>
      </trkpt>
      <trkpt lat="47.18844" lon="-1.72514">
        <ele>72.3</ele>
        <time>2016-04-10T12:37:54.422Z</time>
      </trkpt>
      <trkpt lat="47.18846" lon="-1.72514">
        <ele>72.2</ele>
        <time>2016-04-10T12:37:54.966Z</time>
      </trkpt>
      <trkpt lat="47.18854" lon="-1.72513">
        <ele>72.3</ele>
        <time>2016-04-10T12:38:02.421Z</time>
      </trkpt>
      <trkpt lat="47.18855" lon="-1.72513">
        <ele>72.2</ele>
        <time>2016-04-10T12:38:02.961Z</time>
      </trkpt>
      <trkpt lat="47.18861" lon="-1.72512">
        <ele>72</ele>
        <time>2016-04-10T12:38:10.095Z</time>
      </trkpt>
      <trkpt lat="47.18864" lon="-1.72513">
        <ele>72.2</ele>
        <time>2016-04-10T12:38:11.030Z</time>
      </trkpt>
      <trkpt lat="47.18872" lon="-1.72515">
        <ele>72.7</ele>
        <time>2016-04-10T12:38:16.090Z</time>
      </trkpt>
      <trkpt lat="47.18873" lon="-1.72516">
        <ele>72.8</ele>
        <time>2016-04-10T12:38:16.998Z</time>
      </trkpt>
      <trkpt lat="47.18881" lon="-1.72515">
        <ele>73.1</ele>
        <time>2016-04-10T12:38:24.084Z</time>
      </trkpt>
      <trkpt lat="47.18882" lon="-1.72514">
        <ele>73.2</ele>
        <time>2016-04-10T12:38:25.022Z</time>
      </trkpt>
      <trkpt lat="47.1889" lon="-1.72518">
        <ele>72.5</ele>
        <time>2016-04-10T12:38:32.077Z</time>
      </trkpt>
      <trkpt lat="47.18891" lon="-1.72518">
        <ele>72.3</ele>
        <time>2016-04-10T12:38:33.000Z</time>
      </trkpt>
      <trkpt lat="47.18899" lon="-1.72515">
        <ele>72.4</ele>
        <time>2016-04-10T12:38:40.021Z</time>
      </trkpt>
      <trkpt lat="47.189" lon="-1.72514">
        <ele>72.5</ele>
        <time>2016-04-10T12:38:41.028Z</time>
      </trkpt>
      <trkpt lat="47.18909" lon="-1.72513">
        <ele>72.6</ele>
        <time>2016-04-10T12:38:46.002Z</time>
      </trkpt>
      <trkpt lat="47.18909" lon="-1.72513">
        <ele>72.6</ele>
        <time>2016-04-10T12:38:47.034Z</time>
      </trkpt>
      <trkpt lat="47.18917" lon="-1.72516">
        <ele>72.4</ele>
        <time>2016-04-10T12:38:56.089Z</time>
      </trkpt>
      <trkpt lat="47.18918" lon="-1.72516">
        <ele>72.4</ele>
        <time>2016-04-10T12:38:56.963Z</time>
      </trkpt>
      <trkpt lat="47.18926" lon="-1.72517">
        <ele>72.5</ele>
        <time>2016-04-10T12:39:02.080Z</time>
      </trkpt>
      <trkpt lat="47.18928" lon="-1.72518">
        <ele>72.5</ele>
        <time>2016-04-10T12:39:03.022Z</time>
      </trkpt>
      <trkpt lat="47.18936" lon="-1.72518">
        <ele>72.1</ele>
        <time>2016-04-10T12:39:11.139Z</time>
      </trkpt>
      <trkpt lat="47.18938" lon="-1.72516">
        <ele>72.2</ele>
        <time>2016-04-10T12:39:12.031Z</time>
      </trkpt>
      <trkpt lat="47.18945" lon="-1.72507">
        <ele>73.3</ele>
        <time>2016-04-10T12:39:37.018Z</time>
      </trkpt>
      <trkpt lat="47.18945" lon="-1.72508">
        <ele>73.3</ele>
        <time>2016-04-10T12:39:38.029Z</time>
      </trkpt>
      <trkpt lat="47.18952" lon="-1.7251">
        <ele>74.6</ele>
        <time>2016-04-10T12:40:20.121Z</time>
      </trkpt>
      <trkpt lat="47.18955" lon="-1.7251">
        <ele>74.6</ele>
        <time>2016-04-10T12:40:21.013Z</time>
      </trkpt>
      <trkpt lat="47.18962" lon="-1.72511">
        <ele>74.1</ele>
        <time>2016-04-10T12:40:25.333Z</time>
      </trkpt>
      <trkpt lat="47.18964" lon="-1.72511">
        <ele>73.9</ele>
        <time>2016-04-10T12:40:25.989Z</time>
      </trkpt>
      <trkpt lat="47.18972" lon="-1.72512">
        <ele>73.6</ele>
        <time>2016-04-10T12:40:30.143Z</time>
      </trkpt>
      <trkpt lat="47.18973" lon="-1.72512">
        <ele>73.5</ele>
        <time>2016-04-10T12:40:31.007Z</time>
      </trkpt>
      <trkpt lat="47.18981" lon="-1.72514">
        <ele>73.1</ele>
        <time>2016-04-10T12:40:35.173Z</time>
      </trkpt>
      <trkpt lat="47.18983" lon="-1.72515">
        <ele>72.9</ele>
        <time>2016-04-10T12:40:36.050Z</time>
      </trkpt>
      <trkpt lat="47.18991" lon="-1.72517">
        <ele>72.2</ele>
        <time>2016-04-10T12:40:41.133Z</time>
      </trkpt>
      <trkpt lat="47.18992" lon="-1.72517">
        <ele>72.1</ele>
        <time>2016-04-10T12:40:42.016Z</time>
      </trkpt>
      <trkpt lat="47.19" lon="-1.72519">
        <ele>71.9</ele>
        <time>2016-04-10T12:40:47.077Z</time>
      </trkpt>
      <trkpt lat="47.19002" lon="-1.72519">
        <ele>71.8</ele>
        <time>2016-04-10T12:40:48.032Z</time>
      </trkpt>
      <trkpt lat="47.1901" lon="-1.72518">
        <ele>71.7</ele>
        <time>2016-04-10T12:40:53.090Z</time>
      </trkpt>
      <trkpt lat="47.19012" lon="-1.72518">
        <ele>71.6</ele>
        <time>2016-04-10T12:40:54.047Z</time>
      </trkpt>
      <trkpt lat="47.19019" lon="-1.72517">
        <ele>71.3</ele>
        <time>2016-04-10T12:40:57.992Z</time>
      </trkpt>
      <trkpt lat="47.19021" lon="-1.72517">
        <ele>71.3</ele>
        <time>2016-04-10T12:40:59.087Z</time>
      </trkpt>
      <trkpt lat="47.19029" lon="-1.72517">
        <ele>71</ele>
        <time>2016-04-10T12:41:04.060Z</time>
      </trkpt>
      <trkpt lat="47.1903" lon="-1.72517">
        <ele>70.9</ele>
        <time>2016-04-10T12:41:05.015Z</time>
      </trkpt>
      <trkpt lat="47.19039" lon="-1.72519">
        <ele>70.2</ele>
        <time>2016-04-10T12:41:11.098Z</time>
      </trkpt>
      <trkpt lat="47.19041" lon="-1.72519">
        <ele>70</ele>
        <time>2016-04-10T12:41:12.083Z</time>
      </trkpt>
      <trkpt lat="47.1905" lon="-1.72521">
        <ele>69.7</ele>
        <time>2016-04-10T12:41:16.989Z</time>
      </trkpt>
      <trkpt lat="47.19052" lon="-1.72521">
        <ele>69.6</ele>
        <time>2016-04-10T12:41:18.054Z</time>
      </trkpt>
      <trkpt lat="47.1906" lon="-1.72522">
        <ele>69.6</ele>
        <time>2016-04-10T12:41:23.075Z</time>
      </trkpt>
      <trkpt lat="47.19062" lon="-1.72522">
        <ele>69.6</ele>
        <time>2016-04-10T12:41:24.018Z</time>
      </trkpt>
      <trkpt lat="47.19071" lon="-1.72521">
        <ele>69.7</ele>
        <time>2016-04-10T12:41:30.102Z</time>
      </trkpt>
      <trkpt lat="47.19073" lon="-1.72521">
        <ele>69.6</ele>
        <time>2016-04-10T12:41:30.965Z</time>
      </trkpt>
      <trkpt lat="47.19082" lon="-1.7252">
        <ele>69.4</ele>
        <time>2016-04-10T12:41:36.143Z</time>
      </trkpt>
      <trkpt lat="47.19083" lon="-1.7252">
        <ele>69.4</ele>
        <time>2016-04-10T12:41:37.036Z</time>
      </trkpt>
      <trkpt lat="47.19092" lon="-1.72519">
        <ele>69.5</ele>
        <time>2016-04-10T12:41:43.068Z</time>
      </trkpt>
      <trkpt lat="47.19094" lon="-1.72519">
        <ele>69.5</ele>
        <time>2016-04-10T12:41:44.007Z</time>
      </trkpt>
      <trkpt lat="47.19102" lon="-1.7252">
        <ele>69.2</ele>
        <time>2016-04-10T12:41:50.128Z</time>
      </trkpt>
      <trkpt lat="47.19103" lon="-1.7252">
        <ele>69.2</ele>
        <time>2016-04-10T12:41:50.994Z</time>
      </trkpt>
      <trkpt lat="47.19111" lon="-1.72521">
        <ele>69.4</ele>
        <time>2016-04-10T12:41:57.072Z</time>
      </trkpt>
      <trkpt lat="47.19113" lon="-1.72521">
        <ele>69.5</ele>
        <time>2016-04-10T12:41:58.037Z</time>
      </trkpt>
      <trkpt lat="47.1912" lon="-1.72523">
        <ele>70.1</ele>
        <time>2016-04-10T12:42:04.031Z</time>
      </trkpt>
      <trkpt lat="47.19122" lon="-1.72523">
        <ele>70.1</ele>
        <time>2016-04-10T12:42:05.042Z</time>
      </trkpt>
      <trkpt lat="47.1913" lon="-1.72523">
        <ele>70</ele>
        <time>2016-04-10T12:42:10.086Z</time>
      </trkpt>
      <trkpt lat="47.19131" lon="-1.72523">
        <ele>69.9</ele>
        <time>2016-04-10T12:42:10.994Z</time>
      </trkpt>
      <trkpt lat="47.19139" lon="-1.72522">
        <ele>69.6</ele>
        <time>2016-04-10T12:42:17.106Z</time>
      </trkpt>
      <trkpt lat="47.19141" lon="-1.72521">
        <ele>69.6</ele>
        <time>2016-04-10T12:42:18.032Z</time>
      </trkpt>
      <trkpt lat="47.19148" lon="-1.72516">
        <ele>69.6</ele>
        <time>2016-04-10T12:42:24.090Z</time>
      </trkpt>
      <trkpt lat="47.19149" lon="-1.72515">
        <ele>69.6</ele>
        <time>2016-04-10T12:42:25.030Z</time>
      </trkpt>
      <trkpt lat="47.19154" lon="-1.72505">
        <ele>70.1</ele>
        <time>2016-04-10T12:42:32.467Z</time>
      </trkpt>
      <trkpt lat="47.19156" lon="-1.72504">
        <ele>70.2</ele>
        <time>2016-04-10T12:42:32.954Z</time>
      </trkpt>
      <trkpt lat="47.19163" lon="-1.72496">
        <ele>70.3</ele>
        <time>2016-04-10T12:42:40.080Z</time>
      </trkpt>
      <trkpt lat="47.19164" lon="-1.72495">
        <ele>70.3</ele>
        <time>2016-04-10T12:42:41.007Z</time>
      </trkpt>
      <trkpt lat="47.19169" lon="-1.72485">
        <ele>70.6</ele>
        <time>2016-04-10T12:42:47.112Z</time>
      </trkpt>
      <trkpt lat="47.19169" lon="-1.72483">
        <ele>70.6</ele>
        <time>2016-04-10T12:42:48.038Z</time>
      </trkpt>
      <trkpt lat="47.19171" lon="-1.72471">
        <ele>71.6</ele>
        <time>2016-04-10T12:42:55.072Z</time>
      </trkpt>
      <trkpt lat="47.19172" lon="-1.7247">
        <ele>71.7</ele>
        <time>2016-04-10T12:42:56.012Z</time>
      </trkpt>
      <trkpt lat="47.1918" lon="-1.72464">
        <ele>71.9</ele>
        <time>2016-04-10T12:43:04.154Z</time>
      </trkpt>
      <trkpt lat="47.19181" lon="-1.72464">
        <ele>71.8</ele>
        <time>2016-04-10T12:43:05.013Z</time>
      </trkpt>
      <trkpt lat="47.19189" lon="-1.72459">
        <ele>71.2</ele>
        <time>2016-04-10T12:43:12.136Z</time>
      </trkpt>
      <trkpt lat="47.1919" lon="-1.72459">
        <ele>71.1</ele>
        <time>2016-04-10T12:43:13.019Z</time>
      </trkpt>
      <trkpt lat="47.19196" lon="-1.72452">
        <ele>70.5</ele>
        <time>2016-04-10T12:43:19.096Z</time>
      </trkpt>
      <trkpt lat="47.19198" lon="-1.72451">
        <ele>70.5</ele>
        <time>2016-04-10T12:43:20.125Z</time>
      </trkpt>
      <trkpt lat="47.19206" lon="-1.72449">
        <ele>70.4</ele>
        <time>2016-04-10T12:43:25.082Z</time>
      </trkpt>
      <trkpt lat="47.19207" lon="-1.72448">
        <ele>70.3</ele>
        <time>2016-04-10T12:43:26.035Z</time>
      </trkpt>
      <trkpt lat="47.19214" lon="-1.72447">
        <ele>70.3</ele>
        <time>2016-04-10T12:43:33.028Z</time>
      </trkpt>
      <trkpt lat="47.19216" lon="-1.72447">
        <ele>70.3</ele>
        <time>2016-04-10T12:43:33.980Z</time>
      </trkpt>
      <trkpt lat="47.19217" lon="-1.72435">
        <ele>70.5</ele>
        <time>2016-04-10T12:43:43.472Z</time>
      </trkpt>
      <trkpt lat="47.19216" lon="-1.72433">
        <ele>70.5</ele>
        <time>2016-04-10T12:43:44.031Z</time>
      </trkpt>
      <trkpt lat="47.19214" lon="-1.72422">
        <ele>71.1</ele>
        <time>2016-04-10T12:43:52.107Z</time>
      </trkpt>
      <trkpt lat="47.19213" lon="-1.72421">
        <ele>71.1</ele>
        <time>2016-04-10T12:43:53.008Z</time>
      </trkpt>
      <trkpt lat="47.19212" lon="-1.72408">
        <ele>71.8</ele>
        <time>2016-04-10T12:44:00.233Z</time>
      </trkpt>
      <trkpt lat="47.19212" lon="-1.72407">
        <ele>71.9</ele>
        <time>2016-04-10T12:44:01.188Z</time>
      </trkpt>
      <trkpt lat="47.19211" lon="-1.72395">
        <ele>72.5</ele>
        <time>2016-04-10T12:44:08.141Z</time>
      </trkpt>
      <trkpt lat="47.19211" lon="-1.72393">
        <ele>72.5</ele>
        <time>2016-04-10T12:44:09.033Z</time>
      </trkpt>
      <trkpt lat="47.19209" lon="-1.72381">
        <ele>72.8</ele>
        <time>2016-04-10T12:44:16.103Z</time>
      </trkpt>
      <trkpt lat="47.19209" lon="-1.72379">
        <ele>72.7</ele>
        <time>2016-04-10T12:44:17.035Z</time>
      </trkpt>
      <trkpt lat="47.19208" lon="-1.72368">
        <ele>72.6</ele>
        <time>2016-04-10T12:44:24.456Z</time>
      </trkpt>
      <trkpt lat="47.19207" lon="-1.72365">
        <ele>72.6</ele>
        <time>2016-04-10T12:44:25.153Z</time>
      </trkpt>
      <trkpt lat="47.19208" lon="-1.72352">
        <ele>72.6</ele>
        <time>2016-04-10T12:44:31.137Z</time>
      </trkpt>
      <trkpt lat="47.19208" lon="-1.7235">
        <ele>72.6</ele>
        <time>2016-04-10T12:44:32.030Z</time>
      </trkpt>
      <trkpt lat="47.19215" lon="-1.72344">
        <ele>72.7</ele>
        <time>2016-04-10T12:44:38.079Z</time>
      </trkpt>
      <trkpt lat="47.19217" lon="-1.72344">
        <ele>72.8</ele>
        <time>2016-04-10T12:44:39.047Z</time>
      </trkpt>
      <trkpt lat="47.19225" lon="-1.72346">
        <ele>72.9</ele>
        <time>2016-04-10T12:44:44.091Z</time>
      </trkpt>
      <trkpt lat="47.19226" lon="-1.72346">
        <ele>72.9</ele>
        <time>2016-04-10T12:44:45.036Z</time>
      </trkpt>
      <trkpt lat="47.19233" lon="-1.72347">
        <ele>72.8</ele>
        <time>2016-04-10T12:44:52.094Z</time>
      </trkpt>
      <trkpt lat="47.19235" lon="-1.72347">
        <ele>72.8</ele>
        <time>2016-04-10T12:44:53.003Z</time>
      </trkpt>
      <trkpt lat="47.19243" lon="-1.72347">
        <ele>72.6</ele>
        <time>2016-04-10T12:44:59.025Z</time>
      </trkpt>
      <trkpt lat="47.19244" lon="-1.72347">
        <ele>72.6</ele>
        <time>2016-04-10T12:45:00.017Z</time>
      </trkpt>
      <trkpt lat="47.19252" lon="-1.72345">
        <ele>72.5</ele>
        <time>2016-04-10T12:45:07.170Z</time>
      </trkpt>
      <trkpt lat="47.19253" lon="-1.72345">
        <ele>72.3</ele>
        <time>2016-04-10T12:45:08.015Z</time>
      </trkpt>
      <trkpt lat="47.19261" lon="-1.72346">
        <ele>71.8</ele>
        <time>2016-04-10T12:45:15.046Z</time>
      </trkpt>
      <trkpt lat="47.19263" lon="-1.72345">
        <ele>71.8</ele>
        <time>2016-04-10T12:45:16.011Z</time>
      </trkpt>
      <trkpt lat="47.1927" lon="-1.7234">
        <ele>71.3</ele>
        <time>2016-04-10T12:45:24.122Z</time>
      </trkpt>
      <trkpt lat="47.19271" lon="-1.72339">
        <ele>71.3</ele>
        <time>2016-04-10T12:45:25.035Z</time>
      </trkpt>
      <trkpt lat="47.19275" lon="-1.72327">
        <ele>70.8</ele>
        <time>2016-04-10T12:45:35.057Z</time>
      </trkpt>
      <trkpt lat="47.19275" lon="-1.72326">
        <ele>70.7</ele>
        <time>2016-04-10T12:45:36.005Z</time>
      </trkpt>
      <trkpt lat="47.19271" lon="-1.72315">
        <ele>71.3</ele>
        <time>2016-04-10T12:45:43.613Z</time>
      </trkpt>
      <trkpt lat="47.1927" lon="-1.72314">
        <ele>71.3</ele>
        <time>2016-04-10T12:45:43.966Z</time>
      </trkpt>
      <trkpt lat="47.19266" lon="-1.72304">
        <ele>71.5</ele>
        <time>2016-04-10T12:45:50.065Z</time>
      </trkpt>
      <trkpt lat="47.19265" lon="-1.72302">
        <ele>71.4</ele>
        <time>2016-04-10T12:45:51.023Z</time>
      </trkpt>
      <trkpt lat="47.1926" lon="-1.72292">
        <ele>71.3</ele>
        <time>2016-04-10T12:45:58.075Z</time>
      </trkpt>
      <trkpt lat="47.1926" lon="-1.72291">
        <ele>71.3</ele>
        <time>2016-04-10T12:45:59.208Z</time>
      </trkpt>
      <trkpt lat="47.19255" lon="-1.7228">
        <ele>71.3</ele>
        <time>2016-04-10T12:46:05.420Z</time>
      </trkpt>
      <trkpt lat="47.19254" lon="-1.72279">
        <ele>71.3</ele>
        <time>2016-04-10T12:46:06.026Z</time>
      </trkpt>
      <trkpt lat="47.19249" lon="-1.72269">
        <ele>71.1</ele>
        <time>2016-04-10T12:46:12.013Z</time>
      </trkpt>
      <trkpt lat="47.19247" lon="-1.72268">
        <ele>71.1</ele>
        <time>2016-04-10T12:46:12.990Z</time>
      </trkpt>
      <trkpt lat="47.19243" lon="-1.72257">
        <ele>71</ele>
        <time>2016-04-10T12:46:20.120Z</time>
      </trkpt>
      <trkpt lat="47.19242" lon="-1.72255">
        <ele>70.9</ele>
        <time>2016-04-10T12:46:21.033Z</time>
      </trkpt>
      <trkpt lat="47.19238" lon="-1.72244">
        <ele>70.9</ele>
        <time>2016-04-10T12:46:27.072Z</time>
      </trkpt>
      <trkpt lat="47.19237" lon="-1.72242">
        <ele>70.9</ele>
        <time>2016-04-10T12:46:28.182Z</time>
      </trkpt>
      <trkpt lat="47.19231" lon="-1.72233">
        <ele>71.4</ele>
        <time>2016-04-10T12:46:35.095Z</time>
      </trkpt>
      <trkpt lat="47.1923" lon="-1.72232">
        <ele>71.4</ele>
        <time>2016-04-10T12:46:36.061Z</time>
      </trkpt>
      <trkpt lat="47.19224" lon="-1.72224">
        <ele>71.5</ele>
        <time>2016-04-10T12:46:42.116Z</time>
      </trkpt>
      <trkpt lat="47.19223" lon="-1.72223">
        <ele>71.5</ele>
        <time>2016-04-10T12:46:43.073Z</time>
      </trkpt>
      <trkpt lat="47.19218" lon="-1.72213">
        <ele>71.6</ele>
        <time>2016-04-10T12:46:49.086Z</time>
      </trkpt>
      <trkpt lat="47.19218" lon="-1.72211">
        <ele>71.7</ele>
        <time>2016-04-10T12:46:49.978Z</time>
      </trkpt>
      <trkpt lat="47.19212" lon="-1.72203">
        <ele>71.6</ele>
        <time>2016-04-10T12:46:56.093Z</time>
      </trkpt>
      <trkpt lat="47.19211" lon="-1.72202">
        <ele>71.6</ele>
        <time>2016-04-10T12:46:56.951Z</time>
      </trkpt>
      <trkpt lat="47.19205" lon="-1.72193">
        <ele>71.6</ele>
        <time>2016-04-10T12:47:05.202Z</time>
      </trkpt>
      <trkpt lat="47.19204" lon="-1.72192">
        <ele>71.6</ele>
        <time>2016-04-10T12:47:05.998Z</time>
      </trkpt>
      <trkpt lat="47.19199" lon="-1.72183">
        <ele>71.6</ele>
        <time>2016-04-10T12:47:11.134Z</time>
      </trkpt>
      <trkpt lat="47.19197" lon="-1.72182">
        <ele>71.6</ele>
        <time>2016-04-10T12:47:12.024Z</time>
      </trkpt>
      <trkpt lat="47.19191" lon="-1.72174">
        <ele>71.9</ele>
        <time>2016-04-10T12:47:19.471Z</time>
      </trkpt>
      <trkpt lat="47.1919" lon="-1.72173">
        <ele>71.9</ele>
        <time>2016-04-10T12:47:20.035Z</time>
      </trkpt>
      <trkpt lat="47.19184" lon="-1.72164">
        <ele>72.3</ele>
        <time>2016-04-10T12:47:26.134Z</time>
      </trkpt>
      <trkpt lat="47.19183" lon="-1.72162">
        <ele>72.3</ele>
        <time>2016-04-10T12:47:27.009Z</time>
      </trkpt>
      <trkpt lat="47.19178" lon="-1.72154">
        <ele>72.5</ele>
        <time>2016-04-10T12:47:35.048Z</time>
      </trkpt>
      <trkpt lat="47.19177" lon="-1.72152">
        <ele>72.6</ele>
        <time>2016-04-10T12:47:36.010Z</time>
      </trkpt>
      <trkpt lat="47.19172" lon="-1.72144">
        <ele>72.7</ele>
        <time>2016-04-10T12:47:41.087Z</time>
      </trkpt>
      <trkpt lat="47.1917" lon="-1.72143">
        <ele>72.7</ele>
        <time>2016-04-10T12:47:42.041Z</time>
      </trkpt>
      <trkpt lat="47.19165" lon="-1.72132">
        <ele>72.6</ele>
        <time>2016-04-10T12:47:49.117Z</time>
      </trkpt>
      <trkpt lat="47.19164" lon="-1.72131">
        <ele>72.6</ele>
        <time>2016-04-10T12:47:50.035Z</time>
      </trkpt>
      <trkpt lat="47.19159" lon="-1.72122">
        <ele>72.6</ele>
        <time>2016-04-10T12:47:56.072Z</time>
      </trkpt>
      <trkpt lat="47.19158" lon="-1.72121">
        <ele>72.6</ele>
        <time>2016-04-10T12:47:57.041Z</time>
      </trkpt>
      <trkpt lat="47.19152" lon="-1.72115">
        <ele>72.2</ele>
        <time>2016-04-10T12:48:03.067Z</time>
      </trkpt>
      <trkpt lat="47.19151" lon="-1.72114">
        <ele>72.2</ele>
        <time>2016-04-10T12:48:04.029Z</time>
      </trkpt>
      <trkpt lat="47.19144" lon="-1.72105">
        <ele>72.5</ele>
        <time>2016-04-10T12:48:11.009Z</time>
      </trkpt>
      <trkpt lat="47.19144" lon="-1.72104">
        <ele>72.5</ele>
        <time>2016-04-10T12:48:12.035Z</time>
      </trkpt>
      <trkpt lat="47.19136" lon="-1.72097">
        <ele>72.9</ele>
        <time>2016-04-10T12:48:20.126Z</time>
      </trkpt>
      <trkpt lat="47.19135" lon="-1.72096">
        <ele>73</ele>
        <time>2016-04-10T12:48:21.024Z</time>
      </trkpt>
      <trkpt lat="47.19129" lon="-1.72089">
        <ele>73.4</ele>
        <time>2016-04-10T12:48:26.990Z</time>
      </trkpt>
      <trkpt lat="47.19127" lon="-1.72088">
        <ele>73.5</ele>
        <time>2016-04-10T12:48:28.042Z</time>
      </trkpt>
      <trkpt lat="47.19119" lon="-1.72086">
        <ele>74.7</ele>
        <time>2016-04-10T12:48:35.089Z</time>
      </trkpt>
      <trkpt lat="47.19118" lon="-1.72085">
        <ele>74.9</ele>
        <time>2016-04-10T12:48:35.996Z</time>
      </trkpt>
      <trkpt lat="47.19111" lon="-1.72078">
        <ele>75.5</ele>
        <time>2016-04-10T12:48:42.112Z</time>
      </trkpt>
      <trkpt lat="47.1911" lon="-1.72077">
        <ele>75.6</ele>
        <time>2016-04-10T12:48:43.013Z</time>
      </trkpt>
      <trkpt lat="47.19102" lon="-1.72076">
        <ele>76.4</ele>
        <time>2016-04-10T12:48:49.064Z</time>
      </trkpt>
      <trkpt lat="47.191" lon="-1.72075">
        <ele>76.5</ele>
        <time>2016-04-10T12:48:50.036Z</time>
      </trkpt>
      <trkpt lat="47.19093" lon="-1.72068">
        <ele>77.2</ele>
        <time>2016-04-10T12:48:56.014Z</time>
      </trkpt>
      <trkpt lat="47.19093" lon="-1.72067">
        <ele>77.2</ele>
        <time>2016-04-10T12:48:57.033Z</time>
      </trkpt>
      <trkpt lat="47.19087" lon="-1.72057">
        <ele>76.9</ele>
        <time>2016-04-10T12:49:06.215Z</time>
      </trkpt>
      <trkpt lat="47.19086" lon="-1.72057">
        <ele>76.9</ele>
        <time>2016-04-10T12:49:06.996Z</time>
      </trkpt>
      <trkpt lat="47.19079" lon="-1.72055">
        <ele>76.6</ele>
        <time>2016-04-10T12:49:14.141Z</time>
      </trkpt>
      <trkpt lat="47.19075" lon="-1.72054">
        <ele>76.6</ele>
        <time>2016-04-10T12:49:14.997Z</time>
      </trkpt>
      <trkpt lat="47.19067" lon="-1.72052">
        <ele>76.7</ele>
        <time>2016-04-10T12:49:20.435Z</time>
      </trkpt>
      <trkpt lat="47.19065" lon="-1.72052">
        <ele>76.7</ele>
        <time>2016-04-10T12:49:21.021Z</time>
      </trkpt>
      <trkpt lat="47.19056" lon="-1.7205">
        <ele>76.5</ele>
        <time>2016-04-10T12:49:30.072Z</time>
      </trkpt>
      <trkpt lat="47.19054" lon="-1.7205">
        <ele>76.5</ele>
        <time>2016-04-10T12:49:31.024Z</time>
      </trkpt>
      <trkpt lat="47.19047" lon="-1.72047">
        <ele>76.6</ele>
        <time>2016-04-10T12:49:35.089Z</time>
      </trkpt>
      <trkpt lat="47.19046" lon="-1.72047">
        <ele>76.6</ele>
        <time>2016-04-10T12:49:36.015Z</time>
      </trkpt>
      <trkpt lat="47.1904" lon="-1.72042">
        <ele>76.5</ele>
        <time>2016-04-10T12:49:44.040Z</time>
      </trkpt>
      <trkpt lat="47.19037" lon="-1.7204">
        <ele>76.6</ele>
        <time>2016-04-10T12:49:45.030Z</time>
      </trkpt>
      <trkpt lat="47.1903" lon="-1.72036">
        <ele>76.8</ele>
        <time>2016-04-10T12:49:48.424Z</time>
      </trkpt>
      <trkpt lat="47.19028" lon="-1.72035">
        <ele>76.8</ele>
        <time>2016-04-10T12:49:49.008Z</time>
      </trkpt>
      <trkpt lat="47.19022" lon="-1.72026">
        <ele>77.1</ele>
        <time>2016-04-10T12:49:57.267Z</time>
      </trkpt>
      <trkpt lat="47.1902" lon="-1.72024">
        <ele>77.1</ele>
        <time>2016-04-10T12:49:58.012Z</time>
      </trkpt>
      <trkpt lat="47.19014" lon="-1.72017">
        <ele>76.8</ele>
        <time>2016-04-10T12:50:04.075Z</time>
      </trkpt>
      <trkpt lat="47.19012" lon="-1.72016">
        <ele>76.7</ele>
        <time>2016-04-10T12:50:05.033Z</time>
      </trkpt>
      <trkpt lat="47.19005" lon="-1.72009">
        <ele>76</ele>
        <time>2016-04-10T12:50:13.106Z</time>
      </trkpt>
      <trkpt lat="47.19004" lon="-1.72007">
        <ele>75.9</ele>
        <time>2016-04-10T12:50:14.024Z</time>
      </trkpt>
      <trkpt lat="47.18997" lon="-1.72">
        <ele>75.8</ele>
        <time>2016-04-10T12:50:20.078Z</time>
      </trkpt>
      <trkpt lat="47.18996" lon="-1.71998">
        <ele>75.9</ele>
        <time>2016-04-10T12:50:21.132Z</time>
      </trkpt>
      <trkpt lat="47.1899" lon="-1.7199">
        <ele>75.8</ele>
        <time>2016-04-10T12:50:27.151Z</time>
      </trkpt>
      <trkpt lat="47.18989" lon="-1.71988">
        <ele>75.7</ele>
        <time>2016-04-10T12:50:28.175Z</time>
      </trkpt>
      <trkpt lat="47.18985" lon="-1.7198">
        <ele>75.6</ele>
        <time>2016-04-10T12:50:33.148Z</time>
      </trkpt>
      <trkpt lat="47.18983" lon="-1.71977">
        <ele>75.7</ele>
        <time>2016-04-10T12:50:34.027Z</time>
      </trkpt>
      <trkpt lat="47.18978" lon="-1.71969">
        <ele>76</ele>
        <time>2016-04-10T12:50:41.179Z</time>
      </trkpt>
      <trkpt lat="47.18977" lon="-1.71967">
        <ele>76.1</ele>
        <time>2016-04-10T12:50:42.007Z</time>
      </trkpt>
      <trkpt lat="47.18971" lon="-1.71958">
        <ele>76.1</ele>
        <time>2016-04-10T12:50:48.152Z</time>
      </trkpt>
      <trkpt lat="47.18971" lon="-1.71956">
        <ele>76.1</ele>
        <time>2016-04-10T12:50:49.259Z</time>
      </trkpt>
      <trkpt lat="47.18967" lon="-1.71946">
        <ele>75.8</ele>
        <time>2016-04-10T12:50:55.063Z</time>
      </trkpt>
      <trkpt lat="47.18966" lon="-1.71944">
        <ele>75.8</ele>
        <time>2016-04-10T12:50:56.086Z</time>
      </trkpt>
      <trkpt lat="47.18966" lon="-1.71932">
        <ele>75.6</ele>
        <time>2016-04-10T12:51:02.111Z</time>
      </trkpt>
      <trkpt lat="47.18966" lon="-1.71931">
        <ele>75.5</ele>
        <time>2016-04-10T12:51:03.034Z</time>
      </trkpt>
      <trkpt lat="47.18962" lon="-1.7192">
        <ele>75.5</ele>
        <time>2016-04-10T12:51:26.120Z</time>
      </trkpt>
      <trkpt lat="47.18961" lon="-1.71918">
        <ele>75.6</ele>
        <time>2016-04-10T12:51:27.060Z</time>
      </trkpt>
      <trkpt lat="47.18955" lon="-1.7191">
        <ele>75.9</ele>
        <time>2016-04-10T12:51:34.081Z</time>
      </trkpt>
      <trkpt lat="47.18955" lon="-1.71909">
        <ele>75.9</ele>
        <time>2016-04-10T12:51:35.033Z</time>
      </trkpt>
      <trkpt lat="47.1895" lon="-1.719">
        <ele>75.6</ele>
        <time>2016-04-10T12:51:41.087Z</time>
      </trkpt>
      <trkpt lat="47.18949" lon="-1.71898">
        <ele>75.6</ele>
        <time>2016-04-10T12:51:42.039Z</time>
      </trkpt>
      <trkpt lat="47.18944" lon="-1.71889">
        <ele>75.5</ele>
        <time>2016-04-10T12:51:48.168Z</time>
      </trkpt>
      <trkpt lat="47.18943" lon="-1.71887">
        <ele>75.4</ele>
        <time>2016-04-10T12:51:49.003Z</time>
      </trkpt>
      <trkpt lat="47.18939" lon="-1.71876">
        <ele>75.6</ele>
        <time>2016-04-10T12:51:56.120Z</time>
      </trkpt>
      <trkpt lat="47.18939" lon="-1.71875">
        <ele>75.7</ele>
        <time>2016-04-10T12:51:57.045Z</time>
      </trkpt>
      <trkpt lat="47.18934" lon="-1.71865">
        <ele>75.9</ele>
        <time>2016-04-10T12:52:05.143Z</time>
      </trkpt>
      <trkpt lat="47.18933" lon="-1.71863">
        <ele>76</ele>
        <time>2016-04-10T12:52:06.061Z</time>
      </trkpt>
      <trkpt lat="47.18928" lon="-1.71853">
        <ele>76</ele>
        <time>2016-04-10T12:52:11.476Z</time>
      </trkpt>
      <trkpt lat="47.18928" lon="-1.71852">
        <ele>76</ele>
        <time>2016-04-10T12:52:11.985Z</time>
      </trkpt>
      <trkpt lat="47.18924" lon="-1.7184">
        <ele>76.1</ele>
        <time>2016-04-10T12:52:19.128Z</time>
      </trkpt>
      <trkpt lat="47.18924" lon="-1.71833">
        <ele>76.1</ele>
        <time>2016-04-10T12:52:20.041Z</time>
      </trkpt>
      <trkpt lat="47.1892" lon="-1.71822">
        <ele>76.3</ele>
        <time>2016-04-10T12:52:29.132Z</time>
      </trkpt>
      <trkpt lat="47.18919" lon="-1.7182">
        <ele>76.3</ele>
        <time>2016-04-10T12:52:30.112Z</time>
      </trkpt>
      <trkpt lat="47.18915" lon="-1.71809">
        <ele>76.4</ele>
        <time>2016-04-10T12:52:38.114Z</time>
      </trkpt>
      <trkpt lat="47.18914" lon="-1.71808">
        <ele>76.5</ele>
        <time>2016-04-10T12:52:38.991Z</time>
      </trkpt>
      <trkpt lat="47.18911" lon="-1.71797">
        <ele>77.5</ele>
        <time>2016-04-10T12:52:46.064Z</time>
      </trkpt>
      <trkpt lat="47.18911" lon="-1.71794">
        <ele>77.6</ele>
        <time>2016-04-10T12:52:46.998Z</time>
      </trkpt>
      <trkpt lat="47.18916" lon="-1.71783">
        <ele>77.7</ele>
        <time>2016-04-10T12:52:51.109Z</time>
      </trkpt>
      <trkpt lat="47.18916" lon="-1.71781">
        <ele>77.7</ele>
        <time>2016-04-10T12:52:52.111Z</time>
      </trkpt>
      <trkpt lat="47.18919" lon="-1.71772">
        <ele>77.4</ele>
        <time>2016-04-10T12:52:55.076Z</time>
      </trkpt>
      <trkpt lat="47.1892" lon="-1.71769">
        <ele>77.3</ele>
        <time>2016-04-10T12:52:56.056Z</time>
      </trkpt>
      <trkpt lat="47.18925" lon="-1.71759">
        <ele>76.9</ele>
        <time>2016-04-10T12:53:03.087Z</time>
      </trkpt>
      <trkpt lat="47.18926" lon="-1.71758">
        <ele>76.9</ele>
        <time>2016-04-10T12:53:04.046Z</time>
      </trkpt>
      <trkpt lat="47.18932" lon="-1.7175">
        <ele>76.4</ele>
        <time>2016-04-10T12:53:11.089Z</time>
      </trkpt>
      <trkpt lat="47.18933" lon="-1.71748">
        <ele>76.3</ele>
        <time>2016-04-10T12:53:12.030Z</time>
      </trkpt>
      <trkpt lat="47.18937" lon="-1.71739">
        <ele>75.8</ele>
        <time>2016-04-10T12:53:18.063Z</time>
      </trkpt>
      <trkpt lat="47.18938" lon="-1.71737">
        <ele>75.8</ele>
        <time>2016-04-10T12:53:19.011Z</time>
      </trkpt>
      <trkpt lat="47.18944" lon="-1.71728">
        <ele>75.2</ele>
        <time>2016-04-10T12:53:25.001Z</time>
      </trkpt>
      <trkpt lat="47.18945" lon="-1.71726">
        <ele>75.2</ele>
        <time>2016-04-10T12:53:26.044Z</time>
      </trkpt>
      <trkpt lat="47.18951" lon="-1.71716">
        <ele>75.1</ele>
        <time>2016-04-10T12:53:32.370Z</time>
      </trkpt>
      <trkpt lat="47.18951" lon="-1.71716">
        <ele>75</ele>
        <time>2016-04-10T12:53:33.136Z</time>
      </trkpt>
      <trkpt lat="47.18957" lon="-1.71706">
        <ele>74.4</ele>
        <time>2016-04-10T12:53:40.036Z</time>
      </trkpt>
      <trkpt lat="47.18957" lon="-1.71705">
        <ele>74.3</ele>
        <time>2016-04-10T12:53:41.043Z</time>
      </trkpt>
      <trkpt lat="47.1896" lon="-1.71694">
        <ele>73.5</ele>
        <time>2016-04-10T12:53:49.100Z</time>
      </trkpt>
      <trkpt lat="47.18961" lon="-1.71693">
        <ele>73.4</ele>
        <time>2016-04-10T12:53:49.973Z</time>
      </trkpt>
      <trkpt lat="47.18967" lon="-1.71685">
        <ele>73.3</ele>
        <time>2016-04-10T12:53:53.563Z</time>
      </trkpt>
      <trkpt lat="47.18968" lon="-1.71684">
        <ele>73.3</ele>
        <time>2016-04-10T12:53:53.965Z</time>
      </trkpt>
      <trkpt lat="47.18975" lon="-1.71678">
        <ele>72.6</ele>
        <time>2016-04-10T12:54:00.244Z</time>
      </trkpt>
      <trkpt lat="47.18976" lon="-1.71676">
        <ele>72.6</ele>
        <time>2016-04-10T12:54:00.964Z</time>
      </trkpt>
      <trkpt lat="47.18983" lon="-1.71667">
        <ele>72.2</ele>
        <time>2016-04-10T12:54:08.148Z</time>
      </trkpt>
      <trkpt lat="47.18983" lon="-1.71665">
        <ele>72.2</ele>
        <time>2016-04-10T12:54:09.047Z</time>
      </trkpt>
      <trkpt lat="47.18987" lon="-1.71654">
        <ele>72.5</ele>
        <time>2016-04-10T12:54:16.071Z</time>
      </trkpt>
      <trkpt lat="47.18987" lon="-1.71652">
        <ele>72.5</ele>
        <time>2016-04-10T12:54:17.121Z</time>
      </trkpt>
      <trkpt lat="47.18988" lon="-1.7164">
        <ele>72.3</ele>
        <time>2016-04-10T12:54:24.103Z</time>
      </trkpt>
      <trkpt lat="47.18988" lon="-1.71638">
        <ele>72.3</ele>
        <time>2016-04-10T12:54:25.046Z</time>
      </trkpt>
      <trkpt lat="47.1899" lon="-1.71625">
        <ele>72</ele>
        <time>2016-04-10T12:54:32.514Z</time>
      </trkpt>
      <trkpt lat="47.1899" lon="-1.71623">
        <ele>72</ele>
        <time>2016-04-10T12:54:32.963Z</time>
      </trkpt>
      <trkpt lat="47.18992" lon="-1.7161">
        <ele>72.3</ele>
        <time>2016-04-10T12:54:41.169Z</time>
      </trkpt>
      <trkpt lat="47.18992" lon="-1.71608">
        <ele>72.3</ele>
        <time>2016-04-10T12:54:42.037Z</time>
      </trkpt>
      <trkpt lat="47.18993" lon="-1.71596">
        <ele>72.6</ele>
        <time>2016-04-10T12:54:47.086Z</time>
      </trkpt>
      <trkpt lat="47.18993" lon="-1.71594">
        <ele>72.6</ele>
        <time>2016-04-10T12:54:48.012Z</time>
      </trkpt>
      <trkpt lat="47.18994" lon="-1.71582">
        <ele>72.8</ele>
        <time>2016-04-10T12:54:54.137Z</time>
      </trkpt>
      <trkpt lat="47.18994" lon="-1.7158">
        <ele>72.8</ele>
        <time>2016-04-10T12:54:54.974Z</time>
      </trkpt>
      <trkpt lat="47.18994" lon="-1.71569">
        <ele>72.7</ele>
        <time>2016-04-10T12:55:02.163Z</time>
      </trkpt>
      <trkpt lat="47.18994" lon="-1.71567">
        <ele>72.8</ele>
        <time>2016-04-10T12:55:02.972Z</time>
      </trkpt>
      <trkpt lat="47.18995" lon="-1.71555">
        <ele>73.2</ele>
        <time>2016-04-10T12:55:10.032Z</time>
      </trkpt>
      <trkpt lat="47.18995" lon="-1.71552">
        <ele>73.2</ele>
        <time>2016-04-10T12:55:11.045Z</time>
      </trkpt>
      <trkpt lat="47.18996" lon="-1.7154">
        <ele>73.3</ele>
        <time>2016-04-10T12:55:17.189Z</time>
      </trkpt>
      <trkpt lat="47.18996" lon="-1.71538">
        <ele>73.4</ele>
        <time>2016-04-10T12:55:18.175Z</time>
      </trkpt>
      <trkpt lat="47.18997" lon="-1.71526">
        <ele>73.4</ele>
        <time>2016-04-10T12:55:23.110Z</time>
      </trkpt>
      <trkpt lat="47.18997" lon="-1.71524">
        <ele>73.5</ele>
        <time>2016-04-10T12:55:23.976Z</time>
      </trkpt>
      <trkpt lat="47.18996" lon="-1.71512">
        <ele>74.2</ele>
        <time>2016-04-10T12:55:31.031Z</time>
      </trkpt>
      <trkpt lat="47.18997" lon="-1.7151">
        <ele>74.3</ele>
        <time>2016-04-10T12:55:32.012Z</time>
      </trkpt>
      <trkpt lat="47.18999" lon="-1.71498">
        <ele>75</ele>
        <time>2016-04-10T12:55:41.043Z</time>
      </trkpt>
      <trkpt lat="47.19" lon="-1.71497">
        <ele>75.1</ele>
        <time>2016-04-10T12:55:42.016Z</time>
      </trkpt>
      <trkpt lat="47.19003" lon="-1.71485">
        <ele>75.3</ele>
        <time>2016-04-10T12:55:51.109Z</time>
      </trkpt>
      <trkpt lat="47.19004" lon="-1.71484">
        <ele>75.3</ele>
        <time>2016-04-10T12:55:52.016Z</time>
      </trkpt>
      <trkpt lat="47.1901" lon="-1.71474">
        <ele>74.8</ele>
        <time>2016-04-10T12:55:56.989Z</time>
      </trkpt>
      <trkpt lat="47.19011" lon="-1.71473">
        <ele>74.7</ele>
        <time>2016-04-10T12:55:57.989Z</time>
      </trkpt>
      <trkpt lat="47.19017" lon="-1.71464">
        <ele>74.6</ele>
        <time>2016-04-10T12:56:04.043Z</time>
      </trkpt>
      <trkpt lat="47.19018" lon="-1.71463">
        <ele>74.5</ele>
        <time>2016-04-10T12:56:05.042Z</time>
      </trkpt>
      <trkpt lat="47.19025" lon="-1.71455">
        <ele>74</ele>
        <time>2016-04-10T12:56:12.104Z</time>
      </trkpt>
      <trkpt lat="47.19026" lon="-1.71454">
        <ele>73.9</ele>
        <time>2016-04-10T12:56:13.019Z</time>
      </trkpt>
      <trkpt lat="47.19033" lon="-1.71446">
        <ele>73.6</ele>
        <time>2016-04-10T12:56:19.144Z</time>
      </trkpt>
      <trkpt lat="47.19034" lon="-1.71445">
        <ele>73.6</ele>
        <time>2016-04-10T12:56:20.034Z</time>
      </trkpt>
      <trkpt lat="47.19039" lon="-1.71436">
        <ele>73.1</ele>
        <time>2016-04-10T12:56:24.183Z</time>
      </trkpt>
      <trkpt lat="47.19041" lon="-1.71434">
        <ele>73</ele>
        <time>2016-04-10T12:56:24.982Z</time>
      </trkpt>
      <trkpt lat="47.19048" lon="-1.71426">
        <ele>72.3</ele>
        <time>2016-04-10T12:56:31.090Z</time>
      </trkpt>
      <trkpt lat="47.19049" lon="-1.71424">
        <ele>72.3</ele>
        <time>2016-04-10T12:56:32.041Z</time>
      </trkpt>
      <trkpt lat="47.19056" lon="-1.71416">
        <ele>72.5</ele>
        <time>2016-04-10T12:56:42.107Z</time>
      </trkpt>
      <trkpt lat="47.19056" lon="-1.71416">
        <ele>72.5</ele>
        <time>2016-04-10T12:56:43.015Z</time>
      </trkpt>
      <trkpt lat="47.19063" lon="-1.71407">
        <ele>73</ele>
        <time>2016-04-10T12:56:50.176Z</time>
      </trkpt>
      <trkpt lat="47.19064" lon="-1.71406">
        <ele>73.2</ele>
        <time>2016-04-10T12:56:51.045Z</time>
      </trkpt>
      <trkpt lat="47.19072" lon="-1.714">
        <ele>74</ele>
        <time>2016-04-10T12:56:57.161Z</time>
      </trkpt>
      <trkpt lat="47.19073" lon="-1.71399">
        <ele>74.2</ele>
        <time>2016-04-10T12:56:57.983Z</time>
      </trkpt>
      <trkpt lat="47.19079" lon="-1.71389">
        <ele>74.8</ele>
        <time>2016-04-10T12:57:03.088Z</time>
      </trkpt>
      <trkpt lat="47.1908" lon="-1.71387">
        <ele>74.8</ele>
        <time>2016-04-10T12:57:04.032Z</time>
      </trkpt>
      <trkpt lat="47.19085" lon="-1.71376">
        <ele>74.9</ele>
        <time>2016-04-10T12:57:10.073Z</time>
      </trkpt>
      <trkpt lat="47.19086" lon="-1.71374">
        <ele>74.9</ele>
        <time>2016-04-10T12:57:11.035Z</time>
      </trkpt>
      <trkpt lat="47.19093" lon="-1.71365">
        <ele>74.9</ele>
        <time>2016-04-10T12:57:16.147Z</time>
      </trkpt>
      <trkpt lat="47.19094" lon="-1.71364">
        <ele>74.9</ele>
        <time>2016-04-10T12:57:17.023Z</time>
      </trkpt>
      <trkpt lat="47.19101" lon="-1.71358">
        <ele>74.1</ele>
        <time>2016-04-10T12:57:24.016Z</time>
      </trkpt>
      <trkpt lat="47.19102" lon="-1.71357">
        <ele>74.1</ele>
        <time>2016-04-10T12:57:25.023Z</time>
      </trkpt>
      <trkpt lat="47.1911" lon="-1.71351">
        <ele>73.8</ele>
        <time>2016-04-10T12:57:32.139Z</time>
      </trkpt>
      <trkpt lat="47.19111" lon="-1.7135">
        <ele>73.8</ele>
        <time>2016-04-10T12:57:33.354Z</time>
      </trkpt>
      <trkpt lat="47.19118" lon="-1.71344">
        <ele>73.3</ele>
        <time>2016-04-10T12:57:39.111Z</time>
      </trkpt>
      <trkpt lat="47.19119" lon="-1.71344">
        <ele>73.2</ele>
        <time>2016-04-10T12:57:40.025Z</time>
      </trkpt>
      <trkpt lat="47.19127" lon="-1.71339">
        <ele>73</ele>
        <time>2016-04-10T12:57:46.105Z</time>
      </trkpt>
      <trkpt lat="47.19129" lon="-1.71338">
        <ele>73</ele>
        <time>2016-04-10T12:57:47.009Z</time>
      </trkpt>
      <trkpt lat="47.19136" lon="-1.71333">
        <ele>73</ele>
        <time>2016-04-10T12:57:53.089Z</time>
      </trkpt>
      <trkpt lat="47.19137" lon="-1.71332">
        <ele>73</ele>
        <time>2016-04-10T12:57:54.035Z</time>
      </trkpt>
      <trkpt lat="47.19145" lon="-1.71327">
        <ele>73.4</ele>
        <time>2016-04-10T12:58:00.090Z</time>
      </trkpt>
      <trkpt lat="47.19146" lon="-1.71326">
        <ele>73.4</ele>
        <time>2016-04-10T12:58:01.034Z</time>
      </trkpt>
      <trkpt lat="47.19154" lon="-1.71323">
        <ele>73.3</ele>
        <time>2016-04-10T12:58:08.067Z</time>
      </trkpt>
      <trkpt lat="47.19155" lon="-1.71322">
        <ele>73.3</ele>
        <time>2016-04-10T12:58:08.957Z</time>
      </trkpt>
      <trkpt lat="47.19163" lon="-1.71315">
        <ele>73.6</ele>
        <time>2016-04-10T12:58:16.152Z</time>
      </trkpt>
      <trkpt lat="47.19163" lon="-1.71315">
        <ele>73.6</ele>
        <time>2016-04-10T12:58:17.030Z</time>
      </trkpt>
      <trkpt lat="47.19171" lon="-1.71311">
        <ele>74.2</ele>
        <time>2016-04-10T12:58:26.142Z</time>
      </trkpt>
      <trkpt lat="47.19173" lon="-1.7131">
        <ele>74.4</ele>
        <time>2016-04-10T12:58:27.042Z</time>
      </trkpt>
      <trkpt lat="47.1918" lon="-1.71303">
        <ele>74.8</ele>
        <time>2016-04-10T12:58:33.056Z</time>
      </trkpt>
      <trkpt lat="47.19181" lon="-1.71302">
        <ele>74.8</ele>
        <time>2016-04-10T12:58:34.068Z</time>
      </trkpt>
      <trkpt lat="47.19189" lon="-1.71297">
        <ele>74.4</ele>
        <time>2016-04-10T12:58:39.285Z</time>
      </trkpt>
      <trkpt lat="47.1919" lon="-1.71296">
        <ele>74.4</ele>
        <time>2016-04-10T12:58:40.012Z</time>
      </trkpt>
      <trkpt lat="47.19198" lon="-1.7129">
        <ele>74.4</ele>
        <time>2016-04-10T12:58:48.078Z</time>
      </trkpt>
      <trkpt lat="47.192" lon="-1.71289">
        <ele>74.3</ele>
        <time>2016-04-10T12:58:48.971Z</time>
      </trkpt>
      <trkpt lat="47.19207" lon="-1.71282">
        <ele>74.4</ele>
        <time>2016-04-10T12:58:56.099Z</time>
      </trkpt>
      <trkpt lat="47.19208" lon="-1.71282">
        <ele>74.3</ele>
        <time>2016-04-10T12:58:57.049Z</time>
      </trkpt>
      <trkpt lat="47.19215" lon="-1.71274">
        <ele>74.4</ele>
        <time>2016-04-10T12:59:04.060Z</time>
      </trkpt>
      <trkpt lat="47.19216" lon="-1.71273">
        <ele>74.3</ele>
        <time>2016-04-10T12:59:04.999Z</time>
      </trkpt>
      <trkpt lat="47.19224" lon="-1.71266">
        <ele>74.2</ele>
        <time>2016-04-10T12:59:12.139Z</time>
      </trkpt>
      <trkpt lat="47.19225" lon="-1.71265">
        <ele>74.2</ele>
        <time>2016-04-10T12:59:13.060Z</time>
      </trkpt>
      <trkpt lat="47.19232" lon="-1.71259">
        <ele>74.4</ele>
        <time>2016-04-10T12:59:20.166Z</time>
      </trkpt>
      <trkpt lat="47.19233" lon="-1.71258">
        <ele>74.4</ele>
        <time>2016-04-10T12:59:21.004Z</time>
      </trkpt>
      <trkpt lat="47.1924" lon="-1.71251">
        <ele>74.4</ele>
        <time>2016-04-10T12:59:27.129Z</time>
      </trkpt>
      <trkpt lat="47.19241" lon="-1.7125">
        <ele>74.4</ele>
        <time>2016-04-10T12:59:27.970Z</time>
      </trkpt>
      <trkpt lat="47.19247" lon="-1.71242">
        <ele>74.4</ele>
        <time>2016-04-10T12:59:33.141Z</time>
      </trkpt>
      <trkpt lat="47.19248" lon="-1.71241">
        <ele>74.4</ele>
        <time>2016-04-10T12:59:33.993Z</time>
      </trkpt>
      <trkpt lat="47.19253" lon="-1.71231">
        <ele>74</ele>
        <time>2016-04-10T12:59:41.150Z</time>
      </trkpt>
      <trkpt lat="47.19254" lon="-1.71229">
        <ele>74</ele>
        <time>2016-04-10T12:59:42.040Z</time>
      </trkpt>
      <trkpt lat="47.1926" lon="-1.7122">
        <ele>73.6</ele>
        <time>2016-04-10T12:59:50.135Z</time>
      </trkpt>
      <trkpt lat="47.1926" lon="-1.71219">
        <ele>73.7</ele>
        <time>2016-04-10T12:59:50.981Z</time>
      </trkpt>
      <trkpt lat="47.19266" lon="-1.7121">
        <ele>73.7</ele>
        <time>2016-04-10T12:59:56.144Z</time>
      </trkpt>
      <trkpt lat="47.19267" lon="-1.71208">
        <ele>73.6</ele>
        <time>2016-04-10T12:59:57.010Z</time>
      </trkpt>
      <trkpt lat="47.19273" lon="-1.712">
        <ele>73.1</ele>
        <time>2016-04-10T13:00:03.107Z</time>
      </trkpt>
      <trkpt lat="47.19274" lon="-1.71199">
        <ele>73.1</ele>
        <time>2016-04-10T13:00:04.045Z</time>
      </trkpt>
      <trkpt lat="47.19279" lon="-1.7119">
        <ele>72.6</ele>
        <time>2016-04-10T13:00:10.402Z</time>
      </trkpt>
      <trkpt lat="47.1928" lon="-1.71188">
        <ele>72.5</ele>
        <time>2016-04-10T13:00:11.023Z</time>
      </trkpt>
      <trkpt lat="47.19286" lon="-1.71178">
        <ele>72</ele>
        <time>2016-04-10T13:00:17.087Z</time>
      </trkpt>
      <trkpt lat="47.19287" lon="-1.71177">
        <ele>71.9</ele>
        <time>2016-04-10T13:00:17.994Z</time>
      </trkpt>
      <trkpt lat="47.19291" lon="-1.71167">
        <ele>71.9</ele>
        <time>2016-04-10T13:00:24.084Z</time>
      </trkpt>
      <trkpt lat="47.19292" lon="-1.71166">
        <ele>71.9</ele>
        <time>2016-04-10T13:00:25.074Z</time>
      </trkpt>
      <trkpt lat="47.19298" lon="-1.71157">
        <ele>71.8</ele>
        <time>2016-04-10T13:00:33.009Z</time>
      </trkpt>
      <trkpt lat="47.19299" lon="-1.71156">
        <ele>71.8</ele>
        <time>2016-04-10T13:00:33.955Z</time>
      </trkpt>
      <trkpt lat="47.19303" lon="-1.71164">
        <ele>71.8</ele>
        <time>2016-04-10T13:00:42.025Z</time>
      </trkpt>
      <trkpt lat="47.19305" lon="-1.71167">
        <ele>71.8</ele>
        <time>2016-04-10T13:00:43.040Z</time>
      </trkpt>
      <trkpt lat="47.1931" lon="-1.71176">
        <ele>72</ele>
        <time>2016-04-10T13:00:49.300Z</time>
      </trkpt>
      <trkpt lat="47.19311" lon="-1.71177">
        <ele>72</ele>
        <time>2016-04-10T13:00:50.033Z</time>
      </trkpt>
      <trkpt lat="47.19317" lon="-1.71186">
        <ele>72</ele>
        <time>2016-04-10T13:00:57.067Z</time>
      </trkpt>
      <trkpt lat="47.19318" lon="-1.71188">
        <ele>72</ele>
        <time>2016-04-10T13:00:58.020Z</time>
      </trkpt>
      <trkpt lat="47.19323" lon="-1.71197">
        <ele>72</ele>
        <time>2016-04-10T13:01:04.145Z</time>
      </trkpt>
      <trkpt lat="47.19324" lon="-1.71199">
        <ele>72</ele>
        <time>2016-04-10T13:01:05.056Z</time>
      </trkpt>
      <trkpt lat="47.19329" lon="-1.71206">
        <ele>71.7</ele>
        <time>2016-04-10T13:01:11.034Z</time>
      </trkpt>
      <trkpt lat="47.19331" lon="-1.71208">
        <ele>71.8</ele>
        <time>2016-04-10T13:01:12.037Z</time>
      </trkpt>
      <trkpt lat="47.19338" lon="-1.71216">
        <ele>72.1</ele>
        <time>2016-04-10T13:01:18.017Z</time>
      </trkpt>
      <trkpt lat="47.19339" lon="-1.71217">
        <ele>72.1</ele>
        <time>2016-04-10T13:01:19.049Z</time>
      </trkpt>
      <trkpt lat="47.19343" lon="-1.71227">
        <ele>72.3</ele>
        <time>2016-04-10T13:01:25.086Z</time>
      </trkpt>
      <trkpt lat="47.19344" lon="-1.71228">
        <ele>72.4</ele>
        <time>2016-04-10T13:01:26.050Z</time>
      </trkpt>
      <trkpt lat="47.19349" lon="-1.71235">
        <ele>72.8</ele>
        <time>2016-04-10T13:01:31.097Z</time>
      </trkpt>
      <trkpt lat="47.19351" lon="-1.71237">
        <ele>72.9</ele>
        <time>2016-04-10T13:01:32.047Z</time>
      </trkpt>
      <trkpt lat="47.19356" lon="-1.71246">
        <ele>73.2</ele>
        <time>2016-04-10T13:01:38.146Z</time>
      </trkpt>
      <trkpt lat="47.19357" lon="-1.71247">
        <ele>73.2</ele>
        <time>2016-04-10T13:01:39.050Z</time>
      </trkpt>
      <trkpt lat="47.19363" lon="-1.71256">
        <ele>72.8</ele>
        <time>2016-04-10T13:01:45.118Z</time>
      </trkpt>
      <trkpt lat="47.19365" lon="-1.71258">
        <ele>72.7</ele>
        <time>2016-04-10T13:01:46.049Z</time>
      </trkpt>
      <trkpt lat="47.19373" lon="-1.71257">
        <ele>72.3</ele>
        <time>2016-04-10T13:01:51.146Z</time>
      </trkpt>
      <trkpt lat="47.19375" lon="-1.71257">
        <ele>72.3</ele>
        <time>2016-04-10T13:01:52.043Z</time>
      </trkpt>
      <trkpt lat="47.19382" lon="-1.71252">
        <ele>71.8</ele>
        <time>2016-04-10T13:01:58.163Z</time>
      </trkpt>
      <trkpt lat="47.19384" lon="-1.7125">
        <ele>71.6</ele>
        <time>2016-04-10T13:01:59.013Z</time>
      </trkpt>
      <trkpt lat="47.19391" lon="-1.71243">
        <ele>70.9</ele>
        <time>2016-04-10T13:02:05.069Z</time>
      </trkpt>
      <trkpt lat="47.19392" lon="-1.71242">
        <ele>70.8</ele>
        <time>2016-04-10T13:02:05.993Z</time>
      </trkpt>
      <trkpt lat="47.194" lon="-1.71243">
        <ele>70.2</ele>
        <time>2016-04-10T13:02:17.065Z</time>
      </trkpt>
      <trkpt lat="47.19401" lon="-1.71248">
        <ele>70.2</ele>
        <time>2016-04-10T13:02:18.018Z</time>
      </trkpt>
      <trkpt lat="47.19403" lon="-1.7126">
        <ele>69.5</ele>
        <time>2016-04-10T13:02:24.002Z</time>
      </trkpt>
      <trkpt lat="47.19402" lon="-1.71262">
        <ele>69.4</ele>
        <time>2016-04-10T13:02:25.013Z</time>
      </trkpt>
      <trkpt lat="47.19401" lon="-1.71274">
        <ele>69.1</ele>
        <time>2016-04-10T13:02:32.064Z</time>
      </trkpt>
      <trkpt lat="47.19401" lon="-1.71276">
        <ele>69</ele>
        <time>2016-04-10T13:02:33.096Z</time>
      </trkpt>
      <trkpt lat="47.194" lon="-1.71287">
        <ele>68.9</ele>
        <time>2016-04-10T13:02:40.030Z</time>
      </trkpt>
      <trkpt lat="47.194" lon="-1.71289">
        <ele>68.9</ele>
        <time>2016-04-10T13:02:41.048Z</time>
      </trkpt>
      <trkpt lat="47.19399" lon="-1.71302">
        <ele>68.2</ele>
        <time>2016-04-10T13:02:48.047Z</time>
      </trkpt>
      <trkpt lat="47.194" lon="-1.71304">
        <ele>68</ele>
        <time>2016-04-10T13:02:49.008Z</time>
      </trkpt>
      <trkpt lat="47.194" lon="-1.71317">
        <ele>67.2</ele>
        <time>2016-04-10T13:02:56.062Z</time>
      </trkpt>
      <trkpt lat="47.194" lon="-1.71318">
        <ele>67.1</ele>
        <time>2016-04-10T13:02:57.056Z</time>
      </trkpt>
      <trkpt lat="47.19402" lon="-1.7133">
        <ele>66.9</ele>
        <time>2016-04-10T13:03:02.099Z</time>
      </trkpt>
      <trkpt lat="47.19402" lon="-1.71332">
        <ele>66.9</ele>
        <time>2016-04-10T13:03:03.042Z</time>
      </trkpt>
      <trkpt lat="47.19405" lon="-1.71344">
        <ele>67.3</ele>
        <time>2016-04-10T13:03:11.123Z</time>
      </trkpt>
      <trkpt lat="47.19405" lon="-1.71346">
        <ele>67.3</ele>
        <time>2016-04-10T13:03:12.261Z</time>
      </trkpt>
      <trkpt lat="47.19408" lon="-1.71357">
        <ele>67.1</ele>
        <time>2016-04-10T13:03:17.068Z</time>
      </trkpt>
      <trkpt lat="47.19408" lon="-1.71359">
        <ele>67</ele>
        <time>2016-04-10T13:03:18.044Z</time>
      </trkpt>
      <trkpt lat="47.19412" lon="-1.7137">
        <ele>67</ele>
        <time>2016-04-10T13:03:22.089Z</time>
      </trkpt>
      <trkpt lat="47.19413" lon="-1.71371">
        <ele>67</ele>
        <time>2016-04-10T13:03:22.959Z</time>
      </trkpt>
      <trkpt lat="47.19417" lon="-1.71381">
        <ele>67</ele>
        <time>2016-04-10T13:03:28.266Z</time>
      </trkpt>
      <trkpt lat="47.19418" lon="-1.71383">
        <ele>67</ele>
        <time>2016-04-10T13:03:29.079Z</time>
      </trkpt>
      <trkpt lat="47.19422" lon="-1.71393">
        <ele>66.9</ele>
        <time>2016-04-10T13:03:36.117Z</time>
      </trkpt>
      <trkpt lat="47.19422" lon="-1.71395">
        <ele>67</ele>
        <time>2016-04-10T13:03:37.168Z</time>
      </trkpt>
      <trkpt lat="47.19425" lon="-1.71406">
        <ele>66.9</ele>
        <time>2016-04-10T13:03:43.328Z</time>
      </trkpt>
      <trkpt lat="47.19425" lon="-1.71407">
        <ele>66.9</ele>
        <time>2016-04-10T13:03:44.007Z</time>
      </trkpt>
      <trkpt lat="47.1943" lon="-1.71418">
        <ele>66.2</ele>
        <time>2016-04-10T13:03:50.108Z</time>
      </trkpt>
      <trkpt lat="47.1943" lon="-1.7142">
        <ele>66.1</ele>
        <time>2016-04-10T13:03:51.049Z</time>
      </trkpt>
      <trkpt lat="47.19433" lon="-1.7143">
        <ele>65.6</ele>
        <time>2016-04-10T13:03:57.080Z</time>
      </trkpt>
      <trkpt lat="47.19434" lon="-1.71433">
        <ele>65.6</ele>
        <time>2016-04-10T13:03:58.053Z</time>
      </trkpt>
      <trkpt lat="47.19437" lon="-1.71444">
        <ele>65.4</ele>
        <time>2016-04-10T13:04:05.123Z</time>
      </trkpt>
      <trkpt lat="47.19438" lon="-1.71446">
        <ele>65.4</ele>
        <time>2016-04-10T13:04:06.057Z</time>
      </trkpt>
      <trkpt lat="47.19441" lon="-1.71458">
        <ele>65.3</ele>
        <time>2016-04-10T13:04:13.051Z</time>
      </trkpt>
      <trkpt lat="47.19442" lon="-1.71459">
        <ele>65.3</ele>
        <time>2016-04-10T13:04:14.041Z</time>
      </trkpt>
      <trkpt lat="47.19446" lon="-1.71468">
        <ele>65</ele>
        <time>2016-04-10T13:04:19.124Z</time>
      </trkpt>
      <trkpt lat="47.19448" lon="-1.71469">
        <ele>64.9</ele>
        <time>2016-04-10T13:04:19.986Z</time>
      </trkpt>
      <trkpt lat="47.19455" lon="-1.71468">
        <ele>64.3</ele>
        <time>2016-04-10T13:04:23.104Z</time>
      </trkpt>
      <trkpt lat="47.19457" lon="-1.71468">
        <ele>64.2</ele>
        <time>2016-04-10T13:04:23.974Z</time>
      </trkpt>
      <trkpt lat="47.19465" lon="-1.71465">
        <ele>63.3</ele>
        <time>2016-04-10T13:04:31.105Z</time>
      </trkpt>
      <trkpt lat="47.19467" lon="-1.71464">
        <ele>63.2</ele>
        <time>2016-04-10T13:04:32.079Z</time>
      </trkpt>
      <trkpt lat="47.19474" lon="-1.7146">
        <ele>62.7</ele>
        <time>2016-04-10T13:04:37.223Z</time>
      </trkpt>
      <trkpt lat="47.19476" lon="-1.71459">
        <ele>62.5</ele>
        <time>2016-04-10T13:04:38.023Z</time>
      </trkpt>
      <trkpt lat="47.19484" lon="-1.71456">
        <ele>62</ele>
        <time>2016-04-10T13:04:44.076Z</time>
      </trkpt>
      <trkpt lat="47.19485" lon="-1.71455">
        <ele>62</ele>
        <time>2016-04-10T13:04:45.048Z</time>
      </trkpt>
      <trkpt lat="47.19493" lon="-1.71451">
        <ele>61.5</ele>
        <time>2016-04-10T13:04:52.141Z</time>
      </trkpt>
      <trkpt lat="47.19494" lon="-1.7145">
        <ele>61.4</ele>
        <time>2016-04-10T13:04:53.046Z</time>
      </trkpt>
      <trkpt lat="47.19502" lon="-1.71446">
        <ele>61.2</ele>
        <time>2016-04-10T13:04:58.086Z</time>
      </trkpt>
      <trkpt lat="47.19503" lon="-1.71446">
        <ele>61.1</ele>
        <time>2016-04-10T13:04:59.045Z</time>
      </trkpt>
      <trkpt lat="47.19511" lon="-1.71448">
        <ele>60.8</ele>
        <time>2016-04-10T13:05:09.082Z</time>
      </trkpt>
      <trkpt lat="47.19512" lon="-1.7145">
        <ele>60.9</ele>
        <time>2016-04-10T13:05:10.047Z</time>
      </trkpt>
      <trkpt lat="47.19514" lon="-1.7146">
        <ele>61.5</ele>
        <time>2016-04-10T13:05:14.061Z</time>
      </trkpt>
      <trkpt lat="47.19515" lon="-1.71463">
        <ele>61.6</ele>
        <time>2016-04-10T13:05:15.013Z</time>
      </trkpt>
      <trkpt lat="47.19518" lon="-1.71474">
        <ele>62.2</ele>
        <time>2016-04-10T13:05:21.000Z</time>
      </trkpt>
      <trkpt lat="47.19518" lon="-1.71476">
        <ele>62.3</ele>
        <time>2016-04-10T13:05:22.027Z</time>
      </trkpt>
      <trkpt lat="47.19521" lon="-1.71487">
        <ele>63.2</ele>
        <time>2016-04-10T13:05:27.003Z</time>
      </trkpt>
      <trkpt lat="47.19522" lon="-1.71488">
        <ele>63.4</ele>
        <time>2016-04-10T13:05:28.019Z</time>
      </trkpt>
      <trkpt lat="47.19525" lon="-1.715">
        <ele>64.1</ele>
        <time>2016-04-10T13:05:34.121Z</time>
      </trkpt>
      <trkpt lat="47.19526" lon="-1.71502">
        <ele>64.2</ele>
        <time>2016-04-10T13:05:35.044Z</time>
      </trkpt>
      <trkpt lat="47.19528" lon="-1.71512">
        <ele>64.4</ele>
        <time>2016-04-10T13:05:39.398Z</time>
      </trkpt>
      <trkpt lat="47.19529" lon="-1.71515">
        <ele>64.4</ele>
        <time>2016-04-10T13:05:39.975Z</time>
      </trkpt>
      <trkpt lat="47.19529" lon="-1.71527">
        <ele>63.8</ele>
        <time>2016-04-10T13:05:48.091Z</time>
      </trkpt>
      <trkpt lat="47.1953" lon="-1.71529">
        <ele>63.8</ele>
        <time>2016-04-10T13:05:49.046Z</time>
      </trkpt>
      <trkpt lat="47.19532" lon="-1.7154">
        <ele>62.9</ele>
        <time>2016-04-10T13:05:54.991Z</time>
      </trkpt>
      <trkpt lat="47.19533" lon="-1.71541">
        <ele>62.8</ele>
        <time>2016-04-10T13:05:56.055Z</time>
      </trkpt>
      <trkpt lat="47.19536" lon="-1.71554">
        <ele>62.3</ele>
        <time>2016-04-10T13:06:00.991Z</time>
      </trkpt>
      <trkpt lat="47.19536" lon="-1.71557">
        <ele>62.2</ele>
        <time>2016-04-10T13:06:02.044Z</time>
      </trkpt>
      <trkpt lat="47.19539" lon="-1.71569">
        <ele>61.6</ele>
        <time>2016-04-10T13:06:08.013Z</time>
      </trkpt>
      <trkpt lat="47.19539" lon="-1.71571">
        <ele>61.5</ele>
        <time>2016-04-10T13:06:09.042Z</time>
      </trkpt>
      <trkpt lat="47.19542" lon="-1.71582">
        <ele>60.8</ele>
        <time>2016-04-10T13:06:15.047Z</time>
      </trkpt>
      <trkpt lat="47.19542" lon="-1.71584">
        <ele>60.6</ele>
        <time>2016-04-10T13:06:16.088Z</time>
      </trkpt>
      <trkpt lat="47.19545" lon="-1.71594">
        <ele>59.4</ele>
        <time>2016-04-10T13:06:22.087Z</time>
      </trkpt>
      <trkpt lat="47.19545" lon="-1.71596">
        <ele>59.3</ele>
        <time>2016-04-10T13:06:23.042Z</time>
      </trkpt>
      <trkpt lat="47.19548" lon="-1.71608">
        <ele>59.1</ele>
        <time>2016-04-10T13:06:29.183Z</time>
      </trkpt>
      <trkpt lat="47.19549" lon="-1.7161">
        <ele>59.1</ele>
        <time>2016-04-10T13:06:30.048Z</time>
      </trkpt>
      <trkpt lat="47.19552" lon="-1.71621">
        <ele>58.8</ele>
        <time>2016-04-10T13:06:35.124Z</time>
      </trkpt>
      <trkpt lat="47.19552" lon="-1.71624">
        <ele>58.7</ele>
        <time>2016-04-10T13:06:36.070Z</time>
      </trkpt>
      <trkpt lat="47.19555" lon="-1.71634">
        <ele>58.2</ele>
        <time>2016-04-10T13:06:42.080Z</time>
      </trkpt>
      <trkpt lat="47.19555" lon="-1.71637">
        <ele>58.1</ele>
        <time>2016-04-10T13:06:43.047Z</time>
      </trkpt>
      <trkpt lat="47.19557" lon="-1.71648">
        <ele>58</ele>
        <time>2016-04-10T13:06:48.062Z</time>
      </trkpt>
      <trkpt lat="47.19558" lon="-1.7165">
        <ele>58</ele>
        <time>2016-04-10T13:06:48.979Z</time>
      </trkpt>
      <trkpt lat="47.1956" lon="-1.71662">
        <ele>57.8</ele>
        <time>2016-04-10T13:06:55.061Z</time>
      </trkpt>
      <trkpt lat="47.1956" lon="-1.71664">
        <ele>57.8</ele>
        <time>2016-04-10T13:06:56.010Z</time>
      </trkpt>
      <trkpt lat="47.19562" lon="-1.71676">
        <ele>57.6</ele>
        <time>2016-04-10T13:07:02.099Z</time>
      </trkpt>
      <trkpt lat="47.19562" lon="-1.71678">
        <ele>57.5</ele>
        <time>2016-04-10T13:07:03.044Z</time>
      </trkpt>
      <trkpt lat="47.19564" lon="-1.71689">
        <ele>57.3</ele>
        <time>2016-04-10T13:07:08.057Z</time>
      </trkpt>
      <trkpt lat="47.19564" lon="-1.71692">
        <ele>57.2</ele>
        <time>2016-04-10T13:07:09.037Z</time>
      </trkpt>
      <trkpt lat="47.19566" lon="-1.71703">
        <ele>56.8</ele>
        <time>2016-04-10T13:07:15.092Z</time>
      </trkpt>
      <trkpt lat="47.19567" lon="-1.71706">
        <ele>56.8</ele>
        <time>2016-04-10T13:07:16.076Z</time>
      </trkpt>
      <trkpt lat="47.19569" lon="-1.71718">
        <ele>56.1</ele>
        <time>2016-04-10T13:07:22.104Z</time>
      </trkpt>
      <trkpt lat="47.19569" lon="-1.71719">
        <ele>56</ele>
        <time>2016-04-10T13:07:23.027Z</time>
      </trkpt>
      <trkpt lat="47.19572" lon="-1.71729">
        <ele>56.1</ele>
        <time>2016-04-10T13:07:28.093Z</time>
      </trkpt>
      <trkpt lat="47.19573" lon="-1.71732">
        <ele>56.2</ele>
        <time>2016-04-10T13:07:29.028Z</time>
      </trkpt>
      <trkpt lat="47.19574" lon="-1.71742">
        <ele>56.3</ele>
        <time>2016-04-10T13:07:34.093Z</time>
      </trkpt>
      <trkpt lat="47.19575" lon="-1.71745">
        <ele>56.2</ele>
        <time>2016-04-10T13:07:34.993Z</time>
      </trkpt>
      <trkpt lat="47.19576" lon="-1.71756">
        <ele>56</ele>
        <time>2016-04-10T13:07:41.091Z</time>
      </trkpt>
      <trkpt lat="47.19576" lon="-1.71758">
        <ele>55.9</ele>
        <time>2016-04-10T13:07:42.044Z</time>
      </trkpt>
      <trkpt lat="47.19578" lon="-1.71769">
        <ele>56.2</ele>
        <time>2016-04-10T13:07:48.068Z</time>
      </trkpt>
      <trkpt lat="47.19578" lon="-1.71772">
        <ele>56.2</ele>
        <time>2016-04-10T13:07:49.051Z</time>
      </trkpt>
      <trkpt lat="47.19579" lon="-1.71784">
        <ele>56.1</ele>
        <time>2016-04-10T13:07:55.028Z</time>
      </trkpt>
      <trkpt lat="47.1958" lon="-1.71786">
        <ele>56</ele>
        <time>2016-04-10T13:07:56.382Z</time>
      </trkpt>
      <trkpt lat="47.19581" lon="-1.71797">
        <ele>55.8</ele>
        <time>2016-04-10T13:08:00.971Z</time>
      </trkpt>
      <trkpt lat="47.19581" lon="-1.71799">
        <ele>55.7</ele>
        <time>2016-04-10T13:08:02.011Z</time>
      </trkpt>
      <trkpt lat="47.19582" lon="-1.71812">
        <ele>55.5</ele>
        <time>2016-04-10T13:08:08.107Z</time>
      </trkpt>
      <trkpt lat="47.19582" lon="-1.71813">
        <ele>55.4</ele>
        <time>2016-04-10T13:08:09.048Z</time>
      </trkpt>
      <trkpt lat="47.19584" lon="-1.71824">
        <ele>54.7</ele>
        <time>2016-04-10T13:08:15.158Z</time>
      </trkpt>
      <trkpt lat="47.19584" lon="-1.71827">
        <ele>54.6</ele>
        <time>2016-04-10T13:08:16.028Z</time>
      </trkpt>
      <trkpt lat="47.19586" lon="-1.7184">
        <ele>53.9</ele>
        <time>2016-04-10T13:08:22.107Z</time>
      </trkpt>
      <trkpt lat="47.19586" lon="-1.71842">
        <ele>53.8</ele>
        <time>2016-04-10T13:08:23.069Z</time>
      </trkpt>
      <trkpt lat="47.19588" lon="-1.71853">
        <ele>53.4</ele>
        <time>2016-04-10T13:08:29.106Z</time>
      </trkpt>
      <trkpt lat="47.19589" lon="-1.71855">
        <ele>53.3</ele>
        <time>2016-04-10T13:08:30.046Z</time>
      </trkpt>
      <trkpt lat="47.19592" lon="-1.71868">
        <ele>53.2</ele>
        <time>2016-04-10T13:08:36.190Z</time>
      </trkpt>
      <trkpt lat="47.19592" lon="-1.7187">
        <ele>53.2</ele>
        <time>2016-04-10T13:08:37.025Z</time>
      </trkpt>
      <trkpt lat="47.19595" lon="-1.71882">
        <ele>52.8</ele>
        <time>2016-04-10T13:08:43.129Z</time>
      </trkpt>
      <trkpt lat="47.19596" lon="-1.71884">
        <ele>52.8</ele>
        <time>2016-04-10T13:08:43.995Z</time>
      </trkpt>
      <trkpt lat="47.19599" lon="-1.71895">
        <ele>52.4</ele>
        <time>2016-04-10T13:08:50.119Z</time>
      </trkpt>
      <trkpt lat="47.19599" lon="-1.71898">
        <ele>52.3</ele>
        <time>2016-04-10T13:08:51.002Z</time>
      </trkpt>
      <trkpt lat="47.19601" lon="-1.7191">
        <ele>51.5</ele>
        <time>2016-04-10T13:08:58.109Z</time>
      </trkpt>
      <trkpt lat="47.19601" lon="-1.71912">
        <ele>51.5</ele>
        <time>2016-04-10T13:08:59.023Z</time>
      </trkpt>
      <trkpt lat="47.19602" lon="-1.71923">
        <ele>51.5</ele>
        <time>2016-04-10T13:09:05.138Z</time>
      </trkpt>
      <trkpt lat="47.19602" lon="-1.71926">
        <ele>51.5</ele>
        <time>2016-04-10T13:09:06.014Z</time>
      </trkpt>
      <trkpt lat="47.19604" lon="-1.71936">
        <ele>51</ele>
        <time>2016-04-10T13:09:12.434Z</time>
      </trkpt>
      <trkpt lat="47.19604" lon="-1.71939">
        <ele>50.9</ele>
        <time>2016-04-10T13:09:13.143Z</time>
      </trkpt>
      <trkpt lat="47.19607" lon="-1.71951">
        <ele>50.6</ele>
        <time>2016-04-10T13:09:19.087Z</time>
      </trkpt>
      <trkpt lat="47.19607" lon="-1.71953">
        <ele>50.5</ele>
        <time>2016-04-10T13:09:20.050Z</time>
      </trkpt>
      <trkpt lat="47.19608" lon="-1.71966">
        <ele>50.1</ele>
        <time>2016-04-10T13:09:27.151Z</time>
      </trkpt>
      <trkpt lat="47.19609" lon="-1.71967">
        <ele>50</ele>
        <time>2016-04-10T13:09:28.055Z</time>
      </trkpt>
      <trkpt lat="47.19613" lon="-1.71978">
        <ele>49.5</ele>
        <time>2016-04-10T13:09:35.118Z</time>
      </trkpt>
      <trkpt lat="47.19614" lon="-1.71979">
        <ele>49.5</ele>
        <time>2016-04-10T13:09:36.082Z</time>
      </trkpt>
      <trkpt lat="47.19622" lon="-1.71984">
        <ele>49.9</ele>
        <time>2016-04-10T13:09:42.036Z</time>
      </trkpt>
      <trkpt lat="47.19623" lon="-1.71983">
        <ele>49.9</ele>
        <time>2016-04-10T13:09:43.048Z</time>
      </trkpt>
      <trkpt lat="47.1963" lon="-1.71978">
        <ele>49.7</ele>
        <time>2016-04-10T13:09:49.073Z</time>
      </trkpt>
      <trkpt lat="47.19632" lon="-1.71977">
        <ele>49.7</ele>
        <time>2016-04-10T13:09:50.102Z</time>
      </trkpt>
      <trkpt lat="47.19639" lon="-1.71973">
        <ele>49.8</ele>
        <time>2016-04-10T13:09:55.536Z</time>
      </trkpt>
      <trkpt lat="47.1964" lon="-1.71972">
        <ele>49.9</ele>
        <time>2016-04-10T13:09:56.100Z</time>
      </trkpt>
      <trkpt lat="47.19646" lon="-1.71963">
        <ele>50.2</ele>
        <time>2016-04-10T13:10:02.236Z</time>
      </trkpt>
      <trkpt lat="47.19646" lon="-1.71961">
        <ele>50.2</ele>
        <time>2016-04-10T13:10:03.047Z</time>
      </trkpt>
      <trkpt lat="47.19644" lon="-1.71949">
        <ele>50.3</ele>
        <time>2016-04-10T13:10:10.028Z</time>
      </trkpt>
      <trkpt lat="47.19643" lon="-1.71947">
        <ele>50.3</ele>
        <time>2016-04-10T13:10:10.994Z</time>
      </trkpt>
      <trkpt lat="47.19644" lon="-1.71935">
        <ele>50.3</ele>
        <time>2016-04-10T13:10:17.156Z</time>
      </trkpt>
      <trkpt lat="47.19645" lon="-1.71934">
        <ele>50.2</ele>
        <time>2016-04-10T13:10:18.003Z</time>
      </trkpt>
      <trkpt lat="47.19653" lon="-1.71939">
        <ele>50.8</ele>
        <time>2016-04-10T13:10:46.147Z</time>
      </trkpt>
      <trkpt lat="47.19653" lon="-1.71939">
        <ele>50.8</ele>
        <time>2016-04-10T13:10:47.056Z</time>
      </trkpt>
      <trkpt lat="47.19662" lon="-1.71941">
        <ele>51.6</ele>
        <time>2016-04-10T13:11:02.163Z</time>
      </trkpt>
      <trkpt lat="47.19663" lon="-1.71941">
        <ele>51.7</ele>
        <time>2016-04-10T13:11:03.130Z</time>
      </trkpt>
      <trkpt lat="47.1967" lon="-1.71945">
        <ele>52.1</ele>
        <time>2016-04-10T13:11:16.082Z</time>
      </trkpt>
      <trkpt lat="47.19673" lon="-1.71946">
        <ele>52.2</ele>
        <time>2016-04-10T13:11:17.177Z</time>
      </trkpt>
      <trkpt lat="47.1968" lon="-1.71952">
        <ele>52.2</ele>
        <time>2016-04-10T13:11:23.131Z</time>
      </trkpt>
      <trkpt lat="47.19681" lon="-1.71953">
        <ele>52.2</ele>
        <time>2016-04-10T13:11:24.057Z</time>
      </trkpt>
      <trkpt lat="47.19689" lon="-1.71957">
        <ele>51.8</ele>
        <time>2016-04-10T13:11:32.095Z</time>
      </trkpt>
      <trkpt lat="47.1969" lon="-1.71957">
        <ele>51.7</ele>
        <time>2016-04-10T13:11:33.052Z</time>
      </trkpt>
      <trkpt lat="47.19697" lon="-1.71962">
        <ele>51.2</ele>
        <time>2016-04-10T13:11:37.078Z</time>
      </trkpt>
      <trkpt lat="47.197" lon="-1.71964">
        <ele>51</ele>
        <time>2016-04-10T13:11:38.055Z</time>
      </trkpt>
      <trkpt lat="47.19707" lon="-1.71969">
        <ele>50.4</ele>
        <time>2016-04-10T13:11:43.041Z</time>
      </trkpt>
      <trkpt lat="47.19709" lon="-1.71971">
        <ele>50.3</ele>
        <time>2016-04-10T13:11:44.055Z</time>
      </trkpt>
      <trkpt lat="47.19717" lon="-1.71976">
        <ele>49.5</ele>
        <time>2016-04-10T13:11:52.102Z</time>
      </trkpt>
      <trkpt lat="47.19718" lon="-1.71976">
        <ele>49.4</ele>
        <time>2016-04-10T13:11:53.449Z</time>
      </trkpt>
      <trkpt lat="47.19724" lon="-1.71985">
        <ele>48.3</ele>
        <time>2016-04-10T13:12:00.233Z</time>
      </trkpt>
      <trkpt lat="47.19726" lon="-1.71986">
        <ele>48.2</ele>
        <time>2016-04-10T13:12:00.968Z</time>
      </trkpt>
      <trkpt lat="47.19733" lon="-1.71988">
        <ele>48</ele>
        <time>2016-04-10T13:12:06.137Z</time>
      </trkpt>
      <trkpt lat="47.19735" lon="-1.71988">
        <ele>48</ele>
        <time>2016-04-10T13:12:07.052Z</time>
      </trkpt>
      <trkpt lat="47.19744" lon="-1.71989">
        <ele>48</ele>
        <time>2016-04-10T13:12:12.001Z</time>
      </trkpt>
      <trkpt lat="47.19745" lon="-1.7199">
        <ele>48.1</ele>
        <time>2016-04-10T13:12:13.079Z</time>
      </trkpt>
      <trkpt lat="47.19753" lon="-1.71996">
        <ele>48.8</ele>
        <time>2016-04-10T13:12:19.122Z</time>
      </trkpt>
      <trkpt lat="47.19754" lon="-1.71997">
        <ele>48.8</ele>
        <time>2016-04-10T13:12:20.120Z</time>
      </trkpt>
      <trkpt lat="47.19762" lon="-1.72001">
        <ele>50.4</ele>
        <time>2016-04-10T13:12:30.133Z</time>
      </trkpt>
      <trkpt lat="47.19762" lon="-1.72002">
        <ele>50.5</ele>
        <time>2016-04-10T13:12:31.024Z</time>
      </trkpt>
      <trkpt lat="47.19768" lon="-1.7201">
        <ele>52</ele>
        <time>2016-04-10T13:12:39.148Z</time>
      </trkpt>
      <trkpt lat="47.19769" lon="-1.72012">
        <ele>52.2</ele>
        <time>2016-04-10T13:12:40.057Z</time>
      </trkpt>
      <trkpt lat="47.19774" lon="-1.7202">
        <ele>53.2</ele>
        <time>2016-04-10T13:12:44.030Z</time>
      </trkpt>
      <trkpt lat="47.19776" lon="-1.72022">
        <ele>53.4</ele>
        <time>2016-04-10T13:12:45.030Z</time>
      </trkpt>
      <trkpt lat="47.19782" lon="-1.7203">
        <ele>54.4</ele>
        <time>2016-04-10T13:12:49.160Z</time>
      </trkpt>
      <trkpt lat="47.19783" lon="-1.72032">
        <ele>54.6</ele>
        <time>2016-04-10T13:12:50.058Z</time>
      </trkpt>
      <trkpt lat="47.19789" lon="-1.72041">
        <ele>54.9</ele>
        <time>2016-04-10T13:12:56.008Z</time>
      </trkpt>
      <trkpt lat="47.1979" lon="-1.72042">
        <ele>55</ele>
        <time>2016-04-10T13:12:57.049Z</time>
      </trkpt>
      <trkpt lat="47.19794" lon="-1.72053">
        <ele>55.2</ele>
        <time>2016-04-10T13:13:03.189Z</time>
      </trkpt>
      <trkpt lat="47.19795" lon="-1.72054">
        <ele>55.2</ele>
        <time>2016-04-10T13:13:04.055Z</time>
      </trkpt>
      <trkpt lat="47.19799" lon="-1.72064">
        <ele>55.3</ele>
        <time>2016-04-10T13:13:09.116Z</time>
      </trkpt>
      <trkpt lat="47.198" lon="-1.72066">
        <ele>55.3</ele>
        <time>2016-04-10T13:13:09.997Z</time>
      </trkpt>
      <trkpt lat="47.19804" lon="-1.72077">
        <ele>55</ele>
        <time>2016-04-10T13:13:16.457Z</time>
      </trkpt>
      <trkpt lat="47.19805" lon="-1.72079">
        <ele>54.9</ele>
        <time>2016-04-10T13:13:17.050Z</time>
      </trkpt>
      <trkpt lat="47.19808" lon="-1.72091">
        <ele>54.4</ele>
        <time>2016-04-10T13:13:24.134Z</time>
      </trkpt>
      <trkpt lat="47.19808" lon="-1.72092">
        <ele>54.4</ele>
        <time>2016-04-10T13:13:25.049Z</time>
      </trkpt>
      <trkpt lat="47.19812" lon="-1.72104">
        <ele>53.6</ele>
        <time>2016-04-10T13:13:30.251Z</time>
      </trkpt>
      <trkpt lat="47.19813" lon="-1.72105">
        <ele>53.5</ele>
        <time>2016-04-10T13:13:31.050Z</time>
      </trkpt>
      <trkpt lat="47.19819" lon="-1.72112">
        <ele>53.8</ele>
        <time>2016-04-10T13:13:40.243Z</time>
      </trkpt>
      <trkpt lat="47.1982" lon="-1.72113">
        <ele>54</ele>
        <time>2016-04-10T13:13:40.972Z</time>
      </trkpt>
      <trkpt lat="47.19817" lon="-1.72126">
        <ele>56</ele>
        <time>2016-04-10T13:14:24.139Z</time>
      </trkpt>
      <trkpt lat="47.19817" lon="-1.72126">
        <ele>56</ele>
        <time>2016-04-10T13:14:25.020Z</time>
      </trkpt>
      <trkpt lat="47.19825" lon="-1.72121">
        <ele>54.1</ele>
        <time>2016-04-10T13:15:31.151Z</time>
      </trkpt>
      <trkpt lat="47.19825" lon="-1.7212">
        <ele>54.1</ele>
        <time>2016-04-10T13:15:32.000Z</time>
      </trkpt>
      <trkpt lat="47.19833" lon="-1.72114">
        <ele>56.6</ele>
        <time>2016-04-10T13:18:36.136Z</time>
      </trkpt>
      <trkpt lat="47.19833" lon="-1.72113">
        <ele>56.7</ele>
        <time>2016-04-10T13:18:37.102Z</time>
      </trkpt>
      <trkpt lat="47.19839" lon="-1.72103">
        <ele>57.4</ele>
        <time>2016-04-10T13:18:52.092Z</time>
      </trkpt>
      <trkpt lat="47.19839" lon="-1.72103">
        <ele>57.5</ele>
        <time>2016-04-10T13:18:53.034Z</time>
      </trkpt>
      <trkpt lat="47.19847" lon="-1.72099">
        <ele>58.8</ele>
        <time>2016-04-10T13:19:05.091Z</time>
      </trkpt>
      <trkpt lat="47.19848" lon="-1.72098">
        <ele>58.8</ele>
        <time>2016-04-10T13:19:05.997Z</time>
      </trkpt>
      <trkpt lat="47.19856" lon="-1.72094">
        <ele>59.4</ele>
        <time>2016-04-10T13:19:13.492Z</time>
      </trkpt>
      <trkpt lat="47.19856" lon="-1.72094">
        <ele>59.5</ele>
        <time>2016-04-10T13:19:14.002Z</time>
      </trkpt>
      <trkpt lat="47.19865" lon="-1.72089">
        <ele>59.8</ele>
        <time>2016-04-10T13:19:22.110Z</time>
      </trkpt>
      <trkpt lat="47.19866" lon="-1.72088">
        <ele>59.8</ele>
        <time>2016-04-10T13:19:23.109Z</time>
      </trkpt>
      <trkpt lat="47.19873" lon="-1.72082">
        <ele>60.4</ele>
        <time>2016-04-10T13:19:34.548Z</time>
      </trkpt>
      <trkpt lat="47.19874" lon="-1.72082">
        <ele>60.5</ele>
        <time>2016-04-10T13:19:34.974Z</time>
      </trkpt>
      <trkpt lat="47.19881" lon="-1.72078">
        <ele>60.5</ele>
        <time>2016-04-10T13:19:40.078Z</time>
      </trkpt>
      <trkpt lat="47.19883" lon="-1.72078">
        <ele>60.5</ele>
        <time>2016-04-10T13:19:40.979Z</time>
      </trkpt>
      <trkpt lat="47.1989" lon="-1.72074">
        <ele>60.7</ele>
        <time>2016-04-10T13:19:51.136Z</time>
      </trkpt>
      <trkpt lat="47.19891" lon="-1.72074">
        <ele>60.7</ele>
        <time>2016-04-10T13:19:52.055Z</time>
      </trkpt>
      <trkpt lat="47.19899" lon="-1.72071">
        <ele>60.6</ele>
        <time>2016-04-10T13:19:59.106Z</time>
      </trkpt>
      <trkpt lat="47.199" lon="-1.72071">
        <ele>60.6</ele>
        <time>2016-04-10T13:20:00.227Z</time>
      </trkpt>
      <trkpt lat="47.19909" lon="-1.72068">
        <ele>60.3</ele>
        <time>2016-04-10T13:20:09.101Z</time>
      </trkpt>
      <trkpt lat="47.19909" lon="-1.72067">
        <ele>60.3</ele>
        <time>2016-04-10T13:20:10.071Z</time>
      </trkpt>
      <trkpt lat="47.19918" lon="-1.72065">
        <ele>59.5</ele>
        <time>2016-04-10T13:20:17.161Z</time>
      </trkpt>
      <trkpt lat="47.19919" lon="-1.72065">
        <ele>59.4</ele>
        <time>2016-04-10T13:20:18.049Z</time>
      </trkpt>
      <trkpt lat="47.19923" lon="-1.72076">
        <ele>58.7</ele>
        <time>2016-04-10T13:20:28.065Z</time>
      </trkpt>
      <trkpt lat="47.19923" lon="-1.72078">
        <ele>58.7</ele>
        <time>2016-04-10T13:20:29.039Z</time>
      </trkpt>
      <trkpt lat="47.19926" lon="-1.7209">
        <ele>58.9</ele>
        <time>2016-04-10T13:20:38.104Z</time>
      </trkpt>
      <trkpt lat="47.19926" lon="-1.72091">
        <ele>58.9</ele>
        <time>2016-04-10T13:20:39.060Z</time>
      </trkpt>
      <trkpt lat="47.1992" lon="-1.721">
        <ele>59.1</ele>
        <time>2016-04-10T13:22:23.461Z</time>
      </trkpt>
      <trkpt lat="47.19919" lon="-1.72101">
        <ele>59.1</ele>
        <time>2016-04-10T13:22:23.990Z</time>
      </trkpt>
      <trkpt lat="47.19924" lon="-1.72111">
        <ele>59.5</ele>
        <time>2016-04-10T13:23:08.404Z</time>
      </trkpt>
      <trkpt lat="47.19924" lon="-1.72112">
        <ele>59.5</ele>
        <time>2016-04-10T13:23:09.224Z</time>
      </trkpt>
      <trkpt lat="47.19921" lon="-1.72123">
        <ele>59.8</ele>
        <time>2016-04-10T13:23:18.110Z</time>
      </trkpt>
      <trkpt lat="47.1992" lon="-1.72125">
        <ele>59.8</ele>
        <time>2016-04-10T13:23:19.061Z</time>
      </trkpt>
      <trkpt lat="47.19915" lon="-1.72137">
        <ele>60.1</ele>
        <time>2016-04-10T13:23:25.124Z</time>
      </trkpt>
      <trkpt lat="47.19915" lon="-1.72138">
        <ele>60.1</ele>
        <time>2016-04-10T13:23:26.019Z</time>
      </trkpt>
      <trkpt lat="47.19907" lon="-1.72142">
        <ele>60.3</ele>
        <time>2016-04-10T13:23:34.210Z</time>
      </trkpt>
      <trkpt lat="47.19906" lon="-1.72142">
        <ele>60.4</ele>
        <time>2016-04-10T13:23:35.214Z</time>
      </trkpt>
      <trkpt lat="47.19898" lon="-1.72144">
        <ele>60.9</ele>
        <time>2016-04-10T13:23:44.147Z</time>
      </trkpt>
      <trkpt lat="47.19896" lon="-1.72144">
        <ele>61</ele>
        <time>2016-04-10T13:23:45.070Z</time>
      </trkpt>
      <trkpt lat="47.19888" lon="-1.72146">
        <ele>61.9</ele>
        <time>2016-04-10T13:23:53.192Z</time>
      </trkpt>
      <trkpt lat="47.19887" lon="-1.72146">
        <ele>62</ele>
        <time>2016-04-10T13:23:53.986Z</time>
      </trkpt>
      <trkpt lat="47.19879" lon="-1.72147">
        <ele>62.2</ele>
        <time>2016-04-10T13:24:01.164Z</time>
      </trkpt>
      <trkpt lat="47.19878" lon="-1.72148">
        <ele>62.2</ele>
        <time>2016-04-10T13:24:02.003Z</time>
      </trkpt>
      <trkpt lat="47.19879" lon="-1.7216">
        <ele>61.6</ele>
        <time>2016-04-10T13:24:12.185Z</time>
      </trkpt>
      <trkpt lat="47.19879" lon="-1.72161">
        <ele>61.5</ele>
        <time>2016-04-10T13:24:13.062Z</time>
      </trkpt>
      <trkpt lat="47.19884" lon="-1.7217">
        <ele>60.6</ele>
        <time>2016-04-10T13:24:22.156Z</time>
      </trkpt>
      <trkpt lat="47.19885" lon="-1.72171">
        <ele>60.6</ele>
        <time>2016-04-10T13:24:23.016Z</time>
      </trkpt>
      <trkpt lat="47.19892" lon="-1.7218">
        <ele>60.7</ele>
        <time>2016-04-10T13:24:30.332Z</time>
      </trkpt>
      <trkpt lat="47.19892" lon="-1.72182">
        <ele>60.7</ele>
        <time>2016-04-10T13:24:31.054Z</time>
      </trkpt>
      <trkpt lat="47.19895" lon="-1.72194">
        <ele>61.1</ele>
        <time>2016-04-10T13:24:37.159Z</time>
      </trkpt>
      <trkpt lat="47.19895" lon="-1.72195">
        <ele>61.2</ele>
        <time>2016-04-10T13:24:37.993Z</time>
      </trkpt>
      <trkpt lat="47.19899" lon="-1.72206">
        <ele>62.3</ele>
        <time>2016-04-10T13:24:45.140Z</time>
      </trkpt>
      <trkpt lat="47.199" lon="-1.72207">
        <ele>62.5</ele>
        <time>2016-04-10T13:24:46.093Z</time>
      </trkpt>
      <trkpt lat="47.19904" lon="-1.72218">
        <ele>63.2</ele>
        <time>2016-04-10T13:24:54.119Z</time>
      </trkpt>
      <trkpt lat="47.19905" lon="-1.7222">
        <ele>63.3</ele>
        <time>2016-04-10T13:24:55.051Z</time>
      </trkpt>
      <trkpt lat="47.19909" lon="-1.72231">
        <ele>63.8</ele>
        <time>2016-04-10T13:25:00.299Z</time>
      </trkpt>
      <trkpt lat="47.19911" lon="-1.72233">
        <ele>63.9</ele>
        <time>2016-04-10T13:25:01.005Z</time>
      </trkpt>
      <trkpt lat="47.19917" lon="-1.7224">
        <ele>64.3</ele>
        <time>2016-04-10T13:25:05.243Z</time>
      </trkpt>
      <trkpt lat="47.19918" lon="-1.72241">
        <ele>64.5</ele>
        <time>2016-04-10T13:25:06.140Z</time>
      </trkpt>
      <trkpt lat="47.19925" lon="-1.72247">
        <ele>64.7</ele>
        <time>2016-04-10T13:25:11.011Z</time>
      </trkpt>
      <trkpt lat="47.19926" lon="-1.72248">
        <ele>64.7</ele>
        <time>2016-04-10T13:25:12.056Z</time>
      </trkpt>
      <trkpt lat="47.19933" lon="-1.72256">
        <ele>64.2</ele>
        <time>2016-04-10T13:25:19.179Z</time>
      </trkpt>
      <trkpt lat="47.19934" lon="-1.72258">
        <ele>64.1</ele>
        <time>2016-04-10T13:25:20.068Z</time>
      </trkpt>
      <trkpt lat="47.19937" lon="-1.7227">
        <ele>62.8</ele>
        <time>2016-04-10T13:25:27.160Z</time>
      </trkpt>
      <trkpt lat="47.19937" lon="-1.72273">
        <ele>62.6</ele>
        <time>2016-04-10T13:25:28.031Z</time>
      </trkpt>
      <trkpt lat="47.19935" lon="-1.72285">
        <ele>61.5</ele>
        <time>2016-04-10T13:25:34.136Z</time>
      </trkpt>
      <trkpt lat="47.19935" lon="-1.72287">
        <ele>61.3</ele>
        <time>2016-04-10T13:25:35.003Z</time>
      </trkpt>
      <trkpt lat="47.19936" lon="-1.72299">
        <ele>60.6</ele>
        <time>2016-04-10T13:25:40.144Z</time>
      </trkpt>
      <trkpt lat="47.19936" lon="-1.723">
        <ele>60.4</ele>
        <time>2016-04-10T13:25:41.059Z</time>
      </trkpt>
      <trkpt lat="47.19937" lon="-1.72312">
        <ele>59.4</ele>
        <time>2016-04-10T13:25:48.092Z</time>
      </trkpt>
      <trkpt lat="47.19938" lon="-1.72314">
        <ele>59.3</ele>
        <time>2016-04-10T13:25:49.053Z</time>
      </trkpt>
      <trkpt lat="47.1994" lon="-1.72324">
        <ele>58.9</ele>
        <time>2016-04-10T13:25:54.051Z</time>
      </trkpt>
      <trkpt lat="47.1994" lon="-1.72327">
        <ele>58.8</ele>
        <time>2016-04-10T13:25:55.052Z</time>
      </trkpt>
      <trkpt lat="47.19941" lon="-1.72339">
        <ele>58.2</ele>
        <time>2016-04-10T13:26:02.064Z</time>
      </trkpt>
      <trkpt lat="47.19941" lon="-1.72341">
        <ele>58.1</ele>
        <time>2016-04-10T13:26:03.047Z</time>
      </trkpt>
      <trkpt lat="47.19945" lon="-1.7235">
        <ele>57.9</ele>
        <time>2016-04-10T13:26:08.153Z</time>
      </trkpt>
      <trkpt lat="47.19946" lon="-1.72352">
        <ele>57.9</ele>
        <time>2016-04-10T13:26:09.050Z</time>
      </trkpt>
      <trkpt lat="47.19951" lon="-1.72361">
        <ele>58</ele>
        <time>2016-04-10T13:26:14.150Z</time>
      </trkpt>
      <trkpt lat="47.19952" lon="-1.72362">
        <ele>58</ele>
        <time>2016-04-10T13:26:15.049Z</time>
      </trkpt>
      <trkpt lat="47.19961" lon="-1.72364">
        <ele>57.4</ele>
        <time>2016-04-10T13:26:25.151Z</time>
      </trkpt>
      <trkpt lat="47.19962" lon="-1.72365">
        <ele>57.4</ele>
        <time>2016-04-10T13:26:26.070Z</time>
      </trkpt>
      <trkpt lat="47.19966" lon="-1.72376">
        <ele>57.6</ele>
        <time>2016-04-10T13:26:32.201Z</time>
      </trkpt>
      <trkpt lat="47.19967" lon="-1.72378">
        <ele>57.6</ele>
        <time>2016-04-10T13:26:32.988Z</time>
      </trkpt>
      <trkpt lat="47.19968" lon="-1.72391">
        <ele>57.4</ele>
        <time>2016-04-10T13:26:41.040Z</time>
      </trkpt>
      <trkpt lat="47.19968" lon="-1.72394">
        <ele>57.4</ele>
        <time>2016-04-10T13:26:41.986Z</time>
      </trkpt>
      <trkpt lat="47.19968" lon="-1.72407">
        <ele>57.3</ele>
        <time>2016-04-10T13:26:49.145Z</time>
      </trkpt>
      <trkpt lat="47.19967" lon="-1.7241">
        <ele>57.2</ele>
        <time>2016-04-10T13:26:50.060Z</time>
      </trkpt>
      <trkpt lat="47.19965" lon="-1.72421">
        <ele>56.9</ele>
        <time>2016-04-10T13:26:55.166Z</time>
      </trkpt>
      <trkpt lat="47.19964" lon="-1.72423">
        <ele>56.8</ele>
        <time>2016-04-10T13:26:56.020Z</time>
      </trkpt>
      <trkpt lat="47.19957" lon="-1.72432">
        <ele>56.5</ele>
        <time>2016-04-10T13:27:03.007Z</time>
      </trkpt>
      <trkpt lat="47.19956" lon="-1.72433">
        <ele>56.4</ele>
        <time>2016-04-10T13:27:04.055Z</time>
      </trkpt>
      <trkpt lat="47.1995" lon="-1.72442">
        <ele>56.2</ele>
        <time>2016-04-10T13:27:11.125Z</time>
      </trkpt>
      <trkpt lat="47.19949" lon="-1.72443">
        <ele>56.2</ele>
        <time>2016-04-10T13:27:12.061Z</time>
      </trkpt>
      <trkpt lat="47.19942" lon="-1.72446">
        <ele>56</ele>
        <time>2016-04-10T13:27:17.186Z</time>
      </trkpt>
      <trkpt lat="47.1994" lon="-1.72447">
        <ele>55.9</ele>
        <time>2016-04-10T13:27:18.050Z</time>
      </trkpt>
      <trkpt lat="47.19932" lon="-1.72448">
        <ele>55.4</ele>
        <time>2016-04-10T13:27:24.222Z</time>
      </trkpt>
      <trkpt lat="47.19931" lon="-1.72448">
        <ele>55.3</ele>
        <time>2016-04-10T13:27:24.998Z</time>
      </trkpt>
      <trkpt lat="47.19923" lon="-1.72449">
        <ele>54.9</ele>
        <time>2016-04-10T13:27:32.221Z</time>
      </trkpt>
      <trkpt lat="47.19922" lon="-1.7245">
        <ele>54.9</ele>
        <time>2016-04-10T13:27:33.041Z</time>
      </trkpt>
      <trkpt lat="47.19914" lon="-1.72452">
        <ele>54.8</ele>
        <time>2016-04-10T13:27:39.086Z</time>
      </trkpt>
      <trkpt lat="47.19912" lon="-1.72453">
        <ele>54.8</ele>
        <time>2016-04-10T13:27:39.994Z</time>
      </trkpt>
      <trkpt lat="47.19903" lon="-1.72452">
        <ele>55</ele>
        <time>2016-04-10T13:27:47.081Z</time>
      </trkpt>
      <trkpt lat="47.19902" lon="-1.72453">
        <ele>55</ele>
        <time>2016-04-10T13:27:47.998Z</time>
      </trkpt>
      <trkpt lat="47.19894" lon="-1.72454">
        <ele>55</ele>
        <time>2016-04-10T13:27:53.146Z</time>
      </trkpt>
      <trkpt lat="47.19892" lon="-1.72454">
        <ele>54.9</ele>
        <time>2016-04-10T13:27:54.056Z</time>
      </trkpt>
      <trkpt lat="47.19884" lon="-1.72458">
        <ele>54.7</ele>
        <time>2016-04-10T13:28:00.273Z</time>
      </trkpt>
      <trkpt lat="47.19883" lon="-1.7246">
        <ele>54.6</ele>
        <time>2016-04-10T13:28:00.976Z</time>
      </trkpt>
      <trkpt lat="47.19885" lon="-1.72472">
        <ele>53.9</ele>
        <time>2016-04-10T13:28:08.143Z</time>
      </trkpt>
      <trkpt lat="47.19885" lon="-1.72473">
        <ele>53.8</ele>
        <time>2016-04-10T13:28:09.065Z</time>
      </trkpt>
      <trkpt lat="47.1989" lon="-1.72483">
        <ele>53.6</ele>
        <time>2016-04-10T13:28:15.325Z</time>
      </trkpt>
      <trkpt lat="47.19891" lon="-1.72485">
        <ele>53.5</ele>
        <time>2016-04-10T13:28:15.996Z</time>
      </trkpt>
      <trkpt lat="47.19897" lon="-1.72494">
        <ele>53.2</ele>
        <time>2016-04-10T13:28:23.108Z</time>
      </trkpt>
      <trkpt lat="47.19898" lon="-1.72495">
        <ele>53.2</ele>
        <time>2016-04-10T13:28:24.077Z</time>
      </trkpt>
      <trkpt lat="47.19902" lon="-1.72506">
        <ele>53.3</ele>
        <time>2016-04-10T13:28:32.077Z</time>
      </trkpt>
      <trkpt lat="47.19902" lon="-1.72507">
        <ele>53.4</ele>
        <time>2016-04-10T13:28:33.056Z</time>
      </trkpt>
      <trkpt lat="47.19906" lon="-1.72517">
        <ele>54.8</ele>
        <time>2016-04-10T13:28:41.157Z</time>
      </trkpt>
      <trkpt lat="47.19907" lon="-1.72519">
        <ele>55</ele>
        <time>2016-04-10T13:28:42.058Z</time>
      </trkpt>
      <trkpt lat="47.19912" lon="-1.72527">
        <ele>55.4</ele>
        <time>2016-04-10T13:28:45.164Z</time>
      </trkpt>
      <trkpt lat="47.19913" lon="-1.72529">
        <ele>55.4</ele>
        <time>2016-04-10T13:28:46.021Z</time>
      </trkpt>
      <trkpt lat="47.19922" lon="-1.72533">
        <ele>55.5</ele>
        <time>2016-04-10T13:29:00.109Z</time>
      </trkpt>
      <trkpt lat="47.19922" lon="-1.72532">
        <ele>55.5</ele>
        <time>2016-04-10T13:29:01.033Z</time>
      </trkpt>
      <trkpt lat="47.19931" lon="-1.72533">
        <ele>55.5</ele>
        <time>2016-04-10T13:29:08.142Z</time>
      </trkpt>
      <trkpt lat="47.19932" lon="-1.72534">
        <ele>55.5</ele>
        <time>2016-04-10T13:29:09.060Z</time>
      </trkpt>
      <trkpt lat="47.19935" lon="-1.72545">
        <ele>57.7</ele>
        <time>2016-04-10T13:34:04.195Z</time>
      </trkpt>
      <trkpt lat="47.19935" lon="-1.72548">
        <ele>57.5</ele>
        <time>2016-04-10T13:34:04.995Z</time>
      </trkpt>
      <trkpt lat="47.19937" lon="-1.7256">
        <ele>56.4</ele>
        <time>2016-04-10T13:35:23.269Z</time>
      </trkpt>
      <trkpt lat="47.19937" lon="-1.72561">
        <ele>56.4</ele>
        <time>2016-04-10T13:35:24.054Z</time>
      </trkpt>
      <trkpt lat="47.19937" lon="-1.72574">
        <ele>55.6</ele>
        <time>2016-04-10T13:36:46.101Z</time>
      </trkpt>
      <trkpt lat="47.19937" lon="-1.72574">
        <ele>55.6</ele>
        <time>2016-04-10T13:36:46.993Z</time>
      </trkpt>
      <trkpt lat="47.19942" lon="-1.72585">
        <ele>55.6</ele>
        <time>2016-04-10T13:37:02.116Z</time>
      </trkpt>
      <trkpt lat="47.19943" lon="-1.72587">
        <ele>55.6</ele>
        <time>2016-04-10T13:37:03.061Z</time>
      </trkpt>
      <trkpt lat="47.19948" lon="-1.72597">
        <ele>56.3</ele>
        <time>2016-04-10T13:37:15.133Z</time>
      </trkpt>
      <trkpt lat="47.19948" lon="-1.72598">
        <ele>56.4</ele>
        <time>2016-04-10T13:37:16.045Z</time>
      </trkpt>
      <trkpt lat="47.19951" lon="-1.72608">
        <ele>57.6</ele>
        <time>2016-04-10T13:37:26.670Z</time>
      </trkpt>
      <trkpt lat="47.19952" lon="-1.7261">
        <ele>57.8</ele>
        <time>2016-04-10T13:37:26.988Z</time>
      </trkpt>
      <trkpt lat="47.19955" lon="-1.72621">
        <ele>59.4</ele>
        <time>2016-04-10T13:37:34.124Z</time>
      </trkpt>
      <trkpt lat="47.19955" lon="-1.72622">
        <ele>59.6</ele>
        <time>2016-04-10T13:37:35.066Z</time>
      </trkpt>
      <trkpt lat="47.19956" lon="-1.72635">
        <ele>60.6</ele>
        <time>2016-04-10T13:37:42.081Z</time>
      </trkpt>
      <trkpt lat="47.19956" lon="-1.72637">
        <ele>60.7</ele>
        <time>2016-04-10T13:37:43.004Z</time>
      </trkpt>
      <trkpt lat="47.1996" lon="-1.72648">
        <ele>61.4</ele>
        <time>2016-04-10T13:37:49.084Z</time>
      </trkpt>
      <trkpt lat="47.19961" lon="-1.7265">
        <ele>61.5</ele>
        <time>2016-04-10T13:37:50.038Z</time>
      </trkpt>
      <trkpt lat="47.19964" lon="-1.72661">
        <ele>62.3</ele>
        <time>2016-04-10T13:37:57.153Z</time>
      </trkpt>
      <trkpt lat="47.19964" lon="-1.72663">
        <ele>62.5</ele>
        <time>2016-04-10T13:37:58.020Z</time>
      </trkpt>
      <trkpt lat="47.19967" lon="-1.72674">
        <ele>63.4</ele>
        <time>2016-04-10T13:38:03.096Z</time>
      </trkpt>
      <trkpt lat="47.19968" lon="-1.72676">
        <ele>63.5</ele>
        <time>2016-04-10T13:38:04.038Z</time>
      </trkpt>
      <trkpt lat="47.1997" lon="-1.72689">
        <ele>64.5</ele>
        <time>2016-04-10T13:38:11.105Z</time>
      </trkpt>
      <trkpt lat="47.1997" lon="-1.7269">
        <ele>64.7</ele>
        <time>2016-04-10T13:38:12.049Z</time>
      </trkpt>
      <trkpt lat="47.19971" lon="-1.72703">
        <ele>65.2</ele>
        <time>2016-04-10T13:38:18.503Z</time>
      </trkpt>
      <trkpt lat="47.19971" lon="-1.72705">
        <ele>65.2</ele>
        <time>2016-04-10T13:38:19.055Z</time>
      </trkpt>
      <trkpt lat="47.19973" lon="-1.72717">
        <ele>65.2</ele>
        <time>2016-04-10T13:38:26.129Z</time>
      </trkpt>
      <trkpt lat="47.19973" lon="-1.72719">
        <ele>65.2</ele>
        <time>2016-04-10T13:38:27.074Z</time>
      </trkpt>
      <trkpt lat="47.19975" lon="-1.72731">
        <ele>65.7</ele>
        <time>2016-04-10T13:38:33.112Z</time>
      </trkpt>
      <trkpt lat="47.19976" lon="-1.72733">
        <ele>65.7</ele>
        <time>2016-04-10T13:38:34.006Z</time>
      </trkpt>
      <trkpt lat="47.19978" lon="-1.72746">
        <ele>66</ele>
        <time>2016-04-10T13:38:40.056Z</time>
      </trkpt>
      <trkpt lat="47.19978" lon="-1.72748">
        <ele>66</ele>
        <time>2016-04-10T13:38:41.001Z</time>
      </trkpt>
      <trkpt lat="47.19979" lon="-1.7276">
        <ele>66.5</ele>
        <time>2016-04-10T13:38:49.126Z</time>
      </trkpt>
      <trkpt lat="47.1998" lon="-1.72761">
        <ele>66.5</ele>
        <time>2016-04-10T13:38:50.064Z</time>
      </trkpt>
      <trkpt lat="47.19982" lon="-1.72773">
        <ele>66.9</ele>
        <time>2016-04-10T13:38:59.108Z</time>
      </trkpt>
      <trkpt lat="47.19982" lon="-1.72774">
        <ele>66.9</ele>
        <time>2016-04-10T13:39:00.206Z</time>
      </trkpt>
      <trkpt lat="47.19985" lon="-1.72786">
        <ele>67.2</ele>
        <time>2016-04-10T13:39:07.409Z</time>
      </trkpt>
      <trkpt lat="47.19985" lon="-1.72788">
        <ele>67.3</ele>
        <time>2016-04-10T13:39:08.076Z</time>
      </trkpt>
      <trkpt lat="47.19989" lon="-1.72799">
        <ele>67.6</ele>
        <time>2016-04-10T13:39:13.087Z</time>
      </trkpt>
      <trkpt lat="47.1999" lon="-1.72801">
        <ele>67.6</ele>
        <time>2016-04-10T13:39:13.997Z</time>
      </trkpt>
      <trkpt lat="47.19992" lon="-1.72812">
        <ele>67.3</ele>
        <time>2016-04-10T13:39:19.025Z</time>
      </trkpt>
      <trkpt lat="47.19993" lon="-1.72814">
        <ele>67.3</ele>
        <time>2016-04-10T13:39:20.064Z</time>
      </trkpt>
      <trkpt lat="47.19997" lon="-1.72824">
        <ele>66.9</ele>
        <time>2016-04-10T13:39:28.166Z</time>
      </trkpt>
      <trkpt lat="47.19997" lon="-1.72826">
        <ele>66.9</ele>
        <time>2016-04-10T13:39:29.020Z</time>
      </trkpt>
      <trkpt lat="47.20001" lon="-1.72836">
        <ele>66.9</ele>
        <time>2016-04-10T13:39:34.123Z</time>
      </trkpt>
      <trkpt lat="47.20002" lon="-1.72839">
        <ele>66.9</ele>
        <time>2016-04-10T13:39:35.013Z</time>
      </trkpt>
      <trkpt lat="47.20006" lon="-1.72849">
        <ele>66.8</ele>
        <time>2016-04-10T13:39:40.056Z</time>
      </trkpt>
      <trkpt lat="47.20007" lon="-1.72852">
        <ele>66.8</ele>
        <time>2016-04-10T13:39:41.094Z</time>
      </trkpt>
      <trkpt lat="47.2001" lon="-1.72864">
        <ele>66.4</ele>
        <time>2016-04-10T13:39:48.097Z</time>
      </trkpt>
      <trkpt lat="47.2001" lon="-1.72866">
        <ele>66.4</ele>
        <time>2016-04-10T13:39:49.023Z</time>
      </trkpt>
      <trkpt lat="47.20012" lon="-1.72878">
        <ele>66.1</ele>
        <time>2016-04-10T13:39:59.162Z</time>
      </trkpt>
      <trkpt lat="47.20012" lon="-1.72879">
        <ele>66.1</ele>
        <time>2016-04-10T13:40:00.052Z</time>
      </trkpt>
      <trkpt lat="47.20014" lon="-1.72891">
        <ele>65.6</ele>
        <time>2016-04-10T13:40:08.119Z</time>
      </trkpt>
      <trkpt lat="47.20015" lon="-1.72896">
        <ele>65.5</ele>
        <time>2016-04-10T13:40:09.074Z</time>
      </trkpt>
      <trkpt lat="47.20017" lon="-1.72906">
        <ele>65.1</ele>
        <time>2016-04-10T13:40:12.087Z</time>
      </trkpt>
      <trkpt lat="47.20017" lon="-1.72909">
        <ele>65</ele>
        <time>2016-04-10T13:40:13.006Z</time>
      </trkpt>
      <trkpt lat="47.20018" lon="-1.72921">
        <ele>64.4</ele>
        <time>2016-04-10T13:40:19.115Z</time>
      </trkpt>
      <trkpt lat="47.20018" lon="-1.72924">
        <ele>64.3</ele>
        <time>2016-04-10T13:40:20.020Z</time>
      </trkpt>
      <trkpt lat="47.20019" lon="-1.72935">
        <ele>64</ele>
        <time>2016-04-10T13:40:26.104Z</time>
      </trkpt>
      <trkpt lat="47.20019" lon="-1.72937">
        <ele>64</ele>
        <time>2016-04-10T13:40:27.035Z</time>
      </trkpt>
      <trkpt lat="47.2002" lon="-1.72947">
        <ele>63.7</ele>
        <time>2016-04-10T13:40:32.141Z</time>
      </trkpt>
      <trkpt lat="47.20021" lon="-1.7295">
        <ele>63.5</ele>
        <time>2016-04-10T13:40:33.029Z</time>
      </trkpt>
      <trkpt lat="47.20024" lon="-1.72962">
        <ele>63</ele>
        <time>2016-04-10T13:40:39.102Z</time>
      </trkpt>
      <trkpt lat="47.20024" lon="-1.72963">
        <ele>62.9</ele>
        <time>2016-04-10T13:40:40.004Z</time>
      </trkpt>
      <trkpt lat="47.20031" lon="-1.72971">
        <ele>62.1</ele>
        <time>2016-04-10T13:40:48.196Z</time>
      </trkpt>
      <trkpt lat="47.20032" lon="-1.72972">
        <ele>62</ele>
        <time>2016-04-10T13:40:49.025Z</time>
      </trkpt>
      <trkpt lat="47.20036" lon="-1.72983">
        <ele>61.6</ele>
        <time>2016-04-10T13:40:56.103Z</time>
      </trkpt>
      <trkpt lat="47.20037" lon="-1.72985">
        <ele>61.6</ele>
        <time>2016-04-10T13:40:57.041Z</time>
      </trkpt>
      <trkpt lat="47.20039" lon="-1.72998">
        <ele>61</ele>
        <time>2016-04-10T13:41:03.032Z</time>
      </trkpt>
      <trkpt lat="47.20039" lon="-1.73">
        <ele>60.9</ele>
        <time>2016-04-10T13:41:04.072Z</time>
      </trkpt>
      <trkpt lat="47.20042" lon="-1.7301">
        <ele>60</ele>
        <time>2016-04-10T13:41:10.054Z</time>
      </trkpt>
      <trkpt lat="47.20042" lon="-1.73012">
        <ele>59.9</ele>
        <time>2016-04-10T13:41:11.106Z</time>
      </trkpt>
      <trkpt lat="47.20044" lon="-1.73023">
        <ele>59.4</ele>
        <time>2016-04-10T13:41:17.153Z</time>
      </trkpt>
      <trkpt lat="47.20045" lon="-1.73025">
        <ele>59.3</ele>
        <time>2016-04-10T13:41:18.050Z</time>
      </trkpt>
      <trkpt lat="47.20048" lon="-1.73037">
        <ele>58.7</ele>
        <time>2016-04-10T13:41:24.114Z</time>
      </trkpt>
      <trkpt lat="47.20048" lon="-1.73039">
        <ele>58.6</ele>
        <time>2016-04-10T13:41:25.032Z</time>
      </trkpt>
      <trkpt lat="47.2005" lon="-1.7305">
        <ele>58</ele>
        <time>2016-04-10T13:41:32.132Z</time>
      </trkpt>
      <trkpt lat="47.2005" lon="-1.73052">
        <ele>57.9</ele>
        <time>2016-04-10T13:41:33.060Z</time>
      </trkpt>
      <trkpt lat="47.20051" lon="-1.73064">
        <ele>57.5</ele>
        <time>2016-04-10T13:41:40.067Z</time>
      </trkpt>
      <trkpt lat="47.20051" lon="-1.73066">
        <ele>57.5</ele>
        <time>2016-04-10T13:41:41.045Z</time>
      </trkpt>
      <trkpt lat="47.20052" lon="-1.73078">
        <ele>57.5</ele>
        <time>2016-04-10T13:41:48.183Z</time>
      </trkpt>
      <trkpt lat="47.20052" lon="-1.7308">
        <ele>57.5</ele>
        <time>2016-04-10T13:41:49.055Z</time>
      </trkpt>
      <trkpt lat="47.20053" lon="-1.73093">
        <ele>57.5</ele>
        <time>2016-04-10T13:41:56.106Z</time>
      </trkpt>
      <trkpt lat="47.20053" lon="-1.73095">
        <ele>57.5</ele>
        <time>2016-04-10T13:41:57.034Z</time>
      </trkpt>
      <trkpt lat="47.20056" lon="-1.73106">
        <ele>57.7</ele>
        <time>2016-04-10T13:42:04.101Z</time>
      </trkpt>
      <trkpt lat="47.20057" lon="-1.73108">
        <ele>57.7</ele>
        <time>2016-04-10T13:42:05.044Z</time>
      </trkpt>
      <trkpt lat="47.20058" lon="-1.7312">
        <ele>57.7</ele>
        <time>2016-04-10T13:42:11.096Z</time>
      </trkpt>
      <trkpt lat="47.20058" lon="-1.73123">
        <ele>57.6</ele>
        <time>2016-04-10T13:42:12.105Z</time>
      </trkpt>
      <trkpt lat="47.20059" lon="-1.73135">
        <ele>57.5</ele>
        <time>2016-04-10T13:42:18.117Z</time>
      </trkpt>
      <trkpt lat="47.20059" lon="-1.73137">
        <ele>57.5</ele>
        <time>2016-04-10T13:42:19.064Z</time>
      </trkpt>
      <trkpt lat="47.2006" lon="-1.73149">
        <ele>57.1</ele>
        <time>2016-04-10T13:42:27.104Z</time>
      </trkpt>
      <trkpt lat="47.2006" lon="-1.73151">
        <ele>57.1</ele>
        <time>2016-04-10T13:42:28.044Z</time>
      </trkpt>
      <trkpt lat="47.20062" lon="-1.73163">
        <ele>57.3</ele>
        <time>2016-04-10T13:42:33.035Z</time>
      </trkpt>
      <trkpt lat="47.20062" lon="-1.73165">
        <ele>57.4</ele>
        <time>2016-04-10T13:42:34.067Z</time>
      </trkpt>
      <trkpt lat="47.20064" lon="-1.73178">
        <ele>57.9</ele>
        <time>2016-04-10T13:42:40.137Z</time>
      </trkpt>
      <trkpt lat="47.20065" lon="-1.7318">
        <ele>57.9</ele>
        <time>2016-04-10T13:42:41.058Z</time>
      </trkpt>
      <trkpt lat="47.20066" lon="-1.73191">
        <ele>58</ele>
        <time>2016-04-10T13:42:46.124Z</time>
      </trkpt>
      <trkpt lat="47.20066" lon="-1.73193">
        <ele>58</ele>
        <time>2016-04-10T13:42:47.063Z</time>
      </trkpt>
      <trkpt lat="47.20068" lon="-1.73205">
        <ele>57.9</ele>
        <time>2016-04-10T13:42:52.651Z</time>
      </trkpt>
      <trkpt lat="47.20068" lon="-1.73208">
        <ele>57.9</ele>
        <time>2016-04-10T13:42:52.976Z</time>
      </trkpt>
      <trkpt lat="47.20068" lon="-1.7322">
        <ele>57.5</ele>
        <time>2016-04-10T13:43:00.274Z</time>
      </trkpt>
      <trkpt lat="47.20068" lon="-1.73222">
        <ele>57.4</ele>
        <time>2016-04-10T13:43:00.977Z</time>
      </trkpt>
      <trkpt lat="47.20067" lon="-1.73233">
        <ele>57.1</ele>
        <time>2016-04-10T13:43:06.100Z</time>
      </trkpt>
      <trkpt lat="47.20067" lon="-1.73235">
        <ele>57</ele>
        <time>2016-04-10T13:43:07.014Z</time>
      </trkpt>
      <trkpt lat="47.20065" lon="-1.73248">
        <ele>56.7</ele>
        <time>2016-04-10T13:43:14.092Z</time>
      </trkpt>
      <trkpt lat="47.20065" lon="-1.73249">
        <ele>56.6</ele>
        <time>2016-04-10T13:43:15.062Z</time>
      </trkpt>
      <trkpt lat="47.20064" lon="-1.73261">
        <ele>56.7</ele>
        <time>2016-04-10T13:43:21.144Z</time>
      </trkpt>
      <trkpt lat="47.20064" lon="-1.73263">
        <ele>56.8</ele>
        <time>2016-04-10T13:43:22.054Z</time>
      </trkpt>
      <trkpt lat="47.20064" lon="-1.73273">
        <ele>57</ele>
        <time>2016-04-10T13:43:27.055Z</time>
      </trkpt>
      <trkpt lat="47.20064" lon="-1.73276">
        <ele>57</ele>
        <time>2016-04-10T13:43:28.075Z</time>
      </trkpt>
      <trkpt lat="47.20063" lon="-1.73289">
        <ele>57.3</ele>
        <time>2016-04-10T13:43:34.178Z</time>
      </trkpt>
      <trkpt lat="47.20063" lon="-1.73291">
        <ele>57.3</ele>
        <time>2016-04-10T13:43:35.034Z</time>
      </trkpt>
      <trkpt lat="47.20065" lon="-1.73303">
        <ele>57.4</ele>
        <time>2016-04-10T13:43:42.166Z</time>
      </trkpt>
      <trkpt lat="47.20065" lon="-1.73305">
        <ele>57.5</ele>
        <time>2016-04-10T13:43:43.040Z</time>
      </trkpt>
      <trkpt lat="47.20066" lon="-1.73316">
        <ele>57.3</ele>
        <time>2016-04-10T13:43:49.076Z</time>
      </trkpt>
      <trkpt lat="47.20066" lon="-1.73318">
        <ele>57.3</ele>
        <time>2016-04-10T13:43:50.071Z</time>
      </trkpt>
      <trkpt lat="47.20065" lon="-1.7333">
        <ele>57.3</ele>
        <time>2016-04-10T13:43:57.135Z</time>
      </trkpt>
      <trkpt lat="47.20065" lon="-1.73331">
        <ele>57.2</ele>
        <time>2016-04-10T13:43:58.085Z</time>
      </trkpt>
      <trkpt lat="47.20064" lon="-1.73343">
        <ele>57.3</ele>
        <time>2016-04-10T13:44:04.054Z</time>
      </trkpt>
      <trkpt lat="47.20064" lon="-1.73346">
        <ele>57.4</ele>
        <time>2016-04-10T13:44:05.067Z</time>
      </trkpt>
      <trkpt lat="47.20065" lon="-1.73358">
        <ele>57.8</ele>
        <time>2016-04-10T13:44:12.119Z</time>
      </trkpt>
      <trkpt lat="47.20066" lon="-1.7336">
        <ele>57.9</ele>
        <time>2016-04-10T13:44:13.017Z</time>
      </trkpt>
      <trkpt lat="47.20066" lon="-1.73371">
        <ele>58.1</ele>
        <time>2016-04-10T13:44:18.259Z</time>
      </trkpt>
      <trkpt lat="47.20066" lon="-1.73374">
        <ele>58.1</ele>
        <time>2016-04-10T13:44:19.028Z</time>
      </trkpt>
      <trkpt lat="47.20067" lon="-1.73385">
        <ele>58.4</ele>
        <time>2016-04-10T13:44:25.068Z</time>
      </trkpt>
      <trkpt lat="47.20068" lon="-1.73388">
        <ele>58.4</ele>
        <time>2016-04-10T13:44:26.029Z</time>
      </trkpt>
      <trkpt lat="47.2007" lon="-1.73401">
        <ele>58.8</ele>
        <time>2016-04-10T13:44:32.079Z</time>
      </trkpt>
      <trkpt lat="47.2007" lon="-1.73403">
        <ele>58.8</ele>
        <time>2016-04-10T13:44:33.002Z</time>
      </trkpt>
      <trkpt lat="47.20072" lon="-1.73416">
        <ele>58.8</ele>
        <time>2016-04-10T13:44:40.098Z</time>
      </trkpt>
      <trkpt lat="47.20072" lon="-1.73417">
        <ele>58.8</ele>
        <time>2016-04-10T13:44:41.078Z</time>
      </trkpt>
      <trkpt lat="47.20073" lon="-1.73428">
        <ele>58.8</ele>
        <time>2016-04-10T13:44:48.286Z</time>
      </trkpt>
      <trkpt lat="47.20073" lon="-1.73431">
        <ele>58.9</ele>
        <time>2016-04-10T13:44:49.085Z</time>
      </trkpt>
      <trkpt lat="47.20073" lon="-1.73443">
        <ele>58.9</ele>
        <time>2016-04-10T13:44:54.161Z</time>
      </trkpt>
      <trkpt lat="47.20073" lon="-1.73446">
        <ele>58.8</ele>
        <time>2016-04-10T13:44:55.028Z</time>
      </trkpt>
      <trkpt lat="47.20074" lon="-1.73458">
        <ele>58.8</ele>
        <time>2016-04-10T13:45:04.090Z</time>
      </trkpt>
      <trkpt lat="47.20075" lon="-1.73461">
        <ele>58.8</ele>
        <time>2016-04-10T13:45:04.977Z</time>
      </trkpt>
      <trkpt lat="47.20077" lon="-1.73473">
        <ele>58.7</ele>
        <time>2016-04-10T13:45:10.142Z</time>
      </trkpt>
      <trkpt lat="47.20077" lon="-1.73476">
        <ele>58.5</ele>
        <time>2016-04-10T13:45:11.036Z</time>
      </trkpt>
      <trkpt lat="47.20076" lon="-1.73489">
        <ele>57.8</ele>
        <time>2016-04-10T13:45:18.156Z</time>
      </trkpt>
      <trkpt lat="47.20076" lon="-1.7349">
        <ele>57.7</ele>
        <time>2016-04-10T13:45:19.033Z</time>
      </trkpt>
      <trkpt lat="47.20077" lon="-1.73502">
        <ele>57.6</ele>
        <time>2016-04-10T13:45:24.091Z</time>
      </trkpt>
      <trkpt lat="47.20077" lon="-1.73504">
        <ele>57.6</ele>
        <time>2016-04-10T13:45:25.034Z</time>
      </trkpt>
      <trkpt lat="47.20076" lon="-1.73516">
        <ele>57.4</ele>
        <time>2016-04-10T13:45:31.080Z</time>
      </trkpt>
      <trkpt lat="47.20076" lon="-1.73518">
        <ele>57.4</ele>
        <time>2016-04-10T13:45:32.042Z</time>
      </trkpt>
      <trkpt lat="47.20076" lon="-1.73531">
        <ele>57.7</ele>
        <time>2016-04-10T13:45:40.045Z</time>
      </trkpt>
      <trkpt lat="47.20076" lon="-1.73532">
        <ele>57.8</ele>
        <time>2016-04-10T13:45:41.041Z</time>
      </trkpt>
      <trkpt lat="47.20072" lon="-1.73543">
        <ele>57.9</ele>
        <time>2016-04-10T13:45:49.092Z</time>
      </trkpt>
      <trkpt lat="47.20071" lon="-1.73544">
        <ele>57.9</ele>
        <time>2016-04-10T13:45:50.070Z</time>
      </trkpt>
      <trkpt lat="47.20063" lon="-1.73551">
        <ele>57.7</ele>
        <time>2016-04-10T13:46:00.215Z</time>
      </trkpt>
      <trkpt lat="47.20062" lon="-1.73552">
        <ele>57.6</ele>
        <time>2016-04-10T13:46:01.062Z</time>
      </trkpt>
      <trkpt lat="47.20055" lon="-1.73559">
        <ele>58.7</ele>
        <time>2016-04-10T13:46:11.097Z</time>
      </trkpt>
      <trkpt lat="47.20054" lon="-1.73559">
        <ele>58.9</ele>
        <time>2016-04-10T13:46:12.074Z</time>
      </trkpt>
      <trkpt lat="47.20048" lon="-1.73561">
        <ele>59.3</ele>
        <time>2016-04-10T13:46:15.160Z</time>
      </trkpt>
      <trkpt lat="47.20045" lon="-1.73563">
        <ele>59.4</ele>
        <time>2016-04-10T13:46:16.042Z</time>
      </trkpt>
      <trkpt lat="47.20043" lon="-1.73574">
        <ele>60.1</ele>
        <time>2016-04-10T13:46:23.110Z</time>
      </trkpt>
      <trkpt lat="47.20044" lon="-1.73576">
        <ele>60.3</ele>
        <time>2016-04-10T13:46:24.028Z</time>
      </trkpt>
      <trkpt lat="47.20047" lon="-1.73587">
        <ele>60.9</ele>
        <time>2016-04-10T13:46:30.092Z</time>
      </trkpt>
      <trkpt lat="47.20047" lon="-1.7359">
        <ele>61</ele>
        <time>2016-04-10T13:46:31.026Z</time>
      </trkpt>
      <trkpt lat="47.20048" lon="-1.736">
        <ele>61.5</ele>
        <time>2016-04-10T13:46:36.100Z</time>
      </trkpt>
      <trkpt lat="47.20049" lon="-1.73603">
        <ele>61.5</ele>
        <time>2016-04-10T13:46:37.041Z</time>
      </trkpt>
      <trkpt lat="47.2005" lon="-1.73615">
        <ele>61.9</ele>
        <time>2016-04-10T13:46:44.132Z</time>
      </trkpt>
      <trkpt lat="47.2005" lon="-1.73617">
        <ele>61.9</ele>
        <time>2016-04-10T13:46:44.989Z</time>
      </trkpt>
      <trkpt lat="47.20051" lon="-1.73629">
        <ele>61.8</ele>
        <time>2016-04-10T13:46:52.125Z</time>
      </trkpt>
      <trkpt lat="47.2005" lon="-1.7363">
        <ele>61.9</ele>
        <time>2016-04-10T13:46:53.046Z</time>
      </trkpt>
      <trkpt lat="47.20048" lon="-1.73642">
        <ele>62</ele>
        <time>2016-04-10T13:47:00.308Z</time>
      </trkpt>
      <trkpt lat="47.20048" lon="-1.73643">
        <ele>62</ele>
        <time>2016-04-10T13:47:00.989Z</time>
      </trkpt>
      <trkpt lat="47.20046" lon="-1.73654">
        <ele>62.2</ele>
        <time>2016-04-10T13:47:07.089Z</time>
      </trkpt>
      <trkpt lat="47.20046" lon="-1.73656">
        <ele>62.1</ele>
        <time>2016-04-10T13:47:08.028Z</time>
      </trkpt>
      <trkpt lat="47.20045" lon="-1.73669">
        <ele>61.7</ele>
        <time>2016-04-10T13:47:14.152Z</time>
      </trkpt>
      <trkpt lat="47.20044" lon="-1.73671">
        <ele>61.7</ele>
        <time>2016-04-10T13:47:15.044Z</time>
      </trkpt>
      <trkpt lat="47.20041" lon="-1.73683">
        <ele>61</ele>
        <time>2016-04-10T13:47:22.059Z</time>
      </trkpt>
      <trkpt lat="47.20041" lon="-1.73684">
        <ele>60.9</ele>
        <time>2016-04-10T13:47:23.005Z</time>
      </trkpt>
      <trkpt lat="47.2004" lon="-1.73696">
        <ele>60.3</ele>
        <time>2016-04-10T13:47:29.109Z</time>
      </trkpt>
      <trkpt lat="47.20039" lon="-1.73698">
        <ele>60.3</ele>
        <time>2016-04-10T13:47:30.055Z</time>
      </trkpt>
      <trkpt lat="47.20038" lon="-1.7371">
        <ele>59.9</ele>
        <time>2016-04-10T13:47:38.412Z</time>
      </trkpt>
      <trkpt lat="47.20038" lon="-1.73712">
        <ele>59.8</ele>
        <time>2016-04-10T13:47:39.066Z</time>
      </trkpt>
      <trkpt lat="47.20036" lon="-1.73725">
        <ele>59.3</ele>
        <time>2016-04-10T13:47:46.095Z</time>
      </trkpt>
      <trkpt lat="47.20036" lon="-1.73727">
        <ele>59.2</ele>
        <time>2016-04-10T13:47:47.013Z</time>
      </trkpt>
      <trkpt lat="47.20036" lon="-1.73739">
        <ele>58.9</ele>
        <time>2016-04-10T13:47:53.180Z</time>
      </trkpt>
      <trkpt lat="47.20035" lon="-1.73741">
        <ele>58.8</ele>
        <time>2016-04-10T13:47:54.077Z</time>
      </trkpt>
      <trkpt lat="47.20033" lon="-1.73754">
        <ele>58.2</ele>
        <time>2016-04-10T13:48:00.266Z</time>
      </trkpt>
      <trkpt lat="47.20033" lon="-1.73755">
        <ele>58.2</ele>
        <time>2016-04-10T13:48:01.060Z</time>
      </trkpt>
      <trkpt lat="47.20032" lon="-1.73768">
        <ele>57.8</ele>
        <time>2016-04-10T13:48:08.148Z</time>
      </trkpt>
      <trkpt lat="47.20032" lon="-1.73769">
        <ele>57.8</ele>
        <time>2016-04-10T13:48:09.096Z</time>
      </trkpt>
      <trkpt lat="47.20033" lon="-1.73781">
        <ele>57.8</ele>
        <time>2016-04-10T13:48:16.214Z</time>
      </trkpt>
      <trkpt lat="47.20032" lon="-1.73783">
        <ele>57.8</ele>
        <time>2016-04-10T13:48:17.014Z</time>
      </trkpt>
      <trkpt lat="47.20028" lon="-1.73793">
        <ele>57.9</ele>
        <time>2016-04-10T13:48:23.089Z</time>
      </trkpt>
      <trkpt lat="47.20028" lon="-1.73796">
        <ele>58</ele>
        <time>2016-04-10T13:48:24.061Z</time>
      </trkpt>
      <trkpt lat="47.20026" lon="-1.73808">
        <ele>58.3</ele>
        <time>2016-04-10T13:48:32.094Z</time>
      </trkpt>
      <trkpt lat="47.20026" lon="-1.73809">
        <ele>58.4</ele>
        <time>2016-04-10T13:48:33.038Z</time>
      </trkpt>
      <trkpt lat="47.20023" lon="-1.73822">
        <ele>58.7</ele>
        <time>2016-04-10T13:48:40.167Z</time>
      </trkpt>
      <trkpt lat="47.20022" lon="-1.73824">
        <ele>58.7</ele>
        <time>2016-04-10T13:48:41.058Z</time>
      </trkpt>
      <trkpt lat="47.20018" lon="-1.73836">
        <ele>58.7</ele>
        <time>2016-04-10T13:48:48.159Z</time>
      </trkpt>
      <trkpt lat="47.20018" lon="-1.73837">
        <ele>58.7</ele>
        <time>2016-04-10T13:48:49.052Z</time>
      </trkpt>
      <trkpt lat="47.20014" lon="-1.73849">
        <ele>59</ele>
        <time>2016-04-10T13:48:56.040Z</time>
      </trkpt>
      <trkpt lat="47.20014" lon="-1.73851">
        <ele>59</ele>
        <time>2016-04-10T13:48:57.061Z</time>
      </trkpt>
      <trkpt lat="47.20007" lon="-1.73858">
        <ele>59.8</ele>
        <time>2016-04-10T13:49:08.072Z</time>
      </trkpt>
      <trkpt lat="47.20006" lon="-1.73859">
        <ele>59.9</ele>
        <time>2016-04-10T13:49:09.030Z</time>
      </trkpt>
      <trkpt lat="47.20002" lon="-1.73868">
        <ele>60.5</ele>
        <time>2016-04-10T13:49:14.478Z</time>
      </trkpt>
      <trkpt lat="47.20002" lon="-1.73871">
        <ele>60.6</ele>
        <time>2016-04-10T13:49:15.066Z</time>
      </trkpt>
      <trkpt lat="47.20001" lon="-1.73883">
        <ele>60.9</ele>
        <time>2016-04-10T13:49:21.047Z</time>
      </trkpt>
      <trkpt lat="47.2" lon="-1.73884">
        <ele>61</ele>
        <time>2016-04-10T13:49:22.029Z</time>
      </trkpt>
      <trkpt lat="47.20001" lon="-1.73896">
        <ele>61.3</ele>
        <time>2016-04-10T13:49:29.166Z</time>
      </trkpt>
      <trkpt lat="47.2" lon="-1.73898">
        <ele>61.4</ele>
        <time>2016-04-10T13:49:30.037Z</time>
      </trkpt>
      <trkpt lat="47.19998" lon="-1.7391">
        <ele>61.2</ele>
        <time>2016-04-10T13:49:35.092Z</time>
      </trkpt>
      <trkpt lat="47.19998" lon="-1.73912">
        <ele>61.2</ele>
        <time>2016-04-10T13:49:36.020Z</time>
      </trkpt>
      <trkpt lat="47.19992" lon="-1.73921">
        <ele>60.9</ele>
        <time>2016-04-10T13:49:43.066Z</time>
      </trkpt>
      <trkpt lat="47.19992" lon="-1.73923">
        <ele>60.9</ele>
        <time>2016-04-10T13:49:44.064Z</time>
      </trkpt>
      <trkpt lat="47.19986" lon="-1.73933">
        <ele>60.5</ele>
        <time>2016-04-10T13:49:50.122Z</time>
      </trkpt>
      <trkpt lat="47.19986" lon="-1.73934">
        <ele>60.5</ele>
        <time>2016-04-10T13:49:51.028Z</time>
      </trkpt>
      <trkpt lat="47.19981" lon="-1.73943">
        <ele>60.7</ele>
        <time>2016-04-10T13:49:58.069Z</time>
      </trkpt>
      <trkpt lat="47.1998" lon="-1.73944">
        <ele>60.7</ele>
        <time>2016-04-10T13:49:59.042Z</time>
      </trkpt>
      <trkpt lat="47.19973" lon="-1.73952">
        <ele>61</ele>
        <time>2016-04-10T13:50:06.070Z</time>
      </trkpt>
      <trkpt lat="47.19972" lon="-1.73953">
        <ele>61</ele>
        <time>2016-04-10T13:50:07.092Z</time>
      </trkpt>
      <trkpt lat="47.19967" lon="-1.73962">
        <ele>61.4</ele>
        <time>2016-04-10T13:50:13.102Z</time>
      </trkpt>
      <trkpt lat="47.19966" lon="-1.73964">
        <ele>61.4</ele>
        <time>2016-04-10T13:50:14.008Z</time>
      </trkpt>
      <trkpt lat="47.19964" lon="-1.73975">
        <ele>61.9</ele>
        <time>2016-04-10T13:50:22.035Z</time>
      </trkpt>
      <trkpt lat="47.19964" lon="-1.73977">
        <ele>62.1</ele>
        <time>2016-04-10T13:50:23.010Z</time>
      </trkpt>
      <trkpt lat="47.19964" lon="-1.73989">
        <ele>62.7</ele>
        <time>2016-04-10T13:50:29.096Z</time>
      </trkpt>
      <trkpt lat="47.19964" lon="-1.73991">
        <ele>62.9</ele>
        <time>2016-04-10T13:50:30.042Z</time>
      </trkpt>
      <trkpt lat="47.19965" lon="-1.74003">
        <ele>63.2</ele>
        <time>2016-04-10T13:50:36.113Z</time>
      </trkpt>
      <trkpt lat="47.19965" lon="-1.74005">
        <ele>63.3</ele>
        <time>2016-04-10T13:50:37.014Z</time>
      </trkpt>
      <trkpt lat="47.19964" lon="-1.74017">
        <ele>63.7</ele>
        <time>2016-04-10T13:50:44.128Z</time>
      </trkpt>
      <trkpt lat="47.19964" lon="-1.74018">
        <ele>63.7</ele>
        <time>2016-04-10T13:50:45.050Z</time>
      </trkpt>
      <trkpt lat="47.19963" lon="-1.74031">
        <ele>63.5</ele>
        <time>2016-04-10T13:50:52.137Z</time>
      </trkpt>
      <trkpt lat="47.19963" lon="-1.74032">
        <ele>63.5</ele>
        <time>2016-04-10T13:50:53.040Z</time>
      </trkpt>
      <trkpt lat="47.19963" lon="-1.74044">
        <ele>63.5</ele>
        <time>2016-04-10T13:50:59.107Z</time>
      </trkpt>
      <trkpt lat="47.19963" lon="-1.74046">
        <ele>63.4</ele>
        <time>2016-04-10T13:51:00.051Z</time>
      </trkpt>
      <trkpt lat="47.19966" lon="-1.74058">
        <ele>63.1</ele>
        <time>2016-04-10T13:51:07.165Z</time>
      </trkpt>
      <trkpt lat="47.19966" lon="-1.74059">
        <ele>63.1</ele>
        <time>2016-04-10T13:51:08.018Z</time>
      </trkpt>
      <trkpt lat="47.19968" lon="-1.74072">
        <ele>62.7</ele>
        <time>2016-04-10T13:51:16.063Z</time>
      </trkpt>
      <trkpt lat="47.19968" lon="-1.74074">
        <ele>62.7</ele>
        <time>2016-04-10T13:51:17.070Z</time>
      </trkpt>
      <trkpt lat="47.1997" lon="-1.74085">
        <ele>62.4</ele>
        <time>2016-04-10T13:51:23.091Z</time>
      </trkpt>
      <trkpt lat="47.1997" lon="-1.74086">
        <ele>62.3</ele>
        <time>2016-04-10T13:51:24.035Z</time>
      </trkpt>
      <trkpt lat="47.19971" lon="-1.74098">
        <ele>62.6</ele>
        <time>2016-04-10T13:51:30.081Z</time>
      </trkpt>
      <trkpt lat="47.19971" lon="-1.741">
        <ele>62.6</ele>
        <time>2016-04-10T13:51:31.030Z</time>
      </trkpt>
      <trkpt lat="47.19973" lon="-1.74111">
        <ele>62.6</ele>
        <time>2016-04-10T13:51:38.148Z</time>
      </trkpt>
      <trkpt lat="47.19974" lon="-1.74113">
        <ele>62.5</ele>
        <time>2016-04-10T13:51:39.014Z</time>
      </trkpt>
      <trkpt lat="47.19976" lon="-1.74125">
        <ele>62.8</ele>
        <time>2016-04-10T13:51:46.060Z</time>
      </trkpt>
      <trkpt lat="47.19976" lon="-1.74126">
        <ele>62.8</ele>
        <time>2016-04-10T13:51:47.003Z</time>
      </trkpt>
      <trkpt lat="47.19978" lon="-1.74137">
        <ele>63</ele>
        <time>2016-04-10T13:51:52.172Z</time>
      </trkpt>
      <trkpt lat="47.19978" lon="-1.74139">
        <ele>63.1</ele>
        <time>2016-04-10T13:51:52.993Z</time>
      </trkpt>
      <trkpt lat="47.1998" lon="-1.74152">
        <ele>63.2</ele>
        <time>2016-04-10T13:51:58.113Z</time>
      </trkpt>
      <trkpt lat="47.1998" lon="-1.74154">
        <ele>63.2</ele>
        <time>2016-04-10T13:51:59.068Z</time>
      </trkpt>
      <trkpt lat="47.19982" lon="-1.74167">
        <ele>63.1</ele>
        <time>2016-04-10T13:52:08.173Z</time>
      </trkpt>
      <trkpt lat="47.19982" lon="-1.74168">
        <ele>63.1</ele>
        <time>2016-04-10T13:52:09.032Z</time>
      </trkpt>
      <trkpt lat="47.19982" lon="-1.7418">
        <ele>63</ele>
        <time>2016-04-10T13:52:16.141Z</time>
      </trkpt>
      <trkpt lat="47.19982" lon="-1.74182">
        <ele>63.1</ele>
        <time>2016-04-10T13:52:17.016Z</time>
      </trkpt>
      <trkpt lat="47.19984" lon="-1.74193">
        <ele>63.1</ele>
        <time>2016-04-10T13:52:23.082Z</time>
      </trkpt>
      <trkpt lat="47.19984" lon="-1.74195">
        <ele>63.1</ele>
        <time>2016-04-10T13:52:24.086Z</time>
      </trkpt>
      <trkpt lat="47.19986" lon="-1.74205">
        <ele>63.2</ele>
        <time>2016-04-10T13:52:28.151Z</time>
      </trkpt>
      <trkpt lat="47.19987" lon="-1.74209">
        <ele>63.1</ele>
        <time>2016-04-10T13:52:29.069Z</time>
      </trkpt>
      <trkpt lat="47.19988" lon="-1.74221">
        <ele>62.5</ele>
        <time>2016-04-10T13:52:34.261Z</time>
      </trkpt>
      <trkpt lat="47.19988" lon="-1.74223">
        <ele>62.4</ele>
        <time>2016-04-10T13:52:35.060Z</time>
      </trkpt>
      <trkpt lat="47.19989" lon="-1.74235">
        <ele>62.5</ele>
        <time>2016-04-10T13:52:42.157Z</time>
      </trkpt>
      <trkpt lat="47.19989" lon="-1.74237">
        <ele>62.6</ele>
        <time>2016-04-10T13:52:43.064Z</time>
      </trkpt>
      <trkpt lat="47.19988" lon="-1.74249">
        <ele>62.5</ele>
        <time>2016-04-10T13:52:49.114Z</time>
      </trkpt>
      <trkpt lat="47.19988" lon="-1.74251">
        <ele>62.4</ele>
        <time>2016-04-10T13:52:50.055Z</time>
      </trkpt>
      <trkpt lat="47.19988" lon="-1.74262">
        <ele>61.7</ele>
        <time>2016-04-10T13:52:56.156Z</time>
      </trkpt>
      <trkpt lat="47.19987" lon="-1.74265">
        <ele>61.5</ele>
        <time>2016-04-10T13:52:57.018Z</time>
      </trkpt>
      <trkpt lat="47.19986" lon="-1.74276">
        <ele>60.6</ele>
        <time>2016-04-10T13:53:04.104Z</time>
      </trkpt>
      <trkpt lat="47.19986" lon="-1.74279">
        <ele>60.4</ele>
        <time>2016-04-10T13:53:05.071Z</time>
      </trkpt>
      <trkpt lat="47.19986" lon="-1.74291">
        <ele>59.5</ele>
        <time>2016-04-10T13:53:12.062Z</time>
      </trkpt>
      <trkpt lat="47.19986" lon="-1.74294">
        <ele>59.4</ele>
        <time>2016-04-10T13:53:13.033Z</time>
      </trkpt>
      <trkpt lat="47.19983" lon="-1.74304">
        <ele>59.2</ele>
        <time>2016-04-10T13:53:19.060Z</time>
      </trkpt>
      <trkpt lat="47.19982" lon="-1.74306">
        <ele>59.1</ele>
        <time>2016-04-10T13:53:20.050Z</time>
      </trkpt>
      <trkpt lat="47.19978" lon="-1.74316">
        <ele>58.1</ele>
        <time>2016-04-10T13:53:27.161Z</time>
      </trkpt>
      <trkpt lat="47.19977" lon="-1.74319">
        <ele>58.1</ele>
        <time>2016-04-10T13:53:28.007Z</time>
      </trkpt>
      <trkpt lat="47.19975" lon="-1.74331">
        <ele>58</ele>
        <time>2016-04-10T13:53:36.233Z</time>
      </trkpt>
      <trkpt lat="47.19975" lon="-1.74333">
        <ele>58.1</ele>
        <time>2016-04-10T13:53:37.067Z</time>
      </trkpt>
      <trkpt lat="47.19971" lon="-1.74344">
        <ele>59</ele>
        <time>2016-04-10T13:53:46.036Z</time>
      </trkpt>
      <trkpt lat="47.19971" lon="-1.74346">
        <ele>59.1</ele>
        <time>2016-04-10T13:53:47.061Z</time>
      </trkpt>
      <trkpt lat="47.1997" lon="-1.74359">
        <ele>60.1</ele>
        <time>2016-04-10T13:53:55.084Z</time>
      </trkpt>
      <trkpt lat="47.19969" lon="-1.7436">
        <ele>60.2</ele>
        <time>2016-04-10T13:53:56.082Z</time>
      </trkpt>
      <trkpt lat="47.19967" lon="-1.74372">
        <ele>60.8</ele>
        <time>2016-04-10T13:54:03.070Z</time>
      </trkpt>
      <trkpt lat="47.19967" lon="-1.74374">
        <ele>61</ele>
        <time>2016-04-10T13:54:04.064Z</time>
      </trkpt>
      <trkpt lat="47.19967" lon="-1.74387">
        <ele>62.5</ele>
        <time>2016-04-10T13:54:11.087Z</time>
      </trkpt>
      <trkpt lat="47.19968" lon="-1.74388">
        <ele>62.7</ele>
        <time>2016-04-10T13:54:12.013Z</time>
      </trkpt>
      <trkpt lat="47.19967" lon="-1.74398">
        <ele>64</ele>
        <time>2016-04-10T13:54:19.132Z</time>
      </trkpt>
      <trkpt lat="47.19967" lon="-1.74401">
        <ele>64.1</ele>
        <time>2016-04-10T13:54:20.082Z</time>
      </trkpt>
      <trkpt lat="47.19967" lon="-1.74413">
        <ele>64.1</ele>
        <time>2016-04-10T13:54:27.417Z</time>
      </trkpt>
      <trkpt lat="47.19968" lon="-1.74417">
        <ele>64.1</ele>
        <time>2016-04-10T13:54:27.991Z</time>
      </trkpt>
      <trkpt lat="47.19971" lon="-1.74429">
        <ele>64.2</ele>
        <time>2016-04-10T13:54:34.063Z</time>
      </trkpt>
      <trkpt lat="47.19971" lon="-1.74431">
        <ele>64.2</ele>
        <time>2016-04-10T13:54:35.058Z</time>
      </trkpt>
      <trkpt lat="47.19973" lon="-1.74442">
        <ele>64.1</ele>
        <time>2016-04-10T13:54:40.087Z</time>
      </trkpt>
      <trkpt lat="47.19974" lon="-1.74444">
        <ele>64</ele>
        <time>2016-04-10T13:54:41.045Z</time>
      </trkpt>
      <trkpt lat="47.19974" lon="-1.74456">
        <ele>63.7</ele>
        <time>2016-04-10T13:54:46.208Z</time>
      </trkpt>
      <trkpt lat="47.19974" lon="-1.74458">
        <ele>63.7</ele>
        <time>2016-04-10T13:54:47.079Z</time>
      </trkpt>
      <trkpt lat="47.19975" lon="-1.7447">
        <ele>63.8</ele>
        <time>2016-04-10T13:54:56.082Z</time>
      </trkpt>
      <trkpt lat="47.19975" lon="-1.74472">
        <ele>63.9</ele>
        <time>2016-04-10T13:54:57.082Z</time>
      </trkpt>
      <trkpt lat="47.19977" lon="-1.74482">
        <ele>63.4</ele>
        <time>2016-04-10T13:55:04.116Z</time>
      </trkpt>
      <trkpt lat="47.19976" lon="-1.74487">
        <ele>63.4</ele>
        <time>2016-04-10T13:55:05.092Z</time>
      </trkpt>
      <trkpt lat="47.19975" lon="-1.74498">
        <ele>63.7</ele>
        <time>2016-04-10T13:55:09.142Z</time>
      </trkpt>
      <trkpt lat="47.19975" lon="-1.745">
        <ele>63.7</ele>
        <time>2016-04-10T13:55:10.060Z</time>
      </trkpt>
      <trkpt lat="47.19975" lon="-1.74512">
        <ele>64.1</ele>
        <time>2016-04-10T13:55:17.162Z</time>
      </trkpt>
      <trkpt lat="47.19975" lon="-1.74514">
        <ele>64.2</ele>
        <time>2016-04-10T13:55:18.182Z</time>
      </trkpt>
      <trkpt lat="47.19972" lon="-1.74526">
        <ele>64.4</ele>
        <time>2016-04-10T13:55:25.148Z</time>
      </trkpt>
      <trkpt lat="47.19972" lon="-1.74528">
        <ele>64.4</ele>
        <time>2016-04-10T13:55:26.058Z</time>
      </trkpt>
      <trkpt lat="47.19971" lon="-1.74541">
        <ele>64.1</ele>
        <time>2016-04-10T13:55:31.265Z</time>
      </trkpt>
      <trkpt lat="47.19971" lon="-1.74542">
        <ele>64.1</ele>
        <time>2016-04-10T13:55:32.075Z</time>
      </trkpt>
      <trkpt lat="47.19968" lon="-1.74553">
        <ele>63.5</ele>
        <time>2016-04-10T13:55:40.064Z</time>
      </trkpt>
      <trkpt lat="47.19968" lon="-1.74554">
        <ele>63.4</ele>
        <time>2016-04-10T13:55:41.008Z</time>
      </trkpt>
      <trkpt lat="47.19965" lon="-1.74564">
        <ele>62.7</ele>
        <time>2016-04-10T13:55:46.119Z</time>
      </trkpt>
      <trkpt lat="47.19964" lon="-1.74567">
        <ele>62.6</ele>
        <time>2016-04-10T13:55:47.088Z</time>
      </trkpt>
      <trkpt lat="47.19958" lon="-1.74575">
        <ele>62.1</ele>
        <time>2016-04-10T13:55:55.204Z</time>
      </trkpt>
      <trkpt lat="47.19957" lon="-1.74576">
        <ele>62.2</ele>
        <time>2016-04-10T13:55:56.065Z</time>
      </trkpt>
      <trkpt lat="47.19951" lon="-1.74585">
        <ele>62.9</ele>
        <time>2016-04-10T13:56:03.109Z</time>
      </trkpt>
      <trkpt lat="47.19951" lon="-1.74586">
        <ele>63.1</ele>
        <time>2016-04-10T13:56:04.357Z</time>
      </trkpt>
      <trkpt lat="47.19944" lon="-1.74594">
        <ele>63.9</ele>
        <time>2016-04-10T13:56:11.099Z</time>
      </trkpt>
      <trkpt lat="47.19943" lon="-1.74595">
        <ele>64</ele>
        <time>2016-04-10T13:56:12.038Z</time>
      </trkpt>
      <trkpt lat="47.19935" lon="-1.74601">
        <ele>64.5</ele>
        <time>2016-04-10T13:56:19.092Z</time>
      </trkpt>
      <trkpt lat="47.19935" lon="-1.74602">
        <ele>64.5</ele>
        <time>2016-04-10T13:56:20.021Z</time>
      </trkpt>
      <trkpt lat="47.19933" lon="-1.74614">
        <ele>65.2</ele>
        <time>2016-04-10T13:56:27.135Z</time>
      </trkpt>
      <trkpt lat="47.19934" lon="-1.74616">
        <ele>65.3</ele>
        <time>2016-04-10T13:56:28.078Z</time>
      </trkpt>
      <trkpt lat="47.1994" lon="-1.74624">
        <ele>65.7</ele>
        <time>2016-04-10T13:56:34.110Z</time>
      </trkpt>
      <trkpt lat="47.19941" lon="-1.74626">
        <ele>65.7</ele>
        <time>2016-04-10T13:56:34.986Z</time>
      </trkpt>
      <trkpt lat="47.19947" lon="-1.74635">
        <ele>64.9</ele>
        <time>2016-04-10T13:56:44.135Z</time>
      </trkpt>
      <trkpt lat="47.19948" lon="-1.74635">
        <ele>64.9</ele>
        <time>2016-04-10T13:56:45.079Z</time>
      </trkpt>
      <trkpt lat="47.19956" lon="-1.74633">
        <ele>64.5</ele>
        <time>2016-04-10T13:56:56.142Z</time>
      </trkpt>
      <trkpt lat="47.19957" lon="-1.74633">
        <ele>64.5</ele>
        <time>2016-04-10T13:56:57.082Z</time>
      </trkpt>
      <trkpt lat="47.19963" lon="-1.7464">
        <ele>63.7</ele>
        <time>2016-04-10T13:57:02.200Z</time>
      </trkpt>
      <trkpt lat="47.19964" lon="-1.74642">
        <ele>63.5</ele>
        <time>2016-04-10T13:57:03.048Z</time>
      </trkpt>
      <trkpt lat="47.19971" lon="-1.74649">
        <ele>62.4</ele>
        <time>2016-04-10T13:57:08.139Z</time>
      </trkpt>
      <trkpt lat="47.19972" lon="-1.74652">
        <ele>62.2</ele>
        <time>2016-04-10T13:57:09.064Z</time>
      </trkpt>
      <trkpt lat="47.19975" lon="-1.7466">
        <ele>61.4</ele>
        <time>2016-04-10T13:57:14.092Z</time>
      </trkpt>
      <trkpt lat="47.19976" lon="-1.74664">
        <ele>61.2</ele>
        <time>2016-04-10T13:57:15.065Z</time>
      </trkpt>
      <trkpt lat="47.1998" lon="-1.74673">
        <ele>61.1</ele>
        <time>2016-04-10T13:57:18.170Z</time>
      </trkpt>
      <trkpt lat="47.19981" lon="-1.74677">
        <ele>61.1</ele>
        <time>2016-04-10T13:57:19.058Z</time>
      </trkpt>
      <trkpt lat="47.19986" lon="-1.74688">
        <ele>61.4</ele>
        <time>2016-04-10T13:57:25.213Z</time>
      </trkpt>
      <trkpt lat="47.19986" lon="-1.74689">
        <ele>61.5</ele>
        <time>2016-04-10T13:57:26.068Z</time>
      </trkpt>
      <trkpt lat="47.19988" lon="-1.74699">
        <ele>61.4</ele>
        <time>2016-04-10T13:57:31.062Z</time>
      </trkpt>
      <trkpt lat="47.19991" lon="-1.74702">
        <ele>61.4</ele>
        <time>2016-04-10T13:57:32.030Z</time>
      </trkpt>
      <trkpt lat="47.19996" lon="-1.7471">
        <ele>61.6</ele>
        <time>2016-04-10T13:57:35.215Z</time>
      </trkpt>
      <trkpt lat="47.19997" lon="-1.74712">
        <ele>61.6</ele>
        <time>2016-04-10T13:57:36.063Z</time>
      </trkpt>
      <trkpt lat="47.20003" lon="-1.74722">
        <ele>61.8</ele>
        <time>2016-04-10T13:57:41.155Z</time>
      </trkpt>
      <trkpt lat="47.20004" lon="-1.74723">
        <ele>61.8</ele>
        <time>2016-04-10T13:57:42.012Z</time>
      </trkpt>
      <trkpt lat="47.20009" lon="-1.74734">
        <ele>62.3</ele>
        <time>2016-04-10T13:57:49.115Z</time>
      </trkpt>
      <trkpt lat="47.20009" lon="-1.74735">
        <ele>62.2</ele>
        <time>2016-04-10T13:57:50.066Z</time>
      </trkpt>
      <trkpt lat="47.20014" lon="-1.74745">
        <ele>62.3</ele>
        <time>2016-04-10T13:57:59.080Z</time>
      </trkpt>
      <trkpt lat="47.20014" lon="-1.74747">
        <ele>62.3</ele>
        <time>2016-04-10T13:58:00.191Z</time>
      </trkpt>
      <trkpt lat="47.20015" lon="-1.74758">
        <ele>62.3</ele>
        <time>2016-04-10T13:58:05.150Z</time>
      </trkpt>
      <trkpt lat="47.20015" lon="-1.7476">
        <ele>62.3</ele>
        <time>2016-04-10T13:58:05.999Z</time>
      </trkpt>
      <trkpt lat="47.20016" lon="-1.7477">
        <ele>62.2</ele>
        <time>2016-04-10T13:58:10.357Z</time>
      </trkpt>
      <trkpt lat="47.20017" lon="-1.74773">
        <ele>62.2</ele>
        <time>2016-04-10T13:58:11.047Z</time>
      </trkpt>
      <trkpt lat="47.20019" lon="-1.74784">
        <ele>62.2</ele>
        <time>2016-04-10T13:58:18.256Z</time>
      </trkpt>
      <trkpt lat="47.2002" lon="-1.74786">
        <ele>62.1</ele>
        <time>2016-04-10T13:58:19.067Z</time>
      </trkpt>
      <trkpt lat="47.20023" lon="-1.74796">
        <ele>62.1</ele>
        <time>2016-04-10T13:58:22.527Z</time>
      </trkpt>
      <trkpt lat="47.20024" lon="-1.74798">
        <ele>62.1</ele>
        <time>2016-04-10T13:58:22.995Z</time>
      </trkpt>
      <trkpt lat="47.20026" lon="-1.7481">
        <ele>62</ele>
        <time>2016-04-10T13:58:31.060Z</time>
      </trkpt>
      <trkpt lat="47.20027" lon="-1.74813">
        <ele>62</ele>
        <time>2016-04-10T13:58:32.033Z</time>
      </trkpt>
      <trkpt lat="47.20031" lon="-1.74824">
        <ele>61.7</ele>
        <time>2016-04-10T13:58:39.146Z</time>
      </trkpt>
      <trkpt lat="47.20032" lon="-1.74826">
        <ele>61.6</ele>
        <time>2016-04-10T13:58:39.977Z</time>
      </trkpt>
      <trkpt lat="47.20037" lon="-1.74838">
        <ele>61.3</ele>
        <time>2016-04-10T13:58:47.173Z</time>
      </trkpt>
      <trkpt lat="47.20037" lon="-1.74839">
        <ele>61.2</ele>
        <time>2016-04-10T13:58:48.043Z</time>
      </trkpt>
      <trkpt lat="47.20042" lon="-1.7485">
        <ele>60.3</ele>
        <time>2016-04-10T13:59:00.355Z</time>
      </trkpt>
      <trkpt lat="47.20042" lon="-1.7485">
        <ele>60.2</ele>
        <time>2016-04-10T13:59:01.056Z</time>
      </trkpt>
      <trkpt lat="47.20046" lon="-1.74858">
        <ele>58.8</ele>
        <time>2016-04-10T13:59:09.120Z</time>
      </trkpt>
      <trkpt lat="47.20048" lon="-1.7486">
        <ele>58.6</ele>
        <time>2016-04-10T13:59:10.049Z</time>
      </trkpt>
      <trkpt lat="47.20056" lon="-1.74867">
        <ele>57.8</ele>
        <time>2016-04-10T13:59:15.576Z</time>
      </trkpt>
      <trkpt lat="47.20057" lon="-1.74868">
        <ele>57.6</ele>
        <time>2016-04-10T13:59:16.013Z</time>
      </trkpt>
      <trkpt lat="47.20063" lon="-1.74876">
        <ele>56</ele>
        <time>2016-04-10T13:59:26.108Z</time>
      </trkpt>
      <trkpt lat="47.20064" lon="-1.74877">
        <ele>55.8</ele>
        <time>2016-04-10T13:59:27.068Z</time>
      </trkpt>
      <trkpt lat="47.2007" lon="-1.74884">
        <ele>54.8</ele>
        <time>2016-04-10T13:59:34.113Z</time>
      </trkpt>
      <trkpt lat="47.20071" lon="-1.74886">
        <ele>54.6</ele>
        <time>2016-04-10T13:59:35.069Z</time>
      </trkpt>
      <trkpt lat="47.20078" lon="-1.74892">
        <ele>53.6</ele>
        <time>2016-04-10T13:59:42.078Z</time>
      </trkpt>
      <trkpt lat="47.2008" lon="-1.74893">
        <ele>53.4</ele>
        <time>2016-04-10T13:59:43.036Z</time>
      </trkpt>
      <trkpt lat="47.20087" lon="-1.74898">
        <ele>53</ele>
        <time>2016-04-10T13:59:48.009Z</time>
      </trkpt>
      <trkpt lat="47.20088" lon="-1.74899">
        <ele>53</ele>
        <time>2016-04-10T13:59:49.027Z</time>
      </trkpt>
      <trkpt lat="47.20096" lon="-1.749">
        <ele>52.1</ele>
        <time>2016-04-10T14:00:21.025Z</time>
      </trkpt>
      <trkpt lat="47.20099" lon="-1.749">
        <ele>52.2</ele>
        <time>2016-04-10T14:00:22.038Z</time>
      </trkpt>
      <trkpt lat="47.20108" lon="-1.74898">
        <ele>52.5</ele>
        <time>2016-04-10T14:00:26.379Z</time>
      </trkpt>
      <trkpt lat="47.20109" lon="-1.74898">
        <ele>52.5</ele>
        <time>2016-04-10T14:00:27.070Z</time>
      </trkpt>
      <trkpt lat="47.20118" lon="-1.74896">
        <ele>52.6</ele>
        <time>2016-04-10T14:00:33.143Z</time>
      </trkpt>
      <trkpt lat="47.20119" lon="-1.74896">
        <ele>52.7</ele>
        <time>2016-04-10T14:00:34.194Z</time>
      </trkpt>
      <trkpt lat="47.20127" lon="-1.74892">
        <ele>52.9</ele>
        <time>2016-04-10T14:00:40.051Z</time>
      </trkpt>
      <trkpt lat="47.20128" lon="-1.74892">
        <ele>52.9</ele>
        <time>2016-04-10T14:00:41.044Z</time>
      </trkpt>
      <trkpt lat="47.20134" lon="-1.74899">
        <ele>53.2</ele>
        <time>2016-04-10T14:00:48.155Z</time>
      </trkpt>
      <trkpt lat="47.20135" lon="-1.74901">
        <ele>53.2</ele>
        <time>2016-04-10T14:00:49.068Z</time>
      </trkpt>
      <trkpt lat="47.20142" lon="-1.74908">
        <ele>53.1</ele>
        <time>2016-04-10T14:00:56.062Z</time>
      </trkpt>
      <trkpt lat="47.20143" lon="-1.74908">
        <ele>53.1</ele>
        <time>2016-04-10T14:00:57.073Z</time>
      </trkpt>
      <trkpt lat="47.20152" lon="-1.74909">
        <ele>53.1</ele>
        <time>2016-04-10T14:01:03.117Z</time>
      </trkpt>
      <trkpt lat="47.20153" lon="-1.74909">
        <ele>53.1</ele>
        <time>2016-04-10T14:01:04.012Z</time>
      </trkpt>
      <trkpt lat="47.20161" lon="-1.74913">
        <ele>53</ele>
        <time>2016-04-10T14:01:12.055Z</time>
      </trkpt>
      <trkpt lat="47.20162" lon="-1.74914">
        <ele>53</ele>
        <time>2016-04-10T14:01:13.056Z</time>
      </trkpt>
      <trkpt lat="47.20169" lon="-1.74917">
        <ele>53.1</ele>
        <time>2016-04-10T14:01:19.085Z</time>
      </trkpt>
      <trkpt lat="47.2017" lon="-1.74919">
        <ele>53.1</ele>
        <time>2016-04-10T14:01:19.996Z</time>
      </trkpt>
      <trkpt lat="47.20178" lon="-1.74924">
        <ele>52.3</ele>
        <time>2016-04-10T14:01:58.070Z</time>
      </trkpt>
      <trkpt lat="47.20179" lon="-1.74925">
        <ele>52.4</ele>
        <time>2016-04-10T14:01:59.087Z</time>
      </trkpt>
      <trkpt lat="47.20187" lon="-1.74926">
        <ele>52</ele>
        <time>2016-04-10T14:02:13.033Z</time>
      </trkpt>
      <trkpt lat="47.20188" lon="-1.74926">
        <ele>52</ele>
        <time>2016-04-10T14:02:14.029Z</time>
      </trkpt>
      <trkpt lat="47.20195" lon="-1.7493">
        <ele>51.7</ele>
        <time>2016-04-10T14:02:20.124Z</time>
      </trkpt>
      <trkpt lat="47.20197" lon="-1.74931">
        <ele>51.7</ele>
        <time>2016-04-10T14:02:21.058Z</time>
      </trkpt>
      <trkpt lat="47.20204" lon="-1.74936">
        <ele>52.1</ele>
        <time>2016-04-10T14:02:28.144Z</time>
      </trkpt>
      <trkpt lat="47.20206" lon="-1.74937">
        <ele>52.2</ele>
        <time>2016-04-10T14:02:29.008Z</time>
      </trkpt>
      <trkpt lat="47.20213" lon="-1.7494">
        <ele>52.6</ele>
        <time>2016-04-10T14:02:37.292Z</time>
      </trkpt>
      <trkpt lat="47.20215" lon="-1.74941">
        <ele>52.6</ele>
        <time>2016-04-10T14:02:38.069Z</time>
      </trkpt>
      <trkpt lat="47.20224" lon="-1.74943">
        <ele>52.7</ele>
        <time>2016-04-10T14:02:45.113Z</time>
      </trkpt>
      <trkpt lat="47.20225" lon="-1.74943">
        <ele>52.7</ele>
        <time>2016-04-10T14:02:46.083Z</time>
      </trkpt>
      <trkpt lat="47.20234" lon="-1.74946">
        <ele>52.6</ele>
        <time>2016-04-10T14:02:54.510Z</time>
      </trkpt>
      <trkpt lat="47.20234" lon="-1.74946">
        <ele>52.5</ele>
        <time>2016-04-10T14:02:55.059Z</time>
      </trkpt>
      <trkpt lat="47.20242" lon="-1.7495">
        <ele>52.4</ele>
        <time>2016-04-10T14:03:03.060Z</time>
      </trkpt>
      <trkpt lat="47.20243" lon="-1.7495">
        <ele>52.4</ele>
        <time>2016-04-10T14:03:04.015Z</time>
      </trkpt>
      <trkpt lat="47.20251" lon="-1.74955">
        <ele>52.5</ele>
        <time>2016-04-10T14:03:13.113Z</time>
      </trkpt>
      <trkpt lat="47.20252" lon="-1.74955">
        <ele>52.6</ele>
        <time>2016-04-10T14:03:14.087Z</time>
      </trkpt>
      <trkpt lat="47.20259" lon="-1.7496">
        <ele>52.9</ele>
        <time>2016-04-10T14:03:22.100Z</time>
      </trkpt>
      <trkpt lat="47.20261" lon="-1.74961">
        <ele>53</ele>
        <time>2016-04-10T14:03:23.006Z</time>
      </trkpt>
      <trkpt lat="47.20263" lon="-1.74973">
        <ele>53.2</ele>
        <time>2016-04-10T14:03:38.070Z</time>
      </trkpt>
      <trkpt lat="47.20263" lon="-1.74974">
        <ele>53.2</ele>
        <time>2016-04-10T14:03:39.079Z</time>
      </trkpt>
      <trkpt lat="47.20259" lon="-1.74985">
        <ele>52.7</ele>
        <time>2016-04-10T14:03:48.508Z</time>
      </trkpt>
      <trkpt lat="47.20259" lon="-1.74987">
        <ele>52.7</ele>
        <time>2016-04-10T14:03:49.070Z</time>
      </trkpt>
      <trkpt lat="47.20255" lon="-1.74999">
        <ele>52.4</ele>
        <time>2016-04-10T14:03:57.167Z</time>
      </trkpt>
      <trkpt lat="47.20254" lon="-1.75">
        <ele>52.3</ele>
        <time>2016-04-10T14:03:58.090Z</time>
      </trkpt>
      <trkpt lat="47.2025" lon="-1.75012">
        <ele>52.1</ele>
        <time>2016-04-10T14:04:05.113Z</time>
      </trkpt>
      <trkpt lat="47.2025" lon="-1.75014">
        <ele>52.1</ele>
        <time>2016-04-10T14:04:06.073Z</time>
      </trkpt>
      <trkpt lat="47.20246" lon="-1.75025">
        <ele>52</ele>
        <time>2016-04-10T14:04:13.071Z</time>
      </trkpt>
      <trkpt lat="47.20245" lon="-1.75027">
        <ele>52</ele>
        <time>2016-04-10T14:04:14.053Z</time>
      </trkpt>
      <trkpt lat="47.20242" lon="-1.75038">
        <ele>52.1</ele>
        <time>2016-04-10T14:04:20.055Z</time>
      </trkpt>
      <trkpt lat="47.20241" lon="-1.7504">
        <ele>52.1</ele>
        <time>2016-04-10T14:04:21.046Z</time>
      </trkpt>
      <trkpt lat="47.20235" lon="-1.7505">
        <ele>52.2</ele>
        <time>2016-04-10T14:04:28.118Z</time>
      </trkpt>
      <trkpt lat="47.20234" lon="-1.75052">
        <ele>52.2</ele>
        <time>2016-04-10T14:04:29.081Z</time>
      </trkpt>
      <trkpt lat="47.20228" lon="-1.7506">
        <ele>52.5</ele>
        <time>2016-04-10T14:04:36.090Z</time>
      </trkpt>
      <trkpt lat="47.20227" lon="-1.75061">
        <ele>52.5</ele>
        <time>2016-04-10T14:04:37.016Z</time>
      </trkpt>
      <trkpt lat="47.20219" lon="-1.75069">
        <ele>52.8</ele>
        <time>2016-04-10T14:04:44.107Z</time>
      </trkpt>
      <trkpt lat="47.20219" lon="-1.7507">
        <ele>52.8</ele>
        <time>2016-04-10T14:04:45.009Z</time>
      </trkpt>
      <trkpt lat="47.20214" lon="-1.75079">
        <ele>52.8</ele>
        <time>2016-04-10T14:04:51.135Z</time>
      </trkpt>
      <trkpt lat="47.20214" lon="-1.75081">
        <ele>52.8</ele>
        <time>2016-04-10T14:04:52.022Z</time>
      </trkpt>
      <trkpt lat="47.2021" lon="-1.75092">
        <ele>53</ele>
        <time>2016-04-10T14:04:59.105Z</time>
      </trkpt>
      <trkpt lat="47.2021" lon="-1.75093">
        <ele>53.1</ele>
        <time>2016-04-10T14:05:00.021Z</time>
      </trkpt>
      <trkpt lat="47.20207" lon="-1.75106">
        <ele>53.3</ele>
        <time>2016-04-10T14:05:07.139Z</time>
      </trkpt>
      <trkpt lat="47.20207" lon="-1.75107">
        <ele>53.4</ele>
        <time>2016-04-10T14:05:08.083Z</time>
      </trkpt>
      <trkpt lat="47.20204" lon="-1.75117">
        <ele>53.8</ele>
        <time>2016-04-10T14:05:13.146Z</time>
      </trkpt>
      <trkpt lat="47.20204" lon="-1.7512">
        <ele>53.8</ele>
        <time>2016-04-10T14:05:14.017Z</time>
      </trkpt>
      <trkpt lat="47.202" lon="-1.75131">
        <ele>54.1</ele>
        <time>2016-04-10T14:05:22.141Z</time>
      </trkpt>
      <trkpt lat="47.202" lon="-1.75132">
        <ele>54.2</ele>
        <time>2016-04-10T14:05:23.069Z</time>
      </trkpt>
      <trkpt lat="47.20198" lon="-1.75144">
        <ele>54.8</ele>
        <time>2016-04-10T14:05:32.138Z</time>
      </trkpt>
      <trkpt lat="47.20198" lon="-1.75148">
        <ele>54.8</ele>
        <time>2016-04-10T14:05:33.078Z</time>
      </trkpt>
      <trkpt lat="47.20201" lon="-1.75159">
        <ele>55.1</ele>
        <time>2016-04-10T14:05:38.231Z</time>
      </trkpt>
      <trkpt lat="47.20202" lon="-1.75162">
        <ele>55.1</ele>
        <time>2016-04-10T14:05:39.114Z</time>
      </trkpt>
      <trkpt lat="47.20204" lon="-1.75174">
        <ele>55.2</ele>
        <time>2016-04-10T14:05:44.246Z</time>
      </trkpt>
      <trkpt lat="47.20205" lon="-1.75175">
        <ele>55.2</ele>
        <time>2016-04-10T14:05:45.159Z</time>
      </trkpt>
      <trkpt lat="47.20208" lon="-1.75187">
        <ele>55.3</ele>
        <time>2016-04-10T14:05:51.231Z</time>
      </trkpt>
      <trkpt lat="47.20209" lon="-1.75188">
        <ele>55.3</ele>
        <time>2016-04-10T14:05:52.159Z</time>
      </trkpt>
      <trkpt lat="47.20213" lon="-1.75198">
        <ele>55.5</ele>
        <time>2016-04-10T14:06:00.227Z</time>
      </trkpt>
      <trkpt lat="47.20213" lon="-1.75201">
        <ele>55.5</ele>
        <time>2016-04-10T14:06:00.988Z</time>
      </trkpt>
      <trkpt lat="47.20218" lon="-1.7521">
        <ele>55.4</ele>
        <time>2016-04-10T14:06:09.178Z</time>
      </trkpt>
      <trkpt lat="47.2022" lon="-1.75211">
        <ele>55.3</ele>
        <time>2016-04-10T14:06:10.119Z</time>
      </trkpt>
      <trkpt lat="47.20226" lon="-1.75219">
        <ele>54.7</ele>
        <time>2016-04-10T14:06:20.132Z</time>
      </trkpt>
      <trkpt lat="47.20227" lon="-1.75221">
        <ele>54.8</ele>
        <time>2016-04-10T14:06:21.340Z</time>
      </trkpt>
      <trkpt lat="47.2023" lon="-1.75232">
        <ele>55.1</ele>
        <time>2016-04-10T14:06:26.175Z</time>
      </trkpt>
      <trkpt lat="47.2023" lon="-1.75234">
        <ele>55.1</ele>
        <time>2016-04-10T14:06:27.011Z</time>
      </trkpt>
      <trkpt lat="47.20234" lon="-1.75244">
        <ele>55.3</ele>
        <time>2016-04-10T14:06:34.482Z</time>
      </trkpt>
      <trkpt lat="47.20235" lon="-1.75245">
        <ele>55.3</ele>
        <time>2016-04-10T14:06:35.140Z</time>
      </trkpt>
      <trkpt lat="47.20238" lon="-1.75257">
        <ele>55.2</ele>
        <time>2016-04-10T14:06:42.069Z</time>
      </trkpt>
      <trkpt lat="47.20239" lon="-1.75258">
        <ele>55.2</ele>
        <time>2016-04-10T14:06:43.081Z</time>
      </trkpt>
      <trkpt lat="47.20243" lon="-1.75268">
        <ele>55.4</ele>
        <time>2016-04-10T14:06:51.188Z</time>
      </trkpt>
      <trkpt lat="47.20243" lon="-1.75271">
        <ele>55.4</ele>
        <time>2016-04-10T14:06:52.051Z</time>
      </trkpt>
      <trkpt lat="47.20245" lon="-1.75282">
        <ele>55.4</ele>
        <time>2016-04-10T14:07:00.292Z</time>
      </trkpt>
      <trkpt lat="47.20246" lon="-1.75284">
        <ele>55.4</ele>
        <time>2016-04-10T14:07:01.103Z</time>
      </trkpt>
      <trkpt lat="47.20248" lon="-1.75296">
        <ele>55.5</ele>
        <time>2016-04-10T14:07:08.166Z</time>
      </trkpt>
      <trkpt lat="47.20249" lon="-1.75297">
        <ele>55.5</ele>
        <time>2016-04-10T14:07:09.102Z</time>
      </trkpt>
      <trkpt lat="47.20251" lon="-1.75308">
        <ele>55.6</ele>
        <time>2016-04-10T14:07:16.180Z</time>
      </trkpt>
      <trkpt lat="47.20252" lon="-1.7531">
        <ele>55.7</ele>
        <time>2016-04-10T14:07:17.063Z</time>
      </trkpt>
      <trkpt lat="47.20255" lon="-1.75322">
        <ele>55.7</ele>
        <time>2016-04-10T14:07:24.120Z</time>
      </trkpt>
      <trkpt lat="47.20256" lon="-1.75324">
        <ele>55.8</ele>
        <time>2016-04-10T14:07:25.076Z</time>
      </trkpt>
      <trkpt lat="47.20259" lon="-1.75334">
        <ele>55.9</ele>
        <time>2016-04-10T14:07:32.184Z</time>
      </trkpt>
      <trkpt lat="47.20259" lon="-1.75336">
        <ele>55.9</ele>
        <time>2016-04-10T14:07:33.084Z</time>
      </trkpt>
      <trkpt lat="47.20262" lon="-1.75348">
        <ele>55.7</ele>
        <time>2016-04-10T14:07:45.200Z</time>
      </trkpt>
      <trkpt lat="47.20262" lon="-1.7535">
        <ele>55.7</ele>
        <time>2016-04-10T14:07:46.029Z</time>
      </trkpt>
      <trkpt lat="47.20265" lon="-1.75362">
        <ele>55.8</ele>
        <time>2016-04-10T14:07:54.178Z</time>
      </trkpt>
      <trkpt lat="47.20265" lon="-1.75363">
        <ele>55.8</ele>
        <time>2016-04-10T14:07:55.084Z</time>
      </trkpt>
      <trkpt lat="47.20268" lon="-1.75375">
        <ele>55.8</ele>
        <time>2016-04-10T14:08:02.292Z</time>
      </trkpt>
      <trkpt lat="47.20269" lon="-1.75376">
        <ele>55.8</ele>
        <time>2016-04-10T14:08:03.073Z</time>
      </trkpt>
      <trkpt lat="47.20272" lon="-1.75388">
        <ele>56.2</ele>
        <time>2016-04-10T14:08:13.143Z</time>
      </trkpt>
      <trkpt lat="47.20272" lon="-1.7539">
        <ele>56.2</ele>
        <time>2016-04-10T14:08:14.085Z</time>
      </trkpt>
      <trkpt lat="47.20275" lon="-1.75402">
        <ele>56.6</ele>
        <time>2016-04-10T14:08:21.132Z</time>
      </trkpt>
      <trkpt lat="47.20276" lon="-1.75403">
        <ele>56.6</ele>
        <time>2016-04-10T14:08:22.049Z</time>
      </trkpt>
      <trkpt lat="47.20278" lon="-1.75416">
        <ele>56.7</ele>
        <time>2016-04-10T14:08:29.224Z</time>
      </trkpt>
      <trkpt lat="47.20279" lon="-1.75418">
        <ele>56.7</ele>
        <time>2016-04-10T14:08:30.081Z</time>
      </trkpt>
      <trkpt lat="47.20281" lon="-1.7543">
        <ele>56.5</ele>
        <time>2016-04-10T14:08:36.456Z</time>
      </trkpt>
      <trkpt lat="47.20281" lon="-1.75432">
        <ele>56.5</ele>
        <time>2016-04-10T14:08:37.082Z</time>
      </trkpt>
      <trkpt lat="47.20283" lon="-1.75443">
        <ele>56.5</ele>
        <time>2016-04-10T14:08:44.177Z</time>
      </trkpt>
      <trkpt lat="47.20283" lon="-1.75445">
        <ele>56.6</ele>
        <time>2016-04-10T14:08:45.012Z</time>
      </trkpt>
      <trkpt lat="47.20286" lon="-1.75456">
        <ele>56.5</ele>
        <time>2016-04-10T14:08:52.145Z</time>
      </trkpt>
      <trkpt lat="47.20286" lon="-1.75458">
        <ele>56.5</ele>
        <time>2016-04-10T14:08:53.082Z</time>
      </trkpt>
      <trkpt lat="47.20289" lon="-1.75469">
        <ele>56.6</ele>
        <time>2016-04-10T14:09:01.144Z</time>
      </trkpt>
      <trkpt lat="47.2029" lon="-1.75471">
        <ele>56.6</ele>
        <time>2016-04-10T14:09:02.078Z</time>
      </trkpt>
      <trkpt lat="47.20294" lon="-1.75482">
        <ele>56.6</ele>
        <time>2016-04-10T14:09:08.102Z</time>
      </trkpt>
      <trkpt lat="47.20295" lon="-1.75483">
        <ele>56.6</ele>
        <time>2016-04-10T14:09:09.032Z</time>
      </trkpt>
      <trkpt lat="47.203" lon="-1.75493">
        <ele>56.3</ele>
        <time>2016-04-10T14:09:19.153Z</time>
      </trkpt>
      <trkpt lat="47.203" lon="-1.75494">
        <ele>56.3</ele>
        <time>2016-04-10T14:09:20.093Z</time>
      </trkpt>
      <trkpt lat="47.20305" lon="-1.75505">
        <ele>55.9</ele>
        <time>2016-04-10T14:09:47.192Z</time>
      </trkpt>
      <trkpt lat="47.20305" lon="-1.75506">
        <ele>55.9</ele>
        <time>2016-04-10T14:09:48.064Z</time>
      </trkpt>
      <trkpt lat="47.20313" lon="-1.75504">
        <ele>55.6</ele>
        <time>2016-04-10T14:10:11.130Z</time>
      </trkpt>
      <trkpt lat="47.20314" lon="-1.75503">
        <ele>55.6</ele>
        <time>2016-04-10T14:10:12.073Z</time>
      </trkpt>
      <trkpt lat="47.2032" lon="-1.75511">
        <ele>53.5</ele>
        <time>2016-04-10T14:13:38.196Z</time>
      </trkpt>
      <trkpt lat="47.20321" lon="-1.75512">
        <ele>53.3</ele>
        <time>2016-04-10T14:13:39.027Z</time>
      </trkpt>
      <trkpt lat="47.20325" lon="-1.75522">
        <ele>52.7</ele>
        <time>2016-04-10T14:13:50.164Z</time>
      </trkpt>
      <trkpt lat="47.20326" lon="-1.75523">
        <ele>52.7</ele>
        <time>2016-04-10T14:13:51.103Z</time>
      </trkpt>
      <trkpt lat="47.20331" lon="-1.75533">
        <ele>52.5</ele>
        <time>2016-04-10T14:13:58.087Z</time>
      </trkpt>
      <trkpt lat="47.20332" lon="-1.75534">
        <ele>52.5</ele>
        <time>2016-04-10T14:13:59.068Z</time>
      </trkpt>
      <trkpt lat="47.20337" lon="-1.75544">
        <ele>52.2</ele>
        <time>2016-04-10T14:14:08.142Z</time>
      </trkpt>
      <trkpt lat="47.20337" lon="-1.75545">
        <ele>52.1</ele>
        <time>2016-04-10T14:14:09.062Z</time>
      </trkpt>
      <trkpt lat="47.20342" lon="-1.75555">
        <ele>51.6</ele>
        <time>2016-04-10T14:14:16.082Z</time>
      </trkpt>
      <trkpt lat="47.20342" lon="-1.75556">
        <ele>51.5</ele>
        <time>2016-04-10T14:14:17.090Z</time>
      </trkpt>
      <trkpt lat="47.20347" lon="-1.75566">
        <ele>51.1</ele>
        <time>2016-04-10T14:14:25.194Z</time>
      </trkpt>
      <trkpt lat="47.20348" lon="-1.75567">
        <ele>51.1</ele>
        <time>2016-04-10T14:14:25.995Z</time>
      </trkpt>
      <trkpt lat="47.20354" lon="-1.75575">
        <ele>50.5</ele>
        <time>2016-04-10T14:14:36.166Z</time>
      </trkpt>
      <trkpt lat="47.20355" lon="-1.75576">
        <ele>50.5</ele>
        <time>2016-04-10T14:14:37.038Z</time>
      </trkpt>
      <trkpt lat="47.20358" lon="-1.75587">
        <ele>50.7</ele>
        <time>2016-04-10T14:14:46.165Z</time>
      </trkpt>
      <trkpt lat="47.20358" lon="-1.75589">
        <ele>50.8</ele>
        <time>2016-04-10T14:14:47.082Z</time>
      </trkpt>
      <trkpt lat="47.20361" lon="-1.75601">
        <ele>51.6</ele>
        <time>2016-04-10T14:14:54.111Z</time>
      </trkpt>
      <trkpt lat="47.20361" lon="-1.75602">
        <ele>51.6</ele>
        <time>2016-04-10T14:14:55.077Z</time>
      </trkpt>
      <trkpt lat="47.20363" lon="-1.75614">
        <ele>51.6</ele>
        <time>2016-04-10T14:15:02.160Z</time>
      </trkpt>
      <trkpt lat="47.20364" lon="-1.75616">
        <ele>51.7</ele>
        <time>2016-04-10T14:15:03.088Z</time>
      </trkpt>
      <trkpt lat="47.2037" lon="-1.75624">
        <ele>51.9</ele>
        <time>2016-04-10T14:15:15.138Z</time>
      </trkpt>
      <trkpt lat="47.20371" lon="-1.75624">
        <ele>51.9</ele>
        <time>2016-04-10T14:15:16.133Z</time>
      </trkpt>
      <trkpt lat="47.2038" lon="-1.75622">
        <ele>51.4</ele>
        <time>2016-04-10T14:15:47.128Z</time>
      </trkpt>
      <trkpt lat="47.2038" lon="-1.75621">
        <ele>51.4</ele>
        <time>2016-04-10T14:15:48.063Z</time>
      </trkpt>
      <trkpt lat="47.20389" lon="-1.75623">
        <ele>50.9</ele>
        <time>2016-04-10T14:20:49.226Z</time>
      </trkpt>
      <trkpt lat="47.2039" lon="-1.75624">
        <ele>50.9</ele>
        <time>2016-04-10T14:20:50.084Z</time>
      </trkpt>
      <trkpt lat="47.20397" lon="-1.75631">
        <ele>50.9</ele>
        <time>2016-04-10T14:20:57.175Z</time>
      </trkpt>
      <trkpt lat="47.20398" lon="-1.75632">
        <ele>50.9</ele>
        <time>2016-04-10T14:20:58.041Z</time>
      </trkpt>
      <trkpt lat="47.20407" lon="-1.75635">
        <ele>50.8</ele>
        <time>2016-04-10T14:21:05.325Z</time>
      </trkpt>
      <trkpt lat="47.20408" lon="-1.75635">
        <ele>50.7</ele>
        <time>2016-04-10T14:21:06.085Z</time>
      </trkpt>
      <trkpt lat="47.20417" lon="-1.75637">
        <ele>50.3</ele>
        <time>2016-04-10T14:21:14.193Z</time>
      </trkpt>
      <trkpt lat="47.20417" lon="-1.75637">
        <ele>50.3</ele>
        <time>2016-04-10T14:21:15.028Z</time>
      </trkpt>
      <trkpt lat="47.20425" lon="-1.75632">
        <ele>50.1</ele>
        <time>2016-04-10T14:21:28.203Z</time>
      </trkpt>
      <trkpt lat="47.20426" lon="-1.75631">
        <ele>50.1</ele>
        <time>2016-04-10T14:21:29.087Z</time>
      </trkpt>
      <trkpt lat="47.20433" lon="-1.75623">
        <ele>50.1</ele>
        <time>2016-04-10T14:21:39.268Z</time>
      </trkpt>
      <trkpt lat="47.20434" lon="-1.75622">
        <ele>50.1</ele>
        <time>2016-04-10T14:21:40.010Z</time>
      </trkpt>
      <trkpt lat="47.20439" lon="-1.75616">
        <ele>50.1</ele>
        <time>2016-04-10T14:21:45.193Z</time>
      </trkpt>
      <trkpt lat="47.20445" lon="-1.75605">
        <ele>50.1</ele>
        <time>2016-04-10T14:21:46.103Z</time>
      </trkpt>
      <trkpt lat="47.20451" lon="-1.75597">
        <ele>50</ele>
        <time>2016-04-10T14:21:48.147Z</time>
      </trkpt>
      <trkpt lat="47.20452" lon="-1.75595">
        <ele>50</ele>
        <time>2016-04-10T14:21:49.029Z</time>
      </trkpt>
      <trkpt lat="47.20456" lon="-1.75586">
        <ele>50</ele>
        <time>2016-04-10T14:21:53.189Z</time>
      </trkpt>
      <trkpt lat="47.20457" lon="-1.75584">
        <ele>50</ele>
        <time>2016-04-10T14:21:54.101Z</time>
      </trkpt>
      <trkpt lat="47.20461" lon="-1.75573">
        <ele>49.8</ele>
        <time>2016-04-10T14:21:58.196Z</time>
      </trkpt>
      <trkpt lat="47.20462" lon="-1.7557">
        <ele>49.7</ele>
        <time>2016-04-10T14:21:59.230Z</time>
      </trkpt>
      <trkpt lat="47.20466" lon="-1.75559">
        <ele>49.6</ele>
        <time>2016-04-10T14:22:03.154Z</time>
      </trkpt>
      <trkpt lat="47.20467" lon="-1.75556">
        <ele>49.6</ele>
        <time>2016-04-10T14:22:03.999Z</time>
      </trkpt>
      <trkpt lat="47.2047" lon="-1.75545">
        <ele>49.9</ele>
        <time>2016-04-10T14:22:09.081Z</time>
      </trkpt>
      <trkpt lat="47.20471" lon="-1.75542">
        <ele>50</ele>
        <time>2016-04-10T14:22:10.004Z</time>
      </trkpt>
      <trkpt lat="47.20474" lon="-1.7553">
        <ele>50.1</ele>
        <time>2016-04-10T14:22:13.189Z</time>
      </trkpt>
      <trkpt lat="47.20475" lon="-1.75526">
        <ele>50.1</ele>
        <time>2016-04-10T14:22:14.121Z</time>
      </trkpt>
      <trkpt lat="47.20478" lon="-1.75516">
        <ele>50.1</ele>
        <time>2016-04-10T14:22:17.133Z</time>
      </trkpt>
      <trkpt lat="47.20479" lon="-1.75513">
        <ele>50.1</ele>
        <time>2016-04-10T14:22:18.519Z</time>
      </trkpt>
      <trkpt lat="47.20481" lon="-1.75502">
        <ele>50.1</ele>
        <time>2016-04-10T14:22:21.118Z</time>
      </trkpt>
      <trkpt lat="47.20482" lon="-1.75499">
        <ele>50</ele>
        <time>2016-04-10T14:22:22.081Z</time>
      </trkpt>
      <trkpt lat="47.20485" lon="-1.75488">
        <ele>50</ele>
        <time>2016-04-10T14:22:26.240Z</time>
      </trkpt>
      <trkpt lat="47.20486" lon="-1.75485">
        <ele>50</ele>
        <time>2016-04-10T14:22:27.082Z</time>
      </trkpt>
      <trkpt lat="47.20488" lon="-1.75474">
        <ele>50.1</ele>
        <time>2016-04-10T14:22:30.372Z</time>
      </trkpt>
      <trkpt lat="47.20489" lon="-1.7547">
        <ele>50.2</ele>
        <time>2016-04-10T14:22:31.043Z</time>
      </trkpt>
      <trkpt lat="47.20491" lon="-1.75459">
        <ele>50.5</ele>
        <time>2016-04-10T14:22:34.198Z</time>
      </trkpt>
      <trkpt lat="47.20492" lon="-1.75456">
        <ele>50.6</ele>
        <time>2016-04-10T14:22:35.093Z</time>
      </trkpt>
      <trkpt lat="47.20495" lon="-1.75446">
        <ele>50.8</ele>
        <time>2016-04-10T14:22:38.140Z</time>
      </trkpt>
      <trkpt lat="47.20496" lon="-1.75443">
        <ele>50.8</ele>
        <time>2016-04-10T14:22:39.032Z</time>
      </trkpt>
      <trkpt lat="47.20498" lon="-1.75431">
        <ele>50.9</ele>
        <time>2016-04-10T14:22:43.073Z</time>
      </trkpt>
      <trkpt lat="47.20499" lon="-1.75427">
        <ele>51</ele>
        <time>2016-04-10T14:22:44.033Z</time>
      </trkpt>
      <trkpt lat="47.20501" lon="-1.75417">
        <ele>50.9</ele>
        <time>2016-04-10T14:22:47.182Z</time>
      </trkpt>
      <trkpt lat="47.20502" lon="-1.75413">
        <ele>51</ele>
        <time>2016-04-10T14:22:48.051Z</time>
      </trkpt>
      <trkpt lat="47.20505" lon="-1.75402">
        <ele>51.1</ele>
        <time>2016-04-10T14:22:51.144Z</time>
      </trkpt>
      <trkpt lat="47.20506" lon="-1.75399">
        <ele>51.1</ele>
        <time>2016-04-10T14:22:52.096Z</time>
      </trkpt>
      <trkpt lat="47.2051" lon="-1.75388">
        <ele>51.3</ele>
        <time>2016-04-10T14:22:56.098Z</time>
      </trkpt>
      <trkpt lat="47.20511" lon="-1.75385">
        <ele>51.3</ele>
        <time>2016-04-10T14:22:57.102Z</time>
      </trkpt>
      <trkpt lat="47.20514" lon="-1.75375">
        <ele>51.3</ele>
        <time>2016-04-10T14:23:01.297Z</time>
      </trkpt>
      <trkpt lat="47.20516" lon="-1.75371">
        <ele>51.3</ele>
        <time>2016-04-10T14:23:02.100Z</time>
      </trkpt>
      <trkpt lat="47.20519" lon="-1.7536">
        <ele>50.9</ele>
        <time>2016-04-10T14:23:06.097Z</time>
      </trkpt>
      <trkpt lat="47.20521" lon="-1.75357">
        <ele>50.8</ele>
        <time>2016-04-10T14:23:07.058Z</time>
      </trkpt>
      <trkpt lat="47.20525" lon="-1.75348">
        <ele>50.5</ele>
        <time>2016-04-10T14:23:10.125Z</time>
      </trkpt>
      <trkpt lat="47.20526" lon="-1.75346">
        <ele>50.4</ele>
        <time>2016-04-10T14:23:11.100Z</time>
      </trkpt>
      <trkpt lat="47.20531" lon="-1.75335">
        <ele>50.3</ele>
        <time>2016-04-10T14:23:18.154Z</time>
      </trkpt>
      <trkpt lat="47.20531" lon="-1.75334">
        <ele>50.3</ele>
        <time>2016-04-10T14:23:19.118Z</time>
      </trkpt>
      <trkpt lat="47.20536" lon="-1.75324">
        <ele>50.4</ele>
        <time>2016-04-10T14:23:28.284Z</time>
      </trkpt>
      <trkpt lat="47.20539" lon="-1.75317">
        <ele>50.5</ele>
        <time>2016-04-10T14:23:29.060Z</time>
      </trkpt>
      <trkpt lat="47.20544" lon="-1.75307">
        <ele>51.2</ele>
        <time>2016-04-10T14:23:38.091Z</time>
      </trkpt>
      <trkpt lat="47.20544" lon="-1.75306">
        <ele>51.2</ele>
        <time>2016-04-10T14:23:39.149Z</time>
      </trkpt>
      <trkpt lat="47.20547" lon="-1.75296">
        <ele>51.4</ele>
        <time>2016-04-10T14:23:47.199Z</time>
      </trkpt>
      <trkpt lat="47.20547" lon="-1.75293">
        <ele>51.4</ele>
        <time>2016-04-10T14:23:48.046Z</time>
      </trkpt>
      <trkpt lat="47.20553" lon="-1.75283">
        <ele>51</ele>
        <time>2016-04-10T14:24:22.182Z</time>
      </trkpt>
      <trkpt lat="47.20553" lon="-1.75283">
        <ele>50.9</ele>
        <time>2016-04-10T14:24:23.082Z</time>
      </trkpt>
      <trkpt lat="47.20555" lon="-1.75271">
        <ele>50.8</ele>
        <time>2016-04-10T14:25:01.161Z</time>
      </trkpt>
      <trkpt lat="47.20556" lon="-1.7527">
        <ele>50.9</ele>
        <time>2016-04-10T14:25:02.136Z</time>
      </trkpt>
      <trkpt lat="47.20557" lon="-1.75257">
        <ele>50.7</ele>
        <time>2016-04-10T14:25:09.148Z</time>
      </trkpt>
      <trkpt lat="47.20558" lon="-1.75255">
        <ele>50.6</ele>
        <time>2016-04-10T14:25:10.024Z</time>
      </trkpt>
      <trkpt lat="47.2056" lon="-1.75244">
        <ele>50.3</ele>
        <time>2016-04-10T14:25:17.071Z</time>
      </trkpt>
      <trkpt lat="47.20561" lon="-1.75242">
        <ele>50.3</ele>
        <time>2016-04-10T14:25:18.109Z</time>
      </trkpt>
      <trkpt lat="47.20563" lon="-1.75231">
        <ele>50.1</ele>
        <time>2016-04-10T14:25:25.227Z</time>
      </trkpt>
      <trkpt lat="47.20564" lon="-1.75229">
        <ele>50</ele>
        <time>2016-04-10T14:25:26.015Z</time>
      </trkpt>
      <trkpt lat="47.20566" lon="-1.75218">
        <ele>49.8</ele>
        <time>2016-04-10T14:25:34.057Z</time>
      </trkpt>
      <trkpt lat="47.20567" lon="-1.75216">
        <ele>49.8</ele>
        <time>2016-04-10T14:25:35.040Z</time>
      </trkpt>
      <trkpt lat="47.20569" lon="-1.75204">
        <ele>49.8</ele>
        <time>2016-04-10T14:25:46.108Z</time>
      </trkpt>
      <trkpt lat="47.2057" lon="-1.75202">
        <ele>49.8</ele>
        <time>2016-04-10T14:25:47.097Z</time>
      </trkpt>
      <trkpt lat="47.20572" lon="-1.75191">
        <ele>50.2</ele>
        <time>2016-04-10T14:25:56.130Z</time>
      </trkpt>
      <trkpt lat="47.20573" lon="-1.7519">
        <ele>50.2</ele>
        <time>2016-04-10T14:25:57.413Z</time>
      </trkpt>
      <trkpt lat="47.20578" lon="-1.75179">
        <ele>50.6</ele>
        <time>2016-04-10T14:26:06.121Z</time>
      </trkpt>
      <trkpt lat="47.20579" lon="-1.75178">
        <ele>50.6</ele>
        <time>2016-04-10T14:26:07.051Z</time>
      </trkpt>
      <trkpt lat="47.20586" lon="-1.75171">
        <ele>50.9</ele>
        <time>2016-04-10T14:26:16.358Z</time>
      </trkpt>
      <trkpt lat="47.20586" lon="-1.7517">
        <ele>50.9</ele>
        <time>2016-04-10T14:26:17.038Z</time>
      </trkpt>
      <trkpt lat="47.20592" lon="-1.75162">
        <ele>50.9</ele>
        <time>2016-04-10T14:26:26.190Z</time>
      </trkpt>
      <trkpt lat="47.20593" lon="-1.75161">
        <ele>50.9</ele>
        <time>2016-04-10T14:26:27.146Z</time>
      </trkpt>
      <trkpt lat="47.206" lon="-1.75154">
        <ele>51.2</ele>
        <time>2016-04-10T14:26:35.109Z</time>
      </trkpt>
      <trkpt lat="47.20601" lon="-1.75153">
        <ele>51.2</ele>
        <time>2016-04-10T14:26:36.053Z</time>
      </trkpt>
      <trkpt lat="47.20608" lon="-1.75147">
        <ele>51.3</ele>
        <time>2016-04-10T14:26:42.273Z</time>
      </trkpt>
      <trkpt lat="47.20609" lon="-1.75146">
        <ele>51.3</ele>
        <time>2016-04-10T14:26:43.041Z</time>
      </trkpt>
      <trkpt lat="47.20613" lon="-1.75135">
        <ele>51.4</ele>
        <time>2016-04-10T14:26:50.058Z</time>
      </trkpt>
      <trkpt lat="47.20613" lon="-1.75133">
        <ele>51.4</ele>
        <time>2016-04-10T14:26:51.024Z</time>
      </trkpt>
      <trkpt lat="47.20616" lon="-1.75122">
        <ele>51.7</ele>
        <time>2016-04-10T14:26:57.129Z</time>
      </trkpt>
      <trkpt lat="47.20616" lon="-1.7512">
        <ele>51.8</ele>
        <time>2016-04-10T14:26:58.115Z</time>
      </trkpt>
      <trkpt lat="47.20621" lon="-1.75109">
        <ele>51.8</ele>
        <time>2016-04-10T14:27:05.119Z</time>
      </trkpt>
      <trkpt lat="47.20621" lon="-1.75108">
        <ele>51.8</ele>
        <time>2016-04-10T14:27:06.071Z</time>
      </trkpt>
      <trkpt lat="47.20626" lon="-1.75097">
        <ele>51.8</ele>
        <time>2016-04-10T14:27:12.052Z</time>
      </trkpt>
      <trkpt lat="47.20626" lon="-1.75096">
        <ele>51.8</ele>
        <time>2016-04-10T14:27:13.103Z</time>
      </trkpt>
      <trkpt lat="47.2063" lon="-1.75085">
        <ele>51.5</ele>
        <time>2016-04-10T14:27:20.095Z</time>
      </trkpt>
      <trkpt lat="47.2063" lon="-1.75083">
        <ele>51.5</ele>
        <time>2016-04-10T14:27:21.153Z</time>
      </trkpt>
      <trkpt lat="47.20633" lon="-1.75071">
        <ele>51</ele>
        <time>2016-04-10T14:27:28.100Z</time>
      </trkpt>
      <trkpt lat="47.20634" lon="-1.75069">
        <ele>51</ele>
        <time>2016-04-10T14:27:29.022Z</time>
      </trkpt>
      <trkpt lat="47.20637" lon="-1.75058">
        <ele>50.7</ele>
        <time>2016-04-10T14:27:36.171Z</time>
      </trkpt>
      <trkpt lat="47.20638" lon="-1.75056">
        <ele>50.6</ele>
        <time>2016-04-10T14:27:37.028Z</time>
      </trkpt>
      <trkpt lat="47.20641" lon="-1.75045">
        <ele>50.6</ele>
        <time>2016-04-10T14:27:45.245Z</time>
      </trkpt>
      <trkpt lat="47.20642" lon="-1.75043">
        <ele>50.6</ele>
        <time>2016-04-10T14:27:46.053Z</time>
      </trkpt>
      <trkpt lat="47.20646" lon="-1.75031">
        <ele>50.6</ele>
        <time>2016-04-10T14:27:53.098Z</time>
      </trkpt>
      <trkpt lat="47.20646" lon="-1.7503">
        <ele>50.6</ele>
        <time>2016-04-10T14:27:54.098Z</time>
      </trkpt>
      <trkpt lat="47.20648" lon="-1.75019">
        <ele>50.8</ele>
        <time>2016-04-10T14:28:00.351Z</time>
      </trkpt>
      <trkpt lat="47.20649" lon="-1.75017">
        <ele>50.8</ele>
        <time>2016-04-10T14:28:01.049Z</time>
      </trkpt>
      <trkpt lat="47.20652" lon="-1.75006">
        <ele>50.6</ele>
        <time>2016-04-10T14:28:08.104Z</time>
      </trkpt>
      <trkpt lat="47.20653" lon="-1.75005">
        <ele>50.6</ele>
        <time>2016-04-10T14:28:09.118Z</time>
      </trkpt>
      <trkpt lat="47.20657" lon="-1.74994">
        <ele>50.4</ele>
        <time>2016-04-10T14:28:16.232Z</time>
      </trkpt>
      <trkpt lat="47.20657" lon="-1.74993">
        <ele>50.4</ele>
        <time>2016-04-10T14:28:17.048Z</time>
      </trkpt>
      <trkpt lat="47.20661" lon="-1.74983">
        <ele>50.2</ele>
        <time>2016-04-10T14:28:24.455Z</time>
      </trkpt>
      <trkpt lat="47.20661" lon="-1.74981">
        <ele>50.2</ele>
        <time>2016-04-10T14:28:25.100Z</time>
      </trkpt>
      <trkpt lat="47.20668" lon="-1.74974">
        <ele>49.9</ele>
        <time>2016-04-10T14:28:30.210Z</time>
      </trkpt>
      <trkpt lat="47.20669" lon="-1.74973">
        <ele>49.9</ele>
        <time>2016-04-10T14:28:31.101Z</time>
      </trkpt>
      <trkpt lat="47.20678" lon="-1.7497">
        <ele>49.4</ele>
        <time>2016-04-10T14:28:38.130Z</time>
      </trkpt>
      <trkpt lat="47.20679" lon="-1.74969">
        <ele>49.4</ele>
        <time>2016-04-10T14:28:39.102Z</time>
      </trkpt>
      <trkpt lat="47.20687" lon="-1.74964">
        <ele>49</ele>
        <time>2016-04-10T14:28:46.186Z</time>
      </trkpt>
      <trkpt lat="47.20688" lon="-1.74964">
        <ele>49</ele>
        <time>2016-04-10T14:28:47.385Z</time>
      </trkpt>
      <trkpt lat="47.20696" lon="-1.74959">
        <ele>48.6</ele>
        <time>2016-04-10T14:28:54.211Z</time>
      </trkpt>
      <trkpt lat="47.20697" lon="-1.74959">
        <ele>48.5</ele>
        <time>2016-04-10T14:28:55.065Z</time>
      </trkpt>
      <trkpt lat="47.20705" lon="-1.74955">
        <ele>48.2</ele>
        <time>2016-04-10T14:29:01.104Z</time>
      </trkpt>
      <trkpt lat="47.20706" lon="-1.74955">
        <ele>48.2</ele>
        <time>2016-04-10T14:29:02.092Z</time>
      </trkpt>
      <trkpt lat="47.20715" lon="-1.74951">
        <ele>48.3</ele>
        <time>2016-04-10T14:29:10.026Z</time>
      </trkpt>
      <trkpt lat="47.20715" lon="-1.7495">
        <ele>48.3</ele>
        <time>2016-04-10T14:29:11.139Z</time>
      </trkpt>
      <trkpt lat="47.20724" lon="-1.74947">
        <ele>48.2</ele>
        <time>2016-04-10T14:29:18.176Z</time>
      </trkpt>
      <trkpt lat="47.20725" lon="-1.74946">
        <ele>48.2</ele>
        <time>2016-04-10T14:29:19.112Z</time>
      </trkpt>
      <trkpt lat="47.20734" lon="-1.74944">
        <ele>48.2</ele>
        <time>2016-04-10T14:29:26.095Z</time>
      </trkpt>
      <trkpt lat="47.20735" lon="-1.74944">
        <ele>48.2</ele>
        <time>2016-04-10T14:29:27.054Z</time>
      </trkpt>
      <trkpt lat="47.20743" lon="-1.7494">
        <ele>48</ele>
        <time>2016-04-10T14:29:34.193Z</time>
      </trkpt>
      <trkpt lat="47.20744" lon="-1.7494">
        <ele>47.9</ele>
        <time>2016-04-10T14:29:35.049Z</time>
      </trkpt>
      <trkpt lat="47.20752" lon="-1.74936">
        <ele>47.6</ele>
        <time>2016-04-10T14:29:41.094Z</time>
      </trkpt>
      <trkpt lat="47.20753" lon="-1.74936">
        <ele>47.5</ele>
        <time>2016-04-10T14:29:42.054Z</time>
      </trkpt>
      <trkpt lat="47.20761" lon="-1.74933">
        <ele>47.3</ele>
        <time>2016-04-10T14:29:49.193Z</time>
      </trkpt>
      <trkpt lat="47.20763" lon="-1.74932">
        <ele>47.3</ele>
        <time>2016-04-10T14:29:50.041Z</time>
      </trkpt>
      <trkpt lat="47.20771" lon="-1.7493">
        <ele>47.3</ele>
        <time>2016-04-10T14:29:57.095Z</time>
      </trkpt>
      <trkpt lat="47.20772" lon="-1.7493">
        <ele>47.3</ele>
        <time>2016-04-10T14:29:58.103Z</time>
      </trkpt>
      <trkpt lat="47.2078" lon="-1.74926">
        <ele>47.2</ele>
        <time>2016-04-10T14:30:06.168Z</time>
      </trkpt>
      <trkpt lat="47.20781" lon="-1.74926">
        <ele>47.3</ele>
        <time>2016-04-10T14:30:07.030Z</time>
      </trkpt>
      <trkpt lat="47.20789" lon="-1.74924">
        <ele>47.2</ele>
        <time>2016-04-10T14:30:14.037Z</time>
      </trkpt>
      <trkpt lat="47.2079" lon="-1.74923">
        <ele>47.2</ele>
        <time>2016-04-10T14:30:15.092Z</time>
      </trkpt>
      <trkpt lat="47.20799" lon="-1.74921">
        <ele>47.4</ele>
        <time>2016-04-10T14:30:23.161Z</time>
      </trkpt>
      <trkpt lat="47.208" lon="-1.7492">
        <ele>47.4</ele>
        <time>2016-04-10T14:30:24.054Z</time>
      </trkpt>
      <trkpt lat="47.20807" lon="-1.74917">
        <ele>47.5</ele>
        <time>2016-04-10T14:30:30.095Z</time>
      </trkpt>
      <trkpt lat="47.20808" lon="-1.74916">
        <ele>47.6</ele>
        <time>2016-04-10T14:30:31.094Z</time>
      </trkpt>
      <trkpt lat="47.20816" lon="-1.74913">
        <ele>47.9</ele>
        <time>2016-04-10T14:30:39.089Z</time>
      </trkpt>
      <trkpt lat="47.20818" lon="-1.74913">
        <ele>47.9</ele>
        <time>2016-04-10T14:30:40.022Z</time>
      </trkpt>
      <trkpt lat="47.20826" lon="-1.7491">
        <ele>48.4</ele>
        <time>2016-04-10T14:30:49.124Z</time>
      </trkpt>
      <trkpt lat="47.20828" lon="-1.74909">
        <ele>48.5</ele>
        <time>2016-04-10T14:30:50.041Z</time>
      </trkpt>
      <trkpt lat="47.20835" lon="-1.74906">
        <ele>48.6</ele>
        <time>2016-04-10T14:30:56.133Z</time>
      </trkpt>
      <trkpt lat="47.20836" lon="-1.74906">
        <ele>48.6</ele>
        <time>2016-04-10T14:30:57.094Z</time>
      </trkpt>
      <trkpt lat="47.20845" lon="-1.74908">
        <ele>48.9</ele>
        <time>2016-04-10T14:31:06.118Z</time>
      </trkpt>
      <trkpt lat="47.20846" lon="-1.74908">
        <ele>48.9</ele>
        <time>2016-04-10T14:31:07.102Z</time>
      </trkpt>
      <trkpt lat="47.20854" lon="-1.74907">
        <ele>48.9</ele>
        <time>2016-04-10T14:31:15.391Z</time>
      </trkpt>
      <trkpt lat="47.20855" lon="-1.74907">
        <ele>49</ele>
        <time>2016-04-10T14:31:16.086Z</time>
      </trkpt>
      <trkpt lat="47.20863" lon="-1.74904">
        <ele>49.1</ele>
        <time>2016-04-10T14:31:22.105Z</time>
      </trkpt>
      <trkpt lat="47.20864" lon="-1.74904">
        <ele>49.1</ele>
        <time>2016-04-10T14:31:23.105Z</time>
      </trkpt>
      <trkpt lat="47.20873" lon="-1.74901">
        <ele>49.4</ele>
        <time>2016-04-10T14:31:32.077Z</time>
      </trkpt>
      <trkpt lat="47.20874" lon="-1.749">
        <ele>49.4</ele>
        <time>2016-04-10T14:31:33.051Z</time>
      </trkpt>
      <trkpt lat="47.20882" lon="-1.74897">
        <ele>49.7</ele>
        <time>2016-04-10T14:31:40.092Z</time>
      </trkpt>
      <trkpt lat="47.20884" lon="-1.74896">
        <ele>49.7</ele>
        <time>2016-04-10T14:31:41.053Z</time>
      </trkpt>
      <trkpt lat="47.20892" lon="-1.74892">
        <ele>50</ele>
        <time>2016-04-10T14:31:49.203Z</time>
      </trkpt>
      <trkpt lat="47.20893" lon="-1.74892">
        <ele>50.1</ele>
        <time>2016-04-10T14:31:50.043Z</time>
      </trkpt>
      <trkpt lat="47.20901" lon="-1.74889">
        <ele>50.4</ele>
        <time>2016-04-10T14:31:57.154Z</time>
      </trkpt>
      <trkpt lat="47.20903" lon="-1.74888">
        <ele>50.4</ele>
        <time>2016-04-10T14:31:58.098Z</time>
      </trkpt>
      <trkpt lat="47.20911" lon="-1.74885">
        <ele>50.5</ele>
        <time>2016-04-10T14:32:08.180Z</time>
      </trkpt>
      <trkpt lat="47.20912" lon="-1.74884">
        <ele>50.6</ele>
        <time>2016-04-10T14:32:09.104Z</time>
      </trkpt>
      <trkpt lat="47.20921" lon="-1.74881">
        <ele>50.7</ele>
        <time>2016-04-10T14:32:14.144Z</time>
      </trkpt>
      <trkpt lat="47.20922" lon="-1.74881">
        <ele>50.7</ele>
        <time>2016-04-10T14:32:15.081Z</time>
      </trkpt>
      <trkpt lat="47.20929" lon="-1.74877">
        <ele>50.7</ele>
        <time>2016-04-10T14:32:21.094Z</time>
      </trkpt>
      <trkpt lat="47.20931" lon="-1.74876">
        <ele>50.7</ele>
        <time>2016-04-10T14:32:22.092Z</time>
      </trkpt>
      <trkpt lat="47.20939" lon="-1.74871">
        <ele>50.3</ele>
        <time>2016-04-10T14:32:28.102Z</time>
      </trkpt>
      <trkpt lat="47.20939" lon="-1.74871">
        <ele>50.3</ele>
        <time>2016-04-10T14:32:29.104Z</time>
      </trkpt>
      <trkpt lat="47.20945" lon="-1.74862">
        <ele>50</ele>
        <time>2016-04-10T14:32:37.390Z</time>
      </trkpt>
      <trkpt lat="47.20946" lon="-1.74861">
        <ele>50</ele>
        <time>2016-04-10T14:32:38.328Z</time>
      </trkpt>
      <trkpt lat="47.20948" lon="-1.74849">
        <ele>50</ele>
        <time>2016-04-10T14:32:45.206Z</time>
      </trkpt>
      <trkpt lat="47.20948" lon="-1.74847">
        <ele>49.9</ele>
        <time>2016-04-10T14:32:46.057Z</time>
      </trkpt>
      <trkpt lat="47.20949" lon="-1.74836">
        <ele>50.1</ele>
        <time>2016-04-10T14:32:52.107Z</time>
      </trkpt>
      <trkpt lat="47.20949" lon="-1.74834">
        <ele>50.1</ele>
        <time>2016-04-10T14:32:53.038Z</time>
      </trkpt>
      <trkpt lat="47.20951" lon="-1.74822">
        <ele>50.8</ele>
        <time>2016-04-10T14:33:01.040Z</time>
      </trkpt>
      <trkpt lat="47.20951" lon="-1.7482">
        <ele>50.9</ele>
        <time>2016-04-10T14:33:02.017Z</time>
      </trkpt>
      <trkpt lat="47.20952" lon="-1.74807">
        <ele>51.4</ele>
        <time>2016-04-10T14:33:10.086Z</time>
      </trkpt>
      <trkpt lat="47.20952" lon="-1.74805">
        <ele>51.4</ele>
        <time>2016-04-10T14:33:11.099Z</time>
      </trkpt>
      <trkpt lat="47.20953" lon="-1.74792">
        <ele>51.8</ele>
        <time>2016-04-10T14:33:18.129Z</time>
      </trkpt>
      <trkpt lat="47.20953" lon="-1.7479">
        <ele>51.8</ele>
        <time>2016-04-10T14:33:19.042Z</time>
      </trkpt>
      <trkpt lat="47.20955" lon="-1.74778">
        <ele>51.9</ele>
        <time>2016-04-10T14:33:26.162Z</time>
      </trkpt>
      <trkpt lat="47.20955" lon="-1.74776">
        <ele>51.9</ele>
        <time>2016-04-10T14:33:27.107Z</time>
      </trkpt>
      <trkpt lat="47.20956" lon="-1.74765">
        <ele>51.9</ele>
        <time>2016-04-10T14:33:33.050Z</time>
      </trkpt>
      <trkpt lat="47.20956" lon="-1.74763">
        <ele>52</ele>
        <time>2016-04-10T14:33:34.049Z</time>
      </trkpt>
      <trkpt lat="47.20957" lon="-1.74751">
        <ele>52</ele>
        <time>2016-04-10T14:33:41.243Z</time>
      </trkpt>
      <trkpt lat="47.20957" lon="-1.74749">
        <ele>52</ele>
        <time>2016-04-10T14:33:42.277Z</time>
      </trkpt>
      <trkpt lat="47.20958" lon="-1.74737">
        <ele>52.1</ele>
        <time>2016-04-10T14:33:49.142Z</time>
      </trkpt>
      <trkpt lat="47.20959" lon="-1.74734">
        <ele>52.1</ele>
        <time>2016-04-10T14:33:50.052Z</time>
      </trkpt>
      <trkpt lat="47.20962" lon="-1.74722">
        <ele>52.2</ele>
        <time>2016-04-10T14:33:56.203Z</time>
      </trkpt>
      <trkpt lat="47.20962" lon="-1.7472">
        <ele>52.1</ele>
        <time>2016-04-10T14:33:57.057Z</time>
      </trkpt>
      <trkpt lat="47.20963" lon="-1.74708">
        <ele>51.7</ele>
        <time>2016-04-10T14:34:04.173Z</time>
      </trkpt>
      <trkpt lat="47.20963" lon="-1.74706">
        <ele>51.6</ele>
        <time>2016-04-10T14:34:05.105Z</time>
      </trkpt>
      <trkpt lat="47.20962" lon="-1.74693">
        <ele>51.6</ele>
        <time>2016-04-10T14:34:14.126Z</time>
      </trkpt>
      <trkpt lat="47.20962" lon="-1.74692">
        <ele>51.6</ele>
        <time>2016-04-10T14:34:15.084Z</time>
      </trkpt>
      <trkpt lat="47.20963" lon="-1.74679">
        <ele>51.9</ele>
        <time>2016-04-10T14:34:24.135Z</time>
      </trkpt>
      <trkpt lat="47.20963" lon="-1.74677">
        <ele>52</ele>
        <time>2016-04-10T14:34:25.042Z</time>
      </trkpt>
      <trkpt lat="47.20964" lon="-1.74664">
        <ele>52.2</ele>
        <time>2016-04-10T14:34:32.200Z</time>
      </trkpt>
      <trkpt lat="47.20964" lon="-1.74662">
        <ele>52.2</ele>
        <time>2016-04-10T14:34:33.057Z</time>
      </trkpt>
      <trkpt lat="47.20966" lon="-1.74651">
        <ele>52.3</ele>
        <time>2016-04-10T14:34:39.201Z</time>
      </trkpt>
      <trkpt lat="47.20967" lon="-1.74649">
        <ele>52.3</ele>
        <time>2016-04-10T14:34:40.031Z</time>
      </trkpt>
      <trkpt lat="47.20969" lon="-1.74636">
        <ele>52.4</ele>
        <time>2016-04-10T14:34:48.179Z</time>
      </trkpt>
      <trkpt lat="47.2097" lon="-1.74635">
        <ele>52.4</ele>
        <time>2016-04-10T14:34:49.107Z</time>
      </trkpt>
      <trkpt lat="47.20971" lon="-1.74622">
        <ele>52.5</ele>
        <time>2016-04-10T14:34:56.476Z</time>
      </trkpt>
      <trkpt lat="47.20971" lon="-1.7462">
        <ele>52.5</ele>
        <time>2016-04-10T14:34:57.031Z</time>
      </trkpt>
      <trkpt lat="47.20971" lon="-1.74607">
        <ele>52.5</ele>
        <time>2016-04-10T14:35:04.203Z</time>
      </trkpt>
      <trkpt lat="47.20972" lon="-1.74605">
        <ele>52.4</ele>
        <time>2016-04-10T14:35:05.073Z</time>
      </trkpt>
      <trkpt lat="47.20973" lon="-1.74592">
        <ele>52.4</ele>
        <time>2016-04-10T14:35:12.154Z</time>
      </trkpt>
      <trkpt lat="47.20973" lon="-1.74591">
        <ele>52.4</ele>
        <time>2016-04-10T14:35:13.042Z</time>
      </trkpt>
      <trkpt lat="47.20975" lon="-1.74579">
        <ele>52.5</ele>
        <time>2016-04-10T14:35:20.266Z</time>
      </trkpt>
      <trkpt lat="47.20975" lon="-1.74576">
        <ele>52.5</ele>
        <time>2016-04-10T14:35:21.022Z</time>
      </trkpt>
      <trkpt lat="47.20977" lon="-1.74566">
        <ele>52.5</ele>
        <time>2016-04-10T14:35:28.184Z</time>
      </trkpt>
      <trkpt lat="47.20978" lon="-1.74563">
        <ele>52.4</ele>
        <time>2016-04-10T14:35:29.058Z</time>
      </trkpt>
      <trkpt lat="47.20979" lon="-1.74552">
        <ele>52.2</ele>
        <time>2016-04-10T14:35:34.088Z</time>
      </trkpt>
      <trkpt lat="47.2098" lon="-1.74549">
        <ele>52.1</ele>
        <time>2016-04-10T14:35:35.112Z</time>
      </trkpt>
      <trkpt lat="47.20981" lon="-1.74538">
        <ele>51.6</ele>
        <time>2016-04-10T14:35:41.406Z</time>
      </trkpt>
      <trkpt lat="47.20981" lon="-1.74536">
        <ele>51.6</ele>
        <time>2016-04-10T14:35:42.054Z</time>
      </trkpt>
      <trkpt lat="47.20984" lon="-1.74525">
        <ele>51.5</ele>
        <time>2016-04-10T14:35:50.147Z</time>
      </trkpt>
      <trkpt lat="47.20985" lon="-1.74523">
        <ele>51.5</ele>
        <time>2016-04-10T14:35:51.094Z</time>
      </trkpt>
      <trkpt lat="47.20986" lon="-1.74511">
        <ele>51.5</ele>
        <time>2016-04-10T14:35:57.078Z</time>
      </trkpt>
      <trkpt lat="47.20986" lon="-1.74509">
        <ele>51.5</ele>
        <time>2016-04-10T14:35:58.084Z</time>
      </trkpt>
      <trkpt lat="47.20987" lon="-1.74497">
        <ele>51.9</ele>
        <time>2016-04-10T14:36:07.158Z</time>
      </trkpt>
      <trkpt lat="47.20987" lon="-1.74495">
        <ele>52</ele>
        <time>2016-04-10T14:36:08.058Z</time>
      </trkpt>
      <trkpt lat="47.20989" lon="-1.74485">
        <ele>52.8</ele>
        <time>2016-04-10T14:36:14.223Z</time>
      </trkpt>
      <trkpt lat="47.20989" lon="-1.74482">
        <ele>53</ele>
        <time>2016-04-10T14:36:15.103Z</time>
      </trkpt>
      <trkpt lat="47.20991" lon="-1.7447">
        <ele>53.7</ele>
        <time>2016-04-10T14:36:22.198Z</time>
      </trkpt>
      <trkpt lat="47.20992" lon="-1.74467">
        <ele>53.7</ele>
        <time>2016-04-10T14:36:23.057Z</time>
      </trkpt>
      <trkpt lat="47.20993" lon="-1.74454">
        <ele>53.9</ele>
        <time>2016-04-10T14:36:30.112Z</time>
      </trkpt>
      <trkpt lat="47.20993" lon="-1.74453">
        <ele>53.9</ele>
        <time>2016-04-10T14:36:31.098Z</time>
      </trkpt>
      <trkpt lat="47.20993" lon="-1.74441">
        <ele>53.9</ele>
        <time>2016-04-10T14:36:37.202Z</time>
      </trkpt>
      <trkpt lat="47.20993" lon="-1.74439">
        <ele>53.9</ele>
        <time>2016-04-10T14:36:38.024Z</time>
      </trkpt>
      <trkpt lat="47.20994" lon="-1.74427">
        <ele>53.9</ele>
        <time>2016-04-10T14:36:44.072Z</time>
      </trkpt>
      <trkpt lat="47.20995" lon="-1.74425">
        <ele>53.9</ele>
        <time>2016-04-10T14:36:45.052Z</time>
      </trkpt>
      <trkpt lat="47.20995" lon="-1.74413">
        <ele>53.8</ele>
        <time>2016-04-10T14:36:52.124Z</time>
      </trkpt>
      <trkpt lat="47.20995" lon="-1.74411">
        <ele>53.8</ele>
        <time>2016-04-10T14:36:53.117Z</time>
      </trkpt>
      <trkpt lat="47.20996" lon="-1.74398">
        <ele>53.9</ele>
        <time>2016-04-10T14:37:00.363Z</time>
      </trkpt>
      <trkpt lat="47.20996" lon="-1.74396">
        <ele>53.9</ele>
        <time>2016-04-10T14:37:01.164Z</time>
      </trkpt>
      <trkpt lat="47.20996" lon="-1.74383">
        <ele>54.2</ele>
        <time>2016-04-10T14:37:09.206Z</time>
      </trkpt>
      <trkpt lat="47.20996" lon="-1.74381">
        <ele>54.2</ele>
        <time>2016-04-10T14:37:10.105Z</time>
      </trkpt>
      <trkpt lat="47.20999" lon="-1.74371">
        <ele>54.3</ele>
        <time>2016-04-10T14:37:16.182Z</time>
      </trkpt>
      <trkpt lat="47.20999" lon="-1.74369">
        <ele>54.3</ele>
        <time>2016-04-10T14:37:17.107Z</time>
      </trkpt>
      <trkpt lat="47.21002" lon="-1.74357">
        <ele>54.3</ele>
        <time>2016-04-10T14:37:23.108Z</time>
      </trkpt>
      <trkpt lat="47.21002" lon="-1.74356">
        <ele>54.3</ele>
        <time>2016-04-10T14:37:24.087Z</time>
      </trkpt>
      <trkpt lat="47.21006" lon="-1.74344">
        <ele>54.2</ele>
        <time>2016-04-10T14:37:31.230Z</time>
      </trkpt>
      <trkpt lat="47.21007" lon="-1.74343">
        <ele>54.2</ele>
        <time>2016-04-10T14:37:32.098Z</time>
      </trkpt>
      <trkpt lat="47.2101" lon="-1.74331">
        <ele>54.1</ele>
        <time>2016-04-10T14:37:40.083Z</time>
      </trkpt>
      <trkpt lat="47.21011" lon="-1.74329">
        <ele>54.1</ele>
        <time>2016-04-10T14:37:41.068Z</time>
      </trkpt>
      <trkpt lat="47.21015" lon="-1.74319">
        <ele>54.2</ele>
        <time>2016-04-10T14:37:48.160Z</time>
      </trkpt>
      <trkpt lat="47.21016" lon="-1.74318">
        <ele>54.2</ele>
        <time>2016-04-10T14:37:49.110Z</time>
      </trkpt>
      <trkpt lat="47.2102" lon="-1.74307">
        <ele>54.7</ele>
        <time>2016-04-10T14:37:57.183Z</time>
      </trkpt>
      <trkpt lat="47.2102" lon="-1.74305">
        <ele>54.8</ele>
        <time>2016-04-10T14:37:58.031Z</time>
      </trkpt>
      <trkpt lat="47.21024" lon="-1.74296">
        <ele>55.2</ele>
        <time>2016-04-10T14:38:04.230Z</time>
      </trkpt>
      <trkpt lat="47.21025" lon="-1.74294">
        <ele>55.2</ele>
        <time>2016-04-10T14:38:05.093Z</time>
      </trkpt>
      <trkpt lat="47.2103" lon="-1.74283">
        <ele>55.4</ele>
        <time>2016-04-10T14:38:11.187Z</time>
      </trkpt>
      <trkpt lat="47.2103" lon="-1.74281">
        <ele>55.5</ele>
        <time>2016-04-10T14:38:12.021Z</time>
      </trkpt>
      <trkpt lat="47.21035" lon="-1.74272">
        <ele>55.5</ele>
        <time>2016-04-10T14:38:18.129Z</time>
      </trkpt>
      <trkpt lat="47.21036" lon="-1.7427">
        <ele>55.5</ele>
        <time>2016-04-10T14:38:19.093Z</time>
      </trkpt>
      <trkpt lat="47.2104" lon="-1.7426">
        <ele>55.6</ele>
        <time>2016-04-10T14:38:26.201Z</time>
      </trkpt>
      <trkpt lat="47.21041" lon="-1.74259">
        <ele>55.6</ele>
        <time>2016-04-10T14:38:27.091Z</time>
      </trkpt>
      <trkpt lat="47.21045" lon="-1.74248">
        <ele>55.7</ele>
        <time>2016-04-10T14:38:34.472Z</time>
      </trkpt>
      <trkpt lat="47.21046" lon="-1.74246">
        <ele>55.7</ele>
        <time>2016-04-10T14:38:35.018Z</time>
      </trkpt>
      <trkpt lat="47.2105" lon="-1.74237">
        <ele>55.7</ele>
        <time>2016-04-10T14:38:41.207Z</time>
      </trkpt>
      <trkpt lat="47.21051" lon="-1.74235">
        <ele>55.7</ele>
        <time>2016-04-10T14:38:42.093Z</time>
      </trkpt>
      <trkpt lat="47.21057" lon="-1.74226">
        <ele>55.5</ele>
        <time>2016-04-10T14:38:49.223Z</time>
      </trkpt>
      <trkpt lat="47.21058" lon="-1.74224">
        <ele>55.5</ele>
        <time>2016-04-10T14:38:50.028Z</time>
      </trkpt>
      <trkpt lat="47.21064" lon="-1.74215">
        <ele>55.3</ele>
        <time>2016-04-10T14:38:58.136Z</time>
      </trkpt>
      <trkpt lat="47.21065" lon="-1.74214">
        <ele>55.3</ele>
        <time>2016-04-10T14:38:59.111Z</time>
      </trkpt>
      <trkpt lat="47.21072" lon="-1.74206">
        <ele>55.6</ele>
        <time>2016-04-10T14:39:06.180Z</time>
      </trkpt>
      <trkpt lat="47.21072" lon="-1.74205">
        <ele>55.6</ele>
        <time>2016-04-10T14:39:07.082Z</time>
      </trkpt>
      <trkpt lat="47.21078" lon="-1.74197">
        <ele>55.7</ele>
        <time>2016-04-10T14:39:14.203Z</time>
      </trkpt>
      <trkpt lat="47.21079" lon="-1.74195">
        <ele>55.7</ele>
        <time>2016-04-10T14:39:15.014Z</time>
      </trkpt>
      <trkpt lat="47.21085" lon="-1.74187">
        <ele>55.3</ele>
        <time>2016-04-10T14:39:21.154Z</time>
      </trkpt>
      <trkpt lat="47.21086" lon="-1.74185">
        <ele>55.3</ele>
        <time>2016-04-10T14:39:22.095Z</time>
      </trkpt>
      <trkpt lat="47.21092" lon="-1.74178">
        <ele>54.8</ele>
        <time>2016-04-10T14:39:28.208Z</time>
      </trkpt>
      <trkpt lat="47.21093" lon="-1.74177">
        <ele>54.7</ele>
        <time>2016-04-10T14:39:29.048Z</time>
      </trkpt>
      <trkpt lat="47.211" lon="-1.74168">
        <ele>54.3</ele>
        <time>2016-04-10T14:39:36.130Z</time>
      </trkpt>
      <trkpt lat="47.211" lon="-1.74167">
        <ele>54.3</ele>
        <time>2016-04-10T14:39:37.001Z</time>
      </trkpt>
      <trkpt lat="47.21106" lon="-1.74159">
        <ele>53.9</ele>
        <time>2016-04-10T14:39:43.097Z</time>
      </trkpt>
      <trkpt lat="47.21107" lon="-1.74158">
        <ele>53.9</ele>
        <time>2016-04-10T14:39:44.337Z</time>
      </trkpt>
      <trkpt lat="47.21112" lon="-1.7415">
        <ele>53.6</ele>
        <time>2016-04-10T14:39:50.234Z</time>
      </trkpt>
      <trkpt lat="47.21113" lon="-1.74148">
        <ele>53.5</ele>
        <time>2016-04-10T14:39:51.027Z</time>
      </trkpt>
      <trkpt lat="47.21119" lon="-1.7414">
        <ele>53.1</ele>
        <time>2016-04-10T14:39:59.158Z</time>
      </trkpt>
      <trkpt lat="47.2112" lon="-1.74138">
        <ele>53</ele>
        <time>2016-04-10T14:40:00.117Z</time>
      </trkpt>
      <trkpt lat="47.21126" lon="-1.74129">
        <ele>52.6</ele>
        <time>2016-04-10T14:40:06.434Z</time>
      </trkpt>
      <trkpt lat="47.21127" lon="-1.74128">
        <ele>52.5</ele>
        <time>2016-04-10T14:40:07.097Z</time>
      </trkpt>
      <trkpt lat="47.21133" lon="-1.74119">
        <ele>51.9</ele>
        <time>2016-04-10T14:40:13.190Z</time>
      </trkpt>
      <trkpt lat="47.21134" lon="-1.74117">
        <ele>51.9</ele>
        <time>2016-04-10T14:40:14.055Z</time>
      </trkpt>
      <trkpt lat="47.2114" lon="-1.74109">
        <ele>51.5</ele>
        <time>2016-04-10T14:40:20.072Z</time>
      </trkpt>
      <trkpt lat="47.21141" lon="-1.74108">
        <ele>51.4</ele>
        <time>2016-04-10T14:40:21.023Z</time>
      </trkpt>
      <trkpt lat="47.21148" lon="-1.741">
        <ele>51</ele>
        <time>2016-04-10T14:40:27.115Z</time>
      </trkpt>
      <trkpt lat="47.2115" lon="-1.74099">
        <ele>51</ele>
        <time>2016-04-10T14:40:28.042Z</time>
      </trkpt>
      <trkpt lat="47.21155" lon="-1.7409">
        <ele>50.8</ele>
        <time>2016-04-10T14:40:34.107Z</time>
      </trkpt>
      <trkpt lat="47.21156" lon="-1.74089">
        <ele>50.7</ele>
        <time>2016-04-10T14:40:35.056Z</time>
      </trkpt>
      <trkpt lat="47.2116" lon="-1.74079">
        <ele>50.8</ele>
        <time>2016-04-10T14:40:42.121Z</time>
      </trkpt>
      <trkpt lat="47.21161" lon="-1.74077">
        <ele>50.8</ele>
        <time>2016-04-10T14:40:43.091Z</time>
      </trkpt>
      <trkpt lat="47.21168" lon="-1.74069">
        <ele>50.6</ele>
        <time>2016-04-10T14:40:50.107Z</time>
      </trkpt>
      <trkpt lat="47.21168" lon="-1.74068">
        <ele>50.5</ele>
        <time>2016-04-10T14:40:51.052Z</time>
      </trkpt>
      <trkpt lat="47.21165" lon="-1.74056">
        <ele>50.4</ele>
        <time>2016-04-10T14:41:05.091Z</time>
      </trkpt>
      <trkpt lat="47.21165" lon="-1.74055">
        <ele>50.4</ele>
        <time>2016-04-10T14:41:06.061Z</time>
      </trkpt>
      <trkpt lat="47.21164" lon="-1.74044">
        <ele>50.6</ele>
        <time>2016-04-10T14:41:12.081Z</time>
      </trkpt>
      <trkpt lat="47.21164" lon="-1.74041">
        <ele>50.7</ele>
        <time>2016-04-10T14:41:13.045Z</time>
      </trkpt>
      <trkpt lat="47.21164" lon="-1.74029">
        <ele>50.8</ele>
        <time>2016-04-10T14:41:20.163Z</time>
      </trkpt>
      <trkpt lat="47.21164" lon="-1.74027">
        <ele>50.8</ele>
        <time>2016-04-10T14:41:21.071Z</time>
      </trkpt>
      <trkpt lat="47.2116" lon="-1.74016">
        <ele>50.8</ele>
        <time>2016-04-10T14:41:28.078Z</time>
      </trkpt>
      <trkpt lat="47.2116" lon="-1.74014">
        <ele>50.8</ele>
        <time>2016-04-10T14:41:29.095Z</time>
      </trkpt>
      <trkpt lat="47.21159" lon="-1.74002">
        <ele>50.8</ele>
        <time>2016-04-10T14:41:38.186Z</time>
      </trkpt>
      <trkpt lat="47.21158" lon="-1.74">
        <ele>50.8</ele>
        <time>2016-04-10T14:41:39.030Z</time>
      </trkpt>
      <trkpt lat="47.21158" lon="-1.73989">
        <ele>51.1</ele>
        <time>2016-04-10T14:41:45.210Z</time>
      </trkpt>
      <trkpt lat="47.21157" lon="-1.73987">
        <ele>51.1</ele>
        <time>2016-04-10T14:41:46.063Z</time>
      </trkpt>
      <trkpt lat="47.21155" lon="-1.73977">
        <ele>51.2</ele>
        <time>2016-04-10T14:41:52.135Z</time>
      </trkpt>
      <trkpt lat="47.21154" lon="-1.73974">
        <ele>51.2</ele>
        <time>2016-04-10T14:41:53.057Z</time>
      </trkpt>
      <trkpt lat="47.21152" lon="-1.73962">
        <ele>51.1</ele>
        <time>2016-04-10T14:42:00.360Z</time>
      </trkpt>
      <trkpt lat="47.21152" lon="-1.7396">
        <ele>51.2</ele>
        <time>2016-04-10T14:42:01.003Z</time>
      </trkpt>
      <trkpt lat="47.21151" lon="-1.73949">
        <ele>51</ele>
        <time>2016-04-10T14:42:07.084Z</time>
      </trkpt>
      <trkpt lat="47.21151" lon="-1.73947">
        <ele>51</ele>
        <time>2016-04-10T14:42:08.089Z</time>
      </trkpt>
      <trkpt lat="47.2115" lon="-1.73935">
        <ele>50.8</ele>
        <time>2016-04-10T14:42:16.142Z</time>
      </trkpt>
      <trkpt lat="47.21149" lon="-1.73933">
        <ele>50.7</ele>
        <time>2016-04-10T14:42:17.113Z</time>
      </trkpt>
      <trkpt lat="47.21152" lon="-1.73922">
        <ele>50.8</ele>
        <time>2016-04-10T14:42:27.250Z</time>
      </trkpt>
      <trkpt lat="47.21153" lon="-1.73921">
        <ele>50.8</ele>
        <time>2016-04-10T14:42:28.058Z</time>
      </trkpt>
      <trkpt lat="47.2116" lon="-1.73913">
        <ele>50.8</ele>
        <time>2016-04-10T14:42:36.219Z</time>
      </trkpt>
      <trkpt lat="47.21161" lon="-1.73912">
        <ele>50.8</ele>
        <time>2016-04-10T14:42:37.096Z</time>
      </trkpt>
      <trkpt lat="47.21169" lon="-1.73907">
        <ele>50.9</ele>
        <time>2016-04-10T14:42:44.063Z</time>
      </trkpt>
      <trkpt lat="47.21171" lon="-1.73906">
        <ele>50.9</ele>
        <time>2016-04-10T14:42:45.054Z</time>
      </trkpt>
      <trkpt lat="47.21178" lon="-1.73902">
        <ele>50.9</ele>
        <time>2016-04-10T14:42:51.121Z</time>
      </trkpt>
      <trkpt lat="47.21179" lon="-1.73902">
        <ele>50.8</ele>
        <time>2016-04-10T14:42:52.057Z</time>
      </trkpt>
      <trkpt lat="47.21185" lon="-1.73891">
        <ele>50.4</ele>
        <time>2016-04-10T14:43:01.184Z</time>
      </trkpt>
      <trkpt lat="47.21184" lon="-1.73891">
        <ele>50.3</ele>
        <time>2016-04-10T14:43:02.028Z</time>
      </trkpt>
      <trkpt lat="47.21181" lon="-1.7388">
        <ele>49.8</ele>
        <time>2016-04-10T14:43:09.170Z</time>
      </trkpt>
      <trkpt lat="47.2118" lon="-1.73879">
        <ele>49.9</ele>
        <time>2016-04-10T14:43:10.176Z</time>
      </trkpt>
      <trkpt lat="47.21177" lon="-1.73868">
        <ele>50.2</ele>
        <time>2016-04-10T14:43:18.219Z</time>
      </trkpt>
      <trkpt lat="47.21177" lon="-1.73866">
        <ele>50.2</ele>
        <time>2016-04-10T14:43:19.093Z</time>
      </trkpt>
      <trkpt lat="47.21176" lon="-1.73853">
        <ele>50.5</ele>
        <time>2016-04-10T14:43:26.157Z</time>
      </trkpt>
      <trkpt lat="47.21176" lon="-1.73851">
        <ele>50.6</ele>
        <time>2016-04-10T14:43:27.106Z</time>
      </trkpt>
      <trkpt lat="47.21176" lon="-1.73839">
        <ele>50.9</ele>
        <time>2016-04-10T14:43:34.148Z</time>
      </trkpt>
      <trkpt lat="47.21176" lon="-1.73836">
        <ele>51</ele>
        <time>2016-04-10T14:43:35.059Z</time>
      </trkpt>
      <trkpt lat="47.21181" lon="-1.73828">
        <ele>51.5</ele>
        <time>2016-04-10T14:43:43.457Z</time>
      </trkpt>
      <trkpt lat="47.21183" lon="-1.73827">
        <ele>51.5</ele>
        <time>2016-04-10T14:43:44.080Z</time>
      </trkpt>
      <trkpt lat="47.21191" lon="-1.73821">
        <ele>51.6</ele>
        <time>2016-04-10T14:43:50.094Z</time>
      </trkpt>
      <trkpt lat="47.21192" lon="-1.73821">
        <ele>51.6</ele>
        <time>2016-04-10T14:43:51.220Z</time>
      </trkpt>
      <trkpt lat="47.212" lon="-1.73817">
        <ele>51.4</ele>
        <time>2016-04-10T14:43:58.181Z</time>
      </trkpt>
      <trkpt lat="47.21201" lon="-1.73816">
        <ele>51.3</ele>
        <time>2016-04-10T14:43:59.101Z</time>
      </trkpt>
      <trkpt lat="47.2121" lon="-1.73812">
        <ele>51.2</ele>
        <time>2016-04-10T14:44:06.323Z</time>
      </trkpt>
      <trkpt lat="47.21211" lon="-1.73811">
        <ele>51.2</ele>
        <time>2016-04-10T14:44:07.093Z</time>
      </trkpt>
      <trkpt lat="47.21218" lon="-1.73804">
        <ele>51.3</ele>
        <time>2016-04-10T14:44:16.117Z</time>
      </trkpt>
      <trkpt lat="47.21218" lon="-1.73803">
        <ele>51.3</ele>
        <time>2016-04-10T14:44:17.056Z</time>
      </trkpt>
      <trkpt lat="47.21218" lon="-1.73791">
        <ele>51.4</ele>
        <time>2016-04-10T14:44:25.099Z</time>
      </trkpt>
      <trkpt lat="47.21218" lon="-1.73789">
        <ele>51.4</ele>
        <time>2016-04-10T14:44:26.059Z</time>
      </trkpt>
      <trkpt lat="47.21215" lon="-1.73777">
        <ele>51.5</ele>
        <time>2016-04-10T14:44:34.099Z</time>
      </trkpt>
      <trkpt lat="47.21215" lon="-1.73776">
        <ele>51.5</ele>
        <time>2016-04-10T14:44:35.056Z</time>
      </trkpt>
      <trkpt lat="47.21215" lon="-1.73763">
        <ele>51.6</ele>
        <time>2016-04-10T14:44:42.156Z</time>
      </trkpt>
      <trkpt lat="47.21215" lon="-1.73762">
        <ele>51.7</ele>
        <time>2016-04-10T14:44:43.104Z</time>
      </trkpt>
      <trkpt lat="47.21219" lon="-1.73751">
        <ele>52.2</ele>
        <time>2016-04-10T14:44:52.181Z</time>
      </trkpt>
      <trkpt lat="47.21219" lon="-1.7375">
        <ele>52.2</ele>
        <time>2016-04-10T14:44:53.031Z</time>
      </trkpt>
      <trkpt lat="47.21221" lon="-1.73738">
        <ele>51.9</ele>
        <time>2016-04-10T14:45:01.084Z</time>
      </trkpt>
      <trkpt lat="47.21221" lon="-1.73736">
        <ele>51.9</ele>
        <time>2016-04-10T14:45:02.026Z</time>
      </trkpt>
      <trkpt lat="47.21219" lon="-1.73723">
        <ele>52</ele>
        <time>2016-04-10T14:45:11.204Z</time>
      </trkpt>
      <trkpt lat="47.21218" lon="-1.73722">
        <ele>52</ele>
        <time>2016-04-10T14:45:12.059Z</time>
      </trkpt>
      <trkpt lat="47.21215" lon="-1.7371">
        <ele>52.2</ele>
        <time>2016-04-10T14:45:20.204Z</time>
      </trkpt>
      <trkpt lat="47.21215" lon="-1.73708">
        <ele>52.2</ele>
        <time>2016-04-10T14:45:21.058Z</time>
      </trkpt>
      <trkpt lat="47.21211" lon="-1.73696">
        <ele>52.5</ele>
        <time>2016-04-10T14:45:29.190Z</time>
      </trkpt>
      <trkpt lat="47.2121" lon="-1.73694">
        <ele>52.5</ele>
        <time>2016-04-10T14:45:30.102Z</time>
      </trkpt>
      <trkpt lat="47.21206" lon="-1.73683">
        <ele>52.5</ele>
        <time>2016-04-10T14:45:36.144Z</time>
      </trkpt>
      <trkpt lat="47.21206" lon="-1.73681">
        <ele>52.5</ele>
        <time>2016-04-10T14:45:37.036Z</time>
      </trkpt>
      <trkpt lat="47.21204" lon="-1.73669">
        <ele>51.8</ele>
        <time>2016-04-10T14:45:46.119Z</time>
      </trkpt>
      <trkpt lat="47.21203" lon="-1.73668">
        <ele>51.8</ele>
        <time>2016-04-10T14:45:47.080Z</time>
      </trkpt>
      <trkpt lat="47.21201" lon="-1.73656">
        <ele>51.3</ele>
        <time>2016-04-10T14:45:54.038Z</time>
      </trkpt>
      <trkpt lat="47.21201" lon="-1.73655">
        <ele>51.3</ele>
        <time>2016-04-10T14:45:55.073Z</time>
      </trkpt>
      <trkpt lat="47.21199" lon="-1.73643">
        <ele>51</ele>
        <time>2016-04-10T14:46:03.139Z</time>
      </trkpt>
      <trkpt lat="47.21198" lon="-1.73642">
        <ele>50.9</ele>
        <time>2016-04-10T14:46:04.098Z</time>
      </trkpt>
      <trkpt lat="47.21194" lon="-1.73632">
        <ele>50.7</ele>
        <time>2016-04-10T14:46:12.512Z</time>
      </trkpt>
      <trkpt lat="47.21193" lon="-1.73631">
        <ele>50.7</ele>
        <time>2016-04-10T14:46:13.099Z</time>
      </trkpt>
      <trkpt lat="47.21196" lon="-1.73622">
        <ele>50.9</ele>
        <time>2016-04-10T14:46:20.141Z</time>
      </trkpt>
      <trkpt lat="47.21198" lon="-1.73618">
        <ele>50.9</ele>
        <time>2016-04-10T14:46:21.009Z</time>
      </trkpt>
      <trkpt lat="47.21201" lon="-1.73607">
        <ele>51</ele>
        <time>2016-04-10T14:46:25.236Z</time>
      </trkpt>
      <trkpt lat="47.21202" lon="-1.73606">
        <ele>51</ele>
        <time>2016-04-10T14:46:26.062Z</time>
      </trkpt>
      <trkpt lat="47.21206" lon="-1.73595">
        <ele>50.8</ele>
        <time>2016-04-10T14:46:34.486Z</time>
      </trkpt>
      <trkpt lat="47.21207" lon="-1.73594">
        <ele>50.8</ele>
        <time>2016-04-10T14:46:35.074Z</time>
      </trkpt>
      <trkpt lat="47.21213" lon="-1.73588">
        <ele>51</ele>
        <time>2016-04-10T14:46:41.101Z</time>
      </trkpt>
      <trkpt lat="47.21214" lon="-1.73587">
        <ele>51</ele>
        <time>2016-04-10T14:46:42.078Z</time>
      </trkpt>
      <trkpt lat="47.21223" lon="-1.73584">
        <ele>51</ele>
        <time>2016-04-10T14:46:52.125Z</time>
      </trkpt>
      <trkpt lat="47.21223" lon="-1.73585">
        <ele>51</ele>
        <time>2016-04-10T14:46:53.090Z</time>
      </trkpt>
      <trkpt lat="47.21227" lon="-1.73574">
        <ele>51.2</ele>
        <time>2016-04-10T14:47:24.134Z</time>
      </trkpt>
    </trkseg>
  </trk>
</gpx>